GFSMA_sfc_wetblb_000.txt.gz
Wetbulb
59.79 58.62 55.84 53.24 51.28 49.02 46.55 44.82 43.64 43.47 41.91 42.43 42.04 42.63 42.93 41.03 42.66 45.97 47.08 55.17 57.04 59.06 62.06 61.02 61.43 61.17 61.79 63.34 63.78 63.29 63.25 63.05 62.75 62.55 62.49 62.95 62.90 63.85 64.25 64.98 66.23 66.70 66.80
54.32 52.38 51.74 48.93 47.88 45.70 43.59 42.00 41.21 41.10 39.72 39.68 39.72 40.21 40.95 39.66 42.69 41.56 43.89 45.08 53.07 55.52 56.80 57.43 58.01 58.20 60.20 60.56 60.73 60.85 60.63 60.38 60.50 60.75 60.37 60.39 60.77 60.69 61.33 62.89 63.66 63.99 64.25
51.90 51.14 48.33 45.42 43.23 42.23 41.15 40.15 39.71 40.04 38.72 39.08 37.00 39.22 40.22 38.42 39.78 39.50 40.77 43.04 44.65 49.21 52.15 54.05 54.94 55.84 56.98 57.72 58.93 58.83 58.61 58.47 58.60 59.06 59.44 59.25 59.28 59.46 60.26 61.47 61.92 62.32 62.83
49.83 47.98 44.38 42.19 40.78 40.45 39.90 38.91 38.11 38.21 37.46 36.39 35.74 37.63 38.28 38.54 38.48 37.15 39.30 40.83 40.75 41.13 45.45 50.37 51.19 52.27 53.46 54.61 55.65 56.43 56.40 56.51 57.23 57.87 57.99 57.48 57.29 58.07 58.52 58.85 59.23 59.68 60.32
46.24 43.70 41.71 40.30 40.10 39.50 38.43 38.10 37.21 36.27 36.24 35.94 37.57 38.07 37.09 36.86 37.19 38.55 37.60 38.84 38.19 38.85 40.03 44.71 47.38 48.15 49.66 51.44 52.30 53.43 54.27 53.98 54.05 54.41 55.16 55.33 55.60 56.27 56.42 56.84 57.35 57.50 57.81
42.24 41.31 40.05 39.19 39.07 38.19 36.87 36.12 35.18 35.08 36.23 35.09 37.79 38.49 36.35 38.61 36.95 35.51 37.05 38.53 37.05 37.95 38.60 37.76 38.29 40.13 47.00 48.56 49.34 50.90 51.60 51.83 52.65 53.73 53.83 54.13 54.42 54.98 55.55 55.91 56.10 56.66 56.93
40.88 40.17 39.38 38.28 37.39 36.24 34.45 34.95 34.52 33.82 33.87 35.57 33.62 34.77 36.05 36.83 36.90 36.76 35.51 35.91 35.91 36.67 37.11 36.74 37.24 37.99 38.56 45.10 45.71 47.84 49.07 50.41 52.28 52.67 52.66 53.27 53.63 54.10 54.29 54.85 55.36 55.57 55.82
40.15 39.67 37.89 36.68 35.83 34.93 33.82 33.21 32.96 32.51 32.42 33.41 31.19 31.68 29.73 32.35 34.50 36.37 34.56 35.80 33.64 35.63 36.36 37.53 36.97 37.46 36.71 36.10 38.57 45.49 46.36 48.41 50.86 51.59 52.13 52.80 53.10 53.12 53.47 53.82 54.15 54.47 54.82
38.58 37.77 36.68 35.71 34.68 34.22 32.87 32.24 31.91 31.32 30.65 31.35 32.78 30.52 26.53 25.57 29.67 32.90 33.81 33.51 33.59 33.04 33.64 34.64 35.79 36.25 36.56 35.44 38.14 39.16 44.17 46.26 48.49 50.31 51.50 52.01 52.04 52.24 52.48 52.87 53.21 53.55 53.47
37.16 36.86 36.01 34.94 34.01 33.42 31.99 32.28 32.77 30.67 30.67 29.04 30.94 33.86 30.96 30.37 26.49 26.03 30.46 32.79 31.23 33.45 31.77 31.53 33.28 34.59 35.55 34.97 38.29 41.22 43.74 45.20 47.27 49.06 50.02 50.62 51.08 51.48 51.92 52.17 52.66 52.98 52.93
35.55 35.52 34.77 33.70 32.95 32.66 31.28 30.76 30.06 29.38 30.02 29.24 29.03 28.92 28.54 28.78 28.47 25.94 23.98 26.69 30.77 31.88 32.18 30.61 31.49 33.03 33.96 34.65 33.67 36.91 43.36 44.85 46.60 47.62 48.87 49.68 50.11 50.57 51.31 51.76 51.67 51.79 51.46
33.77 33.70 33.90 32.48 31.79 31.40 30.65 30.26 29.76 29.33 28.91 28.64 28.32 28.06 28.08 26.90 26.33 25.01 23.80 25.65 26.02 28.17 30.69 31.88 31.04 31.50 32.97 32.66 37.43 41.27 42.67 43.69 44.87 46.50 47.77 48.42 48.77 49.22 49.75 50.08 49.95 50.18 50.25
32.32 31.87 31.83 31.19 30.67 30.53 30.74 30.21 29.52 28.77 28.48 27.55 26.74 27.21 28.20 27.89 28.21 27.45 26.01 25.02 24.22 27.05 26.97 28.82 30.17 30.71 33.99 33.40 33.68 39.94 41.51 42.45 43.21 44.76 46.38 47.26 46.48 46.35 46.68 47.46 48.36 48.54 48.68
31.92 31.22 30.86 30.55 30.21 30.29 29.88 29.15 28.99 28.61 28.26 27.35 26.46 26.28 27.07 27.42 27.95 27.72 25.77 24.61 22.30 22.90 26.51 24.35 29.89 30.08 30.54 32.41 35.20 40.01 36.20 40.18 40.92 42.35 43.63 44.06 43.61 43.51 43.65 44.27 45.09 45.75 46.15
32.95 30.42 30.18 29.83 29.62 29.55 29.17 28.41 28.06 27.60 27.01 26.91 26.58 26.18 25.86 26.90 27.61 27.53 27.15 26.45 24.02 20.68 22.10 24.98 25.69 31.29 30.87 32.30 34.17 34.94 34.38 38.22 39.86 40.41 41.08 41.16 40.94 40.94 41.16 41.88 42.02 42.45 43.02
30.27 29.96 29.60 29.37 29.15 28.85 28.28 27.51 27.02 27.47 26.93 26.98 28.25 25.84 25.26 26.41 26.90 27.31 26.76 27.03 26.46 24.67 22.38 27.12 28.28 30.17 31.27 33.14 34.75 34.39 34.10 37.72 38.31 39.11 39.64 39.25 39.03 38.95 39.31 39.81 40.32 41.13 41.87
29.59 29.46 29.41 29.04 28.47 27.87 27.33 26.56 26.29 27.57 26.75 26.41 26.37 26.18 26.01 26.48 26.41 26.62 26.40 26.47 26.16 26.33 23.81 26.38 29.01 30.74 30.33 29.94 30.95 31.88 33.05 32.47 33.77 37.82 37.80 37.60 37.53 37.59 38.21 38.95 39.58 40.45 41.37
29.15 29.04 28.80 28.53 27.99 27.66 26.73 25.93 26.41 26.86 26.20 25.74 25.94 25.66 25.81 29.13 26.04 26.06 25.96 25.31 25.98 26.80 25.46 23.96 27.86 28.33 28.31 29.80 30.36 30.32 31.26 33.36 32.37 34.17 35.84 36.19 36.77 36.77 37.18 37.89 38.45 38.98 39.24
28.46 28.37 28.21 27.61 27.20 27.24 26.78 26.68 26.57 26.59 26.27 25.87 25.45 24.79 25.08 25.14 24.62 25.45 25.21 25.32 26.54 28.26 28.04 27.22 25.71 28.36 28.90 30.21 29.19 29.76 29.68 29.30 29.68 32.86 34.50 34.69 35.19 35.77 36.45 36.76 36.95 37.33 37.60
27.91 27.56 27.42 27.08 26.96 26.60 26.84 27.09 27.83 26.74 25.72 25.86 25.70 25.25 24.99 25.05 24.93 25.37 25.92 26.54 28.18 26.62 26.52 25.88 26.12 27.67 28.38 28.92 27.77 24.95 24.14 26.43 26.20 28.94 31.33 32.62 33.88 34.10 34.61 34.90 35.08 34.91 34.92
27.47 27.36 26.87 26.10 25.52 26.56 29.42 29.32 29.00 27.20 24.73 24.23 24.46 24.97 25.98 28.31 32.50 31.65 29.60 27.55 27.26 26.58 26.78 27.37 27.79 27.03 24.72 23.71 22.57 24.14 23.67 25.15 26.31 27.35 26.11 26.58 26.97 27.26 28.03 31.34 31.68 32.70 33.20
26.62 26.07 25.22 24.78 24.19 27.97 32.58 34.79 33.14 26.78 25.10 24.59 23.29 24.63 25.09 29.28 28.50 33.33 33.38 33.77 33.01 31.33 27.85 24.92 24.22 22.73 22.05 22.54 23.54 23.91 24.98 22.99 20.50 27.67 25.49 25.17 27.23 25.84 26.63 26.84 31.02 32.68 33.92
24.54 23.89 23.63 23.45 22.79 22.94 32.66 33.97 34.16 27.09 25.28 24.07 25.54 25.77 26.22 28.46 29.36 26.53 30.54 33.33 33.41 32.56 31.44 26.53 22.61 21.71 22.03 24.27 26.57 24.82 23.95 23.67 22.71 25.36 25.63 23.01 25.34 23.63 26.23 27.07 31.15 32.16 33.24
23.07 22.84 22.57 22.44 21.84 24.52 32.15 32.91 33.39 26.63 24.89 24.53 25.66 24.82 24.31 24.98 26.42 29.50 30.10 29.84 25.89 25.02 25.73 26.24 24.93 25.92 27.92 27.41 26.19 25.70 25.02 25.12 25.19 24.97 25.37 19.93 23.54 22.30 24.90 25.99 30.67 31.81 32.67
21.96 21.49 22.31 21.62 20.93 22.02 30.93 32.00 31.40 25.83 25.68 25.07 25.82 25.32 25.22 26.60 31.38 33.72 29.76 25.72 24.64 23.96 28.14 30.66 31.82 30.80 30.40 30.61 29.56 26.44 23.02 21.05 19.33 20.94 23.77 21.46 21.74 21.63 23.14 24.17 26.31 31.34 32.42
22.83 23.12 23.12 22.08 25.06 21.39 28.84 31.50 31.14 26.80 24.67 25.66 26.12 26.61 30.89 30.11 32.72 33.36 27.87 25.01 21.23 22.44 25.80 25.88 22.78 23.85 25.67 24.99 29.20 25.52 23.82 20.00 19.55 18.39 22.70 21.03 21.50 22.67 20.18 24.45 24.46 25.78 25.96

GFSMA_sfc_wetblb_003.txt.gz
Wetbulb
64.96 61.03 53.55 51.97 52.40 51.78 50.32 49.62 49.23 47.60 46.81 46.79 46.77 48.18 47.74 49.32 49.55 51.04 52.31 55.58 57.18 58.69 59.61 60.46 60.27 60.83 62.78 62.55 62.74 62.96 62.51 62.53 62.48 62.69 62.95 63.38 63.35 62.94 63.04 64.29 64.75 65.76 66.70
57.11 53.51 50.95 49.56 50.47 48.84 47.90 47.60 47.14 46.44 45.08 45.01 44.71 46.36 46.59 47.72 47.28 47.82 50.43 50.18 53.09 54.37 56.10 57.10 57.47 59.29 59.06 59.99 61.08 60.67 60.49 60.42 60.36 60.23 60.12 60.38 60.63 60.57 60.71 61.78 62.77 63.39 63.85
53.35 50.83 49.32 48.10 47.51 47.23 46.37 45.91 45.37 46.06 44.23 43.69 43.77 44.70 45.76 46.94 45.64 46.60 48.45 47.85 48.70 49.54 52.12 53.72 53.99 55.00 55.77 56.98 57.75 57.99 58.49 58.06 58.79 59.52 59.85 59.27 58.65 59.29 60.15 60.79 60.70 61.06 61.59
51.32 48.54 46.55 46.36 46.33 46.08 45.60 44.77 43.55 44.22 43.49 42.73 42.97 43.80 44.67 46.44 44.74 45.60 46.66 46.51 47.10 47.06 47.10 49.66 49.92 50.96 52.24 53.46 55.05 55.21 55.78 55.84 55.66 56.01 56.23 56.92 57.37 57.47 57.75 58.36 58.80 59.01 59.29
49.01 47.38 46.14 45.45 45.29 44.55 43.81 43.41 42.54 42.50 41.90 41.88 42.18 43.50 43.74 45.58 44.08 44.86 44.61 45.84 45.41 45.49 45.91 45.62 46.56 46.88 48.23 50.13 51.93 52.77 53.39 53.61 53.68 54.51 55.51 56.05 55.67 55.66 56.21 56.93 57.17 57.53 58.09
46.57 45.65 44.70 44.19 44.13 43.19 42.46 42.26 41.44 41.06 40.99 40.44 40.56 41.53 44.60 47.09 45.58 45.12 43.28 44.05 44.28 43.69 44.94 44.15 44.39 44.11 45.41 47.58 49.18 49.89 51.04 51.57 52.30 53.34 54.63 54.43 54.61 55.23 55.63 55.92 56.19 56.67 57.01
45.45 44.87 43.54 42.78 42.56 41.20 40.43 40.46 40.95 39.68 39.27 40.35 39.76 40.79 42.86 43.42 45.21 45.56 43.00 44.00 42.56 42.32 43.28 43.12 42.94 42.74 43.11 45.36 46.59 47.48 49.01 49.90 51.02 52.07 53.32 53.56 54.29 54.63 54.91 55.17 55.19 55.55 56.01
44.15 43.37 42.58 41.41 41.05 40.37 39.81 39.31 39.25 39.32 38.66 39.07 36.71 37.83 36.34 39.87 42.10 40.91 42.62 42.01 41.32 41.83 41.74 40.90 41.44 41.39 42.20 42.62 43.44 45.49 46.34 47.94 49.42 51.15 51.92 52.62 53.35 54.10 54.50 54.48 54.63 54.71 54.90
42.51 42.05 41.45 40.77 40.01 40.18 38.73 38.32 38.31 37.74 36.80 37.81 37.90 36.80 34.73 33.64 34.67 39.46 40.15 41.40 39.42 39.61 39.53 40.08 40.02 40.43 40.31 40.82 41.78 42.16 43.84 45.60 47.93 49.78 50.96 51.90 52.27 52.73 53.30 53.68 54.03 54.23 54.24
41.13 40.80 40.37 39.82 39.27 38.79 38.09 37.91 37.46 37.29 37.62 35.10 37.66 36.59 36.83 36.00 32.51 31.94 37.53 37.81 38.37 36.82 37.72 38.43 38.60 38.89 39.34 39.63 40.79 41.68 43.48 45.54 47.07 48.99 50.51 51.09 51.28 52.14 52.75 52.93 53.14 53.43 53.44
40.16 39.52 39.20 38.65 38.02 37.69 37.09 37.10 36.63 36.44 36.46 35.84 35.05 34.95 35.09 34.99 35.58 32.16 29.76 33.29 35.47 37.00 37.19 37.28 37.17 37.89 38.45 39.32 40.12 41.01 43.05 44.68 46.61 48.06 49.50 50.19 51.02 51.64 51.94 52.32 52.47 52.52 52.59
38.30 38.04 37.47 37.28 37.03 36.86 36.73 36.53 36.26 35.84 35.42 35.05 35.17 34.58 33.92 32.75 32.20 31.02 29.85 31.20 31.11 33.97 35.17 36.06 36.66 37.37 38.28 38.81 39.54 41.14 41.94 43.48 45.17 46.78 48.41 49.19 49.35 49.77 50.13 50.60 50.72 50.77 51.08
36.96 36.48 36.60 36.34 36.16 36.33 36.12 36.32 35.89 35.36 34.91 34.73 34.04 34.14 34.23 33.49 33.42 32.26 30.95 30.05 29.15 31.73 33.25 35.27 36.23 36.65 37.44 38.37 38.17 39.53 40.49 41.95 43.06 44.79 46.47 47.33 46.71 46.46 46.67 47.54 48.28 48.77 49.04
36.77 36.12 35.63 35.72 35.52 35.62 35.55 35.37 35.46 35.24 34.70 34.65 33.15 33.42 33.43 33.54 33.24 32.86 31.07 28.92 27.32 29.80 31.96 32.05 35.45 36.22 36.80 36.71 38.25 38.87 38.08 39.79 40.52 42.14 43.79 44.18 43.20 42.75 43.50 44.26 45.18 45.61 45.74
35.56 35.21 35.44 35.06 35.03 34.95 34.60 34.28 34.53 34.00 34.00 33.97 33.66 33.31 32.45 33.02 33.14 33.25 32.73 31.39 28.37 24.64 26.44 30.84 31.60 35.06 35.53 36.26 37.18 37.05 36.91 38.43 39.64 40.21 40.17 40.22 40.39 41.05 41.67 41.87 42.04 42.43 42.86
34.88 34.69 34.55 34.59 34.23 34.01 33.68 33.49 33.35 33.34 33.20 33.62 33.68 32.34 32.17 32.40 32.49 32.89 32.58 31.96 31.00 28.34 25.95 31.10 32.11 33.92 34.96 35.31 36.88 36.39 36.45 37.84 38.44 39.27 39.32 39.10 39.17 39.43 39.70 40.17 40.44 40.87 41.39
34.37 34.19 34.01 33.66 33.42 33.05 32.75 32.72 32.52 32.81 32.04 32.12 32.47 31.77 31.25 31.97 31.74 32.12 32.40 31.79 30.55 30.27 27.64 30.31 33.02 34.44 33.40 33.85 34.58 36.00 36.34 36.16 36.88 37.74 38.20 38.31 38.25 38.08 38.41 38.86 39.15 39.57 40.16
33.80 33.43 33.30 32.98 32.52 32.02 31.79 31.71 31.89 31.96 31.42 30.83 30.81 30.72 30.50 31.17 30.63 31.22 30.97 30.29 30.34 31.21 29.66 27.53 30.51 32.08 32.18 33.71 33.89 34.20 34.78 34.58 34.73 35.74 36.38 36.79 37.19 37.26 37.39 37.66 37.91 38.43 38.80
32.62 32.82 32.80 32.01 31.35 31.11 31.04 31.40 31.80 31.88 31.15 30.63 30.38 29.75 29.50 29.61 29.20 30.00 30.31 30.10 30.43 30.57 30.88 29.76 28.99 32.00 32.71 33.41 33.01 32.80 31.98 32.08 32.48 33.80 35.06 35.31 35.86 36.28 36.68 37.14 37.27 37.55 37.48
32.46 32.15 31.52 30.89 30.42 30.46 30.52 31.34 32.37 31.83 30.95 30.56 30.29 29.92 29.59 29.36 29.15 29.93 30.22 30.20 30.51 30.23 30.28 30.00 29.74 30.09 30.80 31.44 31.16 29.07 28.17 30.85 30.41 31.79 33.39 33.86 34.79 34.92 35.31 35.67 35.63 35.29 35.37
31.66 31.23 30.42 29.91 29.79 30.27 31.24 33.34 33.16 31.98 30.47 29.88 30.20 29.96 30.41 31.23 33.03 33.08 31.53 31.14 30.68 30.50 30.92 30.78 28.68 28.45 28.06 27.55 26.36 28.08 27.44 28.67 29.94 30.99 30.86 31.30 31.85 31.94 32.23 33.44 33.10 33.34 33.68
30.40 29.91 29.16 28.77 28.65 29.62 32.29 34.21 33.98 32.15 30.58 29.58 29.14 30.10 30.55 31.21 31.28 33.20 33.23 33.62 33.62 31.64 29.95 28.40 27.53 25.99 25.49 26.57 28.00 27.38 27.37 25.70 23.68 30.55 28.63 27.82 30.96 29.85 30.89 31.78 32.42 33.24 34.10
29.15 28.36 28.19 27.93 27.47 27.85 32.28 33.43 33.65 32.06 30.20 29.88 29.94 30.10 30.07 30.64 31.92 30.23 31.85 33.48 34.61 33.16 32.17 29.92 25.91 25.68 25.86 27.44 28.74 27.14 26.67 26.09 25.20 28.48 27.48 25.02 29.21 27.50 30.43 30.43 32.03 32.60 33.40
27.93 27.72 27.20 26.83 26.80 27.82 31.60 32.62 32.85 31.25 30.32 30.18 30.30 30.17 29.50 29.60 30.44 30.92 31.39 32.04 29.90 29.47 29.11 28.94 28.58 29.30 30.45 30.24 28.99 28.12 27.54 27.51 27.59 28.43 28.31 22.76 27.56 26.24 28.93 29.64 31.66 32.37 32.91
26.98 26.55 26.82 26.50 26.17 27.50 30.43 31.50 31.76 30.36 29.71 29.81 30.33 30.33 29.94 30.09 31.72 33.37 31.33 28.41 27.53 27.30 29.86 31.12 32.12 31.33 30.59 30.60 29.96 28.00 25.75 23.64 21.93 24.10 27.27 24.79 25.33 25.45 26.93 28.05 30.69 31.85 32.61
26.69 26.83 26.49 26.63 26.91 26.54 29.03 31.02 31.35 30.07 28.86 28.95 30.06 30.41 31.14 30.90 32.52 33.32 29.62 27.60 24.48 25.42 27.93 28.43 26.14 26.46 27.30 27.29 29.24 27.18 25.82 21.85 21.74 20.83 26.14 23.75 24.68 25.11 22.42 27.65 29.28 29.76 30.57

GFSMA_sfc_wetblb_006.txt.gz
Wetbulb
67.36 64.92 60.46 59.18 59.05 57.78 56.28 55.02 53.11 51.36 50.46 50.12 49.88 50.29 50.49 50.93 51.95 54.01 55.88 55.50 56.45 58.13 59.16 59.54 60.53 60.48 60.45 61.37 61.98 61.38 61.38 61.46 61.49 61.42 61.50 61.64 62.17 62.07 62.14 62.30 63.35 64.56 65.15
65.67 56.95 53.57 53.19 54.64 53.55 51.71 51.07 50.42 50.20 49.43 48.99 48.66 48.65 49.20 50.29 50.78 52.32 54.38 53.11 52.52 54.15 55.33 55.91 56.38 56.95 57.33 58.21 58.77 58.53 59.11 59.13 59.60 60.37 61.14 61.07 60.81 60.52 61.07 61.33 62.29 62.89 63.30
60.04 54.54 51.46 51.90 51.92 51.32 50.46 50.14 49.21 49.46 48.59 47.96 48.09 48.06 48.69 49.34 50.57 51.04 52.02 51.52 51.92 50.17 51.45 52.34 52.22 53.11 53.48 54.91 55.96 56.01 56.16 56.68 57.01 57.01 57.53 58.33 59.26 59.28 59.29 59.67 60.47 60.72 61.07
53.84 50.78 49.82 50.57 51.06 50.37 49.74 48.41 47.08 47.56 47.28 47.31 47.32 47.75 48.10 48.77 49.15 49.17 49.62 49.46 49.61 49.20 48.76 48.77 49.33 49.67 50.49 51.24 53.19 53.97 53.92 53.96 54.66 54.96 55.46 56.37 57.01 57.30 57.24 57.58 58.34 58.63 58.95
50.36 51.00 51.40 50.24 49.65 48.60 47.63 46.84 46.17 45.88 45.52 45.79 45.27 45.89 47.90 49.07 48.37 48.20 48.04 48.03 48.13 47.94 48.14 47.65 46.81 46.57 47.06 49.38 51.06 52.22 52.42 52.45 52.68 53.19 54.18 55.26 56.36 56.42 56.44 56.82 57.21 57.62 58.00
51.61 51.67 50.40 48.99 48.61 47.60 46.45 46.25 45.33 45.33 44.36 44.17 43.85 45.00 49.47 50.86 49.09 50.20 48.53 46.70 46.97 46.22 46.90 46.49 45.92 46.48 45.87 46.61 48.55 49.82 50.45 50.93 51.50 51.85 52.85 53.83 55.81 55.43 55.69 56.31 56.69 56.88 56.94
49.58 50.77 49.20 48.13 47.69 46.28 45.26 44.86 44.99 43.64 43.32 43.71 43.81 45.42 47.06 47.14 48.86 48.68 46.04 46.85 45.63 45.30 45.35 44.93 45.03 44.95 44.92 46.11 46.22 47.03 48.74 49.69 50.49 50.72 51.47 52.77 54.16 54.48 55.06 55.79 56.20 56.32 56.33
48.87 49.49 48.47 47.02 46.42 45.41 44.69 44.22 43.83 43.46 42.89 42.84 40.69 42.48 41.49 44.26 45.95 45.09 46.68 44.06 44.48 44.07 43.96 43.62 43.85 43.61 43.81 43.70 44.24 45.16 45.92 47.69 49.21 50.36 51.09 52.00 52.70 53.46 54.41 55.14 55.63 55.81 55.74
47.72 47.81 46.95 45.99 45.49 45.27 43.62 43.16 42.81 41.80 40.90 42.31 41.57 40.31 39.27 39.25 39.09 44.38 43.35 44.42 42.95 42.65 42.58 42.89 42.67 42.57 42.59 42.60 43.08 43.49 44.06 45.63 47.97 50.02 51.19 51.72 52.38 52.97 53.58 53.94 54.26 54.62 54.83
46.73 46.19 45.53 45.25 44.46 44.18 43.20 42.06 41.89 41.52 41.62 39.94 42.46 40.41 40.35 39.20 36.79 36.62 42.21 41.98 41.65 41.00 41.62 41.67 41.55 41.44 41.72 41.82 42.17 42.64 43.05 44.27 46.66 48.75 50.20 51.09 51.84 52.56 53.13 53.39 53.83 54.34 54.03
45.59 44.80 44.47 43.93 43.16 42.89 42.29 41.84 41.26 41.27 41.47 40.61 39.61 39.18 39.43 39.40 39.06 36.59 34.48 38.17 40.45 41.21 41.12 40.37 40.19 40.74 41.09 41.07 41.43 41.52 41.91 43.36 45.60 47.35 49.08 50.20 50.95 51.56 52.26 52.35 52.35 52.45 52.82
43.79 43.35 43.04 43.03 42.64 42.11 41.65 41.45 41.21 40.34 40.92 40.27 39.94 39.04 37.79 36.83 36.62 35.88 34.85 35.99 36.00 38.26 39.49 39.67 39.52 39.62 40.13 40.23 40.63 40.59 40.99 42.23 43.81 45.41 47.19 48.24 48.78 49.27 49.82 50.09 50.37 50.11 50.23
42.54 41.94 42.20 41.81 41.70 41.36 41.13 41.10 40.88 40.72 40.04 39.50 38.66 38.29 38.30 37.46 37.50 36.45 35.17 34.61 33.89 36.31 37.27 38.88 39.08 39.21 38.98 39.79 38.94 39.46 39.90 41.08 42.09 43.97 45.55 46.53 46.15 45.93 46.09 46.75 47.28 47.64 47.92
42.93 42.13 41.57 41.14 40.61 40.42 40.32 40.49 40.75 40.56 39.80 39.60 37.87 37.98 37.63 37.78 37.71 36.74 34.94 33.22 31.11 33.37 35.12 35.77 38.41 38.47 38.54 38.37 38.50 39.19 38.58 39.86 40.52 42.00 43.33 43.40 42.66 42.32 42.67 43.48 44.33 44.77 45.51
41.34 41.04 40.83 40.13 40.15 39.76 39.62 39.54 40.04 39.07 38.92 38.77 38.13 38.06 37.26 37.33 37.28 37.00 36.40 35.31 32.03 27.95 29.73 34.28 34.76 37.73 37.63 37.91 38.03 37.84 37.85 38.83 39.66 40.13 40.70 40.85 40.50 40.71 41.20 41.79 42.16 42.72 43.05
40.45 40.11 39.80 39.61 39.39 39.14 38.91 38.75 38.53 38.29 37.79 38.63 37.51 36.90 36.54 36.73 36.39 36.35 35.81 35.25 34.39 31.56 28.38 33.63 34.33 35.74 36.71 36.56 37.77 37.50 37.54 38.40 38.90 39.77 39.74 39.38 39.33 39.61 39.75 40.05 40.50 40.72 41.11
39.93 39.36 39.12 38.88 38.68 38.33 37.95 37.97 37.78 37.50 36.59 36.67 36.71 35.69 35.01 35.53 34.88 35.06 35.03 34.52 33.46 32.96 29.88 32.37 34.23 35.52 34.91 35.28 36.14 37.49 37.46 36.59 37.43 38.22 38.44 38.15 38.04 38.18 38.64 39.10 39.43 39.83 40.09
39.25 38.67 38.47 38.32 37.68 37.12 37.14 36.96 36.69 36.84 35.83 35.27 35.16 34.60 33.92 33.85 33.36 33.88 33.63 32.79 32.62 33.16 31.09 29.52 32.48 33.31 33.63 35.42 35.30 34.75 35.39 35.54 35.57 35.98 36.84 37.10 37.55 37.62 37.71 38.03 38.28 38.78 39.02
37.90 38.02 38.04 37.27 36.39 36.06 35.97 35.95 36.15 36.14 35.78 35.34 34.60 33.72 33.00 32.60 32.08 32.75 32.58 32.43 33.00 32.88 32.87 31.85 31.33 34.31 34.92 34.73 34.06 34.33 33.51 33.48 34.01 35.29 36.34 36.52 37.00 37.19 37.37 37.60 37.80 37.85 37.71
37.56 37.22 36.94 35.99 35.46 35.35 34.96 35.05 35.88 36.05 35.73 35.05 34.43 33.83 32.96 32.37 32.12 32.36 32.56 32.80 32.69 32.14 32.04 31.64 32.16 32.73 32.57 33.57 33.25 31.38 29.79 32.26 32.00 33.29 34.97 35.17 36.11 36.08 36.47 36.67 36.44 36.03 35.89
36.79 36.53 35.56 35.06 35.11 34.90 34.61 35.58 36.33 35.95 34.99 34.28 34.11 33.76 33.45 33.31 33.27 33.78 32.73 32.09 31.79 31.00 32.04 31.38 30.76 30.60 30.56 30.45 29.12 30.46 29.56 30.66 31.53 32.34 32.72 33.09 33.70 33.68 34.19 35.18 34.64 34.68 34.88
35.54 35.14 34.55 34.14 34.10 33.57 32.13 34.01 34.67 34.64 34.43 33.41 32.58 33.06 33.57 33.49 33.38 34.10 33.90 33.73 32.90 31.49 31.50 30.84 29.38 28.04 27.81 28.93 29.84 29.65 29.00 27.60 25.56 32.27 30.62 29.92 32.96 31.70 33.21 34.02 34.36 34.70 34.77
34.62 34.08 33.82 33.48 32.91 32.85 31.83 33.37 33.87 33.95 33.46 32.81 32.44 32.41 32.40 32.91 33.40 31.99 32.43 33.68 34.24 35.17 33.67 31.40 27.68 27.64 27.66 29.25 30.35 29.56 28.28 27.37 26.95 30.13 29.79 27.38 31.46 30.42 33.13 33.18 33.97 34.27 34.62
33.70 33.76 33.11 32.47 32.05 32.02 31.16 32.40 33.14 33.48 32.98 32.81 32.74 32.60 32.07 32.08 32.10 31.74 31.64 32.44 31.77 31.60 31.45 30.69 29.88 30.35 31.14 31.61 30.25 29.17 28.40 28.35 29.43 30.34 30.53 25.37 30.13 29.09 32.13 32.65 33.64 34.35 34.54
33.19 32.80 32.25 31.45 31.08 31.73 30.26 31.49 32.31 32.42 32.20 32.09 32.54 32.72 32.10 31.31 32.41 33.41 31.72 30.62 29.53 29.70 31.72 32.17 33.01 33.43 32.50 31.95 31.12 28.74 27.20 25.79 24.09 25.71 29.00 27.24 28.07 27.78 29.28 30.53 32.85 34.00 34.57
32.04 32.06 31.08 31.33 29.84 30.51 30.36 31.03 31.87 31.75 30.99 31.23 32.10 32.46 32.77 32.30 33.00 33.43 31.26 28.81 27.23 27.46 28.65 30.28 29.75 29.34 30.05 29.99 31.10 29.58 28.68 24.86 23.90 22.53 28.05 25.49 26.08 26.00 23.82 29.60 31.79 31.97 33.20

GFSMA_sfc_wetblb_009.txt.gz
Wetbulb
66.04 66.22 64.17 62.90 61.16 59.56 57.64 55.70 53.31 52.36 51.72 51.04 50.77 50.10 50.44 50.48 51.45 52.78 54.78 55.95 56.30 57.63 58.53 58.80 59.20 58.90 59.16 59.62 59.97 59.56 59.81 60.34 60.36 60.68 61.50 62.17 62.04 61.73 61.91 62.40 62.57 63.61 64.24
66.14 62.99 59.47 58.89 57.47 55.41 53.08 52.22 51.33 51.02 50.38 49.78 49.15 49.22 49.39 50.13 50.29 51.56 53.46 51.93 53.06 54.05 54.71 54.97 54.95 55.19 55.52 56.16 56.62 56.81 56.96 57.13 57.79 58.06 58.21 58.71 59.58 60.36 60.43 60.44 61.16 62.00 62.05
63.32 59.46 56.41 55.17 54.31 53.08 52.15 51.20 49.84 50.15 49.49 48.97 48.73 49.00 48.81 48.89 49.68 50.31 51.65 51.91 51.62 51.65 50.99 51.51 51.89 52.12 52.73 53.56 54.17 54.73 54.68 54.82 54.92 55.65 56.07 56.40 57.12 57.93 58.32 58.75 59.08 59.72 60.22
60.64 56.51 54.84 54.32 53.06 51.80 51.09 49.58 48.32 48.44 48.28 47.70 47.18 47.39 48.19 48.81 48.93 49.09 50.05 49.68 50.31 49.21 50.25 48.88 48.89 49.44 49.88 51.58 53.15 53.76 53.86 53.48 53.42 53.94 54.48 55.05 55.70 56.69 57.74 57.80 57.65 57.75 58.36
54.87 51.41 52.36 52.52 51.54 50.46 49.57 48.71 48.02 47.03 45.98 46.03 45.84 46.72 48.91 49.21 49.05 48.18 48.26 48.54 48.84 48.56 48.56 50.30 48.73 48.91 47.58 48.75 50.67 52.05 52.83 52.46 52.61 52.83 53.35 53.67 54.54 55.42 57.22 56.96 56.87 57.51 57.86
52.92 54.26 52.58 51.31 50.86 49.81 48.91 48.55 47.26 46.99 45.23 44.48 44.17 46.05 49.20 49.89 49.76 49.07 49.29 46.89 47.41 47.18 47.55 47.60 46.25 46.96 48.82 47.75 48.86 49.37 50.66 51.23 51.35 51.82 52.32 52.65 53.36 54.34 55.85 56.39 56.37 56.95 57.34
52.60 52.64 51.89 50.51 50.49 48.96 47.70 47.48 47.23 45.35 44.33 44.34 45.43 46.04 47.91 46.72 48.61 49.70 46.56 46.61 46.77 45.63 45.85 45.19 45.13 45.06 44.71 46.98 47.00 47.41 48.76 49.66 50.60 51.13 51.67 52.33 52.82 53.60 54.55 55.14 55.59 56.19 56.67
50.77 51.09 51.35 49.99 49.08 48.11 47.16 46.43 45.67 44.86 44.15 43.73 40.95 44.13 42.63 44.87 45.96 45.71 46.18 45.34 44.83 45.18 44.51 44.24 43.96 43.66 43.64 43.52 44.35 45.74 46.70 48.19 49.29 50.36 51.10 51.86 52.75 53.43 54.01 54.74 55.16 55.43 55.59
49.47 49.68 50.21 48.98 48.52 48.21 45.99 45.22 44.79 43.22 42.26 43.53 42.52 40.70 39.59 39.77 39.62 45.45 45.40 44.46 44.68 43.51 43.58 43.81 43.18 43.01 42.48 42.49 43.21 43.23 44.37 45.07 47.27 49.29 50.25 50.90 51.58 52.39 53.36 54.10 54.58 54.89 54.99
47.38 48.60 48.49 47.92 47.29 46.69 45.23 43.63 43.48 42.97 43.43 41.06 42.89 41.22 40.87 39.75 36.51 36.31 43.59 43.41 43.46 41.78 42.73 42.66 42.04 41.37 41.76 41.78 42.63 43.23 43.43 43.73 46.25 48.11 49.47 50.06 50.90 51.82 52.75 53.18 53.56 53.88 53.93
46.67 47.13 47.13 46.80 45.87 45.41 44.53 43.69 43.09 42.21 41.98 41.11 40.30 39.73 39.76 40.25 39.92 36.79 34.77 38.55 41.02 42.21 42.32 41.64 41.12 40.80 41.10 41.18 40.50 41.85 42.78 43.38 45.16 46.76 48.01 49.04 49.80 50.55 51.23 51.49 51.91 52.02 51.98
45.03 46.07 45.86 45.59 45.12 44.14 43.43 42.97 42.71 42.03 41.31 40.67 40.19 39.57 38.33 37.20 37.02 36.59 35.27 35.80 35.83 38.76 40.31 40.45 40.26 40.13 40.44 39.90 40.69 41.74 41.56 42.39 43.99 45.50 46.96 47.99 48.41 48.68 49.15 49.54 49.63 49.61 49.77
43.58 44.31 44.88 44.02 43.78 43.39 42.90 42.71 42.11 41.51 40.91 40.03 39.48 38.96 39.09 38.35 38.46 37.29 35.76 34.63 33.96 36.52 37.29 39.50 39.67 39.93 39.48 39.62 39.09 40.38 40.60 41.64 42.68 44.39 45.96 46.95 46.23 45.63 45.83 46.31 47.10 47.31 47.46
44.91 44.51 44.20 43.82 42.74 42.11 41.84 41.84 41.59 41.19 40.44 40.08 39.46 39.32 38.68 38.62 38.89 37.89 35.71 33.66 30.93 32.80 34.90 35.20 38.30 38.71 38.62 38.38 38.93 40.42 37.95 40.48 41.31 42.73 43.88 44.10 43.43 43.25 43.51 44.13 44.82 44.92 45.28
44.50 43.60 43.09 42.14 41.78 41.41 41.29 40.99 40.63 39.71 39.34 39.63 39.23 39.32 38.50 38.63 38.49 37.84 36.98 35.71 32.27 27.88 29.16 33.65 34.17 37.68 37.57 37.41 38.14 37.27 36.85 39.43 40.86 41.37 41.56 41.47 41.25 41.45 41.73 42.11 42.45 42.79 42.96
43.16 42.33 41.77 41.40 40.93 40.65 40.43 39.98 39.51 39.26 38.40 39.27 38.94 37.63 37.36 37.51 37.14 36.99 36.18 35.59 34.49 31.54 27.88 33.05 33.94 35.25 36.24 36.78 37.45 36.71 37.03 39.07 39.58 40.13 40.10 40.00 40.10 39.94 40.07 40.40 40.83 41.31 41.70
42.10 41.28 40.92 40.44 40.12 39.94 39.56 38.91 38.65 38.59 37.77 37.91 37.96 37.21 35.92 36.21 35.34 35.06 34.99 34.47 33.24 32.67 28.92 31.35 33.80 35.15 34.29 34.25 35.11 36.36 36.66 35.73 35.80 38.81 39.16 38.87 38.78 38.94 39.36 39.76 40.14 40.41 40.79
41.38 40.55 40.19 39.84 39.44 38.85 38.29 37.90 37.64 38.06 37.16 36.39 36.30 36.37 35.17 35.15 33.74 33.95 33.66 32.81 32.45 32.72 30.91 28.70 31.98 32.39 33.14 33.99 35.02 34.69 34.99 35.82 34.51 36.50 37.95 38.36 38.64 38.70 38.88 39.08 39.21 39.40 39.78
39.82 39.53 39.62 38.87 38.09 37.47 37.12 37.24 36.98 36.91 36.83 36.42 35.91 34.84 33.99 33.48 32.19 32.72 32.66 32.18 32.78 33.46 32.62 30.53 29.43 32.07 32.72 34.31 33.52 33.34 32.89 33.15 34.14 35.87 37.01 37.42 37.68 37.99 38.16 38.58 38.77 38.88 38.79
38.97 38.93 38.62 37.67 36.86 36.50 36.13 36.04 36.47 36.58 36.61 36.56 35.92 35.13 34.03 33.16 32.07 32.07 31.70 31.87 32.38 31.08 31.06 29.51 29.23 29.99 31.95 32.35 31.65 29.74 28.90 30.99 30.64 33.21 34.75 35.28 36.56 36.85 37.45 37.59 37.30 37.06 37.00
38.44 37.97 36.88 36.33 36.13 35.72 35.47 34.64 35.67 35.83 35.39 35.14 35.09 34.65 34.45 34.68 34.31 34.20 32.70 32.09 31.34 29.91 29.60 28.97 28.96 29.81 28.16 27.90 27.21 28.75 27.75 28.77 29.59 30.94 29.77 30.63 31.44 31.05 31.86 34.86 34.78 35.59 36.11
36.71 36.33 35.77 35.17 34.77 34.73 32.94 34.07 34.64 33.69 33.88 33.62 33.01 33.24 33.62 34.29 34.17 34.92 35.15 34.63 33.27 30.32 29.70 29.98 28.71 26.46 26.97 27.37 28.03 27.64 27.23 26.99 22.90 30.22 28.49 27.60 30.09 29.39 30.77 31.57 35.30 35.99 36.28
36.00 35.19 34.48 34.15 33.74 34.07 32.30 33.41 34.13 32.99 32.59 33.12 32.71 32.46 32.35 33.25 33.63 32.47 33.20 33.93 33.77 34.90 34.68 30.39 27.70 27.05 26.23 27.57 28.31 27.45 27.11 25.63 24.75 27.51 27.38 25.37 29.18 27.88 30.35 31.61 34.96 35.69 35.79
34.63 34.13 33.58 33.31 33.14 33.48 31.27 32.29 33.28 32.25 32.63 32.96 32.94 32.60 31.93 31.82 32.18 32.10 31.33 30.84 31.89 31.25 30.99 30.97 29.58 28.96 29.59 30.77 31.37 29.17 27.50 26.64 27.15 28.19 29.02 23.17 27.19 25.89 29.33 30.08 33.80 34.82 35.72
33.33 33.04 32.76 32.69 32.09 32.03 31.26 31.55 32.12 31.28 31.35 31.56 32.72 32.70 32.42 31.88 33.46 34.21 31.41 29.91 29.28 28.95 32.20 32.87 32.84 33.60 34.14 33.52 32.18 28.81 25.41 24.85 23.42 24.62 27.55 24.65 25.55 25.64 26.42 26.98 29.71 34.38 35.78
32.17 32.13 31.82 32.13 31.68 30.58 32.03 31.46 31.72 30.56 29.65 30.48 31.43 31.79 33.82 32.75 34.14 34.04 31.06 28.60 26.19 26.65 27.48 28.42 29.15 29.51 30.11 29.83 32.22 29.71 27.96 24.48 23.45 21.98 26.01 24.30 24.23 24.56 21.91 26.47 27.94 28.58 29.56

GFSMA_sfc_wetblb_012.txt.gz
Wetbulb
61.77 61.81 60.01 58.63 55.36 52.99 50.89 48.37 47.36 46.91 45.95 45.71 44.90 44.43 44.39 44.25 44.62 48.01 50.85 57.49 57.28 57.72 58.09 58.01 57.94 57.61 57.38 57.47 57.76 57.80 57.89 58.01 58.43 58.67 58.80 59.06 59.53 60.45 61.21 61.40 61.56 62.43 62.83
62.45 57.16 55.16 53.94 50.92 49.00 47.69 46.54 44.90 44.72 44.11 43.74 44.04 43.67 43.27 43.95 44.53 45.48 47.98 50.29 54.68 54.01 54.23 54.55 54.55 54.67 54.94 55.40 55.57 55.56 55.57 55.89 56.02 56.27 56.62 56.88 57.08 57.80 58.78 59.16 59.84 60.25 60.70
59.95 55.44 53.12 50.62 48.54 48.00 46.86 45.24 44.17 44.50 43.68 44.34 42.30 43.35 43.12 42.57 43.61 45.17 45.63 46.80 49.10 53.31 51.99 51.83 51.81 52.05 52.42 53.57 54.75 55.03 54.71 54.92 54.44 54.88 55.08 55.43 55.74 56.33 57.03 57.98 58.53 58.35 58.42
56.49 52.99 51.15 48.92 47.77 46.70 45.33 43.71 42.84 42.72 41.83 41.11 40.03 40.50 41.27 42.93 43.34 43.74 44.48 44.30 43.94 45.80 48.97 49.75 49.72 50.33 50.09 51.53 52.85 53.58 53.72 53.71 53.58 54.00 54.22 54.57 54.65 55.06 55.73 57.21 58.01 57.71 57.82
52.06 49.35 49.61 47.85 46.73 45.32 44.08 43.94 42.29 41.20 39.44 39.40 40.39 39.73 42.76 43.16 42.94 45.07 42.98 43.72 43.56 42.69 42.74 48.37 49.11 49.31 49.10 49.98 51.58 52.08 52.51 52.49 52.38 52.63 53.27 53.51 54.02 54.47 54.94 55.80 57.35 57.32 57.23
49.59 49.48 49.76 46.72 46.20 44.51 43.42 42.74 41.25 41.14 39.13 38.74 41.88 42.50 41.85 42.86 42.53 42.48 41.81 43.05 41.63 41.50 41.07 40.53 40.08 41.55 47.70 48.40 49.58 49.90 50.86 50.98 51.50 52.07 52.50 53.04 53.61 54.21 54.62 55.14 55.96 56.57 56.71
50.29 48.52 48.67 46.19 45.45 43.30 42.03 42.18 41.44 39.83 38.53 38.48 38.38 39.43 40.15 41.42 42.76 43.20 40.27 39.95 40.61 40.11 39.96 39.71 39.35 39.07 39.51 45.98 46.42 47.73 48.89 49.97 50.65 50.87 51.52 52.11 52.47 53.03 54.01 54.93 55.44 55.63 55.95
49.01 49.62 48.42 45.42 43.78 42.74 41.73 40.67 39.66 39.37 38.47 37.92 35.12 36.30 35.01 38.37 39.22 40.09 39.68 40.14 38.44 39.29 39.56 40.00 38.78 38.40 37.29 37.40 40.59 45.68 46.51 48.10 49.09 50.00 50.70 51.23 51.86 52.53 53.34 53.94 54.41 54.95 55.45
47.70 49.12 47.35 46.32 43.50 42.56 40.44 39.36 38.79 37.90 36.88 37.35 36.66 35.16 32.49 31.89 32.94 37.47 38.06 38.18 38.21 36.46 37.16 38.50 38.64 38.15 37.30 36.54 39.42 40.11 44.14 45.64 47.15 49.24 50.10 50.65 50.91 51.47 52.19 52.93 53.75 54.31 54.59
47.34 47.59 45.32 45.73 42.56 41.77 39.37 38.47 39.56 37.51 37.31 35.34 36.86 38.57 35.06 33.93 30.62 29.89 35.39 36.38 36.87 37.41 36.11 36.38 36.68 36.67 36.71 36.23 39.90 41.79 43.48 44.55 46.54 48.21 49.34 49.97 50.50 51.06 51.88 52.28 52.67 52.89 52.99
46.36 45.43 46.00 44.41 41.54 40.39 38.70 38.32 37.75 36.88 36.68 35.72 34.92 34.31 33.95 34.03 33.41 30.83 28.68 31.60 34.56 35.92 36.38 35.65 35.38 35.43 36.42 36.15 35.41 38.82 42.92 43.95 45.70 47.07 48.33 49.30 49.96 50.40 51.06 51.17 51.30 51.19 50.99
44.87 45.03 44.99 43.09 40.14 39.15 38.53 38.10 37.58 37.02 36.21 35.62 35.23 34.63 33.83 32.35 31.43 30.46 28.70 29.01 29.68 32.72 33.90 35.90 34.73 34.40 35.00 34.91 38.94 41.54 41.85 42.81 44.40 45.74 47.26 48.34 48.78 48.84 49.06 49.05 49.00 48.94 48.92
43.08 42.85 43.13 42.23 38.86 38.96 38.90 38.46 37.48 36.72 35.83 34.60 33.87 33.82 34.36 33.85 34.04 32.69 30.69 29.16 27.99 30.39 31.36 32.99 33.06 33.24 36.11 33.66 34.34 40.36 41.03 41.92 42.73 44.61 46.35 47.39 46.68 46.13 46.11 46.72 47.43 47.40 47.42
42.59 43.55 42.41 39.13 38.42 38.51 38.05 37.72 36.90 36.54 35.41 34.46 33.58 33.67 34.01 33.94 34.25 33.31 31.20 28.56 27.15 26.99 29.62 28.39 33.99 31.78 32.41 32.87 36.89 40.36 34.24 40.07 41.14 42.75 44.38 44.74 43.79 43.24 43.44 44.25 44.96 45.07 45.32
42.99 43.01 41.05 37.49 37.36 37.37 37.27 36.76 35.86 35.05 34.39 34.10 33.46 33.20 33.07 33.53 33.17 32.43 31.87 30.60 27.08 24.55 25.70 26.81 27.84 32.90 32.29 32.95 34.35 35.38 34.35 38.21 40.47 41.37 41.74 41.46 41.03 41.42 41.84 42.51 42.68 42.91 43.12
42.34 40.67 38.27 36.79 36.53 36.62 36.37 36.00 34.89 34.95 33.89 33.59 34.27 32.49 31.94 32.08 31.47 31.26 30.60 30.30 29.15 26.23 24.44 28.33 29.02 29.31 31.01 34.25 35.61 35.00 33.90 38.17 39.32 40.38 40.14 40.00 40.09 40.23 40.56 41.09 41.48 41.79 42.09
40.88 39.77 36.85 36.30 36.21 35.95 35.82 34.80 34.56 34.70 33.76 33.17 32.80 32.51 31.84 31.63 30.41 29.62 29.22 29.06 28.06 27.28 25.36 27.93 29.81 30.84 28.99 29.83 32.25 32.76 33.84 34.18 34.44 38.65 39.05 39.38 39.25 39.63 40.07 40.38 40.67 41.10 41.31
39.64 38.83 36.44 36.34 36.60 35.30 34.72 33.57 33.40 33.80 33.11 32.10 31.85 31.43 31.17 33.58 28.70 28.45 27.85 27.27 26.88 27.12 26.40 25.77 28.62 29.21 28.49 30.14 31.07 31.20 33.84 34.64 32.89 36.28 38.01 38.38 38.63 38.74 39.00 39.20 39.59 39.87 40.08
38.16 35.97 35.96 35.48 35.12 34.87 34.28 33.16 32.76 32.94 32.26 31.92 31.37 30.34 29.93 29.41 27.45 26.93 26.85 26.64 27.59 30.54 27.73 27.11 26.52 28.82 28.98 30.26 31.25 31.10 30.29 29.97 32.03 35.21 36.52 36.97 37.54 37.88 38.09 38.62 38.96 39.12 38.79
35.20 35.64 35.01 34.79 34.58 34.40 34.11 33.11 33.31 31.98 31.75 32.28 32.44 31.37 30.12 29.34 28.13 26.80 27.99 27.21 29.19 27.12 27.09 26.28 26.55 27.06 28.55 30.84 28.37 26.57 26.00 27.87 28.02 31.29 33.16 35.03 35.75 36.08 36.83 36.94 36.85 36.68 36.71
34.77 34.69 34.30 33.96 33.37 33.55 34.21 32.25 32.76 31.60 30.44 29.84 30.05 30.77 30.67 32.46 35.27 33.86 31.60 28.21 28.51 26.51 26.01 25.29 27.33 27.58 26.67 25.86 25.21 25.31 25.15 26.21 27.22 28.89 27.60 28.13 28.77 29.12 29.66 33.20 33.79 34.97 35.75
33.35 34.07 33.21 32.25 31.67 33.97 34.76 34.66 33.69 30.27 29.77 28.45 27.84 28.58 29.53 32.88 32.31 35.14 35.16 35.21 33.55 28.89 27.37 27.54 28.81 24.75 25.46 24.56 24.66 24.81 24.74 24.90 23.61 28.51 24.47 25.67 27.65 26.89 28.49 29.51 33.99 35.53 36.04
33.30 32.09 31.31 31.40 30.89 31.21 34.03 33.28 33.66 29.71 28.45 27.68 27.62 28.05 29.07 31.95 31.85 29.02 31.84 33.89 32.78 34.48 34.15 29.84 25.88 25.12 24.29 25.21 25.23 25.56 27.21 26.74 24.14 26.41 25.78 23.63 27.17 25.95 28.04 29.55 33.27 34.84 35.61
30.84 30.65 30.76 31.28 31.20 31.64 32.92 32.57 33.19 28.25 27.24 27.33 27.42 27.72 27.07 27.04 28.30 30.57 28.97 26.74 28.10 28.62 29.20 29.31 27.57 27.07 27.16 29.65 30.35 29.62 27.03 25.75 26.13 26.82 26.72 22.51 26.12 24.71 26.72 27.89 32.88 33.75 34.65
30.41 30.30 31.16 30.30 28.19 26.89 31.92 32.01 31.14 26.95 26.04 25.50 28.01 27.80 28.18 27.57 32.58 34.62 30.83 25.19 26.96 26.59 31.06 32.31 32.47 33.26 33.71 33.28 32.17 28.47 24.54 23.10 22.42 23.98 26.30 24.20 23.98 23.80 24.96 25.40 27.20 32.67 33.91
30.30 30.45 29.17 27.69 30.77 25.89 31.89 32.00 30.69 27.40 24.40 24.89 26.13 27.22 32.44 31.50 34.09 34.53 30.18 27.92 24.19 24.64 25.07 26.11 27.25 27.26 28.44 26.74 31.13 26.97 24.97 21.84 21.74 20.94 24.58 23.47 23.15 23.83 20.72 24.89 24.88 26.78 26.84

GFSMA_sfc_wetblb_015.txt.gz
Wetbulb
59.60 60.51 61.95 60.81 52.60 49.45 46.92 45.67 44.85 44.10 43.16 43.08 42.69 42.21 42.65 42.55 45.36 49.35 51.50 58.80 58.42 57.75 57.68 57.29 57.02 56.90 56.74 56.76 56.81 56.81 56.76 56.93 56.80 56.91 57.11 57.26 57.45 58.12 59.16 59.72 60.21 61.10 61.56
60.00 56.99 54.83 50.39 47.70 46.55 45.43 43.97 42.72 42.40 41.76 41.75 41.84 41.43 40.80 42.68 42.79 46.71 47.34 51.58 55.20 54.21 54.31 54.47 54.17 54.18 54.72 55.48 56.07 56.12 55.84 56.04 55.85 55.66 55.82 56.01 56.06 56.44 56.95 57.71 58.59 59.08 59.10
56.56 53.74 50.35 47.28 46.15 45.32 44.25 42.92 42.54 42.12 41.32 41.74 39.53 40.13 41.06 40.39 41.90 45.02 45.58 46.33 48.58 54.35 52.49 52.39 52.27 52.22 52.86 53.79 54.56 54.77 54.56 54.89 54.67 54.70 54.96 55.11 55.34 55.50 55.92 56.41 57.38 58.13 58.26
55.94 52.26 48.89 46.76 45.87 44.72 43.24 41.93 41.34 40.55 39.10 38.51 37.51 38.42 40.15 41.42 41.32 41.32 43.33 43.63 43.33 45.70 48.39 50.37 50.29 50.82 51.37 52.16 53.59 53.55 53.57 53.54 53.35 53.66 54.02 54.32 54.48 54.83 55.27 55.65 56.14 57.41 57.93
54.75 51.51 47.92 45.60 44.75 43.51 42.53 42.80 40.35 39.27 37.24 37.30 39.00 38.38 41.14 41.67 41.03 43.18 40.73 41.35 41.96 40.99 40.46 47.66 48.55 48.41 48.95 50.29 51.60 52.20 52.32 52.16 52.26 53.10 53.29 53.56 54.05 54.43 55.08 55.60 55.70 56.14 57.32
50.20 49.32 46.46 44.94 44.37 42.93 41.71 40.96 39.46 38.55 37.09 36.39 40.66 41.04 39.81 41.87 40.80 41.15 39.50 42.12 40.07 39.67 38.96 39.13 38.83 40.15 47.06 47.77 48.67 49.35 50.50 51.09 51.16 51.57 52.03 52.32 52.67 53.14 53.78 54.31 54.88 55.80 56.25
49.83 47.49 45.89 44.59 43.61 41.98 40.70 40.64 39.45 37.61 36.94 36.18 36.28 37.69 39.15 39.61 41.03 41.81 38.43 37.91 38.68 38.83 38.69 38.13 37.75 36.99 37.80 44.90 45.48 46.94 48.08 49.34 50.04 50.46 51.01 51.69 52.16 52.56 53.04 53.55 54.27 54.92 55.25
47.95 46.92 45.96 44.28 42.97 41.19 39.79 38.79 38.94 37.81 36.80 35.76 34.40 35.20 33.82 37.12 37.29 38.02 37.75 38.43 36.23 37.33 38.15 38.84 37.45 36.63 35.49 35.48 39.12 44.36 45.12 47.46 48.68 49.64 50.50 51.06 51.41 51.77 52.37 52.90 53.36 53.76 54.35
47.17 46.66 45.56 45.03 42.29 42.01 38.90 37.79 37.32 37.47 35.74 35.85 34.56 34.74 31.93 31.92 31.42 35.77 35.98 36.01 35.41 35.14 35.20 36.31 37.03 36.84 36.01 35.16 37.57 38.93 43.27 45.13 46.94 49.16 49.95 50.40 50.74 51.32 51.94 52.43 52.88 53.40 53.58
45.91 46.07 45.42 45.66 42.65 40.29 38.19 37.21 38.21 36.37 36.71 34.43 35.72 36.90 33.62 32.90 30.18 29.73 33.66 34.14 34.54 35.29 33.88 34.58 34.64 35.18 35.41 34.97 38.42 40.83 43.03 43.91 46.23 48.04 49.27 49.98 50.30 50.94 51.57 51.89 52.20 52.50 52.11
46.92 46.71 45.92 43.98 41.16 38.75 38.69 37.18 36.20 35.91 35.93 35.01 34.34 33.52 32.98 32.80 31.58 29.83 27.93 30.50 32.52 33.77 33.86 33.40 33.79 33.27 34.22 34.20 33.75 37.26 43.01 44.12 45.75 47.17 48.35 49.14 49.80 50.37 51.00 51.12 50.81 50.61 50.43
46.04 45.63 44.75 42.12 41.90 40.46 39.66 36.76 36.15 35.69 35.16 34.68 34.34 33.81 33.05 31.68 30.66 29.51 27.65 27.27 27.97 30.72 32.16 33.09 32.55 31.70 32.43 32.75 37.94 41.26 41.78 42.97 44.38 45.65 47.02 48.04 48.51 48.96 49.30 49.22 48.87 48.96 48.91
44.44 44.05 43.31 41.76 40.61 38.72 38.72 37.16 36.15 35.27 34.69 33.89 33.21 33.02 33.33 32.80 32.92 31.59 29.61 27.83 26.70 28.34 29.49 30.73 30.67 31.85 34.51 31.45 32.70 39.63 40.49 41.29 42.60 44.40 45.96 46.94 46.47 46.16 46.15 46.64 47.04 47.19 47.44
44.76 43.72 42.76 41.13 41.03 40.10 37.17 36.47 35.63 34.93 34.12 33.69 32.96 33.16 33.48 33.25 33.22 32.39 30.39 27.72 24.70 25.35 26.75 27.14 30.47 29.20 30.86 31.05 36.58 39.61 33.27 39.57 40.57 42.14 43.68 44.16 43.62 43.03 43.10 44.06 44.95 45.18 45.51
44.32 42.75 41.76 40.32 39.92 39.82 36.19 35.71 34.82 33.46 33.15 33.29 32.76 32.71 32.35 32.52 31.90 31.03 30.46 29.41 26.08 22.42 24.01 25.01 26.01 29.61 30.03 30.77 33.35 34.37 32.72 37.54 39.75 40.64 41.32 41.62 41.15 40.99 41.70 42.30 42.78 43.21 43.50
43.58 41.85 40.96 39.74 38.06 37.65 35.25 34.67 33.31 33.50 32.96 32.58 33.12 31.55 30.91 30.95 30.42 30.03 29.21 28.73 27.57 25.00 22.08 25.37 26.28 27.06 28.98 32.28 33.93 33.60 32.73 37.01 38.12 39.82 40.02 39.45 39.62 40.31 40.74 41.21 41.57 41.99 42.27
42.74 40.88 39.48 38.52 38.39 34.98 34.17 33.76 33.36 33.25 32.76 32.90 31.75 31.57 31.06 30.77 29.46 28.41 27.68 27.26 26.38 25.17 22.97 25.38 26.74 28.00 26.95 27.73 30.19 30.96 32.22 32.24 33.50 37.59 38.21 38.75 39.15 39.33 39.73 40.07 40.41 40.98 41.27
41.68 40.80 39.09 38.50 36.75 34.54 33.36 32.64 32.72 32.89 32.04 31.90 31.08 30.76 30.50 32.70 27.94 27.33 26.46 25.61 25.13 25.60 24.26 24.36 26.00 27.74 27.00 28.47 28.91 28.88 31.70 33.65 31.57 34.84 36.99 37.71 38.05 38.17 38.39 38.96 39.35 39.65 40.13
39.80 39.56 38.20 36.28 35.14 33.40 33.04 32.11 31.95 32.06 31.88 30.76 30.36 29.62 29.40 28.57 26.93 26.13 25.59 25.46 26.03 29.05 26.36 25.33 26.03 27.86 27.90 28.95 28.67 30.32 29.04 29.02 30.47 34.04 35.49 36.34 36.91 37.34 37.75 37.84 38.29 38.49 38.27
39.10 36.96 36.33 35.45 33.88 33.51 33.66 32.81 33.02 31.10 30.34 31.04 31.07 30.01 29.12 28.27 26.98 26.01 26.30 26.26 27.55 25.79 25.59 25.10 25.19 25.73 27.08 28.83 28.09 25.44 25.74 26.77 27.02 29.84 32.19 34.06 35.56 35.48 35.83 36.25 36.32 35.95 35.90
36.27 35.58 34.59 33.10 32.65 33.34 33.89 32.01 32.42 30.73 30.04 29.94 29.11 29.01 29.22 31.60 34.79 33.42 30.75 27.18 26.51 26.04 25.43 23.85 24.19 26.41 26.93 25.20 24.42 25.54 24.15 25.56 26.46 28.08 27.84 27.58 27.67 28.22 28.63 32.11 32.66 33.97 34.88
34.60 34.03 32.02 31.46 31.27 34.47 36.72 36.28 33.46 30.82 30.01 27.71 26.28 27.36 28.33 32.51 31.60 34.78 34.88 34.87 33.17 26.44 21.51 23.11 25.82 25.05 24.28 24.44 24.82 24.32 24.28 23.87 22.88 28.45 23.91 25.73 27.66 26.50 27.46 28.30 32.98 34.70 35.44
32.59 30.74 30.62 31.81 31.45 32.69 35.82 34.83 34.22 30.00 27.41 25.99 26.57 26.85 27.98 30.82 31.37 27.54 31.54 34.12 33.63 34.37 34.03 29.90 25.66 24.59 23.76 24.95 24.62 24.22 26.85 26.61 24.75 26.59 25.98 24.00 26.81 25.39 27.57 29.01 32.94 33.89 34.80
31.37 30.96 30.99 30.50 29.64 32.78 34.52 33.59 33.55 26.59 26.30 26.16 26.12 25.86 25.11 25.21 27.01 29.86 27.95 27.11 27.85 27.82 28.30 29.02 26.45 26.07 26.09 28.58 29.85 28.23 26.44 25.22 25.58 26.12 26.26 22.23 25.71 24.51 26.60 26.87 32.03 33.19 34.09
30.06 29.49 28.99 29.00 29.09 30.16 33.03 32.75 30.35 26.39 25.94 25.04 26.01 26.37 27.45 26.81 32.20 34.30 29.84 24.41 25.60 26.17 30.52 32.50 32.77 33.21 33.41 32.80 31.38 27.36 22.71 21.20 20.54 22.22 24.98 22.68 23.35 23.34 24.63 24.92 26.72 32.11 33.23
28.55 29.93 29.34 27.72 30.54 25.12 32.57 32.06 30.13 26.68 24.36 24.80 25.84 26.92 31.62 30.77 33.56 34.08 29.97 26.59 24.27 23.69 24.68 25.17 25.65 26.64 27.51 26.07 30.28 25.73 23.33 20.66 20.56 19.68 23.41 22.59 22.67 23.41 20.74 23.99 24.70 25.93 25.98

GFSMA_sfc_wetblb_018.txt.gz
Wetbulb
61.56 60.67 60.94 61.40 58.99 53.51 46.03 44.27 43.51 42.75 41.61 41.54 41.22 40.97 40.68 43.69 47.10 50.33 52.79 59.51 58.89 58.08 57.63 57.18 56.64 56.21 56.24 56.64 56.90 56.90 56.58 56.64 56.61 56.57 56.57 56.70 56.80 56.98 57.62 58.23 59.05 59.87 60.26
60.24 59.99 59.01 54.84 47.55 45.58 44.11 42.93 42.08 41.30 40.38 40.37 40.22 39.73 39.83 41.69 46.23 46.61 49.02 51.55 56.49 55.17 54.60 54.26 54.20 54.13 54.78 55.50 55.68 55.52 55.48 55.83 55.71 55.61 55.85 56.14 56.10 56.23 56.42 56.88 57.13 58.36 58.84
59.13 55.81 52.08 46.78 45.18 43.87 42.84 42.34 41.60 40.58 39.82 40.02 38.04 38.73 39.96 39.05 44.08 44.63 45.85 45.95 49.24 54.73 52.59 52.46 53.06 52.93 53.43 54.54 55.20 54.74 54.69 54.55 54.32 54.72 55.23 55.32 55.34 55.36 55.78 56.09 56.42 56.74 58.33
55.35 51.16 47.55 45.49 44.52 43.27 42.43 41.53 40.60 38.95 37.90 37.28 36.39 37.06 39.46 39.79 40.93 43.11 43.91 42.83 43.89 43.75 48.41 50.71 50.21 50.57 51.52 52.33 53.62 53.75 53.35 52.99 53.04 53.96 53.97 54.54 54.46 54.64 55.02 55.72 56.22 56.37 56.65
54.12 50.44 47.47 45.33 43.92 42.81 42.01 41.87 39.15 38.21 36.16 36.18 37.99 37.85 39.94 39.70 39.57 41.83 39.97 39.80 41.00 39.67 39.67 48.13 47.99 48.14 48.74 49.89 50.69 51.15 51.62 51.70 51.88 52.09 52.78 53.08 53.25 53.48 54.03 54.48 54.80 55.28 56.16
52.81 49.48 46.38 44.41 43.46 42.33 41.19 40.20 38.40 37.02 35.90 35.45 40.46 39.75 37.98 39.47 38.94 38.28 38.61 40.26 38.40 38.02 37.52 37.96 37.35 40.34 46.90 47.40 48.03 48.72 49.72 50.29 50.51 50.70 51.25 52.03 52.50 52.73 53.12 53.44 53.86 54.32 55.10
51.63 47.68 45.78 44.37 43.00 42.16 40.46 39.47 38.08 36.66 35.72 34.84 36.21 37.29 37.82 38.01 39.07 38.04 37.06 36.94 37.24 37.04 36.96 36.97 36.51 35.85 36.69 44.48 44.93 46.54 47.09 48.32 49.39 49.39 50.49 51.34 51.56 52.00 52.50 52.99 53.44 53.76 54.16
50.47 48.20 46.69 43.69 42.28 40.73 39.66 39.17 38.59 36.84 35.72 34.25 34.40 34.80 33.65 36.37 36.29 36.66 35.88 36.70 34.87 35.97 36.64 37.05 35.86 35.52 34.34 34.37 38.56 43.64 44.21 46.33 48.15 48.79 50.05 50.80 50.91 51.43 51.97 52.58 53.06 53.31 53.71
49.66 48.49 46.59 43.65 41.48 40.33 38.80 37.91 37.83 37.34 35.07 34.55 33.69 34.72 31.66 32.13 31.07 34.36 34.48 34.28 34.14 33.81 33.86 34.77 35.08 35.14 34.62 33.65 36.82 38.75 43.22 44.57 46.43 48.28 49.69 50.18 50.43 50.90 51.63 52.22 52.70 52.95 53.15
48.32 47.18 45.90 43.81 42.16 41.69 39.95 37.11 37.88 36.59 36.08 34.17 34.59 35.73 32.75 32.51 30.18 30.14 32.91 33.19 33.24 33.89 32.30 32.85 33.14 33.41 33.04 32.94 36.84 40.21 43.18 44.27 46.25 47.94 49.09 49.72 49.95 50.44 51.25 51.59 52.07 52.48 52.16
47.59 46.84 45.92 44.37 42.81 40.40 39.50 37.26 36.23 35.90 35.50 34.59 33.95 33.03 32.31 31.87 30.70 29.55 28.57 30.34 32.10 32.47 32.67 32.30 31.81 31.04 31.96 32.56 33.42 38.08 42.52 43.83 45.66 46.98 48.31 49.08 49.64 50.04 50.61 50.83 51.07 50.69 50.96
46.27 46.57 46.07 45.45 43.25 41.06 39.66 38.23 37.80 37.54 34.66 34.23 33.78 33.37 32.76 31.53 30.34 29.35 27.92 27.41 28.00 30.41 31.26 31.44 30.66 30.08 30.75 31.25 36.27 39.92 41.19 42.46 43.72 45.32 47.09 48.00 48.18 48.55 48.85 49.15 49.27 48.97 48.71
44.47 45.59 45.09 43.55 41.71 38.94 39.74 38.50 36.66 36.52 33.75 33.09 32.68 32.61 32.85 32.32 32.30 30.98 29.37 27.65 26.86 28.33 29.24 30.26 30.24 29.84 33.32 30.16 31.11 38.81 39.81 40.74 41.99 43.71 45.61 46.61 46.06 45.83 46.07 46.55 47.10 47.11 47.51
45.41 46.15 44.40 42.73 41.46 41.05 40.41 37.51 36.02 36.44 33.30 32.45 31.95 32.31 32.56 32.44 32.58 31.88 30.06 27.51 24.52 24.90 25.91 27.21 29.01 28.23 28.95 29.97 34.72 38.52 32.45 38.81 39.88 41.32 42.97 43.53 43.30 43.30 43.54 43.87 44.51 45.13 45.62
46.03 45.46 43.15 42.15 41.28 40.58 39.40 38.15 36.61 33.62 32.53 32.10 31.69 31.87 31.90 31.77 31.21 30.54 30.00 29.00 25.81 22.05 22.05 24.54 25.38 27.66 28.70 29.05 31.88 33.16 30.85 36.07 38.77 39.73 40.37 40.78 40.69 40.65 41.23 42.17 43.02 43.18 43.38
45.48 43.41 41.73 41.51 41.02 39.54 38.38 37.62 35.50 33.21 32.31 31.76 32.22 31.39 30.71 30.72 30.47 29.40 28.77 28.15 27.00 24.63 21.43 24.19 24.78 25.87 27.61 31.21 32.59 32.10 31.16 35.87 36.75 38.40 38.84 38.78 39.07 39.67 40.27 41.07 41.34 41.88 42.20
43.61 41.69 41.07 40.38 39.34 37.81 37.03 36.08 32.75 33.37 31.84 31.49 31.38 31.90 31.27 30.21 29.27 28.37 27.29 26.56 25.11 24.41 22.11 23.58 25.02 26.75 26.09 26.70 28.83 29.43 30.54 30.15 31.22 36.75 37.49 38.01 38.37 38.80 39.27 39.67 40.06 40.54 41.15
42.68 41.05 40.54 39.47 37.85 36.86 36.09 34.28 34.17 32.57 31.87 30.90 31.16 30.89 30.86 32.35 27.78 27.18 26.10 25.10 24.59 24.54 23.84 23.11 24.48 25.25 26.11 27.21 27.14 26.64 30.07 32.30 31.58 34.02 36.46 37.24 37.67 37.93 38.25 38.67 39.21 39.26 39.46
40.57 40.18 39.57 38.47 37.37 35.93 34.63 33.76 32.47 31.66 30.88 31.03 30.95 30.80 29.73 28.06 26.78 25.84 25.01 24.29 24.97 27.91 25.27 24.49 24.89 25.61 25.78 26.93 27.26 27.87 28.40 28.11 29.83 33.45 35.04 35.55 36.46 36.95 37.57 37.83 37.87 37.98 38.00
39.79 38.88 38.59 36.83 35.35 34.28 33.91 33.51 31.65 30.69 30.57 31.84 31.47 29.99 29.22 28.16 27.06 25.73 25.27 25.23 26.62 25.44 25.18 24.48 24.85 23.88 24.35 27.44 26.48 24.65 24.73 26.61 26.24 29.26 31.80 33.37 35.57 35.85 35.96 36.07 36.18 35.87 35.75
38.13 36.63 35.27 34.53 34.14 33.78 34.01 33.01 31.65 30.27 31.13 30.18 29.68 29.95 29.39 30.01 34.27 32.62 30.00 27.05 26.52 25.62 24.99 21.88 22.93 23.73 25.74 25.37 23.95 24.73 23.71 24.95 25.98 27.62 27.20 26.93 27.35 27.79 28.69 32.01 32.62 33.79 34.35
34.75 34.70 33.76 33.12 33.11 35.32 37.70 36.65 33.20 31.13 30.36 29.23 28.20 27.72 27.58 31.50 31.40 34.67 35.10 34.88 32.76 25.30 22.38 19.87 19.84 25.05 24.80 23.97 24.66 23.80 23.58 22.83 22.18 28.00 24.29 25.64 27.43 26.36 27.37 27.61 32.39 34.27 35.42
33.69 32.51 31.89 31.97 32.28 34.08 37.03 36.10 34.09 30.26 28.77 26.78 26.49 25.84 27.02 29.71 29.77 26.86 30.74 33.96 33.47 34.70 34.48 30.99 25.70 24.90 24.05 24.81 24.64 22.79 24.74 25.67 23.97 26.09 25.33 22.78 25.71 24.59 27.13 28.57 32.98 33.90 34.83
31.50 31.07 30.80 31.29 32.16 33.99 35.91 34.87 32.81 27.98 26.34 24.64 25.74 25.26 24.39 25.21 27.04 29.66 28.18 26.64 27.83 27.97 28.39 28.42 26.93 26.52 25.83 27.07 28.74 28.25 25.86 24.82 24.90 25.15 25.08 19.95 24.28 23.22 25.55 26.47 31.98 33.15 34.02
31.99 31.29 30.97 29.82 30.50 31.41 34.25 33.72 30.00 25.22 25.57 24.59 25.77 25.46 26.94 26.51 31.57 33.69 29.37 25.01 26.21 26.38 30.80 32.92 33.07 33.36 33.62 33.64 31.77 27.01 22.21 20.95 19.68 21.53 24.38 21.93 21.99 22.77 24.24 24.46 26.30 31.87 33.18
30.14 29.76 28.37 28.97 30.86 26.77 33.37 32.48 29.69 25.94 23.78 24.63 25.05 26.13 30.67 30.00 32.97 33.93 29.75 27.29 23.87 23.41 24.49 24.63 24.57 25.21 26.91 25.53 30.26 25.79 22.36 19.47 19.45 19.28 22.32 20.46 22.19 22.15 20.26 23.26 24.74 24.33 25.83

GFSMA_sfc_wetblb_021.txt.gz
Wetbulb
60.77 60.90 60.84 60.72 59.60 53.71 47.24 43.67 42.42 41.82 40.75 40.57 39.95 40.36 41.72 46.56 48.59 51.42 53.16 59.42 59.69 58.48 57.92 57.17 56.67 56.45 56.81 57.04 56.75 56.67 56.79 56.82 56.71 56.54 56.66 56.87 56.95 57.13 57.31 57.56 57.94 58.45 59.61
60.32 60.14 59.65 59.52 55.26 48.09 43.77 42.44 41.61 40.96 39.64 39.49 38.80 38.97 39.78 45.38 46.52 48.47 48.63 51.42 57.45 55.75 55.05 54.68 54.90 54.90 55.44 55.77 55.71 55.62 55.44 55.36 55.31 55.87 56.22 56.10 56.17 56.39 56.79 57.03 56.98 57.26 57.74
59.73 59.56 58.17 53.30 47.10 43.62 42.31 41.58 40.71 39.75 39.10 38.97 37.18 38.07 38.53 41.42 43.98 45.75 45.28 46.19 48.61 54.83 53.44 54.26 53.20 53.24 54.38 54.34 54.84 54.46 54.19 53.79 54.15 54.80 54.80 55.36 55.37 55.36 55.70 55.92 56.44 56.91 56.92
59.24 56.12 52.84 47.57 43.99 42.37 41.96 41.36 40.02 38.21 37.20 36.62 35.89 36.41 38.46 39.02 42.78 43.25 43.09 42.68 42.97 42.57 49.35 50.67 50.42 50.67 51.07 52.06 52.65 52.78 52.55 52.29 52.92 53.01 53.65 53.69 53.81 54.12 54.61 54.84 55.09 55.41 55.73
56.37 53.83 50.31 45.27 43.11 42.11 41.57 41.59 38.62 37.70 35.53 35.93 37.44 38.24 38.74 37.92 39.92 43.28 39.87 40.03 40.69 39.65 40.60 47.88 48.31 48.27 48.77 49.52 50.14 50.55 51.01 51.56 51.26 51.46 52.03 52.51 52.93 53.28 53.73 53.86 54.08 54.29 54.66
53.48 50.62 46.40 44.27 43.21 42.03 40.83 39.96 37.85 36.00 35.28 35.51 40.10 38.64 37.91 37.42 37.70 37.68 37.90 39.38 37.47 36.68 36.55 36.70 36.27 39.08 47.01 47.35 47.89 49.04 49.36 49.49 49.97 50.13 50.62 51.68 52.05 52.66 52.79 53.22 53.64 53.98 54.26
52.29 50.23 46.88 44.78 44.65 44.02 40.85 39.37 37.26 35.87 34.70 34.56 36.78 36.87 36.90 36.88 37.27 35.92 36.16 35.61 36.12 35.78 36.08 35.84 35.36 34.88 35.39 43.88 45.13 46.84 46.82 48.10 48.88 49.69 49.68 50.87 51.48 51.92 52.36 52.76 53.17 53.63 53.96
53.28 50.66 48.11 45.92 45.06 43.04 39.59 38.64 37.97 35.94 34.72 33.54 34.34 34.67 33.82 35.73 35.24 35.72 34.64 35.68 34.03 35.36 35.51 35.68 34.52 34.28 33.45 33.28 37.01 45.13 44.78 46.40 47.84 49.05 49.68 50.54 51.18 51.43 51.78 52.35 52.98 53.22 53.68
52.82 51.67 48.96 46.91 44.70 43.93 40.77 38.92 37.93 37.24 34.53 33.45 33.34 35.08 31.37 31.76 31.64 33.42 33.35 33.55 33.28 32.76 32.83 34.30 33.83 33.51 32.76 32.36 35.35 37.50 43.52 45.25 47.10 48.81 50.03 50.49 50.73 51.17 51.69 52.09 52.56 52.79 53.05
52.24 50.78 48.29 46.36 44.69 43.53 41.16 38.44 38.33 36.85 36.04 33.89 33.55 34.72 32.05 32.74 30.40 29.68 32.05 32.60 32.59 33.01 31.69 32.19 31.83 32.30 32.33 32.75 37.52 41.58 43.68 44.33 46.46 48.41 49.63 49.96 50.44 50.99 51.56 51.67 51.96 52.50 52.41
50.60 49.70 47.21 45.47 44.40 43.83 42.10 38.92 36.48 36.58 35.87 34.83 33.87 32.57 31.72 31.34 30.21 29.66 28.56 29.72 31.53 31.74 31.92 31.25 30.72 30.61 31.53 31.78 32.59 37.16 41.61 43.37 45.72 46.91 47.87 48.77 49.58 50.22 50.69 50.85 51.01 50.85 50.78
47.65 47.31 46.74 45.93 44.79 43.38 42.16 40.04 38.37 38.27 35.81 36.22 35.23 33.13 32.72 31.79 30.44 29.37 27.82 27.09 27.35 29.58 30.50 30.44 29.64 29.41 29.98 30.03 35.05 39.50 40.56 41.94 43.44 45.01 46.71 47.76 48.11 48.66 48.89 49.04 49.32 49.36 49.02
45.52 45.15 45.88 45.17 43.89 42.41 42.06 40.93 38.82 37.07 37.00 36.17 32.68 32.75 32.42 32.08 31.88 30.55 29.24 27.14 26.62 27.57 28.33 29.20 29.02 28.87 32.21 28.86 30.54 38.16 38.88 39.83 41.18 43.11 44.99 46.24 45.93 45.57 45.81 46.75 47.54 47.56 47.64
47.72 45.59 45.96 44.67 43.15 41.68 41.45 40.42 39.10 36.69 36.39 34.70 34.08 32.69 31.95 32.05 32.23 31.50 29.95 27.62 24.40 24.39 24.91 26.80 27.82 27.34 27.74 28.83 33.59 37.60 31.36 37.52 38.77 40.78 42.60 43.12 42.66 42.56 43.01 43.76 44.31 44.89 45.57
46.58 45.83 44.19 42.65 41.72 40.90 40.90 40.63 38.52 36.22 35.80 34.12 34.02 32.87 33.16 31.43 31.25 30.62 30.04 28.96 26.52 22.60 22.38 24.21 24.78 26.58 27.63 28.36 30.98 31.73 29.50 35.35 38.49 39.25 39.74 39.90 40.08 40.37 41.05 41.95 42.53 43.18 43.35
45.31 43.69 42.21 41.88 41.61 41.13 40.29 39.28 37.40 36.22 35.73 34.75 34.29 32.65 30.45 30.24 29.75 29.43 28.75 28.16 27.10 25.21 21.88 23.58 24.44 25.03 26.84 30.42 31.31 31.51 30.24 35.45 36.04 37.49 38.13 38.62 38.93 39.46 40.11 40.73 41.25 41.82 42.11
44.63 43.88 42.99 41.51 40.55 39.50 39.04 38.08 36.23 35.08 34.48 33.90 33.35 32.64 30.54 29.95 28.90 28.49 28.48 26.97 25.32 24.57 22.07 23.05 24.33 25.64 25.34 26.31 28.20 28.37 29.54 28.42 29.57 35.81 37.18 37.84 38.21 38.92 39.34 39.69 40.19 40.66 40.97
44.11 42.82 41.41 40.74 39.39 38.62 37.56 36.41 36.04 35.02 34.03 32.85 32.39 31.93 30.45 31.91 29.17 28.23 26.83 25.38 24.70 23.93 23.47 21.52 23.31 24.64 24.90 26.52 26.29 25.70 29.00 31.36 30.14 33.97 36.21 37.01 37.65 37.88 38.23 38.71 38.94 39.38 39.64
42.49 41.68 40.68 38.90 37.86 37.33 36.60 35.68 35.02 33.91 33.11 32.79 30.92 30.98 30.63 30.09 28.29 27.54 25.70 24.77 24.57 26.91 24.13 23.66 23.81 24.92 25.06 25.26 25.35 26.49 26.86 27.67 29.27 32.91 34.88 35.40 36.27 36.88 37.44 37.98 38.19 37.98 38.03
41.20 39.55 38.47 37.21 36.14 35.36 34.93 34.30 33.67 32.50 32.24 31.95 32.01 31.29 31.21 29.51 28.29 27.15 25.88 24.74 25.23 24.26 24.25 24.08 24.29 23.10 23.76 25.67 25.59 25.10 24.36 25.92 25.67 28.57 31.31 33.19 34.93 35.35 35.74 36.23 36.30 36.10 36.07
38.10 36.58 35.63 35.02 34.99 34.84 35.14 33.81 33.50 32.14 31.23 30.69 30.70 30.65 30.65 30.59 33.00 31.24 28.64 26.09 25.63 25.23 24.73 22.15 23.05 21.25 23.20 25.20 24.73 25.42 23.61 24.62 25.20 26.59 26.55 26.66 26.26 27.51 28.23 31.96 32.55 33.76 34.31
35.44 35.26 34.61 34.34 34.36 35.74 37.46 36.22 33.38 31.08 30.43 29.60 29.00 28.34 28.56 30.68 29.84 34.63 35.45 35.63 32.31 24.30 21.69 19.61 17.37 23.47 24.53 24.43 24.13 23.85 23.56 22.43 21.91 26.18 24.19 25.23 26.86 25.88 26.81 27.17 32.07 34.07 35.41
34.93 33.98 33.96 34.27 34.73 36.63 38.16 36.81 34.48 30.40 29.16 28.40 28.26 26.94 27.07 28.71 29.03 26.30 30.26 33.72 33.06 34.69 34.44 29.89 25.80 24.29 24.44 25.34 25.24 23.35 23.71 24.22 24.33 25.78 25.02 22.59 25.29 23.81 26.10 27.54 32.56 33.76 34.76
32.66 32.26 32.52 33.32 33.18 34.73 35.86 35.48 32.81 28.89 27.69 26.50 26.33 24.77 23.83 24.88 26.54 28.82 27.62 26.24 27.28 27.38 27.95 28.11 26.44 26.69 26.77 27.22 27.19 27.62 26.83 24.39 24.87 25.23 24.47 19.63 24.07 23.02 25.29 25.75 31.47 33.13 34.07
32.30 31.89 31.99 31.86 31.95 33.25 35.49 34.85 30.31 27.20 26.79 25.37 25.66 25.10 25.58 25.98 30.89 33.57 29.01 24.78 26.19 26.97 30.74 33.07 33.31 33.40 33.59 33.44 31.87 26.64 21.47 20.63 19.60 21.45 24.16 21.72 21.68 22.14 24.07 24.46 26.00 31.68 33.25
32.19 32.37 31.44 31.23 32.81 30.21 34.19 33.29 30.47 25.87 23.56 24.58 24.74 25.97 30.18 29.40 32.53 33.30 28.69 26.89 24.04 23.45 24.45 24.33 24.17 24.60 26.54 24.88 29.84 25.24 20.04 17.36 19.82 19.14 22.11 20.25 21.79 22.16 19.24 22.91 23.94 24.05 25.44

GFSMA_sfc_wetblb_024.txt.gz
Wetbulb
61.80 62.16 61.81 61.25 59.71 54.29 49.66 43.28 41.75 41.06 40.34 39.85 39.42 40.54 46.30 47.89 49.59 51.73 52.76 59.85 60.51 59.18 58.49 57.71 57.45 57.55 57.47 57.05 56.86 56.94 56.70 56.43 56.56 57.00 57.16 57.04 57.14 57.46 57.81 58.04 58.11 58.20 58.61
61.51 61.17 60.29 59.72 58.03 49.90 44.32 42.29 41.00 40.36 39.25 38.68 38.33 39.05 43.44 46.14 48.16 48.23 48.12 52.42 58.08 56.57 55.98 56.26 55.80 56.18 56.67 56.37 56.04 55.71 55.26 55.23 55.89 56.13 56.13 56.49 56.39 56.45 56.71 56.96 57.26 57.61 57.95
60.11 60.26 59.87 58.11 54.97 45.45 42.18 40.85 39.94 39.28 38.51 38.37 36.80 37.79 40.23 43.60 45.35 45.41 45.41 45.77 47.41 55.38 55.57 54.40 53.80 54.74 53.88 54.67 55.14 54.76 53.87 53.60 54.39 54.38 55.03 54.79 54.80 54.95 55.44 55.93 55.97 56.22 56.59
59.92 59.03 58.56 56.29 47.69 42.53 41.78 40.74 39.52 38.03 36.87 36.55 35.55 36.84 37.28 41.74 42.62 42.90 42.61 42.38 41.48 42.90 49.26 51.29 51.12 51.32 51.97 52.14 52.23 52.16 52.11 52.47 52.55 52.88 53.34 53.52 53.83 53.95 54.27 54.68 54.94 55.18 55.36
59.81 58.61 57.75 51.65 43.79 41.78 41.30 41.10 38.53 37.75 35.61 35.64 36.88 37.99 37.16 38.67 41.22 43.11 39.74 40.21 40.44 39.45 39.32 47.84 48.96 48.94 49.16 49.74 50.41 51.05 51.11 51.10 51.04 51.16 51.63 52.33 52.87 53.30 53.72 54.08 54.37 54.45 54.76
58.57 57.07 53.17 47.35 43.42 41.66 40.53 39.74 37.74 35.74 35.39 35.99 39.84 38.20 36.64 36.53 37.50 38.32 37.15 38.88 36.15 35.99 35.71 35.85 35.61 38.40 46.58 47.37 48.05 49.18 49.05 49.21 49.65 50.56 50.61 51.27 52.17 52.43 53.04 53.63 53.66 54.08 54.51
56.60 54.31 50.74 45.44 43.10 42.76 42.01 39.89 36.78 35.77 34.75 35.38 36.62 36.18 35.84 35.94 35.79 35.10 35.57 34.95 35.14 35.15 35.15 34.86 34.55 34.19 34.79 43.02 44.33 46.61 47.10 47.84 48.63 49.54 50.32 50.76 51.66 52.27 52.88 52.99 53.28 53.81 54.26
55.65 52.96 50.38 47.39 45.13 44.02 42.46 40.67 37.75 35.52 34.13 34.11 34.90 34.41 34.17 35.44 34.38 34.66 33.77 35.13 33.55 34.48 34.66 34.36 33.41 33.05 32.42 32.62 38.38 44.54 45.69 46.79 48.21 49.26 49.93 50.80 51.61 52.01 52.44 52.83 53.17 53.47 53.80
54.44 54.25 52.00 48.77 46.45 45.84 43.25 41.61 38.44 37.24 34.10 33.03 33.35 35.45 31.09 32.09 31.92 32.58 32.49 33.08 32.80 32.11 32.19 33.06 32.87 32.46 32.10 32.80 36.54 39.51 44.30 45.44 47.18 48.98 50.06 50.81 51.13 51.50 52.14 52.65 53.08 53.16 53.16
54.86 53.26 52.06 49.53 47.68 46.44 44.32 42.60 40.71 37.45 35.92 33.40 32.86 34.17 31.60 33.14 31.56 29.66 31.51 31.73 31.83 32.26 31.08 31.39 31.24 31.43 31.62 31.74 36.53 40.67 42.75 43.63 45.91 47.92 49.33 49.99 50.28 50.85 51.65 52.04 52.36 52.47 52.51
54.16 53.63 51.92 49.48 47.36 45.81 45.10 42.80 40.53 39.03 36.71 34.69 33.74 32.03 31.21 30.71 29.85 29.81 28.41 29.69 30.96 31.47 31.21 30.68 30.17 29.96 30.51 30.65 31.54 36.60 41.33 42.94 45.05 46.59 47.89 48.91 49.80 50.40 50.83 51.14 51.28 51.19 50.91
52.17 51.64 49.85 47.70 48.04 46.94 43.85 42.84 42.22 40.94 38.26 36.73 35.24 35.56 32.98 32.33 30.53 29.43 28.08 27.30 28.27 29.48 29.96 29.96 29.25 29.08 29.33 29.31 34.67 38.97 40.10 41.48 42.74 44.42 46.37 47.70 48.24 48.55 48.90 49.08 49.18 49.35 49.59
49.41 48.35 48.15 47.78 46.81 46.03 44.23 43.22 41.22 40.62 40.31 37.49 36.73 35.17 35.33 33.23 32.94 30.59 29.59 26.96 27.04 27.48 27.89 28.59 28.71 28.64 31.62 28.39 30.19 37.67 38.29 39.23 40.63 42.65 44.95 46.35 45.98 45.39 45.44 46.10 46.87 47.32 47.63
51.53 50.48 48.14 47.42 46.44 44.17 42.79 41.70 40.69 39.84 39.71 37.15 35.57 35.53 34.96 34.75 34.12 32.51 30.13 27.87 24.59 24.50 24.98 27.98 28.14 27.29 27.40 28.19 33.29 37.28 31.15 37.34 38.65 40.84 42.61 43.05 42.49 42.07 42.55 43.33 44.13 44.81 45.42
51.29 48.10 48.11 46.58 44.44 42.79 42.14 41.59 40.91 38.23 38.26 36.20 35.13 35.00 34.57 34.35 33.85 33.41 31.09 30.05 27.28 23.17 23.24 25.97 26.15 26.21 26.93 27.80 30.54 31.40 29.49 34.99 38.17 38.77 39.22 39.57 39.62 40.23 41.02 41.84 42.48 43.08 43.55
47.99 46.65 46.35 44.75 43.69 42.49 41.58 40.72 38.04 37.04 36.25 35.82 35.60 34.73 33.81 33.35 32.89 32.20 30.39 29.09 27.70 26.09 23.16 24.38 25.07 25.01 26.38 29.71 30.58 31.20 29.74 35.45 35.66 37.22 37.77 38.15 38.76 39.53 40.06 40.78 41.53 41.78 42.33
46.08 46.49 45.29 43.90 43.06 41.64 40.40 39.48 37.43 36.65 35.66 34.94 34.57 34.22 33.20 32.82 32.06 30.99 30.14 27.93 27.29 26.06 23.18 23.82 24.18 24.89 24.70 25.83 27.77 27.88 28.90 27.41 28.00 35.49 36.83 37.67 38.26 38.83 39.48 39.85 40.16 40.72 41.24
43.89 43.74 43.81 42.48 41.25 40.26 39.02 37.30 36.47 35.86 34.84 34.34 33.87 33.64 32.94 33.10 30.68 28.86 29.48 26.58 25.77 24.26 23.86 21.50 22.87 23.96 24.61 25.90 26.11 25.46 28.55 30.75 29.12 33.34 35.99 37.16 37.64 37.85 38.17 38.65 39.11 39.65 39.96
43.64 42.89 42.49 41.30 39.74 38.32 37.02 36.86 36.36 36.20 35.68 35.35 34.36 33.49 32.07 31.24 30.06 29.87 29.11 28.08 25.87 26.88 23.63 23.37 22.98 24.48 24.72 25.01 24.87 25.25 25.75 26.39 28.92 32.56 34.63 35.02 35.68 36.53 37.34 37.99 38.37 38.35 38.44
41.69 41.17 39.95 38.44 37.81 37.19 36.44 35.35 34.37 33.60 33.13 32.96 32.70 32.01 31.49 30.96 30.35 29.83 28.64 26.66 26.31 24.88 24.20 23.74 23.55 23.20 23.78 25.20 25.00 24.89 24.10 25.23 25.46 28.39 31.05 32.51 34.60 35.37 36.14 36.59 36.60 36.45 36.31
38.76 37.46 36.85 36.85 36.60 36.53 36.24 35.03 34.69 33.85 33.20 32.13 31.40 31.05 31.11 31.86 32.86 31.80 29.15 27.92 26.31 25.44 25.29 20.81 22.84 21.64 22.31 24.20 24.11 25.08 24.00 24.62 24.64 26.11 26.16 25.93 26.37 26.95 27.96 31.82 32.51 33.61 34.22
36.36 36.35 36.17 35.70 36.04 37.70 39.21 37.81 33.96 31.44 30.72 29.70 29.26 29.57 28.96 30.72 30.35 33.66 35.22 35.80 31.96 25.20 21.89 18.27 18.07 23.04 23.86 24.45 23.12 23.65 23.48 22.29 22.36 26.10 23.44 25.40 26.50 25.96 26.78 26.87 31.67 34.11 35.53
36.48 35.79 36.45 35.95 36.06 37.12 39.09 37.63 35.22 31.31 30.31 29.49 29.32 28.41 28.34 29.35 29.39 27.08 30.20 32.92 32.48 34.12 33.89 27.52 25.47 24.06 24.06 24.23 24.55 21.64 23.52 24.69 24.57 26.50 25.17 22.78 24.73 24.03 26.12 27.14 32.29 33.81 35.04
35.88 34.86 34.77 35.49 35.80 37.30 37.85 36.33 34.01 29.61 28.24 27.81 28.25 27.02 26.54 26.52 27.75 29.31 28.01 26.33 27.29 27.27 27.72 28.01 26.42 26.60 26.24 26.98 26.44 27.36 27.10 25.19 24.76 25.24 24.99 19.53 24.47 23.15 25.26 25.69 31.19 32.91 34.11
32.52 32.62 33.16 33.12 32.35 33.01 36.91 35.05 30.49 28.33 27.66 26.77 27.12 26.26 26.77 26.41 30.44 33.18 28.71 24.31 26.27 27.02 30.65 32.84 33.07 32.95 32.95 32.90 31.40 26.21 20.56 19.93 19.39 21.13 23.82 21.52 21.65 21.86 23.83 24.49 26.15 31.67 33.22
32.35 32.33 31.86 32.19 35.20 32.25 35.12 34.52 30.43 27.80 25.19 25.37 24.59 25.76 29.78 28.96 32.14 33.05 28.72 26.80 23.61 22.95 24.08 24.07 23.61 23.98 25.72 24.06 29.51 24.77 19.17 15.38 18.49 18.81 21.51 20.13 20.87 21.56 19.78 22.88 24.49 23.76 25.18

GFSMA_sfc_wetblb_027.txt.gz
Wetbulb
66.84 67.20 66.08 67.11 65.96 62.75 58.10 51.81 49.76 48.94 48.34 47.52 48.11 51.93 54.68 57.00 58.57 59.30 60.68 60.57 61.50 59.92 59.06 58.58 58.58 58.67 58.21 57.94 57.99 57.12 56.64 56.96 57.60 57.23 57.58 57.81 57.54 57.64 58.00 58.20 58.48 58.81 58.95
67.19 66.70 65.22 65.68 64.81 61.35 56.23 51.64 49.45 48.78 47.87 47.45 47.05 50.70 53.46 55.65 56.68 56.33 57.32 57.74 58.94 58.14 57.19 56.79 57.07 57.65 57.23 56.95 56.66 55.77 55.41 55.50 56.03 56.19 56.48 56.04 55.98 56.19 56.73 57.04 57.05 57.28 57.61
65.69 66.39 65.61 64.74 64.11 57.95 52.56 48.84 47.57 47.22 46.72 45.68 46.21 47.97 51.75 53.75 54.19 53.53 53.89 54.12 54.86 56.90 56.44 55.13 55.90 54.59 54.86 55.22 55.13 53.90 53.63 53.70 54.22 54.60 54.57 54.63 54.88 55.05 55.17 55.45 55.71 55.98 56.21
64.29 64.92 64.80 64.42 62.45 54.04 50.09 48.53 47.34 46.23 45.99 45.85 45.32 46.03 49.31 51.34 51.65 51.52 51.08 50.82 51.25 51.70 52.70 52.32 52.20 52.56 52.45 52.25 52.31 52.12 52.08 52.66 52.24 52.42 52.98 53.30 53.56 53.87 54.20 54.51 54.74 55.05 55.53
64.27 63.72 63.81 63.85 58.89 52.46 49.07 47.88 46.07 46.46 44.90 44.19 44.41 45.87 45.74 49.40 50.00 48.74 48.88 48.02 49.10 48.91 49.50 50.05 49.96 49.76 49.56 50.22 50.81 51.35 51.21 50.70 50.62 51.08 51.03 51.84 52.57 52.92 53.20 53.82 54.16 54.51 54.99
63.91 63.24 62.61 61.59 55.71 51.20 48.31 47.13 46.02 43.94 44.71 44.53 44.20 44.51 44.90 46.63 48.09 48.09 47.04 45.83 45.61 44.77 44.59 44.50 45.60 45.77 46.92 47.71 48.23 49.43 49.28 49.21 49.49 50.08 50.75 50.78 51.92 52.58 53.04 53.40 53.73 54.18 54.46
63.03 62.75 61.74 58.97 53.88 51.13 48.63 47.40 44.75 43.66 42.74 44.97 44.81 43.87 43.82 44.32 44.56 45.45 45.12 44.50 43.18 43.26 43.31 43.49 44.02 43.94 43.42 42.94 44.43 46.34 47.85 47.90 48.86 49.48 50.26 50.77 51.47 52.34 53.03 53.59 53.93 53.92 54.21
62.31 61.87 60.28 56.88 52.71 50.34 47.45 45.85 43.27 42.19 42.90 44.21 44.45 44.53 42.18 42.74 42.84 42.33 43.02 42.64 42.45 42.44 42.01 41.49 41.68 41.54 41.98 42.45 44.31 44.59 45.63 46.80 48.27 49.45 50.51 51.12 51.76 52.34 53.00 53.28 53.62 53.85 54.25
61.83 61.53 59.88 57.02 52.57 50.74 47.84 46.04 43.20 43.06 42.16 41.94 42.48 45.01 40.17 42.07 41.54 41.10 40.72 41.38 41.11 41.28 41.44 40.87 40.15 39.87 40.67 42.28 42.89 44.03 44.91 44.98 46.68 48.54 49.79 50.72 51.51 51.72 52.19 52.65 53.12 53.38 53.59
61.41 60.45 58.89 57.39 54.42 51.46 49.71 46.25 44.80 43.77 43.43 41.67 39.15 39.39 39.98 42.07 41.22 38.24 39.64 39.81 40.13 39.92 40.44 40.22 39.72 39.09 39.26 39.95 39.76 41.08 42.19 43.17 45.28 47.24 48.99 50.10 50.34 51.24 51.96 52.37 52.58 52.67 52.89
61.01 59.25 58.21 56.15 54.13 51.14 51.02 49.16 45.33 44.27 43.24 42.07 42.19 37.91 38.34 38.78 38.50 40.57 38.26 38.07 38.28 39.59 39.84 39.66 39.27 38.64 37.84 38.61 39.84 40.15 40.77 42.25 44.36 45.97 47.70 49.28 49.77 50.52 51.12 51.43 51.55 51.58 51.35
59.42 57.72 56.51 55.78 54.67 52.31 51.23 49.27 47.18 45.88 43.35 41.60 40.02 40.11 40.06 39.54 38.13 38.16 38.08 37.37 39.03 38.45 38.99 38.76 38.02 37.71 37.28 37.71 37.31 38.38 39.35 40.92 42.44 44.13 46.50 48.16 48.47 48.90 49.35 49.61 49.51 49.45 49.53
56.41 56.04 55.37 54.40 53.02 51.69 50.64 49.02 47.40 46.24 44.89 43.43 41.67 39.52 39.91 38.72 36.99 37.60 36.88 34.68 34.06 36.21 37.22 37.77 37.82 37.20 36.62 36.98 37.71 37.87 37.69 39.14 40.61 42.98 45.40 47.00 46.28 45.82 45.75 46.08 47.04 47.41 47.70
57.56 57.55 55.06 54.00 53.21 52.20 50.37 48.56 47.37 46.36 44.68 43.78 41.01 39.36 38.49 36.70 36.26 36.55 37.00 33.57 31.19 31.16 32.36 35.96 36.18 36.19 36.26 36.29 36.78 37.16 37.20 37.33 38.87 41.03 42.52 43.09 42.44 42.30 42.56 43.42 44.37 45.05 45.65
56.54 55.91 53.38 52.32 51.87 50.48 49.09 46.63 46.38 44.73 42.35 39.99 39.25 39.21 38.72 36.78 37.27 35.25 35.65 34.49 36.38 31.14 30.78 33.02 34.37 35.09 35.69 35.71 35.79 37.23 36.73 36.08 38.21 38.76 39.27 39.71 39.72 40.16 41.05 41.90 42.69 43.32 43.90
54.77 52.25 51.33 50.71 49.58 48.67 46.78 46.10 44.19 41.70 39.36 38.38 37.78 36.98 37.81 35.96 36.09 34.91 35.60 33.29 33.75 32.99 29.58 33.79 32.24 34.21 34.29 34.25 35.07 36.57 36.02 36.21 36.83 37.60 38.15 38.37 38.59 39.35 40.30 41.10 41.65 42.43 42.83
51.52 50.06 49.88 48.59 47.33 46.23 45.42 43.75 41.12 39.14 37.56 37.23 36.54 36.52 34.96 34.29 34.23 33.42 33.32 31.99 31.28 31.68 30.21 32.71 32.50 32.80 32.37 33.35 34.35 35.46 35.20 35.10 35.20 36.12 37.27 37.74 38.27 39.08 39.81 40.41 40.77 41.23 41.68
48.90 48.23 46.87 45.99 45.43 44.08 43.73 41.94 39.26 38.46 36.47 35.31 35.63 35.44 34.01 34.80 32.95 32.60 31.96 30.34 30.43 30.85 30.16 27.94 30.15 30.70 31.06 33.43 33.75 33.27 33.43 34.26 34.57 34.93 36.35 37.14 37.92 38.08 38.47 38.87 39.46 40.02 40.44
47.02 45.38 45.17 43.71 42.37 41.09 40.08 39.21 37.87 37.47 36.66 35.94 35.61 35.46 34.21 33.70 32.02 31.54 30.49 30.03 29.79 30.16 28.51 28.16 29.39 30.72 31.54 32.32 32.50 32.64 32.50 33.41 33.20 33.92 34.99 35.39 36.08 36.60 37.50 38.24 38.97 39.16 39.17
43.95 43.50 42.38 40.42 38.64 38.00 37.45 37.00 36.34 35.10 34.25 33.92 33.51 32.98 32.61 32.18 31.74 31.61 31.29 30.92 30.67 28.86 29.30 28.23 28.74 29.68 30.43 32.17 31.30 29.98 30.11 32.47 31.37 32.28 33.46 33.85 35.06 35.61 36.35 36.70 36.94 36.78 36.70
39.11 38.67 38.07 37.64 37.27 37.03 37.00 35.97 35.28 34.64 33.57 32.60 32.26 32.01 31.86 32.72 33.36 33.69 32.27 30.69 30.14 29.74 29.46 29.58 29.27 29.61 29.36 29.99 29.75 31.25 29.26 29.88 30.67 31.61 31.09 31.88 31.68 32.06 32.85 34.01 33.94 34.36 34.85
38.50 38.10 37.52 37.63 37.97 38.98 40.76 39.42 36.22 33.74 32.68 31.65 30.65 31.40 31.30 32.03 31.82 33.55 34.18 34.55 34.32 31.06 31.33 29.19 28.33 28.22 29.47 29.96 30.53 29.00 28.34 27.26 25.14 32.61 29.82 29.62 31.88 30.30 31.61 32.36 33.53 34.37 35.38
37.17 36.91 37.41 37.74 37.56 38.63 39.87 38.21 36.23 32.89 31.95 31.40 30.84 30.22 30.19 31.26 30.92 30.16 30.90 32.46 32.82 33.96 34.40 32.68 30.13 29.74 28.98 30.22 30.24 28.39 28.65 27.91 26.43 30.03 29.53 27.34 30.32 29.00 31.36 31.73 33.39 34.10 34.99
36.38 36.46 36.76 37.15 37.04 37.70 39.02 37.79 34.88 30.86 29.72 29.63 29.46 29.63 29.67 29.34 29.86 31.10 30.77 31.14 31.50 31.65 31.64 31.45 31.96 31.52 31.60 31.63 31.11 30.48 29.53 28.79 28.66 29.30 29.76 23.73 29.23 28.51 30.76 31.30 32.85 33.46 34.18
32.87 32.43 32.46 32.41 32.59 33.95 36.58 34.59 31.25 29.53 28.90 28.38 29.05 29.14 29.64 29.21 30.38 32.24 31.52 30.17 29.96 30.45 31.39 32.51 32.69 32.67 32.69 32.64 32.08 29.46 26.81 25.40 23.49 25.41 28.51 25.48 26.77 27.20 28.46 29.17 30.94 32.57 33.37
31.97 32.15 31.90 32.40 35.45 33.74 35.86 33.53 30.46 29.28 27.58 27.91 28.49 28.69 29.83 30.34 31.46 32.42 31.80 30.05 26.47 27.02 28.34 28.48 28.19 28.00 28.45 27.68 29.39 28.35 26.80 23.38 22.77 22.05 27.66 24.40 25.96 25.67 23.32 29.34 30.52 30.90 30.07

GFSMA_sfc_wetblb_030.txt.gz
Wetbulb
68.14 68.68 68.39 68.90 68.42 67.81 65.19 61.60 58.46 55.93 54.69 53.63 53.40 54.95 56.30 58.02 59.29 60.62 62.13 61.32 62.35 60.42 59.64 59.57 59.64 58.98 58.72 58.82 57.88 56.95 57.11 57.78 57.27 57.71 57.58 57.14 56.99 57.35 57.83 57.99 58.14 58.33 58.74
68.03 68.30 68.16 67.57 67.77 67.51 65.58 61.52 58.10 56.22 55.17 53.82 52.37 54.45 55.93 57.60 58.18 58.71 60.02 59.55 60.00 59.38 58.06 57.67 58.26 58.19 57.62 57.55 56.49 55.81 55.39 56.10 55.76 56.38 55.98 55.91 56.06 56.42 56.46 56.47 56.50 56.66 57.00
67.80 68.04 67.33 66.80 66.65 67.38 64.83 60.74 57.22 55.54 54.03 52.54 51.92 53.44 55.19 56.64 57.03 57.17 57.72 57.64 56.44 58.26 57.44 56.81 57.11 55.60 55.76 55.77 54.82 53.45 53.60 54.18 54.23 54.45 54.43 54.63 54.53 54.65 55.12 55.41 55.54 55.68 56.00
67.28 67.54 67.21 66.12 67.18 66.89 63.02 58.86 56.25 54.22 53.57 52.10 51.34 51.79 53.79 55.22 55.64 55.55 55.43 55.40 55.30 55.46 54.27 54.32 53.71 53.82 53.00 52.42 52.38 52.03 52.27 52.57 52.20 52.19 52.69 53.10 53.54 53.69 54.05 54.45 54.67 54.98 55.31
67.45 66.62 66.72 67.25 67.28 65.38 60.72 58.11 55.47 54.68 52.64 51.43 50.54 50.66 51.97 53.35 53.98 53.31 53.21 53.10 53.71 53.60 53.05 51.10 51.51 50.62 50.19 50.56 51.11 51.34 51.14 50.78 50.42 50.96 51.12 51.49 52.33 53.06 53.33 53.83 54.08 54.53 54.93
67.81 66.94 66.13 66.13 66.53 63.89 60.04 57.21 55.09 53.32 52.88 51.32 47.82 48.62 49.72 52.09 53.05 52.42 51.97 51.15 51.63 51.36 50.77 50.05 49.99 48.79 47.87 47.92 47.99 48.68 49.56 49.31 49.69 50.09 50.73 51.49 51.85 52.64 53.29 53.87 54.24 54.44 54.75
67.95 66.78 66.85 65.65 65.73 62.76 60.56 57.56 55.15 51.10 49.70 50.51 49.08 48.39 48.24 49.24 50.70 51.67 51.27 50.36 49.46 49.02 48.22 47.93 48.20 47.82 46.63 43.59 45.05 46.67 48.34 48.16 49.00 49.81 50.47 51.14 51.75 52.66 53.49 53.98 54.42 54.59 54.80
67.85 66.90 66.27 65.51 64.89 62.56 61.35 57.61 53.43 51.02 51.27 50.12 49.67 49.25 45.96 46.07 47.87 49.48 49.94 48.93 48.42 47.87 46.96 46.77 46.70 46.22 46.33 46.88 46.71 44.69 45.57 47.09 48.42 49.57 50.47 51.21 51.88 52.68 53.36 53.72 53.70 53.97 54.39
67.51 66.99 66.10 65.93 64.21 62.41 60.83 57.40 53.31 51.43 48.40 48.41 50.50 50.04 45.78 45.63 45.96 46.97 47.02 47.67 47.08 46.52 46.57 46.11 45.37 44.81 44.81 46.06 44.73 45.15 44.49 44.60 46.46 48.20 49.59 50.52 51.27 51.97 52.58 53.05 53.54 53.85 54.01
65.61 66.32 65.41 65.07 63.42 61.35 59.66 57.10 54.32 52.67 51.85 47.39 47.23 46.79 46.49 48.85 45.39 42.39 44.66 45.22 46.00 45.18 45.90 45.16 44.43 43.94 44.16 44.51 42.08 42.13 42.05 42.86 45.07 47.19 48.87 49.94 50.89 51.36 52.23 52.73 53.20 53.34 53.18
64.20 64.66 64.86 64.37 62.60 60.57 60.27 58.16 54.75 52.21 51.64 51.38 47.50 44.58 43.64 44.01 44.89 45.29 43.35 41.68 43.63 44.18 45.07 44.79 44.20 43.62 42.95 43.14 43.05 41.97 40.55 41.96 44.05 45.90 47.57 49.14 50.34 50.85 51.52 51.86 52.15 52.28 52.15
62.66 62.99 62.70 63.02 62.67 61.08 59.87 58.50 55.95 53.17 50.98 51.30 47.89 44.72 44.21 42.35 41.84 42.06 42.98 43.51 42.55 42.84 43.63 43.66 43.27 42.96 42.87 42.30 40.56 39.13 39.24 40.66 42.57 44.58 46.60 48.41 49.01 49.42 49.93 50.38 50.37 50.22 50.12
60.56 60.72 61.04 60.91 60.92 61.38 59.88 57.93 55.30 52.64 51.32 48.58 47.32 45.46 45.30 44.75 43.28 43.41 44.21 38.30 41.13 40.65 40.92 42.05 42.15 41.80 41.94 41.58 40.93 37.86 38.83 39.63 41.11 43.33 45.61 47.24 46.47 46.16 46.22 46.97 47.66 48.07 48.41
61.28 61.84 60.72 60.27 60.17 59.96 59.50 57.75 55.42 53.15 49.04 47.06 46.83 44.12 41.48 41.13 41.26 39.89 39.06 36.80 33.79 36.82 37.33 37.65 39.86 39.11 40.15 39.35 40.06 36.98 39.73 38.99 39.75 41.45 43.27 43.42 42.76 42.57 43.05 43.93 44.79 45.55 46.18
60.61 61.24 61.00 59.50 58.80 58.47 57.72 56.35 55.15 53.47 51.80 50.79 48.54 44.14 41.16 40.67 40.82 38.94 40.60 37.60 38.12 32.03 32.95 36.08 35.78 39.23 39.47 39.61 38.81 39.05 39.24 39.53 39.39 40.01 40.54 40.52 40.31 40.58 41.31 42.03 42.80 43.60 44.24
58.83 58.68 59.05 58.11 57.10 55.30 54.66 53.88 52.14 51.40 48.41 45.84 43.20 40.95 38.70 38.70 37.19 36.84 36.66 35.48 35.12 33.96 31.06 35.07 32.71 35.31 36.01 36.27 37.45 37.34 38.48 38.23 38.60 39.26 39.49 39.41 39.45 39.83 40.41 41.12 41.84 42.60 43.22
57.45 57.01 56.60 55.58 54.30 52.41 51.13 49.75 48.21 46.75 43.19 39.97 39.02 37.99 35.97 36.26 35.05 34.99 35.38 34.50 33.14 33.39 31.16 31.83 32.41 32.93 32.61 34.43 34.79 36.76 38.49 38.05 38.23 38.61 38.90 38.90 38.86 39.18 39.96 40.70 41.23 41.77 42.18
54.39 54.23 53.84 52.08 51.41 50.16 48.78 47.04 43.05 41.51 40.36 37.83 38.34 36.22 35.27 36.38 34.91 34.76 33.71 32.16 31.89 31.17 30.34 28.51 31.36 31.54 31.74 33.22 33.54 33.84 34.91 36.13 36.78 37.65 38.46 38.28 38.44 38.72 39.20 39.57 39.88 40.26 40.57
51.83 51.18 51.14 49.49 47.63 46.67 45.21 43.77 41.48 39.13 38.02 37.39 36.90 36.26 35.35 34.58 33.30 32.90 31.41 30.85 31.12 32.65 31.64 31.51 31.77 33.01 32.72 32.94 32.49 33.63 34.19 35.56 36.43 36.76 37.62 37.34 37.36 37.87 38.20 38.71 39.25 39.61 39.45
48.85 48.49 47.29 44.89 43.30 42.20 40.64 39.12 38.51 37.69 37.15 36.55 36.40 35.08 34.26 33.51 32.49 32.28 32.75 32.44 33.12 32.80 32.53 30.99 31.27 32.09 32.48 33.22 33.09 31.82 32.33 34.88 33.92 35.06 35.92 36.44 36.73 36.59 37.22 37.82 37.83 37.59 37.68
42.16 41.90 40.77 39.43 38.93 38.63 38.26 37.38 36.49 35.25 34.17 33.70 33.48 33.62 33.49 34.19 35.55 33.95 33.73 33.77 32.71 31.01 31.95 32.26 31.54 31.78 32.21 32.21 31.51 33.06 31.44 32.53 33.05 34.36 33.67 34.70 34.95 35.08 35.59 36.62 36.39 36.44 36.70
38.98 39.04 38.80 38.49 38.44 38.92 39.87 39.33 37.14 35.42 34.38 33.49 32.02 32.14 32.56 33.81 33.93 35.26 36.64 36.23 35.85 34.15 33.18 32.20 32.32 30.23 30.53 31.72 33.08 31.66 30.87 29.26 27.23 34.06 32.50 32.08 34.68 33.48 34.69 35.40 36.70 36.72 36.78
38.63 38.53 38.99 39.72 39.52 39.95 41.05 39.88 37.55 34.42 33.00 32.24 31.89 31.45 31.48 32.44 32.47 31.71 32.82 33.61 34.35 34.97 34.66 33.55 31.12 31.54 31.44 32.45 31.89 30.58 30.01 28.91 28.14 31.55 32.01 29.19 32.94 32.08 34.63 35.48 36.52 36.41 36.53
37.40 37.35 36.94 37.58 37.88 39.09 39.61 37.70 35.07 31.37 30.77 30.41 30.62 30.88 30.84 30.78 31.46 31.57 31.83 32.17 32.49 33.41 33.53 33.57 33.51 33.26 33.25 33.20 32.79 32.10 31.05 30.56 31.26 32.16 32.98 27.79 31.88 30.97 33.68 35.02 36.03 36.10 36.09
32.98 32.65 33.29 33.11 32.67 32.54 36.10 35.30 32.31 30.55 29.70 29.70 30.60 30.62 30.84 31.17 30.58 32.39 32.25 31.59 31.51 32.25 33.38 32.69 32.76 32.94 33.22 33.33 33.09 31.33 28.27 27.86 26.38 28.40 31.83 29.11 29.96 30.16 31.63 33.00 34.39 35.13 35.20
32.63 33.64 32.21 32.52 34.92 31.96 34.64 33.05 31.27 29.84 29.51 30.07 30.80 30.48 30.11 30.79 31.42 32.38 32.78 31.79 29.06 29.52 30.19 30.45 31.15 31.13 31.37 30.72 30.52 30.19 29.64 26.21 25.30 24.46 31.39 27.54 28.23 28.09 25.50 31.23 32.50 33.31 33.37

GFSMA_sfc_wetblb_033.txt.gz
Wetbulb
68.15 67.84 68.17 67.98 67.60 67.35 66.26 63.83 61.37 58.77 57.17 56.29 55.71 55.88 56.55 57.96 59.18 60.42 62.38 61.96 62.92 61.33 60.69 60.76 60.54 59.78 59.75 59.21 58.05 57.85 58.29 57.74 58.27 58.06 57.46 57.49 57.78 58.19 58.06 58.00 58.00 58.30 58.92
68.50 67.90 67.39 67.15 68.34 67.93 67.11 64.93 61.69 58.86 57.49 56.21 55.02 55.14 56.06 57.60 58.32 58.92 60.97 59.64 61.01 60.80 59.31 59.58 59.23 58.84 58.81 58.32 57.22 56.25 56.22 56.30 56.90 56.43 56.25 56.45 56.40 56.34 56.67 56.74 56.79 57.03 57.42
67.81 67.26 67.53 66.79 67.54 68.49 66.47 65.50 62.02 59.20 57.57 56.10 54.67 54.72 55.84 56.92 57.39 57.53 58.93 58.53 56.88 58.57 59.09 58.76 58.52 57.16 57.34 57.05 55.49 54.33 54.39 54.79 54.44 54.70 54.56 54.65 54.93 55.06 55.25 55.53 55.70 56.01 56.40
67.90 67.17 67.24 67.28 66.38 67.56 65.58 65.07 61.05 57.61 56.72 55.24 54.33 53.53 54.55 55.87 56.28 56.14 56.88 56.96 56.23 55.77 55.92 57.67 55.90 55.62 54.53 53.48 53.15 52.85 53.31 52.86 52.45 52.25 52.46 52.97 53.36 53.60 53.95 54.43 54.76 55.08 55.49
68.15 67.28 67.23 67.67 66.31 66.15 66.31 64.32 60.56 58.10 56.29 55.16 54.33 53.46 53.63 54.49 54.92 54.67 54.46 54.85 55.34 55.55 54.28 53.21 54.95 53.04 52.07 51.80 51.90 51.99 52.11 51.69 50.80 51.14 51.47 51.66 52.02 53.06 53.61 54.03 54.39 54.63 54.98
69.03 68.18 67.24 67.10 66.72 66.28 65.10 62.80 60.04 58.11 56.97 55.21 52.15 51.04 52.11 53.46 54.34 53.67 52.93 52.87 53.40 53.51 53.30 51.40 50.80 49.34 50.07 49.91 48.85 49.07 50.14 50.13 50.16 50.16 50.75 51.47 52.13 52.65 53.29 54.11 54.54 54.82 55.32
69.35 68.62 67.72 66.88 66.30 64.87 64.52 62.24 59.71 56.64 55.04 55.04 50.85 50.27 50.67 50.64 51.90 52.64 52.39 51.62 51.40 51.28 51.07 50.03 49.68 49.21 46.96 46.65 45.85 47.02 48.80 49.36 49.47 49.73 50.75 51.39 52.22 53.10 53.92 54.46 54.76 55.11 54.92
69.35 68.52 67.69 66.77 66.39 65.40 64.33 62.29 59.09 55.46 53.69 52.87 50.84 50.50 46.83 46.83 48.29 50.21 51.11 50.18 49.60 49.53 48.44 48.06 47.95 47.64 47.68 46.88 48.15 45.79 46.65 47.81 48.69 49.60 50.49 51.24 51.82 52.67 53.44 54.12 54.37 54.46 54.82
68.66 68.06 67.58 66.68 66.33 65.93 63.98 62.31 59.45 55.83 52.41 51.89 53.54 52.02 48.75 46.43 45.75 47.83 48.78 48.83 48.49 47.81 47.18 46.87 46.55 46.35 46.18 46.46 45.46 45.45 46.00 45.22 46.27 47.98 49.11 50.30 51.40 52.09 52.87 53.34 54.02 54.37 54.56
65.78 67.72 66.64 66.01 65.65 65.21 63.39 62.79 60.34 56.09 55.17 50.11 50.69 51.44 50.89 50.51 46.00 41.88 45.81 46.48 47.40 46.45 46.13 46.11 45.27 45.14 44.98 45.40 44.53 44.75 44.16 43.04 44.53 46.63 48.51 49.51 50.36 51.60 52.59 52.90 53.47 53.77 53.77
65.71 64.86 65.89 65.58 64.28 64.89 63.67 62.46 59.81 55.19 55.27 52.83 49.98 48.34 47.70 46.41 47.00 46.06 40.76 41.34 44.56 45.42 45.59 45.84 44.86 44.14 43.95 44.17 43.81 43.77 42.23 41.89 43.47 45.41 47.15 48.70 49.97 51.16 52.03 52.30 52.67 52.94 52.91
65.38 64.07 63.99 64.17 64.32 63.62 62.65 61.59 60.00 56.50 55.14 54.54 51.66 48.98 46.28 44.82 42.71 43.07 43.27 41.88 40.53 42.62 44.01 44.73 44.40 43.64 42.88 42.59 42.75 42.87 40.80 40.52 42.02 43.88 45.87 47.73 48.87 49.47 49.88 50.19 50.42 50.71 50.83
62.04 62.51 62.91 62.71 62.34 62.30 61.75 60.79 59.92 56.98 55.65 53.61 53.60 51.30 47.96 48.01 46.10 44.95 45.90 41.30 41.69 40.97 41.59 42.69 42.59 42.93 42.86 41.93 41.38 39.91 40.46 40.22 41.19 43.46 45.51 46.74 46.62 45.69 45.97 46.91 47.55 48.32 48.76
60.66 61.85 61.35 61.56 61.47 61.17 60.60 60.32 59.15 57.82 55.90 54.31 53.43 51.32 48.12 45.83 42.89 41.92 42.15 38.84 35.61 36.63 36.52 39.11 39.89 41.63 41.07 40.75 40.92 39.77 38.49 41.16 40.94 41.79 43.77 44.08 43.65 42.96 43.18 44.01 44.89 45.74 46.33
60.95 61.37 61.78 60.55 60.23 59.83 59.44 58.98 57.08 55.18 54.14 53.45 51.15 49.47 47.38 43.28 41.07 39.71 39.51 39.47 40.30 34.39 34.69 34.74 34.94 37.47 38.72 38.69 39.09 38.64 38.28 39.99 41.24 41.56 41.71 41.86 41.54 41.37 41.66 42.24 42.90 43.69 44.33
58.74 57.94 58.54 58.85 58.79 58.33 58.19 56.57 55.24 53.97 53.06 51.52 49.51 45.02 41.64 40.06 38.80 37.24 36.70 35.85 35.88 35.55 31.18 33.48 32.93 34.06 34.97 36.16 36.95 36.95 36.46 38.80 39.94 40.71 41.00 40.94 40.74 40.97 41.07 41.28 41.74 42.43 43.17
57.16 56.88 56.65 56.30 56.03 55.62 54.34 53.17 51.72 50.62 48.62 44.33 43.52 40.75 38.96 38.43 37.35 36.45 36.43 36.27 34.60 34.93 33.38 31.48 33.29 33.34 33.02 33.81 35.00 35.73 36.32 36.13 36.90 39.35 40.18 40.66 40.62 40.69 40.72 40.76 41.03 41.79 42.41
55.40 54.81 54.70 54.40 54.01 53.11 51.32 49.68 46.49 45.51 42.52 40.94 40.52 39.19 36.93 38.36 36.64 35.71 35.30 33.85 33.00 33.63 33.83 32.27 32.19 32.42 32.32 33.62 33.89 33.88 34.90 36.09 35.74 37.63 39.28 39.98 39.87 40.11 39.82 39.73 40.15 40.65 41.03
52.55 52.70 51.96 51.22 50.04 49.30 48.12 46.39 43.41 42.67 41.11 40.28 39.12 38.26 36.93 35.73 34.83 34.34 33.53 32.96 32.79 33.02 32.52 32.16 32.03 32.68 32.87 33.65 33.35 34.44 34.20 34.66 36.23 38.04 39.04 39.13 38.92 38.96 39.19 39.59 39.79 40.03 40.26
49.32 49.01 47.22 46.61 45.52 44.43 41.93 40.79 39.70 38.87 38.04 37.75 37.80 37.04 37.00 36.65 34.23 33.55 33.24 32.41 32.57 32.51 32.37 31.88 32.00 31.71 32.91 34.07 33.60 31.68 31.25 34.04 33.26 35.44 36.49 37.01 38.04 38.37 38.66 38.85 38.71 38.51 38.64
42.19 41.66 41.22 40.45 40.11 39.69 39.45 38.67 37.84 36.36 35.64 35.02 35.11 35.46 35.45 35.59 36.19 35.09 33.95 32.87 33.18 33.23 32.28 31.73 31.40 31.67 31.52 31.71 31.14 31.70 30.42 31.69 32.19 33.07 32.35 32.29 32.76 33.48 34.26 36.82 37.03 37.72 37.93
39.88 39.83 39.21 39.01 38.87 39.24 39.99 39.50 37.68 36.19 34.79 34.02 32.71 33.07 34.39 35.47 36.48 37.51 36.92 36.27 34.47 32.44 32.35 32.61 32.30 30.57 30.71 30.52 31.63 30.40 29.80 28.15 25.88 32.20 29.69 29.69 32.45 31.59 32.46 33.43 37.02 37.83 38.13
38.98 38.90 39.37 39.73 39.30 39.82 40.75 39.70 37.83 34.70 33.20 32.47 32.10 32.28 32.93 34.18 33.44 33.05 34.42 35.00 35.35 35.97 35.93 33.73 30.87 30.11 30.04 30.99 30.45 29.96 28.86 28.69 27.44 30.01 29.72 27.38 30.90 29.87 32.43 34.10 37.08 37.62 37.82
35.22 34.88 34.74 35.63 36.66 37.77 38.97 37.83 35.60 31.74 31.05 31.19 31.64 31.60 31.12 30.85 31.56 31.42 31.38 31.98 32.00 32.36 32.90 33.21 32.28 32.05 32.03 32.33 31.70 30.86 29.80 29.07 29.75 30.21 30.86 25.89 30.01 29.18 31.55 32.40 36.64 37.08 37.33
32.76 32.44 32.95 32.66 32.46 33.37 37.07 36.31 33.00 31.04 30.56 30.52 30.95 30.80 30.76 30.76 31.31 32.34 32.14 31.79 30.66 31.08 34.22 33.84 33.56 33.43 33.59 33.85 33.24 30.17 27.31 25.68 24.63 26.54 29.63 27.15 27.28 27.68 29.54 29.50 31.12 35.89 36.62
32.85 33.50 32.43 33.23 34.09 32.41 34.56 33.84 32.23 31.19 30.00 29.46 30.55 30.58 30.58 31.22 31.71 32.28 32.06 31.46 28.66 28.35 29.06 28.91 29.17 30.06 30.95 30.02 32.00 28.84 27.32 24.33 25.30 24.54 27.92 25.43 25.58 26.37 24.10 28.51 29.30 30.11 30.21

GFSMA_sfc_wetblb_036.txt.gz
Wetbulb
65.12 65.94 66.78 64.52 63.46 64.39 62.34 60.31 57.83 54.16 52.59 51.47 50.72 50.66 51.11 52.32 53.13 58.68 58.32 62.44 63.65 63.09 62.36 62.29 61.52 61.08 60.67 59.37 59.06 59.22 58.67 58.95 58.64 57.90 57.92 58.16 58.11 57.98 58.07 58.19 58.35 58.48 58.70
65.77 65.76 65.58 65.60 64.81 65.39 64.83 60.83 57.81 54.26 52.23 50.84 50.07 49.85 50.50 52.15 52.79 57.07 56.83 57.61 61.62 62.02 61.13 61.26 60.65 60.44 60.35 58.74 58.03 57.51 57.55 57.56 57.31 56.62 56.91 56.48 56.49 56.77 56.87 56.99 57.21 57.52 57.79
64.65 65.52 64.88 64.77 64.96 65.58 64.85 63.75 58.57 54.65 52.28 51.40 49.55 49.31 50.53 51.28 52.31 53.37 56.13 54.24 56.07 59.32 60.60 60.24 60.04 59.35 59.41 58.61 56.89 56.30 56.06 55.78 55.36 55.13 55.09 55.20 55.18 55.28 55.48 55.93 56.12 56.35 56.75
64.65 63.53 62.85 64.03 64.39 65.44 65.16 62.07 59.25 53.16 51.41 49.80 48.44 48.08 49.53 50.76 51.75 51.89 53.11 53.74 52.54 52.90 56.97 60.67 58.92 58.16 57.59 56.09 54.97 54.85 55.17 54.18 53.46 52.85 52.73 53.07 53.52 53.99 54.29 54.81 55.07 55.26 55.71
65.12 63.75 62.81 63.58 64.10 63.63 64.08 62.76 59.25 52.72 50.77 49.56 49.25 47.42 47.79 48.90 49.96 51.81 50.42 50.89 51.18 51.10 50.16 56.39 57.44 56.97 55.16 54.54 54.34 54.47 54.81 53.28 51.96 51.80 51.61 51.75 51.85 52.59 53.38 54.06 54.56 55.06 55.34
65.30 64.28 63.40 62.90 64.36 62.99 63.84 63.06 58.20 53.90 51.73 49.93 50.45 47.94 46.23 47.59 48.71 48.51 48.51 50.11 48.93 50.10 48.27 48.15 48.18 48.79 53.84 53.28 52.78 52.32 51.99 51.77 51.49 51.13 50.96 51.15 51.54 52.06 52.83 53.66 54.30 54.82 55.45
66.10 63.89 64.11 62.53 64.46 63.41 63.28 63.79 57.70 53.24 51.28 49.72 45.42 44.08 44.63 45.52 46.30 47.67 47.25 46.67 47.31 47.81 46.85 47.16 46.55 44.94 47.27 51.63 49.98 49.30 50.12 51.66 51.24 50.95 50.84 50.96 51.71 52.49 53.13 53.87 54.23 54.43 54.74
66.55 65.72 65.44 62.96 62.04 63.68 62.86 62.96 58.92 52.37 50.25 48.12 44.04 43.51 40.60 42.11 43.38 45.39 46.29 46.43 45.17 46.25 45.85 45.74 45.45 44.31 42.87 42.69 43.09 49.32 49.83 50.85 51.06 50.84 50.67 50.71 51.03 51.51 52.42 53.12 53.74 54.17 54.75
65.66 66.03 65.55 65.79 63.35 61.56 62.93 61.86 59.06 54.07 50.45 47.91 48.28 45.72 42.76 40.85 39.85 42.69 44.64 45.16 44.55 43.77 43.89 43.81 43.60 43.79 42.88 42.69 46.72 45.63 47.77 49.09 49.46 49.60 49.51 49.91 50.35 51.19 51.93 52.78 53.38 54.01 54.35
65.02 65.99 64.10 63.57 64.80 64.94 63.24 61.99 59.65 56.12 51.01 48.24 47.17 49.74 45.94 44.72 40.55 37.95 42.86 44.06 44.15 44.03 43.34 43.00 42.23 42.75 42.28 41.94 44.22 45.76 47.47 46.10 46.55 47.42 48.22 49.14 49.73 50.68 51.77 52.48 53.18 53.58 53.64
64.64 63.67 64.81 64.15 63.54 64.32 63.86 62.36 59.77 56.60 53.31 50.66 49.06 47.60 46.78 43.74 42.34 40.97 37.75 40.16 42.60 43.10 42.08 42.83 42.36 41.40 41.50 41.45 39.99 44.88 46.30 45.14 45.58 46.30 47.06 48.12 49.17 50.42 51.59 51.92 52.46 52.68 52.41
62.07 62.58 63.66 63.47 63.65 63.28 63.04 62.14 61.06 58.11 53.85 52.83 49.32 48.02 46.89 45.91 42.58 42.32 39.83 38.30 39.53 40.07 40.55 41.89 41.91 41.02 40.82 40.28 43.43 45.05 44.76 44.01 44.26 44.71 46.19 47.55 48.58 49.00 49.42 49.59 49.85 50.16 50.41
59.13 59.92 62.28 62.28 62.22 62.60 62.22 61.62 59.93 58.03 54.42 53.36 51.98 49.78 47.65 48.68 46.78 45.19 44.33 40.53 39.53 39.14 39.48 40.98 40.66 40.30 41.27 40.10 41.29 42.84 42.92 42.38 42.79 43.96 46.00 47.29 47.30 46.79 46.51 46.63 47.41 48.28 48.70
58.33 59.85 61.40 61.53 61.65 61.56 61.13 60.29 59.62 58.61 56.07 54.12 53.33 51.91 49.64 48.83 47.94 45.83 45.20 40.29 36.82 36.54 37.05 37.53 39.03 39.64 39.74 39.28 40.11 41.89 39.49 42.33 42.60 43.11 44.16 45.08 44.52 44.50 44.49 44.48 45.09 45.84 46.37
57.06 56.69 56.53 58.73 59.85 59.93 59.90 58.94 58.68 58.08 56.25 54.38 53.42 51.74 47.70 45.65 46.33 44.99 45.18 44.42 42.12 34.77 33.51 35.28 35.47 37.76 38.28 38.33 39.79 38.41 37.68 39.42 41.41 42.32 42.98 43.03 42.68 42.53 42.71 43.30 43.54 43.83 44.27
53.72 54.45 54.35 55.15 56.77 57.80 57.46 56.53 55.70 54.78 53.25 51.65 50.28 48.63 44.31 42.78 41.79 41.42 40.69 40.12 40.07 38.20 33.24 34.79 33.66 35.08 36.75 37.75 38.32 37.43 36.75 38.63 40.00 41.70 42.65 42.69 42.19 42.12 42.11 42.56 42.92 43.03 43.21
52.35 52.49 52.68 52.69 53.91 54.38 53.73 52.57 51.32 50.81 48.24 45.79 44.91 44.62 41.70 40.80 38.75 37.91 38.05 37.77 36.77 36.83 34.70 32.64 33.65 34.17 33.92 34.38 36.17 36.38 36.56 36.26 36.44 39.95 40.90 41.13 41.19 41.50 41.68 41.74 41.92 42.12 42.33
51.02 50.90 50.79 50.84 50.19 49.47 49.05 48.22 45.67 45.78 43.36 42.08 40.92 40.22 39.32 39.59 38.53 37.58 37.26 36.11 35.92 36.11 35.26 32.93 32.42 31.97 32.29 33.61 34.80 34.36 35.45 36.33 35.67 37.76 39.50 40.20 40.76 41.05 40.98 40.68 40.49 40.74 41.19
47.78 47.25 46.34 45.60 45.36 44.90 45.19 43.91 42.76 41.71 41.72 40.69 40.20 39.06 38.19 37.59 35.86 35.83 35.35 34.68 34.16 34.44 33.75 34.42 32.10 32.40 33.13 33.94 33.53 33.95 33.91 33.97 34.99 37.69 39.48 39.14 39.15 39.45 39.71 40.03 40.25 40.45 40.39
40.12 40.21 39.54 39.12 38.93 38.93 39.19 39.33 39.40 38.39 38.39 38.30 38.24 37.70 37.12 36.81 35.86 34.57 33.51 32.61 33.17 32.80 32.75 32.39 32.47 32.91 33.36 33.45 32.60 30.58 29.77 31.12 30.22 34.15 35.66 36.56 37.89 37.92 38.13 38.82 38.91 38.78 38.78
38.30 38.51 39.28 39.14 39.31 39.02 39.42 38.07 37.82 37.18 36.17 35.14 35.08 35.38 35.31 36.48 37.16 35.79 34.11 33.34 33.41 32.67 32.49 31.91 31.07 31.39 31.08 29.41 28.08 28.79 27.89 27.97 28.41 29.62 28.11 28.18 28.29 29.03 30.78 35.32 36.01 36.71 37.35
39.93 38.83 38.97 39.25 39.14 39.94 40.80 39.81 37.13 35.16 34.64 33.91 32.71 32.86 34.22 36.84 38.06 38.85 37.61 37.00 35.08 32.61 31.65 31.68 29.55 27.43 27.02 26.11 26.26 26.85 26.16 23.19 21.07 27.49 25.55 27.40 27.39 28.17 28.36 29.12 35.48 37.40 38.25
37.20 37.13 38.20 38.67 38.51 39.16 40.32 39.27 37.38 33.86 32.89 32.46 32.56 32.86 33.62 34.49 33.52 32.76 36.22 36.51 36.22 36.59 35.69 31.62 27.79 26.29 25.58 26.71 26.22 23.31 23.99 21.91 23.54 26.50 25.77 25.86 26.38 26.67 28.14 31.92 36.00 37.00 37.79
34.63 34.52 34.48 35.25 36.13 37.79 39.07 38.00 35.80 32.06 31.44 31.55 31.94 31.48 31.01 31.07 31.59 31.56 30.81 31.33 30.32 29.47 30.30 31.48 28.49 27.68 27.44 27.98 27.70 26.05 25.74 25.03 26.08 26.23 26.00 22.74 24.86 26.08 28.12 27.68 35.08 36.24 36.64
32.57 32.21 32.54 32.72 32.91 34.09 37.43 36.06 32.90 30.93 30.51 30.56 30.65 30.71 30.51 30.44 31.72 32.80 30.29 28.03 27.66 27.66 33.51 34.17 33.50 33.67 33.73 33.85 32.64 26.81 21.17 18.87 20.38 22.95 25.69 23.65 24.06 24.11 25.72 27.31 27.88 34.44 35.77
31.60 32.47 32.19 32.60 33.73 30.05 34.81 34.47 32.26 30.11 26.73 27.92 29.00 29.14 31.78 31.11 32.47 32.89 29.10 26.36 24.77 24.49 25.19 25.59 25.44 27.01 28.76 27.20 32.32 26.51 21.79 13.49 14.59 16.80 24.40 20.55 22.89 23.55 21.00 25.77 25.51 27.19 27.74

GFSMA_sfc_wetblb_039.txt.gz
Wetbulb
62.23 62.90 62.68 62.84 64.16 63.46 62.41 60.44 58.58 56.12 53.05 50.66 49.85 49.14 49.70 50.49 55.90 58.03 59.46 63.41 65.31 64.90 63.88 63.58 62.68 62.35 61.39 60.39 60.70 59.78 59.79 59.56 58.62 58.63 58.79 58.53 58.33 58.31 58.32 58.39 58.59 58.83 59.13
64.25 64.21 63.86 61.94 61.18 62.54 62.76 61.40 58.42 53.90 51.00 49.91 48.85 48.36 48.97 50.41 52.86 56.70 57.85 59.77 63.32 63.86 63.07 62.77 62.21 61.95 60.96 60.07 59.97 59.52 58.74 58.77 57.66 57.77 57.27 57.19 57.17 57.10 57.29 57.32 57.42 57.52 57.80
64.78 64.81 64.37 64.01 63.76 63.36 62.68 62.59 59.61 54.69 50.76 49.71 48.25 47.76 48.38 49.25 52.31 55.95 55.39 55.82 58.74 61.07 62.46 61.94 61.52 61.50 60.96 60.09 58.92 58.58 58.04 57.56 56.69 56.28 56.15 55.96 55.67 55.52 55.86 55.94 56.06 56.16 56.41
64.76 64.03 63.75 63.77 64.65 64.08 63.68 62.16 59.82 56.01 50.88 48.63 47.59 46.77 47.61 49.18 50.01 54.29 54.23 53.21 53.47 54.16 59.25 62.06 61.25 60.69 60.68 60.04 58.50 58.10 57.53 56.25 55.44 54.56 54.44 54.28 54.34 54.33 54.30 54.59 54.69 54.85 55.07
63.76 63.02 62.82 63.59 63.80 64.43 64.14 63.14 61.03 55.67 50.77 48.36 47.65 46.97 46.49 47.66 49.33 50.87 52.54 52.05 51.48 51.36 50.82 58.88 60.26 59.80 59.64 58.31 57.45 57.55 57.69 55.84 54.68 53.84 53.33 53.05 52.91 53.30 53.25 53.58 53.86 54.05 54.38
63.96 63.47 62.57 61.96 63.72 62.89 63.47 62.04 60.32 53.50 50.99 49.56 49.85 47.97 45.41 46.53 47.72 47.97 48.38 52.15 50.12 50.06 49.49 50.34 51.92 52.39 57.26 56.46 56.50 56.95 57.40 55.84 53.87 53.59 53.07 52.79 52.72 52.76 52.93 53.30 53.62 53.82 54.36
65.26 62.73 62.00 61.21 63.14 62.85 63.01 62.80 59.25 55.15 50.77 49.67 46.92 43.49 43.53 43.91 45.12 46.59 46.51 46.69 47.77 49.53 47.53 47.71 46.67 46.04 49.94 55.20 54.98 54.86 54.71 54.62 54.26 53.59 52.92 52.57 52.66 52.86 52.99 53.31 53.63 54.09 54.32
65.18 65.78 64.29 61.75 61.38 62.18 61.43 61.00 58.98 53.92 54.39 50.00 46.99 41.70 40.02 42.14 43.20 44.29 45.57 46.20 45.76 47.58 47.66 47.18 45.83 44.31 44.64 45.98 46.56 51.92 52.18 53.85 54.32 53.77 53.16 52.62 52.41 52.23 52.28 52.88 53.45 53.90 54.34
64.77 64.34 63.73 63.42 62.98 62.37 61.82 61.08 60.39 56.50 52.47 50.22 47.89 46.51 40.62 40.50 39.56 41.64 43.46 44.54 44.42 44.53 45.51 46.79 45.96 44.93 43.03 42.63 46.30 48.25 50.65 51.90 53.16 53.60 52.79 52.08 51.40 51.62 52.04 52.68 53.31 53.78 54.12
64.06 64.15 63.31 62.79 61.81 61.85 61.12 62.17 62.20 59.18 53.24 50.40 47.85 48.17 47.91 44.02 40.33 39.50 42.36 44.10 44.74 44.03 44.49 43.65 44.69 43.23 42.65 42.57 45.96 46.88 49.02 49.87 50.80 51.28 51.25 50.86 50.89 51.09 52.08 52.71 53.17 53.61 53.82
63.50 63.52 63.61 62.17 61.40 61.94 62.68 60.34 59.36 58.00 55.14 53.50 50.10 47.33 46.17 45.50 42.25 39.60 38.95 42.41 44.35 44.86 44.83 45.20 43.51 43.08 41.94 42.22 42.26 45.82 49.08 48.68 48.72 49.08 49.62 49.66 49.73 50.62 51.91 52.42 52.68 52.51 52.56
60.32 62.67 62.84 62.28 62.69 62.88 61.04 59.70 59.30 59.54 57.48 55.21 52.11 49.73 47.99 46.90 45.80 41.83 40.37 40.28 42.46 44.18 43.38 43.38 42.92 41.46 40.13 40.40 44.09 47.92 48.53 47.70 47.11 46.97 47.48 48.16 48.80 49.88 50.54 50.88 50.83 50.35 50.51
57.46 59.05 61.19 60.68 60.84 62.24 61.92 61.26 58.97 58.85 57.65 55.25 52.93 51.07 50.74 50.68 49.03 46.47 45.36 41.95 41.68 41.32 40.85 41.25 40.70 40.67 41.37 40.39 42.26 46.34 46.68 45.66 44.53 44.39 46.16 48.32 48.25 47.98 48.06 48.51 49.15 49.29 49.30
55.41 57.76 60.53 60.88 60.85 60.85 59.84 60.32 59.34 58.42 56.03 55.27 54.38 52.08 51.36 50.47 48.89 47.81 46.78 43.40 39.68 37.81 37.93 37.52 39.25 39.68 39.49 40.29 43.99 43.95 42.19 42.72 42.25 43.32 45.35 46.19 46.11 45.77 45.87 46.57 46.92 47.00 47.09
55.08 54.88 54.99 55.10 55.90 57.24 57.89 58.81 57.87 57.35 56.87 54.91 53.96 53.66 51.14 48.64 47.84 46.77 46.95 45.99 44.74 38.49 35.24 36.72 37.33 38.00 39.38 40.69 42.35 39.31 38.87 40.31 41.93 43.54 43.54 44.16 44.14 44.40 44.96 44.66 44.66 45.12 45.40
52.33 52.56 52.68 52.81 52.84 53.90 54.94 54.53 54.47 53.66 53.48 51.34 50.98 49.74 46.42 44.83 45.11 43.84 44.03 42.74 43.38 42.09 36.95 36.43 35.94 37.03 39.17 39.79 41.40 38.77 38.65 39.88 41.27 42.67 43.03 43.57 44.45 44.29 43.47 43.51 43.66 43.97 44.26
50.31 50.31 50.29 50.45 50.34 50.39 50.63 49.73 48.39 48.15 47.09 46.51 46.23 46.21 43.01 42.11 40.54 40.66 40.02 40.17 40.19 40.27 38.95 33.85 34.95 35.60 35.69 37.14 38.06 37.32 37.58 37.30 37.77 40.88 42.44 43.07 42.44 41.99 42.19 42.60 42.61 42.99 43.04
45.71 46.15 46.54 46.10 45.37 46.29 45.71 45.04 44.04 43.41 42.52 43.05 42.07 40.93 39.65 39.93 38.30 38.55 38.57 38.53 38.19 38.60 37.19 33.73 33.19 32.18 32.92 34.36 34.83 35.12 36.35 37.97 37.16 38.54 39.94 40.35 40.86 41.52 41.65 41.16 41.02 41.23 41.38
39.64 39.56 39.65 39.14 39.32 40.37 41.85 42.62 42.19 41.19 40.99 40.80 40.36 39.63 38.83 38.20 36.83 36.64 36.56 36.30 35.03 35.20 34.70 35.19 32.41 32.85 33.15 34.05 33.76 34.79 34.67 34.63 35.61 37.54 39.25 40.33 39.96 39.52 39.60 39.86 40.00 40.42 40.37
37.87 37.80 37.77 37.91 38.19 38.01 38.57 39.41 39.04 37.91 37.42 37.71 38.00 37.78 37.64 37.21 36.16 35.43 34.21 33.04 33.60 33.96 33.92 33.87 33.02 32.66 33.37 34.22 33.55 31.80 30.79 31.73 30.87 33.84 35.33 36.14 37.39 37.60 37.73 37.72 38.15 38.23 38.09
38.17 37.75 37.77 38.12 38.54 39.19 39.02 37.09 37.30 36.55 35.71 35.16 35.54 36.12 35.90 37.14 37.53 36.06 34.69 33.61 33.69 32.97 32.87 32.17 31.71 31.88 31.64 30.41 29.01 29.08 28.32 27.74 27.88 29.07 28.13 27.91 27.91 27.98 29.10 33.69 34.82 36.14 36.57
38.53 37.95 37.88 38.94 39.31 40.13 40.86 39.69 36.71 34.88 34.52 33.89 33.15 33.68 34.83 36.30 38.32 39.05 37.95 37.08 35.70 33.52 32.12 31.91 31.48 29.78 27.91 27.33 25.67 26.57 26.15 23.02 19.75 26.40 25.76 26.20 27.34 26.03 27.00 27.56 34.32 36.47 37.56
36.29 35.96 36.68 37.68 37.81 38.80 40.17 38.86 37.16 33.84 33.05 32.68 32.83 33.40 33.13 33.83 33.43 32.62 36.60 37.48 36.58 37.48 36.14 32.58 28.58 26.89 25.08 25.70 24.24 21.90 23.63 21.19 22.76 25.32 25.20 24.12 25.72 25.13 26.52 30.15 34.92 36.09 37.07
33.98 34.06 34.39 35.20 36.38 37.97 38.92 37.60 35.86 32.27 31.68 31.59 31.70 31.34 30.95 30.93 31.86 31.86 31.26 31.40 30.80 30.02 29.81 31.03 28.00 27.08 26.68 27.49 27.12 25.38 25.07 24.00 25.35 25.76 25.30 19.48 23.53 24.42 25.92 26.34 34.05 35.36 35.96
31.51 31.81 32.76 33.09 33.14 34.16 36.93 36.08 32.85 29.47 26.38 26.71 28.95 29.10 28.93 28.91 32.10 33.01 29.64 28.12 27.88 27.33 32.04 33.96 33.12 33.51 33.77 34.19 32.61 25.77 20.15 17.23 19.28 22.20 24.76 23.15 23.01 23.47 24.65 25.29 26.49 33.10 34.90
32.24 32.38 31.56 25.96 32.63 23.26 34.94 34.73 29.35 25.41 22.37 25.64 26.10 26.44 32.53 30.09 33.17 33.64 26.30 24.62 23.43 23.45 24.44 24.83 24.36 25.80 27.13 25.80 31.56 25.84 21.47 12.44 12.42 14.32 23.42 19.80 21.82 23.33 20.08 24.55 24.99 25.75 25.95

GFSMA_sfc_wetblb_042.txt.gz
Wetbulb
60.35 61.89 62.51 63.07 63.78 63.02 61.63 60.00 59.15 57.73 54.90 52.97 48.81 47.95 48.60 48.63 57.03 59.37 59.97 63.76 65.90 66.25 65.21 64.60 63.64 62.84 61.99 61.04 60.97 60.32 60.54 59.44 59.35 59.55 59.31 59.04 58.77 58.65 58.55 58.68 58.93 59.21 59.46
61.87 61.75 62.12 62.08 63.12 63.48 63.00 61.31 59.87 57.83 54.64 51.19 48.97 47.73 47.99 48.51 54.24 57.36 58.45 60.69 64.61 65.37 65.06 64.06 63.39 62.89 62.08 61.11 61.18 60.03 60.14 59.10 59.06 58.82 58.31 58.20 57.89 57.85 57.84 57.80 57.68 57.95 58.31
63.17 62.41 62.42 61.79 61.70 62.14 62.79 61.18 60.06 56.96 52.43 50.12 48.16 47.44 47.07 47.50 50.62 56.36 57.06 57.80 60.73 62.72 64.10 63.76 63.01 62.58 61.81 61.13 61.02 59.95 59.93 58.80 58.29 57.82 57.60 57.19 56.82 56.74 56.75 56.62 56.48 56.48 56.87
64.28 63.29 63.31 63.34 63.01 61.72 61.88 60.96 58.79 55.90 52.38 49.31 47.82 47.07 46.44 47.26 48.72 55.11 55.18 55.34 55.81 56.73 61.07 63.30 62.87 62.27 62.11 61.23 60.62 60.17 59.18 58.30 57.29 56.88 56.62 55.96 55.66 55.45 55.40 55.33 55.19 55.18 55.30
64.37 64.48 64.08 64.00 63.48 63.96 62.86 62.19 60.15 55.67 52.15 49.51 48.30 47.11 45.87 46.29 47.74 51.35 53.90 53.36 52.99 53.48 53.27 58.79 61.85 61.68 62.13 61.36 60.83 59.98 59.20 57.57 56.67 55.60 55.22 54.98 54.84 54.59 54.70 54.49 54.37 54.29 54.46
62.81 62.94 63.12 63.17 62.98 63.16 63.41 62.05 61.65 55.28 52.78 50.75 50.03 49.08 45.89 45.99 46.44 47.47 51.04 53.80 51.67 51.65 50.83 51.40 56.19 56.27 60.26 60.90 60.31 59.04 59.17 57.98 56.29 55.39 54.79 54.39 54.12 54.10 53.83 54.08 54.06 54.00 54.42
63.88 62.30 61.56 60.97 61.55 62.22 62.59 62.64 61.42 58.58 53.60 50.71 49.97 47.76 46.43 46.28 44.38 45.92 46.74 50.19 50.77 50.78 49.22 49.91 51.78 50.38 54.60 59.67 58.34 58.04 58.48 58.90 56.58 55.13 54.67 54.14 53.83 53.72 53.92 54.14 54.18 54.29 54.46
65.14 64.55 62.30 61.20 61.49 61.74 60.33 60.27 59.54 56.26 56.54 51.04 49.30 44.31 44.60 45.14 43.11 44.56 44.85 46.58 48.05 49.97 49.12 48.28 48.00 47.13 48.00 49.62 50.50 57.16 56.92 57.09 56.78 55.94 54.92 54.32 53.81 53.89 53.63 53.81 53.85 54.17 54.56
64.21 63.92 63.74 62.60 60.99 61.66 61.71 61.17 60.61 57.98 57.56 51.11 50.39 48.97 40.31 41.29 40.63 41.46 42.07 44.64 45.25 45.28 48.58 48.97 48.30 47.15 45.69 46.15 50.38 52.84 54.55 53.83 55.07 56.06 55.67 54.66 53.98 53.38 53.13 53.31 53.81 54.01 54.29
62.37 63.10 62.70 62.13 61.40 60.77 60.50 59.63 59.95 59.65 55.09 52.05 50.01 50.24 50.35 45.38 41.69 42.35 40.97 41.10 42.92 43.54 44.21 46.12 47.77 47.13 45.95 45.63 47.42 48.30 51.14 51.91 53.41 55.23 55.41 54.55 53.44 53.02 52.68 53.10 53.81 53.59 53.93
59.87 61.75 62.56 61.78 61.01 60.70 60.47 60.18 60.04 60.32 58.83 58.49 51.15 47.79 47.86 48.14 44.69 42.95 41.01 41.33 44.80 44.60 44.12 45.34 46.46 46.51 45.19 43.78 43.86 46.60 50.45 50.52 52.24 52.73 53.04 52.84 52.24 51.97 52.05 52.74 53.19 52.78 52.32
53.39 57.99 60.74 60.91 60.57 60.07 60.02 59.23 59.76 57.99 58.11 56.29 55.93 53.86 50.38 48.73 48.19 44.63 43.43 42.24 43.53 45.81 44.87 45.38 44.38 43.68 42.61 43.30 45.29 46.84 49.62 50.47 50.56 50.71 50.95 50.58 49.96 50.02 51.14 51.59 51.85 51.52 51.11
52.75 56.08 58.14 58.70 59.24 61.12 60.35 60.68 59.76 57.32 58.30 57.34 56.21 53.04 52.62 50.86 50.66 48.57 47.69 45.75 41.29 42.83 41.84 41.87 41.96 42.36 42.52 42.00 43.43 47.40 50.35 49.55 48.89 47.97 47.71 48.43 48.62 48.96 48.65 48.85 50.14 50.93 50.68
52.27 54.70 56.61 57.10 57.10 57.79 59.06 59.08 56.54 55.86 57.17 56.82 55.95 53.26 52.33 51.67 50.11 49.76 48.56 44.80 40.20 38.79 38.88 39.66 39.79 40.71 41.11 42.40 45.20 47.18 45.50 45.92 45.50 45.29 46.14 47.70 48.23 47.62 47.32 47.19 48.74 49.57 48.93
52.11 52.84 52.89 52.84 53.19 54.13 55.28 55.33 54.45 54.03 55.93 55.20 54.72 54.05 52.01 51.15 50.19 49.44 48.91 47.93 46.48 42.43 37.94 37.53 37.81 39.30 41.45 43.44 44.90 42.52 42.32 44.70 45.60 45.78 45.97 46.73 46.17 45.62 46.24 46.85 47.32 46.54 46.32
50.08 50.66 50.32 50.61 50.63 51.07 51.82 51.58 50.59 50.14 50.05 49.75 51.39 51.35 48.48 46.09 45.62 45.20 44.94 43.74 42.44 43.67 40.99 38.06 37.04 38.02 40.16 41.84 43.42 40.21 40.46 43.11 44.19 45.08 45.76 45.13 44.97 44.88 45.69 46.53 45.27 44.96 45.09
46.20 47.05 47.68 47.05 47.14 46.73 46.64 46.33 45.65 44.95 47.23 46.82 45.69 45.79 43.54 42.83 41.78 40.92 40.92 41.15 41.00 40.53 39.40 35.89 36.13 36.38 37.36 38.69 40.52 38.97 39.96 39.81 39.38 43.72 44.49 44.13 44.21 45.02 44.75 43.63 43.53 43.70 43.92
40.12 40.48 41.51 41.71 42.66 43.03 42.52 42.09 41.38 41.41 43.66 42.64 41.80 41.29 40.00 40.43 38.82 39.03 38.98 38.69 38.50 38.45 37.89 34.33 33.48 33.11 33.72 36.27 36.17 36.09 37.64 38.64 38.05 39.48 42.12 43.13 42.52 42.13 42.27 42.68 42.45 41.75 41.71
38.03 38.09 38.43 38.27 38.55 39.20 39.63 39.53 39.55 39.45 39.77 40.03 39.82 39.36 38.87 38.44 37.32 37.20 36.95 36.01 35.46 36.03 35.42 35.49 32.90 33.18 32.75 34.09 33.73 34.21 34.45 35.88 36.89 38.94 40.24 40.65 41.20 41.78 40.81 40.34 40.49 40.48 40.28
37.04 37.23 37.54 37.84 37.80 37.31 37.35 37.25 36.48 35.17 35.26 37.12 37.61 37.72 37.51 37.18 36.46 35.45 34.31 33.38 34.07 34.59 34.54 34.45 33.56 32.91 33.58 33.44 34.11 33.22 32.15 33.39 32.62 34.47 36.03 37.02 37.31 37.94 38.63 38.54 38.15 38.14 38.16
37.58 37.12 37.30 37.73 37.86 38.32 38.20 35.58 35.55 35.52 35.47 35.48 35.91 36.75 37.13 38.30 38.42 37.25 35.36 34.08 34.14 33.49 33.59 32.78 32.14 32.39 32.26 31.49 30.98 30.86 30.19 28.52 27.92 28.35 28.48 27.98 27.81 27.60 29.16 33.59 34.65 36.06 36.71
37.86 38.23 38.00 37.74 38.19 38.83 39.95 39.40 35.48 34.46 34.74 34.38 33.64 34.10 34.95 35.85 37.51 40.08 39.26 38.37 36.73 33.78 32.48 32.03 31.32 29.16 28.61 28.07 26.60 26.12 25.06 23.28 21.68 26.66 25.65 25.63 27.40 26.93 27.07 27.60 33.68 35.74 36.92
35.94 35.87 36.43 37.42 37.24 38.02 39.28 38.59 37.09 32.09 31.77 31.34 32.15 32.09 32.52 33.40 33.41 32.74 35.44 36.58 36.46 37.44 36.23 31.38 28.40 25.79 25.02 25.44 23.84 21.24 22.81 21.30 22.55 25.01 24.98 23.26 25.25 24.97 26.17 28.89 34.46 35.62 36.62
34.17 34.52 34.65 35.32 36.44 37.86 38.91 37.76 35.74 31.50 29.16 26.20 27.77 26.23 27.62 28.36 30.49 30.48 29.34 28.78 28.44 28.33 28.87 30.41 28.16 27.49 26.84 27.12 26.53 25.06 24.81 23.55 24.93 25.46 25.16 18.22 22.92 23.69 25.20 25.64 33.23 34.88 35.97
32.33 32.35 32.99 32.95 32.72 33.22 36.03 35.03 29.11 22.32 22.94 23.18 27.10 26.63 26.97 26.45 32.82 34.15 27.38 25.90 25.81 25.32 30.70 33.30 32.55 33.10 33.63 34.00 31.94 25.58 19.79 16.01 18.87 21.89 24.23 22.61 22.80 23.13 24.26 24.11 25.74 32.68 34.56
31.86 31.60 24.00 24.41 31.31 19.93 34.40 34.13 27.91 24.70 21.41 24.69 24.16 25.57 32.91 30.34 33.48 33.50 26.00 24.19 23.08 23.64 24.27 24.92 24.25 25.21 26.15 24.79 30.75 25.49 20.67 11.34 11.96 13.98 22.68 19.75 21.60 22.90 17.94 23.33 24.75 25.37 25.27

GFSMA_sfc_wetblb_045.txt.gz
Wetbulb
60.13 60.48 61.40 62.05 62.65 62.73 61.48 59.85 58.86 57.95 56.26 54.04 52.35 48.77 48.94 48.80 50.11 58.94 59.93 62.96 66.05 67.39 65.92 65.51 64.50 63.59 62.60 61.55 61.23 60.49 60.21 59.35 59.37 59.85 59.22 58.94 58.87 59.02 59.08 59.29 59.60 59.74 59.87
60.43 60.47 61.00 61.49 61.93 62.53 62.45 60.97 59.83 58.78 57.34 54.34 51.82 47.93 47.45 47.25 48.62 57.21 58.43 59.64 64.41 66.04 66.45 65.39 64.62 63.79 62.99 62.00 61.71 60.57 60.47 59.41 59.30 59.18 58.64 58.26 58.00 58.12 58.33 58.28 58.36 58.60 58.77
61.61 60.78 60.73 60.75 61.73 61.92 62.30 61.28 60.23 58.94 56.94 54.02 50.15 48.78 47.16 46.40 47.85 54.29 56.90 57.80 59.94 63.30 65.23 65.18 64.68 63.77 63.02 62.36 62.13 61.04 60.72 59.59 59.29 58.68 58.05 57.62 57.15 57.13 57.16 57.06 57.04 57.27 57.64
63.14 61.55 61.22 61.33 61.45 60.57 61.49 61.02 60.55 58.86 56.66 53.56 49.93 48.34 47.10 46.37 46.67 50.23 55.11 56.04 57.13 58.74 61.75 64.77 65.06 63.86 63.11 62.50 62.11 61.65 60.36 59.72 58.73 58.11 57.83 57.03 56.39 56.08 55.83 55.55 55.38 55.47 55.61
64.15 63.61 62.68 62.56 62.09 61.40 60.72 60.90 59.97 58.53 55.66 53.32 50.50 48.47 46.91 45.99 46.42 48.93 53.17 54.55 55.01 55.99 55.35 59.44 62.47 63.00 63.28 62.61 62.15 61.69 60.82 59.62 58.35 57.62 57.09 56.53 56.05 55.57 55.31 55.05 54.71 54.57 54.73
63.14 63.29 63.42 63.01 62.21 62.48 62.48 61.34 60.64 57.47 55.90 54.98 53.36 51.10 49.23 48.77 46.67 46.43 48.56 54.22 53.65 53.92 53.13 53.16 54.45 58.08 61.66 62.54 62.17 61.89 61.18 60.11 58.31 57.11 56.29 55.71 55.34 55.24 54.92 54.88 54.68 54.41 54.74
63.17 61.70 61.98 61.48 61.26 61.89 62.30 62.27 60.97 59.02 56.84 52.94 51.71 48.86 45.76 45.93 44.79 45.10 46.39 49.16 52.30 52.79 51.41 51.28 51.66 53.81 56.13 61.88 62.20 61.73 60.79 60.49 59.44 57.45 56.17 55.69 55.34 55.10 54.88 54.98 54.84 54.88 54.91
64.35 63.62 62.07 61.27 60.31 60.58 60.00 60.30 60.80 58.63 56.45 53.01 51.97 45.69 46.64 47.29 43.97 45.14 44.43 46.49 47.71 50.83 50.81 51.03 50.23 51.55 51.80 53.68 55.44 60.85 59.64 59.88 60.30 58.51 56.53 55.77 55.37 54.91 54.89 54.87 54.64 54.55 54.79
63.39 63.42 63.52 62.28 60.77 59.87 60.22 60.05 59.11 58.22 58.56 51.47 50.49 53.26 44.27 43.23 42.56 43.73 41.53 42.74 44.63 45.18 48.31 49.15 48.95 49.50 49.37 50.95 53.65 55.43 57.91 58.00 58.29 58.39 57.66 56.53 55.58 55.07 54.80 54.17 54.18 54.37 54.68
59.01 61.13 61.66 61.34 60.98 59.89 59.22 59.90 59.16 58.60 56.05 58.28 51.43 51.94 50.38 46.76 45.88 45.41 42.64 42.12 41.66 44.96 44.56 48.23 48.86 49.00 49.36 48.75 50.23 52.29 55.17 54.30 54.79 55.41 56.82 57.16 56.35 55.40 54.42 54.00 53.79 54.08 53.99
51.77 55.64 59.12 60.13 59.96 60.11 59.54 58.60 58.00 57.54 58.93 59.07 54.65 50.75 49.58 49.52 45.86 45.06 48.23 45.88 45.60 45.10 46.71 45.56 47.88 48.43 48.18 47.33 47.13 49.08 51.08 50.63 52.05 53.48 55.06 56.36 56.16 54.82 54.03 53.43 53.30 52.88 52.42
51.55 53.20 56.41 58.23 58.98 58.75 58.79 58.66 58.42 57.49 58.64 58.63 56.30 53.73 51.54 49.38 47.91 46.43 44.32 47.45 45.72 46.00 46.43 45.63 46.46 47.00 46.32 44.98 46.99 48.95 50.14 50.15 50.69 53.25 53.85 54.47 53.64 52.85 51.46 51.89 51.86 51.70 51.83
49.82 52.58 54.74 56.92 57.40 58.15 58.65 58.49 59.65 59.10 57.82 56.75 55.74 54.16 52.21 53.09 52.06 49.83 48.17 47.33 44.82 43.34 39.73 39.98 40.53 42.45 43.85 44.59 46.20 48.29 49.59 50.33 51.28 52.66 53.23 53.46 51.10 49.43 49.42 50.18 50.81 50.56 51.21
47.87 52.15 53.85 54.07 54.04 55.28 56.00 56.08 54.86 54.22 54.04 56.25 55.44 52.94 52.01 52.46 51.10 50.33 49.25 46.85 43.09 41.03 40.17 41.83 39.40 40.90 43.03 43.27 45.37 48.85 47.40 50.30 51.21 51.24 50.30 49.38 48.49 48.39 48.96 49.63 49.81 49.84 50.84
51.68 50.62 50.86 50.79 51.19 52.21 52.95 53.16 52.73 52.93 54.73 54.03 53.66 53.52 52.58 51.31 50.25 49.59 49.13 48.25 47.10 41.58 41.32 38.60 36.03 37.30 39.44 42.89 44.86 46.62 46.16 49.36 49.19 48.58 47.93 47.38 47.51 47.97 48.29 48.15 48.38 48.66 48.94
47.28 47.96 48.32 48.25 48.16 47.89 48.31 47.70 46.78 47.88 49.45 48.72 48.47 48.29 46.36 45.20 44.58 43.95 43.84 44.11 43.84 43.59 40.55 39.52 37.26 36.88 39.56 42.93 44.52 42.70 43.29 46.99 47.22 47.04 47.24 46.87 47.09 46.98 46.35 46.64 46.89 47.85 46.60
41.96 43.41 44.29 45.04 44.70 44.09 44.14 43.76 43.18 44.37 46.14 44.75 44.07 43.54 41.81 41.95 41.18 40.83 41.14 41.42 41.42 41.12 38.92 38.08 36.89 37.00 38.12 39.78 40.58 39.84 41.54 41.19 41.29 45.30 46.20 46.21 46.21 45.65 45.01 45.83 45.62 45.13 45.37
38.91 39.30 39.99 40.36 40.82 41.03 40.49 40.43 40.08 40.10 40.39 40.41 40.77 41.41 40.17 40.81 39.34 39.25 39.20 38.69 38.33 38.59 37.58 35.37 34.13 33.82 34.31 37.12 37.02 37.51 38.97 39.81 38.80 40.04 42.29 43.21 43.69 44.32 43.83 43.84 43.70 43.69 43.59
37.39 37.75 37.98 37.58 37.62 37.77 37.63 37.33 37.24 36.99 37.22 37.35 36.93 36.62 36.67 37.14 37.43 37.33 37.11 36.16 35.63 36.56 35.56 35.75 33.39 33.72 33.72 34.04 33.10 33.34 34.12 35.69 38.08 39.27 41.21 42.20 42.36 42.38 42.33 42.68 41.81 41.16 41.18
37.07 37.05 37.24 37.36 36.98 36.25 36.08 35.61 34.89 33.89 34.21 34.95 35.66 35.61 35.67 36.44 35.21 33.73 34.21 33.43 34.20 34.68 34.73 34.32 33.73 33.35 34.19 34.01 34.35 33.72 32.95 34.72 34.28 35.59 36.68 37.65 38.04 38.29 38.64 39.20 39.31 38.87 38.79
36.90 36.33 36.60 37.20 37.75 38.27 37.65 34.21 34.74 35.69 36.10 35.50 35.35 35.84 37.47 38.91 39.13 37.77 35.35 34.43 34.46 34.04 33.84 33.21 32.47 32.61 32.53 32.06 31.56 31.79 31.17 29.38 27.98 27.93 28.25 27.71 27.53 27.62 28.46 33.36 34.35 35.81 36.79
37.56 37.71 37.62 37.79 37.83 38.96 39.95 38.88 36.23 34.83 34.63 34.34 33.48 33.56 34.80 36.18 37.00 40.22 39.65 39.16 36.65 32.87 32.50 31.77 30.95 29.10 26.73 26.58 25.88 26.68 24.72 21.16 21.45 26.03 24.79 25.00 27.09 26.78 26.93 27.16 33.04 35.27 36.34
36.21 36.16 36.82 37.77 37.60 38.06 39.52 38.60 36.56 31.62 28.56 28.13 28.09 28.37 30.47 32.15 31.37 31.21 33.90 34.54 34.23 35.76 35.95 29.82 26.51 25.49 24.40 24.72 23.03 21.19 22.21 20.64 22.86 24.89 24.75 22.97 24.44 24.13 25.63 27.99 33.64 35.50 36.63
34.37 34.52 34.68 35.39 35.89 37.48 38.47 37.08 34.44 26.96 24.62 24.38 25.68 23.51 25.70 26.75 29.11 29.52 28.00 27.67 26.87 26.38 28.81 29.34 26.58 26.17 26.03 26.35 25.95 24.21 24.30 23.03 24.80 25.26 25.13 17.86 22.48 23.27 24.82 25.52 32.62 34.42 35.72
32.63 32.14 32.11 30.77 24.95 25.96 35.15 33.90 27.54 21.97 22.51 21.88 25.17 25.77 26.01 26.71 33.89 33.78 26.87 25.25 25.31 25.36 29.99 32.55 32.25 32.68 33.14 33.44 31.06 26.04 26.59 16.17 19.08 21.59 23.76 22.35 22.50 22.88 24.05 23.78 25.60 33.10 34.45
31.77 26.28 21.02 20.01 30.76 18.70 34.63 33.62 26.72 24.48 20.47 23.65 23.60 25.07 31.73 30.70 33.58 33.37 25.80 24.06 22.82 23.40 24.04 24.75 23.86 24.43 24.93 23.95 29.20 25.48 20.73 10.57 12.03 13.23 22.20 19.40 21.33 22.00 17.56 22.81 24.27 24.82 25.05

GFSMA_sfc_wetblb_048.txt.gz
Wetbulb
59.75 59.81 60.35 60.91 61.65 62.02 61.76 60.17 58.95 57.93 56.78 55.25 53.01 51.06 48.91 46.75 47.43 53.16 58.84 62.05 65.18 67.48 67.42 66.22 65.60 64.25 63.14 62.35 61.57 60.89 60.37 59.38 59.22 59.82 59.29 58.74 58.85 59.11 59.33 59.55 59.90 59.97 60.08
60.17 59.87 59.70 60.47 60.93 61.73 61.88 60.94 59.68 58.76 58.07 56.74 55.31 52.45 48.64 46.75 47.02 50.14 57.04 59.04 63.21 65.67 66.74 66.31 65.72 64.88 63.76 62.88 62.02 61.42 60.74 59.69 59.40 59.46 58.76 58.32 58.04 58.05 58.36 58.61 58.63 58.91 59.13
60.96 60.21 59.89 59.76 60.56 61.21 61.69 61.16 60.35 59.13 57.96 57.19 54.18 52.16 49.31 47.24 46.48 48.06 53.92 57.11 59.04 62.51 65.13 66.26 65.73 65.23 64.45 63.41 62.59 62.07 60.94 60.31 59.51 59.15 58.48 57.92 57.37 57.36 57.34 57.29 57.46 57.79 57.99
62.41 60.91 60.03 59.92 60.59 60.44 60.87 60.53 60.26 59.02 58.10 56.91 55.33 53.68 50.67 47.65 46.54 46.68 50.65 55.25 56.75 58.79 61.55 65.25 66.24 65.32 64.63 63.89 63.32 62.42 61.49 60.71 59.61 59.21 58.35 57.89 57.03 56.72 56.43 56.20 55.81 55.99 56.05
63.52 62.66 61.84 61.74 60.71 60.18 59.76 60.07 59.61 59.25 57.84 57.19 56.27 54.70 50.80 48.89 49.00 47.63 47.91 52.30 54.82 56.98 57.48 60.35 63.19 63.82 64.62 63.93 63.60 62.84 62.16 60.79 60.05 58.98 58.35 57.83 57.04 56.46 56.06 55.74 55.34 55.05 55.06
63.92 63.27 63.16 62.30 61.45 61.04 60.39 59.37 59.35 57.62 58.40 57.43 55.94 53.85 51.20 50.00 48.61 46.38 47.05 51.35 53.42 54.66 55.40 55.53 55.92 58.11 61.89 63.67 63.17 63.06 62.55 61.65 60.50 59.19 58.13 57.56 56.97 56.44 55.96 55.78 55.36 55.04 55.11
61.80 61.81 62.62 61.90 61.35 61.25 61.70 61.15 59.98 58.95 57.56 53.16 54.45 54.92 50.24 48.49 47.37 47.65 46.33 46.90 49.56 52.40 52.52 52.91 52.88 53.05 55.32 62.31 63.30 62.77 62.56 62.35 61.67 59.96 58.34 57.12 56.55 56.22 56.08 55.62 55.63 55.52 55.52
63.94 62.61 61.22 60.64 59.93 59.89 59.83 59.79 59.26 58.12 59.29 53.61 56.15 50.14 51.17 50.57 46.35 45.31 44.05 44.84 45.06 49.36 50.86 51.16 50.66 51.03 51.88 53.21 57.12 62.32 62.42 62.35 61.71 61.42 59.43 57.67 56.81 56.29 56.01 55.90 55.78 55.38 55.28
62.76 63.05 62.98 62.46 61.14 59.62 59.76 59.25 58.18 58.33 58.74 52.38 51.70 55.72 49.23 47.73 46.11 48.81 45.36 43.17 42.74 44.15 47.36 49.36 49.26 49.72 50.38 51.55 54.96 57.93 60.76 61.23 60.59 60.77 61.01 58.65 57.47 56.62 56.25 56.02 55.28 55.14 55.15
52.08 55.94 59.66 60.71 60.82 59.84 59.03 59.10 58.37 57.33 56.31 58.08 52.40 53.04 51.60 48.51 48.10 47.95 47.34 44.82 44.06 44.36 44.20 47.10 48.26 48.72 50.13 50.82 52.18 53.68 56.18 58.18 58.37 59.34 59.51 58.62 58.68 57.69 56.92 56.12 55.17 54.86 54.97
51.30 51.84 52.68 55.62 57.31 58.18 58.47 58.35 57.19 56.67 56.41 58.54 55.84 51.90 50.99 48.75 47.01 47.08 48.05 49.12 48.43 45.33 44.83 45.52 47.43 47.26 47.98 49.14 48.95 50.72 54.38 55.80 57.05 57.37 56.16 55.39 57.06 58.35 56.88 55.45 55.03 53.96 52.83
50.06 52.63 54.06 55.35 56.24 57.22 57.70 57.57 57.41 56.78 58.85 58.73 57.89 54.69 51.98 49.36 47.19 46.92 45.69 46.00 47.49 45.96 44.97 45.51 44.39 44.38 45.72 46.38 48.67 50.58 53.06 54.23 55.69 55.43 55.12 54.92 56.36 55.76 55.27 53.52 54.22 52.80 51.74
47.95 48.83 52.92 54.82 55.50 57.56 58.98 57.91 56.55 57.14 56.52 56.60 56.31 55.47 53.96 53.21 52.00 49.91 49.06 48.34 46.38 44.68 42.88 43.09 40.87 41.06 43.07 43.02 44.65 49.77 51.35 53.31 54.25 55.49 56.09 56.66 56.04 54.79 53.16 52.94 51.31 51.18 51.55
48.68 49.73 51.63 51.77 52.24 53.36 54.49 56.69 56.01 55.22 54.06 55.20 54.40 54.10 53.44 52.51 51.89 50.71 49.58 47.26 44.91 43.04 40.04 40.09 40.84 38.79 39.97 40.45 43.37 47.78 48.18 51.78 53.19 54.45 55.88 55.76 54.08 52.71 50.46 49.63 49.89 50.73 51.38
49.48 48.78 49.12 49.32 49.36 50.07 50.88 53.14 52.85 52.55 51.84 51.32 50.61 51.05 50.31 47.71 47.98 48.07 48.38 48.03 46.75 42.86 42.30 42.04 37.95 36.47 38.19 40.32 43.21 44.01 47.06 48.43 51.64 52.79 53.03 51.11 48.16 47.56 48.13 49.18 49.95 50.43 49.99
44.77 45.77 46.09 46.39 46.23 46.14 46.52 46.27 47.89 49.77 48.65 47.90 47.85 46.24 45.11 44.76 44.08 43.94 44.24 44.45 44.46 44.06 40.90 41.29 38.51 38.68 40.13 42.55 43.88 43.34 44.55 47.26 49.40 51.62 49.19 47.24 47.25 47.99 48.33 49.02 48.01 48.09 48.18
40.08 41.25 42.49 42.84 42.45 42.14 42.62 42.64 42.67 46.18 45.94 44.51 43.17 43.04 41.05 42.43 41.81 41.52 41.73 41.83 41.56 41.20 39.20 37.73 37.07 37.07 38.08 39.86 39.76 40.82 41.55 41.41 41.78 45.74 46.37 46.74 47.02 47.19 47.24 46.74 46.28 47.05 46.21
38.17 38.44 39.18 39.15 39.18 39.07 38.63 38.76 38.51 38.63 38.83 38.21 38.06 38.04 37.43 39.87 36.92 37.10 36.81 35.95 35.41 37.37 37.74 35.67 34.20 34.26 34.32 36.83 37.71 38.04 39.53 40.08 39.49 41.23 43.04 43.95 44.36 44.61 45.21 45.52 44.86 45.02 44.83
37.03 37.37 37.36 36.75 36.60 36.65 36.23 35.70 35.54 35.35 35.21 35.24 35.07 34.80 34.95 35.23 34.11 33.93 34.29 34.99 35.61 36.49 35.70 35.87 33.97 34.46 34.35 34.88 34.00 34.38 35.46 35.65 37.49 39.07 41.00 42.43 43.57 44.15 43.73 43.73 43.87 43.86 41.88
37.80 36.44 36.65 36.51 36.01 35.24 35.04 34.50 34.93 35.66 36.24 36.63 37.10 37.60 35.99 34.93 35.58 35.51 34.88 34.17 34.77 35.03 35.06 34.57 34.06 33.64 34.26 34.51 35.01 34.04 33.39 35.09 34.86 36.55 37.26 38.01 38.74 38.93 39.11 39.30 39.47 39.18 39.26
37.94 37.37 38.22 38.48 38.68 38.41 36.68 35.76 36.57 36.49 36.24 35.67 35.59 36.34 37.60 39.72 40.10 38.31 35.87 34.87 34.82 34.15 33.99 33.46 32.80 32.78 32.48 32.05 31.13 30.45 28.58 27.51 27.25 27.63 27.72 27.78 27.50 27.29 28.37 32.83 33.66 35.38 36.28
37.66 37.89 37.73 37.78 37.80 38.55 39.44 38.93 36.26 34.81 34.61 33.69 32.62 32.40 34.36 35.60 35.79 39.66 39.85 39.41 36.98 30.77 29.28 25.91 24.71 27.27 25.41 24.92 24.65 25.18 23.83 20.72 20.10 25.27 24.41 24.83 26.35 26.07 26.74 26.66 32.55 34.99 36.23
36.64 36.65 37.24 37.91 37.66 38.28 39.09 38.25 35.73 29.04 27.05 25.51 26.35 27.04 29.64 31.40 30.24 28.61 32.94 33.62 33.53 35.11 35.39 28.26 25.78 24.78 24.06 24.26 22.17 19.82 21.09 19.73 22.18 24.48 24.48 22.66 24.04 23.43 25.03 27.26 32.66 34.76 36.19
34.69 34.56 34.16 33.62 32.92 35.91 37.21 36.04 33.19 24.49 22.33 21.75 24.07 21.60 24.77 25.98 29.72 27.92 26.82 26.69 26.14 26.24 28.31 28.60 26.13 25.67 25.55 25.98 25.39 23.63 24.05 22.62 24.64 25.19 24.63 16.66 22.28 22.97 24.60 25.35 31.63 33.64 35.22
32.84 31.80 27.68 24.78 23.09 24.27 34.74 33.42 26.66 19.50 21.10 20.61 24.77 25.89 26.64 27.07 34.16 33.17 26.60 24.70 24.26 25.36 29.56 32.27 31.93 32.13 32.41 32.31 30.29 25.27 19.58 16.04 18.62 21.20 23.23 22.12 22.04 22.63 24.02 23.86 25.55 32.97 33.50
31.13 25.64 20.96 18.15 30.37 18.86 34.09 32.71 26.06 23.84 19.60 23.24 23.44 24.81 31.24 30.44 33.08 32.93 25.51 23.83 21.72 22.45 23.77 24.12 23.12 23.31 23.98 23.54 28.95 25.46 20.00 10.30 11.12 12.66 21.59 18.86 20.68 21.65 17.73 22.98 23.99 24.98 25.32

GFSMA_sfc_wetblb_051.txt.gz
Wetbulb
64.50 64.99 65.40 65.68 66.52 67.12 66.94 66.66 65.57 64.67 63.87 62.95 62.13 60.18 59.05 57.29 55.78 56.28 60.27 61.88 64.19 66.95 68.16 67.68 66.34 65.47 64.22 62.93 61.99 61.41 60.54 59.57 59.17 59.80 59.36 58.83 59.20 59.47 59.59 59.83 60.10 60.31 60.49
64.76 64.03 63.79 64.24 64.83 65.71 66.35 66.01 65.55 65.04 64.52 63.76 63.31 62.58 60.45 57.63 55.54 55.18 56.83 60.01 62.67 64.84 66.74 67.28 66.63 66.17 65.18 64.12 63.10 61.82 61.07 60.31 59.55 59.83 59.06 58.57 58.12 58.22 58.71 58.86 58.91 59.02 59.41
65.11 64.57 63.96 63.57 63.91 64.69 65.13 65.40 65.36 64.84 64.19 63.77 63.01 62.92 61.78 60.02 56.82 55.44 55.44 57.81 60.86 61.84 64.14 66.60 66.68 66.21 65.71 65.08 63.72 62.68 62.09 60.69 59.94 59.46 59.19 58.59 58.06 58.05 57.85 57.84 57.92 58.16 58.50
65.87 65.17 64.34 64.16 64.54 64.03 64.15 64.20 64.33 63.91 63.67 63.30 63.63 63.77 62.90 61.72 60.38 58.26 55.80 55.86 58.20 60.14 62.15 64.41 66.18 66.40 65.78 65.35 64.64 63.81 62.66 61.39 60.73 59.83 59.30 58.81 57.86 57.58 57.38 57.09 56.65 56.62 56.59
66.71 65.89 65.55 65.50 65.01 64.31 63.55 63.47 63.44 63.15 63.14 63.40 62.67 63.25 62.62 61.61 61.71 59.63 57.87 55.89 56.07 57.92 60.06 61.62 63.04 64.47 65.53 65.15 64.66 64.12 63.29 62.75 61.37 60.29 59.49 58.86 58.09 57.38 57.08 56.64 56.13 55.92 55.73
66.70 66.47 66.20 65.92 65.20 64.25 64.08 63.36 63.06 63.42 63.12 62.99 61.50 60.94 61.44 60.84 59.71 59.39 59.16 56.91 56.02 56.51 57.70 59.14 60.80 62.13 62.40 64.28 64.40 64.08 63.79 62.77 62.30 61.16 59.84 58.80 58.43 57.76 57.13 56.84 56.35 56.02 55.81
65.22 65.44 65.54 65.22 64.68 64.18 64.41 64.45 64.05 62.97 62.82 61.60 58.80 60.54 60.05 60.79 59.21 58.31 57.96 56.06 55.44 55.07 56.01 56.91 58.43 59.83 61.06 61.25 63.25 63.67 63.51 63.64 62.99 62.29 60.72 59.40 58.44 57.77 57.61 57.05 56.74 56.35 56.28
66.77 65.34 64.29 63.96 64.07 63.98 63.82 63.72 63.44 62.49 61.69 59.07 59.29 54.32 54.97 58.00 56.53 55.50 54.24 52.88 53.19 52.91 53.34 54.57 55.59 56.72 58.40 59.80 60.10 62.10 63.22 63.20 63.23 63.20 62.04 60.27 58.86 57.93 57.59 57.40 57.11 56.75 56.26
60.52 64.59 65.35 64.78 65.10 63.24 63.12 63.35 62.76 62.06 60.83 58.16 58.40 58.50 52.78 52.29 52.26 57.07 53.67 50.62 50.87 51.20 51.70 52.72 53.54 54.09 55.58 56.40 55.96 56.97 59.57 61.77 62.27 62.18 62.11 61.58 59.73 58.65 57.84 57.32 57.12 56.69 56.13
54.19 54.76 57.63 61.44 63.26 63.32 62.93 63.00 62.71 62.15 61.34 59.77 55.70 56.13 55.98 53.65 52.06 50.69 53.69 52.08 50.15 51.67 51.10 51.39 52.18 52.96 53.63 53.90 54.03 54.82 56.18 57.81 60.60 61.16 61.30 61.12 60.77 59.33 58.25 57.21 57.35 56.64 55.76
53.63 55.71 56.37 55.85 57.40 59.79 61.24 61.82 61.99 61.10 61.06 60.58 58.53 55.49 54.20 52.31 53.43 52.77 49.38 52.62 54.84 55.38 53.82 52.50 51.50 51.81 52.20 52.52 52.28 52.92 54.22 56.60 59.09 60.57 61.22 60.56 58.62 58.03 57.88 58.28 57.58 56.40 55.00
52.50 53.31 55.33 57.64 59.36 59.83 59.21 59.47 60.26 60.65 60.54 59.97 59.96 58.27 56.59 55.28 53.25 50.80 48.70 48.87 49.90 53.92 52.81 52.15 51.20 50.91 50.80 50.79 50.34 50.48 51.65 53.64 56.39 59.15 60.24 60.65 58.30 57.15 56.93 57.06 57.72 56.70 56.28
51.17 52.35 54.29 56.25 57.03 58.25 59.73 60.38 59.92 59.69 59.44 58.72 58.23 57.51 55.96 55.06 54.15 52.34 51.36 50.36 48.51 51.12 51.32 50.54 47.99 46.81 46.26 47.12 47.82 47.50 49.60 51.40 53.85 56.65 59.30 60.82 57.94 56.33 55.59 56.59 56.70 55.15 53.49
51.32 52.76 53.39 53.90 54.25 55.36 57.03 58.31 57.22 57.05 58.16 57.14 55.84 55.81 55.15 54.31 53.96 53.38 51.24 49.93 47.19 46.63 48.91 49.82 44.59 44.49 44.96 45.73 45.98 46.12 48.16 49.64 50.89 53.62 56.31 57.45 57.28 55.74 55.38 54.59 51.31 50.71 51.09
49.62 50.28 50.89 51.29 51.30 52.08 53.74 54.87 54.68 53.72 53.33 53.02 53.45 53.47 51.44 50.31 51.58 51.93 50.95 50.59 48.70 45.56 46.56 46.91 45.18 42.69 42.89 45.01 45.67 46.77 46.98 47.32 49.08 50.19 51.62 52.82 50.91 51.08 50.19 49.43 48.95 49.51 50.35
45.50 46.91 48.00 48.15 48.21 48.70 49.53 51.18 51.39 50.95 50.29 49.93 49.65 48.42 47.35 47.24 46.98 47.60 48.12 48.46 48.46 47.94 44.68 43.54 40.35 39.76 42.20 43.16 43.86 44.36 44.59 46.42 48.61 49.78 50.09 48.87 48.42 48.19 48.02 48.08 48.49 48.10 48.14
42.53 43.33 44.40 44.66 44.47 44.71 45.89 47.33 47.16 48.06 47.77 46.36 46.00 45.51 44.23 44.50 44.69 44.51 44.52 44.47 43.29 43.30 42.02 39.79 39.03 38.61 39.83 40.62 41.19 42.17 42.14 41.51 42.27 46.54 47.11 46.87 46.61 46.14 46.35 46.84 46.50 46.48 46.97
40.99 41.25 41.68 41.60 41.54 41.60 42.28 42.99 42.42 42.35 42.29 41.44 41.51 41.53 40.46 41.11 40.58 40.70 41.15 40.28 40.14 40.28 40.09 38.23 37.18 37.04 37.38 38.21 38.34 38.74 39.45 40.11 39.87 42.06 44.30 44.52 44.50 44.61 44.80 45.02 45.11 45.63 45.42
40.01 39.95 39.91 39.50 39.16 39.34 39.41 39.29 39.20 38.65 38.39 38.60 38.80 38.82 38.68 39.52 39.00 39.06 38.77 38.07 38.36 38.82 39.36 39.13 36.83 36.94 37.27 36.21 36.06 36.47 36.86 37.68 39.11 40.13 41.27 41.73 42.34 42.94 43.99 43.95 44.09 44.32 44.40
39.08 38.98 39.13 38.55 38.02 37.66 37.68 37.82 38.09 38.04 38.12 38.59 39.36 39.38 38.86 38.76 38.14 37.62 37.02 37.02 37.16 37.91 37.77 36.79 35.95 35.83 36.20 35.80 36.16 35.10 35.22 36.00 35.82 37.08 37.14 37.81 38.91 38.50 38.76 39.51 39.68 38.96 38.71
38.88 39.21 39.27 39.26 39.50 38.74 37.72 37.78 37.92 37.66 37.18 36.68 36.99 37.80 38.75 40.16 39.75 39.26 37.94 37.16 37.04 36.55 35.97 35.53 34.95 35.48 34.95 34.60 33.04 33.29 33.39 32.99 33.91 32.95 33.32 34.54 34.72 35.23 35.76 35.33 34.94 35.31 36.06
38.41 38.63 38.42 38.91 38.75 39.03 39.62 39.43 37.83 36.55 35.68 35.12 34.25 33.75 35.09 35.47 35.94 39.35 38.98 39.16 37.63 35.32 33.43 32.97 32.26 31.31 30.76 30.87 31.52 31.08 30.81 30.34 29.77 32.35 31.34 31.86 33.35 32.85 33.34 33.60 33.35 34.79 35.91
37.84 37.84 38.23 38.53 38.38 38.14 38.94 37.94 35.43 32.47 31.14 30.57 31.03 32.43 32.23 33.01 32.45 32.05 33.83 33.11 34.14 35.54 35.03 33.52 30.93 30.66 30.17 30.73 30.28 29.81 29.47 29.31 29.11 31.52 30.28 28.86 31.22 30.08 32.93 32.14 32.94 34.65 36.09
36.02 35.62 34.88 35.37 36.05 36.71 37.41 35.69 32.79 29.60 29.06 29.09 29.46 29.61 31.22 31.95 33.12 30.77 30.57 30.41 30.14 31.66 32.28 31.57 31.80 31.53 31.69 32.10 31.45 30.89 30.54 30.04 30.25 31.01 30.42 26.67 30.02 29.57 32.14 32.59 31.69 33.43 35.11
33.51 31.73 30.54 30.39 30.80 32.21 34.46 33.16 29.53 28.58 27.92 28.03 29.77 30.91 31.79 32.15 34.31 32.69 29.72 28.10 27.68 29.15 30.39 31.91 31.48 31.37 31.66 31.67 32.24 31.50 29.51 28.03 26.19 27.31 29.10 27.51 28.70 28.18 30.25 30.80 32.14 32.80 33.34
32.12 30.35 28.49 27.81 32.02 29.02 34.04 32.50 29.19 28.44 26.89 27.49 28.15 28.92 32.02 32.56 32.82 32.73 29.62 28.21 26.02 26.96 28.42 28.25 27.61 27.01 26.71 27.59 29.48 29.60 29.11 26.37 25.60 25.52 27.93 27.07 27.16 27.42 27.21 30.66 31.04 31.92 32.29

GFSMA_sfc_wetblb_054.txt.gz
Wetbulb
67.05 66.53 65.96 66.16 66.88 67.93 67.70 67.90 67.95 67.29 67.12 66.96 66.61 65.70 64.88 64.22 62.65 61.47 61.11 62.32 63.37 65.54 67.59 68.36 67.70 66.40 65.36 64.15 62.57 61.86 60.92 60.04 59.29 59.70 59.40 58.91 59.22 59.37 59.44 59.74 60.07 60.38 60.29
68.30 67.48 67.18 66.11 65.79 67.08 67.81 67.90 67.82 67.81 67.72 67.70 67.11 67.09 66.31 65.44 63.77 62.52 61.81 62.16 61.53 63.44 65.70 67.19 67.35 66.86 66.60 65.43 64.29 63.01 62.09 60.97 59.98 59.99 59.49 58.79 58.25 58.35 58.72 58.84 59.04 58.75 59.45
68.75 68.19 68.02 67.70 67.47 67.30 67.29 67.69 67.82 67.81 67.39 67.42 66.96 67.16 67.05 67.12 66.50 64.76 63.49 62.65 62.76 61.31 62.98 65.30 66.67 66.79 66.49 66.24 65.54 64.32 63.06 62.03 61.22 59.89 59.92 59.13 58.37 58.26 58.06 57.91 58.14 58.25 58.52
69.09 68.80 68.30 68.22 68.69 68.23 67.70 67.48 67.43 67.06 67.12 67.08 66.78 67.19 67.49 67.40 67.05 66.94 66.60 64.73 63.01 62.17 62.78 63.07 64.59 66.24 66.48 66.28 66.11 65.36 64.23 63.13 61.98 60.91 60.46 59.77 58.86 58.35 58.12 57.71 57.17 57.08 57.33
69.29 68.93 68.82 69.00 69.19 68.50 67.98 67.67 67.18 67.06 66.28 66.89 66.79 66.88 67.07 66.85 66.72 66.26 66.29 65.97 64.45 62.35 62.08 61.78 62.22 63.50 65.46 66.25 65.97 65.65 64.77 63.99 62.88 61.97 61.12 60.17 59.29 58.62 58.23 57.75 56.97 56.69 56.41
69.30 69.18 69.14 69.30 69.47 68.67 68.06 67.89 66.65 66.85 66.20 66.30 65.61 64.93 65.98 66.09 66.00 65.69 65.43 64.96 64.91 62.85 62.13 61.53 61.59 61.61 61.79 64.21 65.63 65.55 64.93 64.32 63.80 62.78 61.78 60.83 59.86 59.21 58.41 58.06 57.42 56.83 56.51
69.10 68.87 69.00 68.91 69.09 68.11 67.78 67.70 67.01 66.17 66.01 66.15 62.27 63.08 64.78 64.91 64.86 64.71 64.44 63.14 61.94 61.46 61.01 60.56 60.29 60.38 60.83 62.29 63.32 64.75 64.88 64.44 64.09 63.73 62.84 61.57 60.42 59.81 59.05 58.37 57.81 57.26 56.84
69.72 69.13 68.86 68.53 68.47 67.51 67.37 67.09 66.51 64.39 63.62 64.07 61.39 57.57 57.71 59.99 61.83 62.07 61.93 60.23 59.77 59.26 58.41 58.07 58.49 58.49 58.94 59.60 60.33 61.85 63.28 64.37 64.12 63.76 63.46 62.91 61.38 60.30 59.58 58.88 58.06 57.58 57.20
62.09 65.24 66.72 66.65 66.42 65.90 64.49 65.33 65.39 64.40 62.80 62.83 61.78 60.09 56.84 54.74 58.31 61.08 60.40 59.18 58.34 57.30 58.25 57.20 56.61 57.39 57.61 58.02 58.24 58.60 58.16 59.70 62.12 63.51 63.13 62.03 62.69 60.55 59.30 58.41 58.23 57.73 57.69
57.61 57.82 58.08 59.70 62.28 63.97 63.19 63.51 64.03 63.50 63.25 60.67 59.92 60.65 61.11 60.06 55.71 53.66 58.90 58.88 59.97 58.70 58.56 59.12 57.63 57.02 56.66 57.02 55.97 54.67 54.99 56.07 58.55 60.72 62.35 62.24 61.40 60.35 60.91 59.48 59.04 58.57 57.92
56.81 57.73 59.10 59.99 59.09 59.14 60.50 61.50 62.01 62.25 61.97 61.00 60.89 59.18 59.19 56.38 55.10 53.91 52.50 54.93 57.33 58.14 58.65 57.98 57.12 56.60 55.75 55.28 55.21 54.34 52.14 53.75 56.09 58.23 60.55 61.63 61.71 60.99 60.71 60.56 59.76 58.51 57.46
56.08 56.19 55.94 59.45 60.68 61.29 61.22 61.29 61.32 61.25 60.79 62.02 61.44 60.94 58.49 57.52 55.57 54.52 52.37 52.20 52.76 55.32 57.27 57.07 54.96 53.58 52.60 52.38 51.50 49.04 49.82 51.48 53.65 56.05 58.65 60.95 60.97 61.50 60.38 58.97 58.95 59.30 58.14
55.16 55.98 56.68 57.86 59.26 60.02 60.13 60.11 60.33 60.57 60.84 60.92 60.10 59.17 58.54 57.14 55.91 54.63 53.40 53.08 52.50 54.46 54.73 55.42 51.99 51.31 50.25 51.28 50.96 47.33 49.00 49.87 51.49 53.85 56.66 58.84 59.11 59.06 59.70 58.55 56.79 57.12 59.09
54.46 55.19 55.93 56.64 56.91 57.61 59.36 60.25 59.96 59.60 58.80 58.44 58.16 57.63 56.87 56.46 56.64 55.51 54.38 53.78 50.24 51.51 52.05 52.08 49.62 49.37 49.32 49.22 48.46 47.97 49.56 48.62 49.09 50.93 52.63 53.41 54.47 55.46 57.77 56.53 55.25 54.15 53.52
52.11 53.26 54.22 54.68 54.73 55.18 55.86 56.10 56.03 55.54 54.86 54.46 54.38 55.33 54.52 53.84 55.14 54.31 53.55 53.74 50.44 46.35 46.97 48.37 49.96 47.13 46.04 48.02 46.43 47.83 46.81 47.14 49.88 49.88 50.67 51.63 51.21 51.17 51.56 51.57 51.35 51.05 50.69
49.84 50.87 51.87 52.16 52.30 52.72 53.66 53.72 53.61 53.32 52.56 51.77 52.08 52.17 52.11 51.60 50.61 50.96 50.50 50.21 50.36 49.34 45.70 47.84 45.03 42.35 44.45 45.38 45.12 45.42 45.43 44.76 46.45 49.73 49.89 49.55 49.17 48.99 48.90 48.82 48.99 48.53 48.34
48.01 48.51 49.00 49.44 49.33 49.94 51.20 51.58 50.27 50.26 50.10 49.48 49.62 49.98 48.39 48.99 49.52 49.05 49.52 49.09 48.24 47.72 45.14 43.33 42.60 41.42 42.51 42.65 43.52 43.87 44.59 43.70 43.56 44.98 46.71 46.72 46.63 46.58 46.60 46.86 46.85 46.56 46.48
46.53 46.45 46.88 46.94 46.97 47.07 48.30 48.98 47.85 47.20 47.62 47.06 46.84 46.78 45.44 45.58 45.87 46.26 46.93 45.87 45.23 43.78 43.95 41.38 41.20 41.62 40.31 41.40 41.02 40.92 40.42 42.78 44.08 42.40 44.21 44.56 44.92 45.00 45.04 44.88 44.96 45.15 45.17
45.55 45.22 45.10 45.07 44.90 44.91 45.10 45.34 45.24 44.36 44.08 44.21 43.87 43.82 43.66 44.16 43.27 43.19 42.63 42.07 41.97 41.63 42.04 41.62 40.05 40.85 40.01 38.01 37.83 38.89 38.79 39.19 40.75 40.13 41.18 41.63 41.72 42.02 42.62 43.83 44.16 44.21 44.38
42.72 42.25 43.16 42.95 42.62 42.21 41.63 41.30 41.44 41.42 41.38 41.40 41.66 41.77 41.65 41.51 41.04 40.71 39.79 39.79 40.02 41.04 40.68 40.29 38.98 39.16 38.93 37.72 37.30 37.32 39.87 40.83 39.62 39.31 38.45 36.95 37.36 37.69 38.46 39.46 39.83 38.76 38.53
40.37 40.65 40.93 41.69 41.50 40.41 40.21 40.10 40.08 39.91 39.58 39.43 39.57 39.59 40.96 40.90 40.30 40.25 40.53 40.22 40.29 39.94 39.66 38.35 38.09 38.38 38.28 38.16 36.24 36.53 35.71 36.35 37.89 36.27 36.34 37.63 36.94 37.84 38.44 37.38 36.99 36.60 37.06
39.44 39.65 40.14 40.37 40.08 39.84 40.50 40.30 40.07 39.10 38.77 38.33 37.37 37.34 37.78 37.75 38.59 39.51 39.49 38.84 38.28 37.44 37.17 37.38 37.26 35.89 35.51 34.82 35.42 34.09 33.50 32.62 32.03 36.04 33.81 34.15 36.14 34.79 35.99 36.30 34.85 34.78 35.89
38.99 38.91 39.62 39.62 39.20 39.31 39.27 38.45 37.47 37.33 36.18 35.67 36.34 36.72 35.91 35.63 35.28 36.09 35.12 34.31 35.46 35.46 35.01 35.71 33.86 33.66 33.01 33.55 33.01 32.20 32.33 32.03 31.53 33.66 32.27 31.28 34.32 33.01 35.86 35.24 34.05 34.79 35.83
38.26 38.14 38.06 38.46 38.28 38.07 37.75 35.94 34.71 34.05 33.34 32.99 33.38 33.85 35.06 35.32 34.56 33.25 33.32 33.14 33.40 34.51 34.44 34.24 34.86 34.60 34.60 35.11 34.21 33.22 32.69 32.08 32.82 33.60 32.59 28.96 33.79 32.68 35.37 36.04 32.93 33.71 34.95
35.97 35.28 36.20 35.69 35.44 36.54 35.26 33.76 33.10 33.13 32.25 32.44 33.30 34.07 34.47 35.06 34.68 32.61 32.23 30.39 30.74 32.13 32.01 31.93 31.50 31.33 31.44 31.54 32.61 33.13 31.25 29.62 28.84 30.26 32.28 29.85 32.01 31.22 33.54 34.03 35.16 32.87 33.93
34.03 34.17 32.97 33.62 33.93 34.79 34.03 32.86 32.09 32.42 30.40 30.53 31.50 31.94 32.63 33.95 33.18 33.09 32.49 31.20 28.82 30.18 31.08 31.00 30.77 29.83 29.27 30.05 29.97 31.18 31.25 28.38 28.38 29.13 31.01 29.00 29.82 29.80 29.72 34.72 34.20 34.72 35.09

GFSMA_sfc_wetblb_057.txt.gz
Wetbulb
66.68 65.89 65.29 65.46 65.75 66.54 66.80 66.89 67.61 67.10 66.97 67.24 67.21 66.64 66.02 65.79 65.15 63.97 63.04 62.92 63.55 64.13 65.87 67.69 68.26 67.42 66.18 65.01 63.56 62.31 61.59 60.66 59.55 59.60 59.77 59.07 59.51 59.80 59.82 60.23 60.44 60.45 60.19
67.98 67.32 66.83 65.77 65.21 66.25 67.23 67.34 67.53 67.69 67.61 67.75 67.35 67.47 67.17 67.00 66.24 65.04 64.27 63.98 62.18 62.79 63.64 65.69 66.72 66.87 67.05 67.05 65.58 64.26 63.18 62.20 60.90 59.84 60.14 59.05 58.49 58.44 58.78 58.99 59.19 58.95 59.27
68.64 68.15 68.02 67.84 67.57 67.04 67.10 67.58 67.70 67.82 67.43 67.55 67.12 67.44 67.54 67.38 67.31 66.97 66.41 65.46 64.45 61.39 63.09 63.29 64.94 66.12 66.51 66.71 66.81 66.07 64.33 63.29 62.45 61.34 60.11 59.81 58.82 58.43 58.50 58.13 58.40 58.09 58.67
69.18 69.02 68.59 68.53 69.04 68.73 68.13 67.59 67.39 67.00 67.04 66.98 66.82 67.24 66.37 66.85 67.13 67.19 67.33 67.19 66.47 64.28 63.11 63.93 64.18 64.44 65.72 66.33 66.57 66.67 65.77 64.29 63.17 62.52 61.32 61.03 60.10 58.99 58.69 58.29 57.67 57.53 57.32
69.19 68.97 68.92 69.14 69.41 68.88 68.34 67.77 67.45 66.65 66.03 66.65 66.61 66.44 66.71 66.61 66.63 66.37 66.09 66.24 66.42 65.76 64.28 63.57 62.93 63.11 64.18 65.46 66.22 66.10 66.00 65.31 64.38 63.22 62.37 61.57 60.80 59.80 59.18 58.76 57.82 57.42 56.86
69.77 69.42 69.16 68.74 68.21 67.73 67.70 67.54 66.22 67.63 66.67 66.19 65.38 65.11 66.18 66.42 66.42 65.80 65.27 65.13 64.57 64.79 64.12 63.38 62.98 61.68 61.18 62.47 63.72 65.36 65.73 65.43 64.78 64.25 63.47 62.40 61.55 60.55 59.69 58.99 58.36 57.52 57.00
69.52 69.33 69.16 68.24 68.12 67.25 67.13 67.59 67.16 66.02 65.70 66.15 64.06 63.24 64.41 65.23 64.29 64.38 64.63 63.86 63.10 62.52 61.73 61.11 61.25 60.94 61.03 62.98 63.29 62.79 64.35 65.19 64.80 64.36 64.19 63.44 62.61 61.56 60.72 59.69 58.74 58.01 57.51
69.33 68.58 68.28 67.85 67.80 67.63 67.48 66.58 65.55 64.98 64.71 65.12 62.19 59.09 57.56 59.64 62.12 62.33 62.59 61.55 60.78 60.56 60.05 59.33 59.06 58.97 59.45 59.52 59.58 59.77 60.74 62.94 64.28 64.07 63.85 63.24 63.38 62.81 61.69 60.40 59.55 58.85 58.05
64.91 66.44 67.21 66.97 66.67 66.41 65.47 65.72 64.99 63.97 62.10 62.81 62.43 60.22 56.91 54.64 58.06 60.62 61.12 60.70 59.72 59.35 60.06 59.07 58.14 58.39 58.03 57.99 58.18 57.26 55.63 56.42 58.91 61.23 62.38 62.77 62.34 62.27 62.15 61.01 60.39 59.25 58.52
58.55 58.72 58.89 59.20 60.16 63.17 64.22 63.69 63.81 63.51 63.37 61.08 61.07 61.11 61.23 60.46 55.99 54.16 59.25 59.30 59.56 58.36 59.46 59.16 57.76 57.41 56.73 56.39 55.98 52.98 52.96 54.27 57.00 58.57 59.72 61.55 62.24 61.75 62.31 61.71 60.96 60.10 59.10
57.35 57.59 58.55 59.51 60.03 59.58 59.28 59.71 60.63 61.40 62.24 59.81 59.37 60.00 60.11 57.32 56.19 54.37 51.98 54.09 57.51 57.99 57.66 58.06 56.70 55.72 54.72 54.05 52.06 50.68 51.17 53.10 55.33 56.96 58.85 59.98 60.98 62.09 61.90 62.40 61.56 60.58 59.76
56.40 56.67 56.51 57.36 59.52 60.26 60.79 61.07 61.37 61.02 60.95 60.30 59.47 60.23 59.17 55.86 54.85 54.22 52.74 54.47 52.68 54.40 56.61 56.22 54.03 52.90 52.21 52.26 50.41 49.25 50.36 51.44 52.99 55.15 56.94 58.47 59.27 60.27 60.32 61.41 61.74 60.57 59.66
55.17 55.81 56.67 56.78 57.87 59.32 59.96 59.67 58.87 58.76 59.59 59.87 59.69 59.24 60.05 58.12 55.65 54.67 53.39 53.01 52.26 53.86 54.15 53.59 51.57 51.09 50.82 50.57 49.54 48.28 50.54 49.91 51.17 53.21 54.73 55.83 55.92 55.85 56.76 59.05 59.79 58.45 58.72
54.52 55.39 55.50 56.12 56.77 57.43 58.40 58.76 59.83 59.14 58.61 59.37 59.17 57.41 56.87 56.12 55.74 55.00 54.04 52.66 49.89 51.25 52.09 51.94 49.92 49.05 48.50 48.50 47.04 49.17 47.62 48.31 50.86 51.93 51.57 51.77 53.36 54.60 56.22 57.78 57.56 56.93 56.16
52.86 53.01 54.43 54.73 55.43 55.77 56.41 56.08 56.12 55.34 55.19 54.78 54.48 54.80 53.92 53.18 54.10 54.76 54.08 53.14 51.42 47.42 47.53 48.85 48.01 47.27 46.74 47.40 45.57 46.42 45.61 46.91 49.23 51.61 52.02 51.98 51.62 51.52 53.00 55.66 54.82 54.01 53.45
50.83 51.37 52.47 53.01 53.23 53.56 53.98 54.46 54.11 54.08 53.30 52.52 52.89 52.61 52.05 52.37 52.27 52.36 52.05 51.54 51.33 49.88 46.93 47.91 46.03 44.39 44.49 45.59 45.27 44.69 44.83 45.47 45.75 48.14 48.54 48.51 49.04 49.81 50.26 50.39 50.24 50.33 50.00
49.32 49.52 49.96 50.44 50.57 50.90 51.77 52.59 51.81 51.47 51.48 50.75 51.16 50.90 49.70 50.63 50.13 50.00 50.20 49.59 49.08 47.94 46.35 44.80 44.63 43.43 43.57 42.77 43.00 43.30 43.01 43.69 44.69 44.79 46.48 46.75 46.79 46.75 46.88 47.23 47.51 47.55 47.46
48.02 47.59 47.96 48.18 48.49 48.46 49.28 50.29 49.29 49.01 48.91 48.53 48.38 48.38 46.91 47.17 46.93 47.26 47.22 46.19 45.59 44.69 44.60 42.86 41.21 41.45 40.45 41.29 41.24 40.42 40.34 41.84 42.53 43.13 43.78 43.95 44.04 44.62 45.52 45.50 45.39 45.37 45.58
46.71 46.70 46.31 46.38 46.25 46.39 46.77 47.18 47.30 46.57 46.27 45.85 45.71 45.43 44.95 45.48 43.94 43.71 43.66 43.10 42.89 42.44 42.85 41.80 40.15 41.41 40.72 38.55 37.63 39.21 39.26 39.09 41.16 40.89 40.88 41.28 41.59 41.74 42.18 42.91 43.50 43.54 43.97
44.82 44.33 44.42 44.44 44.10 43.73 43.30 43.23 43.69 43.66 43.10 42.71 42.66 42.68 42.37 42.37 41.88 41.49 40.81 40.88 41.15 41.38 41.58 40.77 39.30 39.56 39.52 38.85 37.73 36.77 36.81 39.24 37.71 38.81 39.21 37.73 38.16 38.04 38.54 39.37 39.79 38.80 39.24
42.09 41.83 41.72 42.13 42.43 41.54 41.35 41.32 41.61 41.33 40.98 40.13 40.17 40.36 41.11 40.85 41.10 41.13 40.97 40.39 39.79 39.25 38.67 38.68 38.47 38.43 37.20 37.08 34.55 34.69 32.88 33.60 35.11 34.33 33.22 34.48 33.83 34.58 35.52 37.20 37.61 37.31 37.28
40.42 40.44 40.37 40.59 40.60 40.51 40.81 41.18 41.03 39.91 39.81 38.93 37.81 38.24 38.35 38.36 39.64 40.02 39.56 39.03 37.94 36.47 35.42 35.61 35.54 34.78 34.08 32.55 32.69 31.43 30.83 29.62 29.28 33.42 30.55 30.35 32.61 30.90 32.09 32.34 35.84 35.36 36.26
39.25 39.35 39.78 40.21 39.69 39.22 39.95 39.63 39.85 39.35 38.07 37.60 37.53 37.39 36.55 35.79 36.25 36.46 35.71 35.79 36.00 35.51 34.60 33.77 31.98 31.38 30.63 31.56 30.95 30.68 30.50 29.57 28.78 30.74 29.32 27.38 30.74 29.38 32.08 34.20 35.07 34.86 36.01
38.92 39.06 39.53 39.25 38.50 38.33 38.08 37.11 36.71 35.39 34.49 34.14 34.26 34.49 35.18 34.71 33.32 33.51 32.91 32.37 32.50 33.51 34.11 33.98 33.04 32.74 32.54 33.30 32.50 31.56 30.20 29.64 30.46 30.43 29.40 25.73 30.05 28.86 31.40 32.38 34.70 34.07 35.47
37.04 35.87 38.04 37.75 36.67 37.01 36.25 34.97 34.28 33.74 33.10 32.60 32.88 33.81 34.33 34.65 34.95 33.40 32.34 30.05 29.86 31.00 32.74 32.45 31.82 31.51 31.59 31.92 31.92 30.32 29.38 27.88 26.66 26.58 28.63 26.55 28.32 27.77 29.51 30.21 31.33 33.20 35.02
34.75 34.79 34.00 34.71 35.15 35.00 34.43 33.36 32.96 32.45 30.24 29.67 30.70 31.74 33.27 34.05 33.68 33.44 31.76 30.25 27.68 28.55 29.35 29.79 29.37 29.42 29.28 29.06 30.46 28.52 28.89 25.27 26.57 26.68 27.50 26.05 27.19 27.08 25.75 30.64 29.81 30.45 31.00

GFSMA_sfc_wetblb_060.txt.gz
Wetbulb
61.58 61.38 60.85 61.13 61.24 61.98 62.39 62.48 63.09 63.10 62.20 62.67 62.84 62.53 62.03 61.61 60.71 59.80 57.48 61.66 63.26 64.08 64.05 66.13 68.49 67.59 66.85 65.71 64.46 63.14 62.48 61.82 60.34 59.59 59.86 59.25 59.55 59.78 59.96 60.45 60.59 60.72 60.37
63.52 63.10 61.52 60.60 60.16 61.33 62.36 62.46 62.78 63.42 63.46 63.45 63.35 63.44 63.04 62.94 62.40 61.69 60.20 59.37 62.82 63.10 63.72 63.73 65.67 66.64 67.02 67.64 67.14 65.31 63.88 63.02 62.02 60.93 60.79 59.46 58.66 58.38 58.77 59.03 59.29 59.69 59.50
64.63 63.99 63.69 62.91 62.12 61.48 62.31 62.71 63.31 63.54 63.20 63.98 63.13 63.60 63.58 63.55 63.45 63.17 62.21 60.92 61.08 61.68 63.36 64.06 64.28 65.28 66.18 66.59 66.91 66.90 65.99 64.12 63.28 62.19 61.18 60.93 60.08 58.97 58.86 58.34 58.56 58.44 58.58
65.63 64.87 64.47 64.49 65.06 64.18 63.63 63.20 63.10 62.85 62.75 63.07 63.62 64.21 64.32 64.64 64.22 64.39 63.82 62.85 62.91 61.23 61.42 63.99 65.15 64.81 64.70 65.61 66.58 66.86 66.26 65.60 64.24 63.45 62.30 61.37 60.88 59.83 59.25 58.66 58.13 57.96 58.05
65.90 65.47 65.28 65.52 65.79 65.41 65.12 65.07 64.79 64.34 63.37 63.74 63.85 63.10 63.57 62.89 62.67 63.47 61.83 62.02 62.20 62.95 61.14 62.58 62.64 62.89 63.85 63.69 64.69 66.00 66.32 65.87 65.13 64.56 63.66 62.30 61.66 60.74 59.82 59.35 58.62 58.15 57.73
66.70 65.69 65.76 66.39 66.39 65.64 65.47 65.28 64.60 64.95 63.65 63.54 63.90 62.91 62.31 62.86 62.68 62.02 61.46 62.29 60.25 59.09 58.88 58.76 58.66 58.48 61.14 62.81 63.15 63.43 64.35 65.37 65.08 64.44 64.37 63.90 62.68 62.01 60.80 60.05 59.29 58.58 58.49
67.50 66.61 65.71 66.21 66.28 65.46 65.35 65.45 64.78 63.77 62.91 63.52 62.40 61.78 61.15 61.97 61.20 60.81 60.98 60.61 57.55 56.55 55.78 55.55 55.46 55.28 55.74 62.16 62.71 62.24 62.98 63.84 64.48 64.36 63.93 63.94 63.85 63.25 62.24 61.25 60.23 59.03 58.47
67.75 67.28 67.04 66.77 66.72 66.08 65.90 65.37 64.81 63.55 63.42 63.38 60.41 57.80 56.23 55.75 56.94 59.41 56.99 57.22 54.85 55.36 54.97 54.79 53.99 54.12 53.79 54.26 56.28 57.31 58.30 59.72 60.70 61.72 62.37 62.99 62.88 62.96 63.15 62.48 61.14 60.10 59.21
61.16 61.75 63.87 65.22 65.60 65.43 64.70 64.74 64.25 63.06 61.84 61.80 61.62 59.06 54.76 51.30 53.43 55.74 56.21 55.26 54.13 53.79 54.09 54.05 53.83 53.54 52.97 52.46 51.42 51.84 54.62 56.05 58.51 59.78 60.20 61.03 61.94 62.07 62.26 62.93 62.29 60.98 59.96
56.14 56.59 56.31 55.46 55.02 57.29 60.78 61.36 61.97 60.93 60.25 59.32 58.84 60.92 60.34 59.00 54.44 51.22 54.31 54.42 53.81 54.04 53.31 55.01 53.33 52.29 51.88 50.43 49.82 51.63 52.82 54.48 56.87 58.55 59.76 60.43 60.72 61.25 61.88 62.34 62.75 61.71 60.89
54.67 54.93 55.66 55.05 56.15 56.43 55.26 55.35 55.76 58.49 58.85 57.85 56.33 57.64 58.46 56.96 56.07 54.38 52.18 53.12 54.74 54.30 52.62 54.01 52.04 49.01 49.43 47.78 46.98 48.86 51.73 53.12 55.04 56.60 58.19 59.23 59.74 60.81 61.93 61.68 62.06 62.19 61.44
53.01 54.06 54.41 54.28 54.92 56.44 57.01 57.40 57.02 57.10 56.69 56.61 58.40 57.03 56.26 53.78 51.60 50.82 52.33 50.57 51.99 52.95 51.59 50.12 48.29 47.28 47.76 47.25 48.36 49.28 50.62 51.27 52.94 54.81 56.18 57.35 57.81 58.08 58.44 59.43 60.47 60.59 62.35
51.23 52.13 53.59 53.31 53.79 55.23 56.25 57.01 56.46 57.23 57.42 57.11 57.00 55.81 57.02 56.83 54.42 53.17 51.85 51.95 50.89 51.33 50.59 47.10 46.14 46.30 47.68 45.77 45.10 48.32 48.75 50.44 53.08 54.01 54.42 54.81 54.07 54.96 55.73 56.97 58.61 59.32 61.23
50.82 51.80 52.35 52.96 53.68 54.53 55.02 55.69 56.54 56.95 56.88 56.37 56.48 55.60 56.26 56.34 55.66 54.83 53.72 52.03 49.41 49.66 49.16 44.55 44.51 44.15 44.15 44.49 45.48 46.64 44.49 49.22 51.22 53.60 54.70 54.42 53.43 54.17 56.58 57.44 57.56 57.89 58.37
50.47 49.40 50.70 51.46 52.34 52.75 53.08 54.93 54.86 54.23 54.29 53.98 53.90 54.20 53.44 53.48 53.85 53.19 53.19 52.46 50.39 45.71 43.95 42.09 41.56 42.04 42.22 43.21 44.32 43.14 43.89 47.43 48.65 49.82 50.17 50.46 51.01 52.31 52.90 55.68 56.15 55.63 55.45
47.91 47.86 48.67 49.62 50.02 50.37 50.90 52.90 52.90 53.25 52.36 51.59 51.89 51.68 50.97 51.07 50.64 50.51 50.32 50.07 48.39 47.16 41.53 42.13 40.44 39.15 41.25 43.22 43.77 43.25 43.74 45.22 46.12 47.70 48.27 48.20 48.29 48.82 50.30 51.10 51.34 51.77 51.93
45.97 46.27 46.87 47.15 47.42 47.54 48.13 50.87 50.55 50.51 50.55 49.87 49.87 49.73 48.41 48.42 48.48 46.17 45.53 44.96 44.87 42.45 40.59 41.18 39.67 39.00 39.68 38.18 40.22 40.62 40.59 40.57 42.86 45.06 46.01 46.38 46.67 47.12 47.24 47.22 47.64 48.12 48.59
45.11 44.49 44.66 44.89 45.49 45.57 45.60 46.17 47.92 47.60 48.05 47.40 47.62 47.23 44.60 45.74 43.66 42.99 43.14 43.90 43.50 41.61 39.42 37.67 38.26 37.23 39.09 37.89 35.96 38.78 39.50 40.50 38.79 42.40 43.03 43.83 43.90 43.97 44.73 45.71 45.83 46.02 46.10
43.97 43.80 43.53 43.20 43.32 43.47 43.01 42.59 44.25 43.40 43.64 42.88 42.36 43.35 41.80 43.60 42.35 41.50 41.28 40.43 36.11 40.34 39.56 38.88 37.28 39.64 38.49 37.57 36.57 34.66 35.66 35.55 39.28 41.18 40.59 40.63 40.38 40.94 42.50 43.17 43.31 43.43 44.17
42.11 41.00 41.14 41.77 41.36 40.60 40.84 40.97 41.19 40.16 39.68 39.87 39.96 39.76 40.06 41.68 40.56 37.10 37.46 36.77 39.78 39.31 40.00 38.78 37.60 37.24 37.13 37.64 32.83 31.70 30.79 33.68 32.68 35.76 36.99 37.95 38.51 38.74 38.90 39.24 40.01 39.23 39.64
40.08 39.92 40.80 41.66 41.76 41.38 41.41 41.09 41.43 41.07 40.24 39.57 39.54 39.97 38.89 40.18 41.79 41.34 39.52 38.59 38.60 37.86 36.65 35.78 35.58 36.05 35.84 34.63 28.54 29.00 27.26 27.72 28.95 29.75 28.34 29.02 29.43 29.98 31.31 35.60 37.15 37.50 37.21
38.73 39.42 40.06 40.30 40.18 40.52 41.37 42.00 41.12 39.85 39.66 38.46 37.53 37.55 37.86 39.24 40.12 40.63 40.04 39.50 38.06 35.38 34.68 34.48 34.34 30.49 27.45 26.63 27.39 26.54 25.98 22.91 22.68 27.74 25.56 25.54 27.47 26.64 27.73 28.10 35.55 35.56 36.11
37.44 39.07 39.42 39.85 38.83 39.43 41.19 41.24 41.13 38.60 37.16 36.59 35.99 35.40 35.11 35.07 35.17 34.53 36.69 37.12 35.88 35.57 34.25 29.51 26.33 25.54 25.57 26.97 26.54 25.48 25.39 23.18 24.54 26.88 25.45 23.30 26.25 26.14 27.98 32.12 35.91 35.16 35.90
38.20 38.66 38.97 38.55 37.98 38.29 38.78 38.98 37.61 31.70 29.99 30.54 31.43 31.77 32.33 31.02 31.35 31.37 30.49 29.17 29.56 30.45 30.95 31.86 27.76 27.29 27.69 28.64 27.93 27.68 26.50 25.65 26.71 26.53 25.64 19.97 25.09 25.59 27.35 28.32 35.70 35.19 35.95
37.10 34.93 37.32 36.64 35.40 35.44 37.13 36.46 32.72 26.81 27.20 27.75 29.97 31.12 31.67 31.59 35.03 33.95 29.85 27.94 26.70 28.19 33.33 32.94 32.15 31.80 31.55 31.61 30.34 26.03 22.56 21.37 21.72 23.13 25.20 24.08 24.65 25.04 26.07 27.28 28.95 34.44 35.21
34.70 34.57 33.38 33.44 35.65 30.75 35.48 34.32 32.21 28.59 27.62 27.80 28.25 30.16 34.00 33.08 34.84 34.01 29.05 26.34 24.36 24.98 26.16 27.09 26.07 27.72 28.18 26.94 30.53 25.52 22.64 15.85 18.69 19.15 24.69 21.89 24.32 24.67 20.62 27.13 27.82 28.17 28.26

GFSMA_sfc_wetblb_063.txt.gz
Wetbulb
60.15 60.06 61.03 61.79 61.37 62.61 62.63 62.58 61.88 61.46 60.71 60.84 60.99 60.46 60.67 60.21 59.76 59.25 56.33 61.29 63.31 64.83 64.35 64.92 67.87 67.98 67.13 66.40 65.02 63.94 62.97 62.13 60.98 60.51 60.22 59.47 59.53 59.62 59.91 60.22 60.41 60.18 60.67
60.81 60.90 59.66 58.82 58.65 59.77 60.52 60.59 60.92 61.88 61.98 61.94 62.20 62.23 61.87 61.68 61.31 60.94 59.94 58.33 63.22 64.07 65.26 64.51 64.93 65.84 66.92 67.21 67.02 66.43 64.39 63.55 62.56 61.40 61.30 60.15 59.08 58.44 58.78 59.04 59.11 59.76 59.50
62.54 62.44 61.62 60.08 59.76 59.55 60.43 60.83 61.63 61.97 61.82 62.61 62.01 62.58 62.96 63.70 63.55 63.35 61.63 60.77 60.75 62.14 63.98 65.26 65.17 65.11 65.50 66.13 66.86 67.04 66.20 65.28 63.98 62.83 61.83 61.31 60.24 58.94 59.12 58.63 58.67 58.98 58.51
64.40 63.28 62.91 63.04 62.91 61.79 61.24 61.71 61.80 61.58 61.55 61.98 62.65 63.45 64.00 64.04 63.87 62.25 62.15 62.29 62.01 60.79 61.34 64.58 65.59 65.03 64.64 64.94 65.56 66.51 66.64 65.68 65.20 64.50 63.24 61.87 61.41 60.29 59.58 59.14 58.83 59.13 58.75
64.99 64.45 64.18 64.23 64.46 64.00 63.62 63.78 63.99 63.78 62.88 63.17 63.73 63.64 62.48 61.78 61.69 62.58 61.08 61.09 61.19 60.88 60.98 62.24 62.65 62.66 63.55 63.39 64.03 64.39 65.03 65.46 65.03 64.84 64.56 63.73 62.32 61.67 60.60 60.01 59.28 58.83 58.75
64.90 64.42 64.42 64.52 65.92 65.11 64.89 64.83 64.24 64.50 63.76 63.33 63.89 62.85 63.09 62.58 61.83 61.81 61.41 61.63 58.94 58.29 56.79 56.65 56.77 57.20 61.00 62.66 62.86 63.05 63.61 63.98 64.23 64.29 64.09 64.33 63.85 62.93 62.25 61.09 60.22 59.34 59.07
66.67 65.63 64.91 65.54 65.66 65.15 64.83 65.08 64.42 63.66 62.43 63.13 62.21 61.44 60.09 61.95 61.03 61.08 60.38 58.14 55.80 54.45 54.09 53.56 53.34 53.21 54.88 59.97 60.30 60.69 61.44 61.73 61.77 62.36 63.28 63.16 63.39 63.50 63.65 62.66 61.52 60.44 59.63
67.34 66.86 66.49 66.28 66.35 65.75 65.52 65.36 64.74 63.58 63.13 63.38 60.06 58.11 56.70 55.96 56.39 56.46 56.02 54.86 53.68 53.95 53.51 53.32 52.88 52.32 52.66 52.46 53.55 56.25 57.71 59.31 60.40 60.79 60.66 61.06 62.01 62.65 62.66 63.50 62.67 61.44 60.36
59.90 60.72 62.65 64.49 65.24 65.18 64.46 64.43 64.14 63.09 61.48 60.80 60.54 60.00 55.25 50.79 53.00 55.13 55.32 54.05 53.21 52.81 52.21 52.44 51.96 51.97 50.37 48.64 49.94 51.20 54.58 56.15 58.47 59.77 60.33 60.56 60.74 61.20 62.07 62.04 62.77 62.59 61.35
56.22 56.65 56.36 55.27 54.38 54.63 55.79 59.63 60.83 59.01 58.09 57.21 57.23 59.22 58.49 58.22 54.38 51.49 53.48 53.70 52.96 52.35 53.51 53.33 51.21 49.83 47.95 47.06 49.06 51.99 52.82 54.00 56.24 57.56 58.74 59.37 59.78 60.42 61.34 62.06 62.19 62.81 62.15
54.60 54.66 54.88 54.04 54.57 55.57 55.05 54.03 54.15 54.80 57.05 55.85 55.35 54.83 55.42 56.06 55.71 54.55 51.29 51.42 53.05 53.29 53.29 51.12 50.14 47.83 47.35 46.51 46.31 49.55 51.47 53.04 55.22 56.04 57.20 58.02 58.70 59.07 60.22 60.07 60.63 61.40 62.42
52.53 53.21 53.68 53.70 53.87 54.73 55.75 56.75 56.27 55.44 55.16 54.93 55.23 56.05 54.52 52.81 51.81 50.70 50.15 50.11 50.45 51.64 49.62 48.91 47.79 46.33 46.13 45.11 48.50 49.64 50.24 52.32 54.86 55.08 55.83 56.25 55.92 55.99 56.96 57.83 59.00 59.64 60.66
50.41 52.00 52.69 52.34 52.61 53.67 54.82 55.28 55.50 55.03 54.66 54.29 54.23 54.03 54.71 54.27 54.95 54.20 52.80 50.81 49.80 51.16 48.35 46.98 45.05 44.80 45.86 43.50 45.53 46.38 48.99 50.40 52.85 56.51 56.82 56.16 54.45 55.35 57.21 57.12 57.39 58.50 59.63
50.54 51.06 51.80 51.89 52.13 52.94 53.40 54.19 54.30 54.58 54.37 55.25 55.85 56.38 55.83 55.01 54.68 54.44 52.95 51.14 49.72 50.20 48.30 45.37 42.88 42.13 42.97 42.68 45.49 45.70 44.02 49.15 50.55 51.81 52.78 53.10 53.39 53.96 55.64 57.71 56.61 57.44 58.88
49.55 48.72 49.51 50.37 50.94 51.40 51.74 52.17 53.72 53.63 52.92 53.29 53.78 54.19 53.35 53.65 54.27 53.95 53.67 52.72 50.66 44.84 47.08 41.54 42.17 40.05 41.07 41.58 43.55 42.30 42.22 46.98 48.44 49.41 49.59 49.61 49.60 50.68 52.54 53.60 55.38 55.96 56.57
47.93 47.89 47.71 48.35 48.86 49.05 49.55 50.66 52.39 53.17 52.49 51.67 51.89 51.74 51.01 51.00 50.58 50.34 50.03 49.60 49.11 48.28 44.36 40.98 38.89 38.11 39.63 42.02 42.63 40.39 43.14 44.35 45.43 46.53 48.11 47.93 48.21 48.57 48.97 50.05 51.01 51.81 52.17
46.32 45.78 46.42 46.45 46.31 46.22 46.22 46.63 51.01 50.43 50.11 50.11 49.84 49.78 48.01 48.88 48.29 46.70 45.54 45.15 43.94 43.67 43.73 41.38 41.19 39.38 40.07 37.08 39.05 40.47 39.98 38.52 39.89 44.23 44.83 45.67 45.76 45.98 47.17 47.62 47.79 48.40 49.58
45.24 45.33 45.02 44.80 44.78 44.43 44.45 44.31 48.07 48.32 48.16 47.63 47.85 46.98 45.45 45.66 44.37 44.30 42.67 43.19 43.07 42.09 39.42 40.15 39.61 33.55 36.26 37.74 34.69 36.07 38.24 39.74 37.57 41.49 42.82 43.11 43.41 43.74 44.59 45.38 45.74 46.02 46.26
43.98 43.69 43.64 43.16 43.16 42.62 41.61 41.40 45.23 44.90 44.41 43.96 44.46 44.28 43.31 43.06 42.27 41.77 41.97 41.11 39.95 38.59 35.23 37.08 36.31 37.15 38.24 36.94 32.23 33.26 34.80 34.75 38.26 40.13 40.10 39.98 40.44 40.45 41.69 43.29 43.41 42.88 43.31
41.33 40.90 41.12 41.80 41.34 40.96 40.65 40.55 41.29 40.59 40.23 40.22 40.10 39.50 39.88 41.94 40.75 39.25 37.11 36.31 37.66 35.93 38.72 37.58 36.22 37.04 37.34 36.94 32.60 30.80 29.41 30.78 30.60 33.65 35.23 37.57 38.06 38.82 39.05 39.13 39.88 39.35 39.58
39.89 39.92 40.10 40.67 40.96 41.38 41.49 41.27 41.62 41.01 40.36 39.68 39.72 39.52 39.90 41.46 42.03 41.19 38.79 37.74 38.76 37.89 36.77 35.69 35.44 36.06 36.03 34.13 28.44 27.71 26.67 26.30 27.30 27.15 26.67 27.20 27.53 27.77 29.74 35.34 37.21 37.54 37.08
37.88 38.27 37.99 39.01 39.73 40.54 41.76 42.50 41.55 40.23 39.58 38.57 37.91 38.38 39.32 40.56 40.92 41.47 40.84 40.11 38.42 35.80 35.02 34.57 34.23 32.96 27.25 26.16 26.94 26.21 25.83 22.01 22.24 26.92 24.84 24.50 26.13 25.69 26.91 26.98 35.66 35.81 35.98
35.79 36.30 37.26 39.04 38.86 40.09 41.92 42.45 41.66 39.20 37.94 36.79 36.14 35.74 35.27 36.58 35.68 34.39 37.77 37.75 36.06 36.37 35.32 30.09 26.77 25.95 25.83 26.94 26.29 25.37 24.87 22.34 23.91 25.99 24.53 22.22 25.19 25.55 26.98 30.77 36.06 35.58 36.27
34.84 36.41 38.34 38.88 38.01 38.84 40.25 40.43 39.26 35.60 34.74 34.48 34.72 32.98 30.99 29.29 30.54 31.21 30.15 29.83 29.58 30.15 30.92 30.99 28.20 27.78 28.11 28.57 28.17 27.67 26.33 25.23 25.68 25.64 24.56 19.71 23.86 25.29 26.17 26.96 35.84 35.62 36.13
37.71 36.14 38.03 36.83 35.74 36.14 38.27 37.98 32.25 27.14 28.15 27.58 29.62 29.95 31.43 30.21 34.72 34.80 29.06 27.69 26.87 28.48 33.69 34.00 32.74 32.63 32.18 32.33 30.40 26.06 23.20 20.18 21.14 22.95 24.61 23.45 23.77 24.55 25.51 26.66 27.59 35.22 35.32
35.64 35.59 33.77 34.63 36.66 33.92 37.68 36.58 31.60 27.79 27.28 27.53 28.05 29.76 35.36 32.77 36.48 34.91 28.55 27.29 24.45 24.67 26.10 26.81 25.70 27.95 28.38 27.11 30.94 25.54 22.95 14.51 17.24 18.05 24.37 21.31 23.65 23.81 20.08 25.56 27.10 27.24 27.20

GFSMA_sfc_wetblb_066.txt.gz
Wetbulb
61.87 61.72 61.89 61.39 60.89 61.62 61.88 61.73 61.36 61.29 60.74 60.52 59.98 59.54 59.30 59.14 58.62 58.61 57.01 60.80 63.91 65.76 65.33 65.17 66.99 68.32 67.31 66.96 66.17 64.69 63.57 62.61 61.39 60.68 60.33 59.43 59.42 59.43 59.77 59.99 60.28 60.25 60.98
60.09 59.51 58.97 60.95 60.52 60.34 61.93 60.82 61.71 60.82 60.47 60.58 61.25 61.28 61.11 60.97 60.44 60.36 59.75 58.09 62.57 64.62 66.21 65.47 65.51 66.10 66.64 67.12 66.98 66.42 65.66 64.37 63.46 62.23 61.59 60.53 59.44 58.68 58.83 59.10 59.20 59.68 59.51
60.28 60.37 59.86 57.84 58.43 58.33 59.37 59.54 60.04 60.77 60.87 61.50 61.15 61.70 61.71 63.25 62.95 63.09 62.43 61.44 60.36 62.12 64.23 65.83 66.41 65.08 65.60 65.72 66.18 66.84 66.64 65.57 65.23 64.11 62.69 62.22 60.95 59.49 59.31 58.91 58.84 59.08 58.82
62.20 61.70 61.38 61.36 60.66 59.39 59.03 59.66 60.62 60.68 60.89 61.20 62.30 62.26 63.64 63.64 63.10 62.19 61.22 60.93 61.23 62.08 61.90 64.30 66.23 65.48 64.55 64.39 64.45 64.96 65.63 65.95 64.94 65.13 64.45 63.14 62.16 61.02 60.09 59.46 59.03 59.29 58.94
63.87 62.94 62.60 62.97 63.28 62.67 61.61 62.13 62.66 63.19 62.45 62.55 62.93 63.26 63.07 62.91 62.33 62.54 61.45 61.08 60.40 60.05 59.50 61.91 62.31 61.88 62.44 62.62 63.40 63.78 64.13 64.30 64.51 64.15 64.38 64.39 63.20 62.56 61.52 60.78 59.95 59.57 59.52
64.17 63.60 63.84 63.98 64.54 64.83 64.46 64.14 63.73 64.05 63.81 63.45 62.81 62.92 62.17 63.05 62.29 60.85 60.81 61.19 58.31 57.49 56.83 56.08 55.37 57.81 62.37 63.06 63.35 63.44 63.36 62.85 62.42 63.09 63.69 63.74 63.96 63.72 63.10 62.13 61.19 60.35 59.74
64.94 63.68 63.65 63.99 63.98 64.31 64.54 64.53 64.20 63.76 63.35 62.17 61.87 59.25 60.08 60.17 60.50 59.28 58.26 58.66 55.41 54.99 53.20 54.24 52.91 53.59 55.44 58.33 59.13 59.57 60.40 61.03 61.40 61.36 61.26 61.98 62.66 62.83 63.51 63.71 62.64 61.68 60.65
66.23 65.52 65.28 65.20 65.46 65.21 64.65 64.99 64.53 63.49 63.18 62.67 58.55 56.16 54.66 54.84 54.84 54.94 54.22 53.18 52.82 54.67 54.00 53.54 52.20 52.39 50.88 51.21 53.29 56.18 57.63 59.16 60.23 60.66 60.38 60.56 60.93 61.35 62.67 62.48 63.27 62.70 61.65
65.54 65.74 65.62 65.55 65.22 64.99 64.31 64.03 63.22 62.79 60.29 59.22 58.87 57.08 52.14 50.02 52.14 54.25 53.59 53.68 53.85 53.37 52.73 51.40 51.27 49.95 48.61 48.71 50.46 51.64 54.41 55.50 57.54 58.93 59.53 59.78 59.75 60.47 61.36 61.85 61.84 62.75 62.60
57.23 57.15 56.32 55.97 55.76 55.85 56.12 57.82 59.94 58.20 57.11 55.60 55.78 58.02 57.04 55.55 52.61 49.62 52.70 53.53 52.63 52.44 50.87 51.36 50.16 48.12 47.58 47.16 50.88 52.32 52.81 54.21 56.34 57.40 58.12 58.81 59.02 59.56 60.45 61.17 61.04 61.39 62.20
58.32 57.93 56.83 55.34 54.50 55.04 54.95 54.23 53.48 53.28 55.38 54.95 54.01 53.70 54.12 53.41 53.78 51.90 48.84 50.36 51.60 52.10 50.93 49.20 47.96 47.09 47.42 46.35 47.24 49.84 52.28 53.89 56.89 56.96 57.17 57.52 58.00 58.36 59.35 59.74 60.02 61.09 61.23
54.72 55.06 54.97 53.12 53.00 53.68 54.30 55.01 55.43 55.00 54.98 54.81 54.58 54.66 53.48 51.95 50.46 49.98 49.21 49.39 49.51 49.43 48.63 48.33 47.68 46.89 45.31 45.90 48.34 50.06 51.08 51.94 54.75 58.04 56.74 56.97 56.18 56.32 57.47 58.57 58.36 58.68 59.74
51.95 53.04 52.92 52.14 52.24 53.05 54.00 54.15 53.83 53.78 53.42 52.75 52.69 52.71 53.24 53.42 53.65 52.06 51.13 50.51 51.69 49.38 47.10 46.17 45.61 45.31 44.72 44.02 44.89 46.63 49.48 50.75 52.56 54.96 56.39 56.34 55.29 55.60 58.11 57.59 56.65 57.43 58.33
50.73 51.66 52.09 52.23 52.31 52.94 52.54 52.41 52.65 53.04 52.93 52.64 52.62 53.24 54.01 54.96 53.51 53.82 53.31 52.75 49.95 50.26 46.91 44.45 43.59 43.38 42.22 43.01 45.14 45.47 43.83 48.76 50.32 51.18 51.59 52.04 51.75 52.99 54.83 57.91 58.21 58.55 58.80
50.22 49.97 49.97 50.61 51.03 50.95 50.67 50.43 50.85 51.00 51.11 50.61 51.16 51.86 53.78 54.06 54.45 54.70 54.05 53.40 52.21 48.52 47.35 43.07 42.13 41.48 40.72 41.38 43.11 41.63 41.52 46.60 47.82 49.08 49.21 49.38 49.23 49.88 51.39 53.00 54.10 54.43 55.83
49.03 48.14 48.20 48.72 49.05 48.62 48.72 49.04 49.74 51.26 52.12 51.71 51.62 51.85 51.53 50.90 51.06 50.81 50.64 50.61 49.80 49.34 45.35 42.04 40.52 40.76 40.22 41.00 42.11 39.26 40.77 43.46 45.14 45.71 46.84 46.89 46.84 47.55 48.86 49.60 50.77 51.87 52.86
47.23 46.40 46.85 46.63 46.28 46.24 46.07 45.76 47.09 50.96 50.39 50.67 50.11 50.36 49.13 49.39 48.43 47.08 46.67 46.38 45.52 46.09 44.90 41.13 41.12 40.45 40.07 38.31 37.83 38.11 38.73 37.71 38.37 43.59 44.15 44.91 45.33 45.80 46.59 47.46 48.17 48.70 49.26
44.75 44.47 44.38 44.09 43.99 44.37 43.86 43.51 44.20 47.52 48.59 48.06 48.25 47.80 46.14 46.31 45.07 45.04 44.44 43.78 43.30 42.91 42.78 39.91 39.60 37.94 38.55 37.07 34.28 34.52 37.33 39.02 36.82 41.32 42.30 41.66 42.42 43.42 44.93 45.39 45.88 46.42 46.47
42.79 42.64 42.82 42.57 42.62 42.49 41.93 42.05 43.04 44.86 45.77 45.51 45.64 45.91 44.48 44.21 42.85 42.53 42.40 41.78 40.73 40.28 38.81 39.54 37.11 38.08 36.74 37.72 33.34 31.81 34.35 32.53 36.57 37.90 39.07 40.12 40.23 40.71 41.24 43.19 43.26 43.06 43.37
41.02 40.26 40.33 41.30 41.15 40.47 40.38 39.90 40.72 40.60 40.99 41.03 41.20 41.63 42.22 42.72 41.56 40.47 39.65 39.37 39.23 36.33 36.73 34.99 34.89 34.69 37.17 36.66 33.78 29.99 29.09 29.52 29.49 32.28 33.83 35.64 37.19 37.94 39.15 39.47 39.68 39.07 39.69
39.21 38.82 39.10 39.72 39.59 39.66 40.32 39.16 40.81 40.80 40.35 39.96 39.95 40.17 40.90 41.62 41.98 40.96 38.70 36.68 37.31 37.67 36.99 36.26 35.59 36.52 36.17 34.56 29.25 28.10 26.74 26.13 27.10 26.70 26.55 26.34 26.70 26.56 28.86 34.90 36.91 37.08 36.94
37.19 37.20 37.41 38.23 37.90 39.60 41.67 42.59 42.01 40.64 40.08 39.20 38.52 39.31 40.40 41.55 42.00 42.01 40.89 39.98 38.94 36.84 35.75 35.30 34.74 33.93 28.54 26.85 27.05 26.23 25.68 23.06 22.83 26.98 25.06 24.61 25.59 25.56 26.73 26.92 35.45 36.14 36.55
35.19 35.53 35.98 36.82 36.41 37.71 41.97 42.65 42.57 39.78 38.45 37.55 36.76 36.40 36.10 37.80 36.91 35.55 38.51 37.67 36.75 37.88 36.69 32.55 30.42 28.32 25.96 27.30 26.51 25.60 25.02 23.48 24.44 26.01 25.13 22.05 24.74 25.05 26.31 29.41 35.52 35.97 36.91
34.08 34.36 35.56 36.71 36.07 38.91 41.13 41.76 40.72 37.13 36.42 35.67 35.56 34.73 33.53 31.41 31.43 31.84 30.11 29.44 29.40 29.61 30.38 30.98 28.23 27.71 28.43 28.05 28.38 28.17 26.39 25.53 25.90 25.71 24.65 19.59 23.36 24.92 25.79 26.64 35.84 35.76 36.31
36.64 36.38 38.49 37.54 35.89 36.97 39.80 39.43 35.51 33.03 32.74 32.25 32.43 32.72 30.43 29.16 33.72 35.01 28.84 27.38 27.01 28.97 34.21 34.26 33.04 33.81 34.34 34.06 30.59 26.87 25.33 22.96 22.65 23.60 24.76 23.25 23.34 24.01 25.25 26.20 27.31 35.95 35.72
36.77 36.43 34.28 35.51 37.09 34.58 39.07 38.31 31.87 26.51 26.85 26.67 27.98 29.50 35.90 31.41 36.23 35.47 28.46 26.50 24.57 25.57 27.58 27.26 26.50 28.18 27.70 28.42 32.17 26.34 25.39 19.88 21.63 19.68 24.32 21.20 23.24 23.10 19.69 25.02 26.47 26.42 26.52

GFSMA_sfc_wetblb_069.txt.gz
Wetbulb
62.32 62.41 61.75 61.22 60.71 60.54 60.80 60.41 60.47 60.36 60.44 60.42 59.83 59.11 58.80 58.45 58.30 57.96 57.50 59.90 63.48 66.04 65.88 65.77 66.37 67.61 67.46 67.00 66.61 65.97 64.89 63.95 62.64 61.20 60.73 59.63 59.42 59.34 59.73 60.07 59.95 60.22 60.58
62.19 61.91 61.18 60.93 60.11 60.15 61.15 61.22 60.88 61.24 60.49 59.75 59.91 60.26 60.07 60.36 60.20 60.66 61.23 60.71 61.53 63.61 66.30 65.71 65.90 66.36 66.24 66.19 66.57 66.37 65.86 65.54 64.85 63.52 62.43 61.40 60.01 59.02 58.76 59.09 59.27 59.47 59.23
60.61 60.19 58.68 58.12 60.46 59.88 59.61 60.20 59.06 59.43 59.91 60.67 60.48 61.09 61.23 61.23 61.82 62.86 62.71 62.35 62.26 61.51 63.48 65.46 66.84 65.97 65.51 65.25 65.79 65.77 65.72 65.57 65.46 65.44 64.24 62.97 61.76 60.45 59.37 59.20 59.10 59.19 58.92
60.19 59.29 59.05 58.66 58.04 57.73 57.81 58.20 59.36 59.99 60.27 60.47 60.60 61.35 62.64 63.52 63.24 62.89 62.52 62.15 61.40 62.11 62.17 63.70 65.64 65.60 64.22 64.19 64.16 64.48 64.39 64.48 64.96 64.54 64.97 64.29 63.30 62.11 60.86 60.50 59.52 59.47 59.29
61.66 61.22 60.80 61.14 61.30 59.65 59.02 59.27 60.11 62.05 61.09 61.86 62.24 62.69 61.21 62.47 62.39 62.41 61.18 60.75 60.60 60.11 60.17 61.84 62.09 61.72 62.47 62.51 63.07 63.78 64.13 63.60 63.07 63.75 64.11 64.04 64.15 63.38 62.54 61.59 60.61 59.79 59.91
63.21 62.06 61.98 62.01 62.69 62.31 62.35 62.73 62.55 63.35 63.14 63.28 63.10 62.21 61.15 60.81 61.37 59.98 59.14 60.52 59.33 58.02 57.01 55.85 57.21 60.02 62.63 63.09 62.76 62.11 61.92 61.90 61.79 61.78 61.73 62.45 63.14 63.44 63.94 63.09 62.01 61.16 60.23
64.25 63.19 62.66 62.93 63.10 62.91 63.38 64.08 63.76 63.24 62.93 62.46 61.07 59.13 58.56 59.14 58.82 56.68 55.58 57.09 55.42 53.95 53.21 54.07 56.84 56.08 56.88 59.39 59.28 59.57 60.18 60.79 60.98 60.67 60.59 61.02 61.25 61.64 62.71 62.98 63.46 62.50 61.56
64.89 64.26 63.50 63.15 64.16 64.25 64.12 63.38 63.34 62.87 62.75 62.66 59.31 56.26 54.35 54.96 54.20 54.38 53.02 52.92 51.68 52.46 53.16 53.74 53.76 52.41 50.66 51.67 54.23 56.60 57.36 58.39 59.30 59.64 59.41 59.84 59.78 60.28 61.21 61.87 62.19 63.15 62.86
65.51 65.17 64.91 65.03 65.04 64.63 64.01 63.91 63.47 62.74 60.38 58.54 58.45 58.01 53.96 49.71 51.19 53.71 52.88 52.05 51.36 51.64 52.40 52.27 50.69 49.14 48.42 49.16 50.69 52.23 54.49 55.68 57.39 58.21 58.67 59.03 59.03 59.30 59.82 61.16 62.04 61.78 62.76
59.69 60.08 59.63 59.91 59.28 58.15 57.78 58.19 60.86 60.44 58.93 56.04 55.02 56.95 56.02 55.27 53.38 49.47 51.72 52.49 51.50 51.43 50.51 50.49 48.54 47.83 47.26 48.64 50.86 52.78 53.78 55.33 57.71 57.90 57.95 58.06 58.51 58.62 59.56 60.80 61.13 60.92 60.96
59.10 59.31 59.05 58.18 56.41 56.10 55.86 55.01 53.03 52.85 54.87 54.17 53.65 52.93 52.61 52.79 53.32 54.01 49.36 51.16 50.40 50.37 49.48 49.03 48.23 46.98 46.91 47.52 47.50 50.30 52.62 54.25 57.26 58.10 57.49 57.69 57.66 57.53 57.63 58.39 59.36 60.03 60.57
57.13 56.57 55.41 54.41 53.82 54.06 53.96 53.88 53.81 53.59 53.25 53.19 53.16 53.03 55.00 52.46 49.49 49.32 49.07 48.91 47.89 46.94 46.83 47.71 47.42 45.79 46.50 47.21 48.56 50.30 51.40 52.81 54.81 56.53 58.17 57.58 56.98 56.76 58.13 58.91 58.69 58.58 58.61
53.88 53.16 53.73 52.90 52.49 52.95 53.17 53.38 53.77 52.86 52.78 51.82 51.34 51.38 51.67 51.93 52.04 52.39 51.34 50.70 48.20 45.06 46.00 46.01 45.63 45.35 45.59 45.12 45.84 46.79 49.70 50.91 51.88 53.35 54.79 54.56 54.23 55.17 57.63 58.22 57.13 56.35 57.50
52.70 53.26 52.99 52.45 52.50 52.89 52.75 51.93 51.79 51.83 52.96 52.29 51.49 51.31 51.76 52.02 51.71 52.00 52.11 51.78 49.39 49.35 46.06 44.37 43.74 43.93 44.21 44.47 45.39 45.44 43.42 49.05 49.93 50.55 51.39 51.59 51.16 52.08 53.99 56.37 56.72 57.48 58.41
53.14 51.48 51.36 51.02 51.02 51.49 50.42 50.20 50.06 50.21 50.39 49.73 49.59 49.64 49.97 51.28 53.09 54.45 53.98 54.01 51.99 47.46 46.12 43.02 41.85 42.59 42.87 43.07 43.70 40.98 40.90 46.42 47.45 48.42 48.69 48.51 48.15 49.14 50.90 52.61 53.84 54.38 55.54
49.09 48.81 48.83 48.78 48.76 48.65 48.65 48.87 48.60 49.93 50.30 50.12 49.42 49.15 49.65 51.23 51.24 50.78 50.87 51.13 50.85 50.44 47.13 43.36 41.43 41.38 41.96 41.44 42.75 39.16 40.10 42.77 45.47 45.33 45.99 46.15 46.37 46.88 48.36 49.80 50.67 51.77 52.83
47.47 46.91 46.39 46.24 45.98 46.43 45.29 44.52 45.07 46.36 47.83 48.35 48.96 50.09 50.19 49.57 49.11 47.77 47.44 47.11 46.45 46.67 45.45 40.90 41.04 40.65 39.82 39.49 39.59 38.60 37.94 37.51 38.18 43.47 44.20 43.81 44.14 45.65 46.44 47.17 48.03 48.67 49.70
45.73 44.59 44.38 44.09 43.63 43.53 42.93 42.44 42.75 43.40 45.30 46.60 48.40 48.20 47.52 46.83 46.06 45.48 44.97 44.25 43.87 43.36 43.56 40.07 39.57 38.32 38.91 38.45 36.89 35.90 36.79 38.28 36.55 40.73 41.92 41.94 42.09 43.17 44.74 44.90 45.07 46.07 46.69
44.49 44.01 43.18 42.19 42.16 42.32 41.50 40.72 41.16 42.29 43.44 44.31 45.84 46.70 46.03 44.88 43.65 43.27 43.06 42.29 41.31 40.80 40.25 40.08 37.20 38.64 38.24 37.81 35.17 32.79 34.05 31.11 34.53 36.92 38.89 39.80 40.42 40.56 41.06 42.56 42.57 42.91 43.33
41.47 40.91 40.83 41.02 40.96 40.27 39.85 39.32 39.58 39.26 39.12 39.79 41.89 42.70 43.40 43.75 42.79 41.47 40.67 40.25 40.04 39.09 38.54 38.27 37.43 36.80 37.17 36.46 34.96 31.26 29.27 29.13 29.28 31.69 33.29 34.68 35.93 36.57 39.00 39.75 39.40 39.10 39.20
39.24 38.64 38.37 38.63 38.76 38.96 39.63 38.14 38.99 38.32 38.45 40.13 40.27 40.75 41.32 41.93 42.51 41.68 39.85 39.11 38.94 38.10 36.53 34.94 35.76 36.79 36.03 34.67 31.90 28.46 27.57 27.21 26.77 27.13 26.33 26.95 26.80 26.93 29.12 32.77 34.85 37.05 37.59
37.05 36.98 36.86 37.28 37.13 39.11 41.62 42.65 41.45 38.36 40.46 39.67 38.76 39.87 41.07 42.19 42.54 42.69 41.60 40.99 39.96 37.59 36.28 35.72 35.17 34.62 31.81 28.41 26.86 27.31 26.92 25.26 24.14 26.84 25.58 24.71 26.39 26.19 27.25 28.95 36.27 36.66 37.48
35.11 35.28 35.44 36.10 35.87 36.28 41.87 42.69 43.45 40.26 39.21 38.31 37.27 37.43 37.44 38.69 37.87 37.47 39.39 37.78 38.26 39.09 37.87 35.14 33.63 31.65 28.01 27.65 27.46 25.63 25.46 24.50 24.07 25.97 25.20 22.62 25.43 25.69 26.93 29.06 34.98 36.51 37.43
34.23 34.10 34.66 35.42 35.14 37.02 41.76 42.19 41.73 37.93 37.27 36.58 36.27 35.72 34.72 33.23 33.94 33.03 29.98 28.84 28.99 29.27 29.67 30.16 28.91 27.75 27.97 28.19 28.15 27.50 25.89 25.19 25.83 25.98 24.92 21.40 24.48 25.40 26.48 27.13 36.46 36.25 36.61
33.77 32.69 36.38 38.14 36.73 34.36 40.82 41.10 37.19 34.18 34.17 33.75 34.39 34.00 32.99 31.27 33.75 35.69 29.05 28.41 28.39 29.13 34.22 34.91 34.21 34.98 35.03 34.13 30.93 27.44 24.94 22.63 23.20 23.97 25.37 24.16 24.07 24.49 25.58 26.12 27.83 35.42 35.67
34.85 36.23 34.82 36.61 37.95 34.19 39.79 39.97 35.42 31.96 31.79 30.92 30.16 30.34 35.98 30.07 35.37 35.84 28.25 26.85 25.50 26.67 27.35 26.47 27.41 28.26 27.44 28.42 33.47 26.36 26.20 20.00 22.47 21.30 25.03 23.33 24.20 23.62 20.34 24.97 26.06 25.89 26.36

GFSMA_sfc_wetblb_072.txt.gz
Wetbulb
61.61 61.79 61.10 60.65 59.90 59.52 59.44 59.09 59.33 59.55 59.48 60.06 60.01 59.03 58.90 58.55 58.09 58.27 57.67 60.25 61.84 63.79 65.52 65.98 66.24 67.17 67.45 67.14 66.58 66.37 65.80 65.24 64.09 62.59 61.94 60.53 59.58 59.20 59.54 59.82 59.71 60.37 60.51
61.73 61.68 61.03 60.35 59.49 59.17 59.89 60.13 60.05 60.35 60.56 59.50 59.79 59.87 59.86 60.00 60.20 60.20 60.40 61.28 62.61 63.62 64.60 65.62 66.03 66.63 66.29 66.31 65.99 66.00 65.71 65.36 65.66 65.30 63.63 62.51 61.09 59.64 59.03 59.13 59.32 59.52 59.33
61.96 62.24 60.94 59.96 60.18 59.53 59.39 59.61 59.45 58.74 59.02 60.10 59.98 60.65 60.84 60.83 61.08 62.56 62.03 62.32 62.77 61.96 63.33 65.61 66.10 66.59 65.46 65.24 65.53 64.83 64.87 64.80 65.28 65.16 65.39 64.23 62.90 61.52 60.34 59.87 59.21 59.44 58.95
61.09 60.49 59.55 58.24 57.90 59.31 58.53 57.65 58.18 58.53 59.22 59.64 59.98 60.72 60.75 61.96 62.15 62.08 62.01 61.01 61.03 61.40 62.60 63.20 64.77 65.80 64.36 63.56 63.47 63.83 64.43 64.49 64.10 64.63 64.71 64.42 64.38 63.30 61.88 61.25 60.18 59.76 59.28
60.42 59.97 58.89 58.94 58.44 57.41 57.00 57.39 57.93 59.33 59.77 60.01 60.67 62.12 62.05 60.64 60.82 60.99 59.98 59.52 60.27 60.45 59.41 61.29 62.81 62.44 63.09 62.73 63.57 64.29 63.44 62.48 62.27 62.48 62.78 63.49 63.85 64.22 63.75 62.42 61.47 60.53 60.10
60.89 60.23 60.56 60.58 61.44 60.13 59.20 59.01 58.93 61.41 62.34 62.59 62.76 61.50 60.76 60.38 60.14 59.14 58.22 59.23 59.41 58.21 57.61 56.75 58.20 60.35 63.20 63.48 62.59 62.08 61.75 61.66 61.42 61.15 61.35 61.64 62.15 62.34 63.37 63.99 63.02 61.91 61.03
64.20 62.28 62.17 61.68 61.86 61.75 61.93 63.38 63.08 62.50 62.65 62.58 61.31 57.73 57.71 58.38 57.24 54.40 54.46 55.20 56.06 54.89 54.31 55.54 56.93 57.16 57.97 59.81 59.75 59.91 60.26 60.56 60.71 60.47 59.80 60.14 60.48 60.99 61.55 62.32 62.90 63.32 62.45
64.53 63.99 63.42 62.80 62.76 62.58 63.39 63.52 63.16 61.60 61.93 62.36 59.56 54.77 52.65 53.99 53.51 53.70 51.76 52.36 51.62 51.78 52.05 52.95 52.27 52.10 52.09 52.39 54.39 56.52 57.03 57.87 58.60 58.90 59.11 58.94 59.71 59.45 59.66 60.96 61.84 62.05 63.08
64.54 64.16 63.86 63.88 64.09 64.39 63.36 63.45 63.42 62.77 61.16 58.91 57.66 58.75 54.16 48.92 50.28 52.92 52.07 51.12 50.44 50.24 50.46 50.88 50.31 50.06 49.11 49.00 50.52 51.98 55.02 56.45 58.12 58.53 58.43 58.30 58.66 58.53 58.97 59.55 61.15 61.62 61.86
62.71 62.93 62.43 61.93 61.05 60.06 59.98 59.93 61.16 60.33 60.09 58.77 56.33 56.27 55.38 53.81 50.37 47.96 50.95 50.64 50.45 50.12 49.49 49.32 47.81 47.77 49.03 48.77 51.03 53.18 54.00 55.55 57.77 58.17 57.79 57.92 58.12 58.59 59.06 59.40 60.31 60.98 60.86
60.25 59.98 59.85 59.80 59.42 57.56 56.32 55.33 53.59 53.53 55.83 53.12 52.46 51.86 51.54 52.09 55.35 53.15 48.80 48.68 49.14 49.51 50.14 47.91 46.98 46.28 47.85 46.94 47.21 51.18 52.59 54.58 56.47 58.91 58.70 58.56 58.28 58.20 58.06 59.14 59.39 59.43 60.32
57.85 58.70 58.56 57.92 56.23 55.40 55.11 54.96 54.97 54.62 52.88 51.92 51.93 51.82 54.32 51.87 48.70 49.85 50.50 49.33 47.75 48.20 47.52 47.45 46.56 44.67 45.99 47.18 49.02 50.75 51.93 53.02 54.34 55.27 56.37 55.96 55.77 57.07 59.86 58.06 57.26 58.39 58.71
55.53 56.17 56.12 54.60 53.39 53.64 53.99 54.12 53.99 53.61 52.59 51.52 51.24 51.35 51.12 52.28 52.54 51.51 50.44 49.95 49.95 46.82 46.74 46.46 45.16 44.29 45.89 45.07 46.69 47.23 49.90 50.82 51.91 52.82 53.79 54.11 53.59 54.58 56.69 58.40 59.43 59.41 57.77
55.91 55.38 54.60 54.12 53.02 53.09 52.74 52.95 52.16 51.47 51.64 51.31 52.14 52.54 53.05 51.92 50.62 50.44 50.81 49.01 48.16 48.28 46.21 45.37 43.48 44.21 43.60 42.94 46.02 45.72 44.77 48.98 49.90 50.13 50.70 50.46 50.30 51.58 53.31 55.75 56.18 56.88 58.23
55.26 54.01 53.79 51.76 51.36 51.11 50.87 50.59 50.11 50.40 50.03 50.32 49.80 49.34 50.30 50.44 50.95 51.57 52.01 53.22 51.28 48.22 45.98 43.71 41.56 43.07 43.66 43.61 44.00 42.64 42.29 46.40 47.30 47.31 47.72 47.77 47.83 48.62 50.82 52.17 53.31 54.16 55.01
51.66 50.90 49.67 49.81 49.74 49.43 48.82 48.40 48.14 48.85 48.97 49.10 49.39 49.10 49.21 49.45 49.81 49.46 50.60 51.47 51.48 51.17 48.27 43.60 42.14 41.67 42.76 42.73 43.53 40.79 41.57 42.44 45.32 45.22 45.61 45.73 45.97 46.83 48.39 49.66 50.79 51.97 52.76
48.11 47.69 47.50 47.28 46.92 46.42 45.66 45.04 44.88 45.38 45.89 46.92 47.48 47.66 47.87 48.20 47.91 48.43 47.82 47.78 47.28 46.96 45.83 40.96 41.18 40.95 40.51 40.48 40.06 39.61 39.69 37.81 38.75 43.61 44.26 43.47 44.13 45.52 46.45 46.98 48.09 48.86 50.37
46.73 46.02 45.51 45.17 44.77 44.47 43.68 42.82 42.67 42.61 42.99 43.72 45.29 45.88 46.31 47.22 47.21 46.26 45.53 45.03 44.71 43.88 44.40 40.39 39.41 38.56 39.06 39.15 37.95 37.53 38.13 37.75 36.83 40.96 42.08 41.96 42.39 43.29 44.49 44.48 45.20 46.25 46.97
43.72 44.03 44.12 43.48 42.99 42.46 41.65 40.74 40.63 40.77 40.93 41.60 42.38 43.87 46.62 45.84 44.76 44.05 43.80 43.10 41.99 41.41 41.01 40.52 37.34 38.86 38.39 37.68 35.69 35.35 34.38 32.52 33.81 37.00 39.33 40.24 40.88 41.02 41.43 42.15 42.36 43.06 43.56
41.89 41.31 41.76 41.82 41.00 40.28 39.65 39.07 38.79 38.16 38.13 38.88 39.76 40.52 43.52 44.33 43.90 42.65 41.76 41.08 40.63 39.77 39.83 39.49 38.16 37.16 37.27 36.69 35.47 33.27 31.16 29.62 28.98 31.66 33.23 34.57 35.98 36.90 39.62 39.86 39.02 38.53 39.32
39.60 39.04 38.68 38.68 38.60 38.80 39.25 37.71 37.99 37.51 37.27 37.46 38.04 40.12 41.55 42.41 43.55 42.67 40.92 40.11 39.93 39.15 38.00 36.71 36.31 36.96 35.99 34.78 33.76 30.94 29.42 27.58 27.50 27.34 26.94 27.60 27.10 27.88 29.55 32.99 35.47 37.80 38.15
37.19 37.11 36.93 37.24 36.85 39.03 41.78 42.80 41.07 37.38 37.76 37.65 38.40 39.81 41.17 42.33 42.89 43.42 42.28 41.84 40.74 38.46 37.17 36.51 35.85 35.39 34.16 32.37 29.69 27.69 27.01 25.31 24.23 27.12 26.24 25.73 27.22 26.83 27.36 28.61 36.97 37.24 37.54
35.19 35.45 35.43 35.86 35.67 35.88 41.56 42.74 43.06 40.43 37.43 38.57 37.75 38.41 38.41 39.57 39.28 38.97 39.70 38.77 39.73 39.57 38.80 36.15 34.69 33.75 31.29 30.59 26.94 25.82 26.15 24.86 25.11 26.27 25.20 22.92 25.41 25.57 27.21 28.92 35.64 37.33 38.02
34.49 34.17 34.49 35.00 34.83 36.26 41.84 42.20 43.28 38.84 35.59 37.47 36.83 37.16 36.39 34.99 35.04 34.50 32.08 30.42 28.60 28.43 29.14 30.11 30.84 29.64 28.44 28.26 28.38 28.67 26.79 25.67 26.29 26.02 24.91 21.29 24.32 25.26 26.56 28.05 36.57 37.38 37.27
33.35 32.40 34.53 34.51 34.28 36.20 40.93 41.47 37.63 34.61 34.69 34.83 35.74 35.17 34.31 32.82 35.53 36.73 29.68 27.60 27.21 28.49 34.64 35.45 34.86 34.98 35.02 34.23 31.22 27.80 25.74 23.70 23.63 24.08 25.54 24.32 24.60 24.90 26.04 26.91 29.05 35.64 36.34
34.23 35.38 34.05 33.97 37.76 36.20 40.05 41.44 38.14 33.82 33.47 33.01 32.33 32.38 37.04 32.80 35.10 37.03 27.30 25.91 25.04 25.76 26.93 26.86 26.08 28.04 27.90 31.80 34.09 27.39 26.53 22.12 23.42 22.37 25.66 24.56 24.90 24.67 23.13 25.96 26.92 26.64 27.43

GFSMA_sfc_wetblb_075.txt.gz
Wetbulb
64.53 64.98 64.80 64.87 64.40 64.13 63.38 63.32 64.12 64.29 64.61 64.90 65.07 64.67 64.50 64.53 64.71 64.65 64.86 61.17 62.70 64.00 65.77 66.16 66.48 66.82 67.26 66.76 66.16 65.99 66.04 65.93 65.54 64.02 62.63 61.29 60.37 59.72 59.69 59.92 59.77 60.52 60.46
65.16 65.36 65.55 65.02 64.71 63.92 63.97 63.99 64.77 65.08 65.39 65.00 64.67 64.85 65.11 65.66 65.73 65.72 65.97 66.07 63.13 64.19 65.13 66.67 66.63 66.57 66.61 65.74 65.58 65.32 65.32 65.21 65.61 65.88 65.12 63.70 62.21 60.70 59.93 59.58 59.56 59.71 59.48
65.82 65.73 65.64 65.08 64.76 63.92 63.11 64.33 64.46 64.21 64.16 63.99 64.86 65.63 65.83 66.08 65.78 65.58 66.49 66.41 66.50 62.44 63.62 65.59 66.69 66.72 66.31 65.00 65.00 64.40 64.66 64.94 65.02 65.21 65.28 65.25 64.16 62.63 61.39 60.84 59.95 59.99 59.24
65.76 65.14 65.34 64.95 64.62 64.13 63.31 63.33 63.48 63.32 62.98 63.77 64.72 65.49 65.63 65.55 65.95 66.10 65.95 65.89 65.89 65.64 64.63 62.84 64.39 66.28 65.90 64.44 63.61 64.08 64.75 63.14 62.94 63.68 64.09 64.45 64.27 64.40 63.21 61.85 60.95 60.39 59.92
64.96 64.69 64.38 64.64 63.19 62.26 63.10 62.78 62.09 62.97 63.09 63.90 64.05 65.02 64.29 65.20 65.41 64.79 65.00 64.66 64.53 64.65 65.11 62.90 62.33 63.91 64.29 63.85 64.70 64.29 62.78 62.21 62.03 62.05 62.29 62.44 63.43 63.68 64.16 63.61 62.35 61.25 60.73
64.02 63.27 63.41 63.73 62.87 61.61 61.15 61.23 61.47 62.20 63.45 63.67 63.07 63.21 65.07 65.02 64.81 64.11 63.31 62.57 63.31 63.42 63.35 63.05 62.92 62.90 63.55 63.97 62.95 62.27 61.89 61.44 61.13 60.81 60.40 61.00 61.53 61.73 62.38 63.31 63.93 62.80 61.66
64.36 62.07 61.90 62.68 63.42 62.99 62.97 62.62 62.78 62.09 62.94 64.30 63.62 63.21 63.54 63.15 61.47 60.46 60.24 60.93 60.92 60.75 60.66 61.72 62.53 62.21 61.23 60.67 60.49 60.35 59.98 59.84 59.81 60.01 59.68 59.20 59.64 60.09 60.47 61.57 61.99 63.61 63.00
65.22 63.47 62.54 62.43 63.31 63.99 64.51 64.10 65.04 64.32 64.95 65.00 61.67 60.36 58.03 59.60 59.65 58.90 58.45 58.35 57.63 58.43 58.48 58.65 58.42 57.49 56.90 56.31 57.34 56.89 57.43 57.94 58.50 58.79 58.76 59.11 59.18 59.09 59.60 59.97 60.89 61.92 62.82
65.41 65.07 64.16 64.15 63.50 64.44 65.29 65.15 65.00 63.86 62.86 61.53 61.77 61.04 57.30 54.86 56.40 58.58 57.15 56.85 56.53 56.75 56.58 55.72 55.12 54.77 54.67 54.73 54.82 55.19 55.65 56.73 58.26 58.95 58.53 58.23 58.39 58.77 59.50 60.27 60.43 61.29 61.86
62.38 63.78 64.47 64.36 64.53 64.39 63.42 63.23 63.10 62.35 62.18 61.66 60.85 60.08 60.52 59.38 55.70 52.85 56.53 56.33 55.76 54.83 55.12 54.69 53.38 52.74 52.40 52.18 53.35 53.97 54.50 56.07 57.92 58.69 59.09 59.07 58.79 58.71 59.06 59.10 59.48 60.52 60.96
61.00 61.15 61.54 61.69 61.46 61.34 59.97 59.19 56.26 56.53 59.27 58.52 58.58 57.28 57.54 57.22 56.59 54.42 51.67 54.83 54.84 54.62 54.31 53.41 50.98 52.13 51.24 50.97 52.37 52.79 53.46 55.18 56.29 57.44 58.39 58.01 57.50 57.97 59.76 60.84 60.15 59.98 59.87
60.10 59.94 59.94 60.20 59.98 59.13 57.64 57.14 56.33 55.24 54.79 55.76 56.35 56.34 56.13 54.86 54.26 52.51 51.73 52.45 52.79 54.17 52.47 51.62 49.13 48.33 49.44 50.84 50.67 51.23 52.22 53.23 54.12 55.13 56.30 56.02 55.28 56.58 59.12 60.10 57.90 58.20 58.68
57.58 57.26 57.62 57.20 56.84 55.97 55.62 55.07 54.99 55.47 55.11 55.47 55.89 55.70 56.23 55.67 55.51 54.18 54.06 53.06 52.49 53.12 51.24 50.76 49.17 47.40 48.95 48.46 49.34 48.17 50.58 51.54 52.18 52.85 53.71 53.91 53.07 54.20 56.49 58.13 58.58 59.01 59.72
58.33 57.63 56.37 55.92 55.39 54.42 54.04 54.03 53.81 54.39 54.82 54.93 54.31 54.12 54.53 54.55 54.46 54.35 53.50 51.56 50.59 52.09 50.63 50.89 48.09 47.44 47.24 47.36 47.25 46.44 47.70 49.60 50.26 50.80 50.95 50.30 49.49 51.37 53.43 55.23 55.93 56.45 57.52
57.29 57.25 57.18 55.82 53.83 53.39 53.12 53.21 53.11 53.03 53.35 53.62 53.67 53.42 53.03 53.56 54.36 54.85 53.81 54.16 52.61 47.98 49.01 49.56 46.59 45.80 46.70 47.01 45.22 44.60 44.44 46.99 47.84 47.68 47.67 47.38 47.59 48.90 50.88 52.34 53.22 53.91 55.52
55.66 54.31 53.40 52.05 52.17 52.01 51.98 51.33 50.62 51.00 51.29 51.80 52.24 51.86 51.64 52.32 53.12 53.85 53.42 52.66 52.79 51.92 48.61 46.40 45.40 44.58 45.11 44.03 44.97 42.55 43.03 43.81 45.61 45.38 45.74 45.46 45.99 47.13 48.72 49.79 50.97 52.09 52.79
51.56 51.21 50.86 50.24 49.41 48.78 48.49 48.17 48.29 48.34 48.63 49.51 50.35 50.78 51.03 51.53 51.49 51.66 51.34 51.02 50.11 48.83 48.12 42.75 42.12 42.37 42.53 42.52 41.24 40.76 41.28 41.12 42.56 44.06 44.68 43.74 44.90 45.66 46.24 46.93 48.42 49.50 50.09
49.83 49.79 48.73 48.47 47.90 46.57 46.23 46.31 45.65 45.92 45.89 46.08 47.04 48.21 48.91 49.12 49.59 50.21 49.24 48.05 47.43 46.40 46.12 42.14 40.13 39.44 39.98 40.58 39.77 38.86 39.18 39.11 39.44 42.69 42.70 42.34 42.76 43.90 44.39 44.65 45.23 46.37 47.28
46.70 47.02 46.96 45.65 44.66 45.26 44.89 44.85 44.60 44.31 44.52 44.71 45.07 45.73 47.45 48.21 48.09 47.75 47.24 45.98 44.82 43.29 43.70 42.45 38.89 39.83 39.19 38.38 36.68 37.13 36.16 36.14 35.85 38.80 39.89 40.57 41.18 41.39 42.37 42.26 42.73 42.98 44.09
45.08 44.80 44.98 44.35 44.16 43.94 43.18 42.54 42.26 42.34 42.37 42.48 42.72 43.55 44.29 45.89 46.97 46.61 44.48 43.84 42.56 41.96 41.96 41.44 39.57 38.50 38.28 37.59 37.06 35.35 33.19 33.76 34.99 34.50 34.77 35.83 36.73 38.16 40.51 40.15 38.67 38.82 39.71
43.67 43.36 42.71 42.58 42.70 42.46 42.06 42.14 42.06 42.10 41.83 41.72 41.85 42.17 43.44 43.65 44.15 44.74 43.17 42.35 41.76 41.07 40.01 39.16 38.16 38.06 36.80 35.45 35.20 34.70 34.34 33.40 32.94 33.18 32.45 32.76 33.40 33.55 35.52 36.00 36.96 38.10 38.33
41.72 41.53 41.28 41.16 40.88 41.08 42.91 43.48 41.83 41.22 40.83 40.82 40.95 41.48 42.66 43.00 43.47 43.94 43.08 42.64 41.94 40.33 38.72 38.31 37.96 37.11 36.85 35.79 33.20 32.79 32.75 32.84 31.93 32.94 32.07 30.95 32.55 32.27 33.34 35.35 37.29 37.65 37.55
39.88 40.04 40.31 40.43 40.48 40.99 43.04 43.53 43.60 42.03 41.24 40.89 40.64 40.49 40.38 40.97 41.20 40.72 41.28 41.12 40.62 40.31 39.95 38.57 36.80 36.55 34.55 34.29 33.17 31.82 32.46 32.07 31.17 31.16 31.37 29.70 31.47 31.20 32.87 32.89 36.27 37.91 38.43
39.42 39.36 39.28 39.55 39.66 39.50 42.20 43.15 43.21 42.31 40.57 40.22 39.47 39.37 38.65 37.20 37.00 35.43 33.80 32.58 31.18 32.15 33.29 34.72 36.75 35.23 34.95 34.55 35.69 34.71 32.81 30.83 30.37 30.02 30.39 28.89 29.97 30.48 32.13 34.87 37.01 38.20 37.92
38.05 37.21 38.47 38.29 38.08 38.47 41.94 42.28 41.04 38.38 37.90 38.11 38.53 37.92 36.93 35.46 37.71 38.15 33.12 31.53 31.58 32.86 35.68 35.29 34.56 35.26 35.33 34.94 33.47 32.08 30.34 30.06 27.19 28.06 29.47 29.42 28.86 29.34 31.25 33.29 34.61 36.40 36.81
37.19 37.41 35.69 37.15 38.25 37.50 41.43 42.12 39.89 37.45 36.79 36.23 35.50 35.08 38.07 34.97 37.56 38.80 32.88 31.97 30.20 30.95 32.06 31.91 33.03 32.85 34.64 35.35 34.31 31.73 31.47 29.21 28.36 27.30 28.97 29.29 27.83 28.63 28.42 30.72 31.95 31.97 33.88

GFSMA_sfc_wetblb_078.txt.gz
Wetbulb
65.82 65.67 65.33 65.23 64.86 64.96 64.35 63.79 64.19 64.44 65.45 66.66 66.96 66.95 67.02 67.26 67.41 68.14 68.33 62.59 63.21 64.90 66.25 66.95 66.96 67.26 67.25 67.24 66.89 66.49 66.31 66.13 66.01 65.64 63.83 62.34 61.00 60.23 59.94 59.97 59.81 60.29 60.31
66.08 65.26 65.78 65.62 65.96 65.25 64.93 64.82 65.84 66.48 66.71 67.21 67.15 67.34 67.36 67.68 67.78 67.62 67.84 67.70 63.95 64.77 65.92 67.24 67.81 67.32 67.02 65.99 66.19 65.84 65.31 64.68 65.25 65.65 65.65 64.59 63.29 61.85 60.74 60.30 59.76 59.87 59.46
67.15 67.43 67.61 67.31 67.12 66.64 64.54 65.67 66.39 67.22 66.92 67.25 67.02 67.56 67.60 67.59 67.22 66.95 67.28 67.20 67.26 62.93 64.30 66.26 66.99 67.75 66.85 65.82 65.48 65.00 65.04 64.59 63.94 64.51 64.65 64.74 65.24 63.86 62.60 61.39 60.41 60.29 59.48
68.52 67.44 67.23 67.43 67.33 66.82 65.52 65.66 66.41 65.88 65.63 65.93 66.41 66.90 66.64 67.01 66.87 67.00 67.42 67.24 67.04 66.93 65.44 64.96 64.71 65.89 66.68 65.76 64.44 65.18 64.40 62.81 62.42 62.54 62.91 63.59 64.06 64.71 64.31 63.02 61.95 60.98 60.47
68.51 67.24 66.93 67.47 67.32 66.27 66.05 65.33 65.16 65.08 64.81 65.74 66.01 66.38 66.84 65.77 66.51 66.40 66.24 66.50 66.76 66.45 66.60 64.42 62.59 63.81 65.64 64.68 64.99 65.08 63.15 61.94 61.58 61.50 61.54 62.03 62.63 63.15 63.81 64.39 63.26 62.19 61.28
66.81 66.70 66.65 67.07 67.07 65.40 64.98 65.25 64.32 64.77 65.55 65.90 64.25 63.20 65.07 66.10 66.06 65.76 65.16 64.69 64.85 65.06 65.57 65.66 65.38 63.81 63.83 65.08 63.82 62.86 62.05 61.29 60.72 60.71 59.71 60.06 60.66 61.35 61.81 62.74 63.40 63.86 62.57
67.87 67.77 65.96 65.06 66.50 65.52 64.76 64.55 64.62 64.42 64.63 65.43 64.14 63.59 64.43 64.99 64.78 64.23 64.07 63.77 63.69 63.98 64.49 65.39 65.76 64.82 62.76 61.98 61.37 60.95 60.36 59.57 58.99 59.00 59.35 59.78 59.38 59.85 60.31 60.90 62.06 62.66 63.95
67.08 67.02 66.22 64.97 63.64 64.82 65.85 64.94 65.05 64.67 64.76 65.71 63.21 62.84 59.13 61.02 62.69 62.34 62.72 62.23 62.46 63.18 63.21 63.37 63.45 62.51 61.76 61.09 59.27 57.64 58.00 58.08 58.51 58.81 58.83 58.76 59.17 59.20 59.44 60.20 60.76 61.49 62.46
66.17 66.30 65.76 64.67 64.01 64.10 65.64 66.83 66.55 65.78 64.47 65.29 63.91 62.31 58.23 56.17 59.35 61.43 60.41 60.86 60.87 61.49 61.70 61.10 60.18 59.41 59.04 58.96 57.18 55.86 55.93 56.98 58.43 58.49 58.17 58.17 58.56 59.09 59.68 60.19 60.63 61.21 61.94
64.58 64.82 65.20 64.40 64.08 63.88 63.62 65.56 67.13 66.57 65.18 62.60 63.79 63.83 63.74 62.18 56.77 53.78 58.33 59.07 59.51 59.12 59.77 59.49 58.20 57.79 57.50 57.31 54.28 53.95 54.66 56.28 58.28 59.06 59.16 59.08 58.77 58.80 59.53 59.82 60.18 59.85 60.58
62.65 62.11 62.58 62.70 62.92 63.07 61.95 61.39 60.05 60.52 61.67 61.56 61.19 59.05 59.57 60.35 59.50 55.78 52.12 54.89 58.10 58.71 58.69 57.96 57.22 56.43 55.52 53.83 54.91 53.11 53.65 55.27 56.13 56.80 57.27 57.33 56.91 56.85 58.48 61.19 59.55 59.67 60.55
62.11 61.95 61.47 61.92 62.07 60.46 59.28 58.82 58.09 56.97 56.14 56.73 56.72 56.58 56.18 54.84 55.17 55.12 53.50 54.01 54.00 56.14 57.58 57.20 56.60 55.65 54.99 53.09 51.57 51.92 52.08 53.03 53.65 54.65 55.47 55.89 55.28 55.30 57.85 59.95 60.10 59.91 59.21
60.60 60.71 60.80 60.76 59.73 58.97 57.95 57.19 56.47 55.82 55.35 54.94 55.91 55.80 57.36 56.75 56.79 56.02 54.90 53.96 52.90 55.38 55.52 56.51 56.26 54.81 53.55 53.69 51.33 50.61 51.27 51.50 52.23 53.04 54.08 54.00 52.65 52.92 55.49 57.69 58.19 58.03 58.90
61.37 61.08 60.47 60.19 59.04 57.86 56.17 55.59 55.37 54.81 55.14 55.40 55.72 56.04 56.50 56.42 56.64 55.77 53.96 53.07 50.92 51.75 53.59 54.32 54.95 53.63 52.93 51.94 51.07 48.06 50.28 50.27 50.80 51.48 51.20 50.14 49.46 50.41 52.76 54.35 55.30 56.02 56.70
60.76 60.23 60.06 58.79 57.73 57.81 56.69 55.77 54.84 54.57 55.07 56.03 55.99 56.18 55.44 55.50 55.70 55.33 54.91 54.75 52.66 48.99 50.22 53.46 51.93 51.64 51.26 49.81 48.84 48.02 47.26 48.11 48.62 48.18 47.88 47.52 47.56 48.73 50.37 51.99 52.91 53.90 54.38
59.01 59.01 58.27 57.05 56.18 55.88 55.25 54.70 54.30 54.10 53.58 54.25 54.49 54.17 53.98 54.16 54.30 55.00 54.47 54.25 53.78 51.43 49.77 53.07 51.63 47.74 47.58 47.26 46.52 44.56 44.74 45.57 46.29 45.85 46.22 45.44 45.94 47.36 48.52 49.54 50.68 51.23 52.00
55.72 54.95 54.25 54.41 54.32 54.03 53.49 52.68 52.35 51.98 51.87 52.10 52.39 52.67 52.66 53.58 53.18 53.51 53.62 53.14 51.90 51.36 48.87 47.22 45.62 45.03 44.58 43.23 42.61 41.97 42.51 42.54 44.06 44.49 45.22 44.16 45.14 45.69 45.86 46.90 48.27 48.94 49.67
54.59 52.49 51.68 52.02 51.89 51.58 51.36 50.50 49.01 48.96 49.14 48.60 49.32 50.08 50.45 50.76 51.06 51.73 51.74 51.34 50.99 51.45 48.48 46.25 42.29 40.91 41.42 42.61 40.95 40.15 40.05 40.27 41.32 43.07 43.34 42.87 42.88 44.34 44.55 44.76 45.18 46.32 46.96
52.82 53.40 51.46 50.83 50.91 50.16 49.70 49.38 49.58 48.48 48.34 48.87 49.11 48.68 49.66 50.38 49.85 50.64 50.99 50.42 50.10 47.93 46.90 44.83 41.00 40.98 40.26 39.15 37.68 38.27 37.70 36.97 37.04 41.39 41.42 41.69 41.35 41.69 42.59 42.62 42.17 42.57 43.93
51.15 51.13 50.85 50.24 49.28 48.87 48.98 48.42 47.50 47.05 46.76 47.08 47.56 47.75 47.58 48.26 48.53 49.07 48.86 48.88 47.92 45.65 44.53 43.78 41.10 39.72 39.30 38.32 37.86 36.00 33.91 35.54 34.64 36.18 36.52 37.40 37.63 39.08 40.83 39.58 38.74 38.99 40.05
49.25 49.19 49.17 48.06 47.92 47.64 46.59 46.63 46.32 46.68 46.58 46.19 46.00 46.06 46.03 46.23 44.41 46.65 47.19 46.99 44.81 43.39 42.30 41.49 39.82 39.21 37.89 36.25 35.29 35.76 35.45 34.14 34.35 37.13 38.42 37.53 36.97 36.64 38.09 37.27 37.42 38.27 38.63
48.00 47.41 46.68 46.46 45.74 45.31 44.44 44.90 46.22 44.98 45.03 44.75 44.35 45.02 45.38 43.31 44.08 44.47 44.43 43.62 44.04 42.24 40.90 39.89 39.42 38.12 38.03 37.23 35.49 34.17 33.75 33.01 33.78 38.12 36.72 35.71 36.03 35.04 35.99 38.03 37.57 37.75 37.71
46.41 45.48 45.91 45.72 45.26 45.63 44.15 44.62 43.90 45.26 44.57 44.45 44.27 44.11 43.78 43.83 43.78 44.22 43.02 42.53 41.82 41.09 41.25 41.47 38.45 38.11 37.02 36.67 35.68 34.05 35.05 36.56 38.06 34.94 35.43 33.45 34.68 34.20 35.55 35.04 36.66 37.83 38.13
45.32 45.11 45.04 45.04 45.22 44.67 43.89 44.48 44.39 44.89 44.54 44.01 43.83 43.79 43.20 41.34 41.09 39.55 38.24 36.41 34.63 33.65 34.51 36.98 39.03 38.73 37.69 37.25 37.73 38.43 38.90 37.72 34.66 33.36 33.97 31.21 33.23 32.91 34.64 36.86 37.43 38.52 38.11
44.39 44.28 44.65 44.28 43.67 43.80 42.64 43.67 43.86 43.35 42.62 42.20 42.71 42.83 41.26 39.53 40.13 39.27 37.21 35.10 33.72 34.86 36.26 35.43 35.90 36.42 36.98 37.78 38.05 37.25 34.79 33.25 30.59 31.43 32.02 31.53 30.78 31.36 33.22 35.34 37.73 37.13 37.13
43.44 43.09 40.55 43.18 42.53 42.99 42.59 43.40 43.21 41.14 40.14 40.86 41.28 41.38 40.24 38.95 40.15 40.35 37.53 36.00 35.20 35.76 35.06 35.93 36.45 36.59 37.06 36.42 35.26 36.68 36.02 34.34 31.73 29.73 31.59 30.58 29.52 30.95 29.48 33.14 34.86 34.90 36.94

GFSMA_sfc_wetblb_081.txt.gz
Wetbulb
66.24 65.76 65.43 65.46 65.54 65.05 64.55 64.13 63.68 63.07 63.05 64.14 65.23 65.44 66.26 66.56 66.62 66.80 67.26 63.16 64.51 65.68 66.62 67.29 67.80 67.58 67.56 67.66 67.45 67.14 66.53 66.25 65.80 66.03 65.50 63.75 62.26 61.12 60.50 60.18 59.89 60.25 60.11
65.45 65.32 64.68 64.45 64.19 64.50 64.44 63.68 63.23 63.93 64.12 65.63 66.04 66.73 66.70 66.91 66.85 67.03 67.09 66.38 64.80 65.43 66.07 67.20 68.29 68.59 67.77 67.04 66.19 66.54 65.64 64.73 65.04 65.14 65.46 65.65 64.38 63.11 61.75 60.93 60.10 60.10 59.52
65.92 64.97 65.10 64.94 65.49 65.43 64.15 63.99 64.11 65.38 65.55 65.75 65.86 66.56 66.81 66.82 66.86 66.52 66.43 66.93 66.10 63.78 65.52 66.76 67.07 67.44 67.63 66.90 66.54 65.85 65.30 64.17 63.61 63.96 64.48 64.72 65.04 65.01 63.78 62.47 61.44 60.73 59.67
67.31 66.70 66.65 66.89 66.83 66.40 65.33 63.64 64.16 64.55 65.14 65.19 65.37 66.05 66.19 66.53 66.24 65.90 66.37 66.53 67.28 66.10 64.99 66.30 65.95 65.17 66.08 66.77 65.83 65.84 64.63 62.92 62.53 62.49 62.82 62.96 63.65 64.07 64.69 64.26 62.74 61.74 60.99
68.48 67.37 66.06 66.91 67.20 66.57 65.51 64.56 64.67 65.02 64.39 64.55 65.18 65.97 65.19 65.66 65.05 65.38 65.29 65.71 66.04 66.46 66.13 64.63 63.35 63.51 65.88 66.40 65.27 65.79 63.57 62.07 61.55 61.26 60.97 61.45 61.80 62.34 62.75 63.77 64.05 63.24 62.09
68.67 67.43 66.49 66.81 67.27 66.57 65.52 65.40 64.25 64.80 64.44 64.34 63.08 63.34 65.05 64.77 66.04 65.19 64.62 64.16 63.71 64.20 64.80 65.37 64.61 62.86 63.74 65.75 65.21 63.90 62.47 61.23 60.71 60.68 60.61 60.06 60.07 60.56 61.17 61.79 62.66 63.28 63.80
67.46 67.26 67.63 66.42 66.32 65.72 65.45 65.17 64.56 63.74 63.64 65.47 62.80 63.37 63.75 64.46 64.65 64.75 63.99 62.72 62.80 62.91 63.53 64.33 65.04 63.88 62.26 63.02 62.61 61.95 60.90 59.55 58.92 58.93 59.20 59.61 60.29 60.10 59.83 60.64 61.08 61.90 62.93
67.05 66.74 66.80 66.79 65.74 64.44 63.58 65.03 64.18 63.36 63.56 65.11 62.64 62.44 59.37 61.14 62.66 62.55 62.25 61.56 61.40 62.61 62.54 63.15 63.87 63.36 62.39 61.31 59.46 58.93 58.71 58.36 58.82 59.01 58.99 58.79 58.80 59.26 59.60 60.09 60.31 61.12 61.70
66.15 66.28 66.40 66.32 65.69 64.74 63.16 63.15 63.59 64.10 63.35 64.56 64.72 62.15 57.91 56.47 59.10 61.01 61.25 60.50 60.17 60.72 61.70 61.76 61.82 61.23 60.81 59.59 57.10 56.02 56.17 57.07 58.43 58.48 58.41 58.48 58.92 59.26 59.68 60.00 60.06 60.42 60.93
64.58 65.28 65.86 65.86 65.46 64.52 63.35 62.76 63.64 63.86 63.70 61.66 62.92 63.00 63.40 62.05 56.59 54.72 59.03 59.17 59.48 59.13 60.10 60.27 59.80 59.17 58.73 58.44 54.10 54.26 55.15 56.12 58.27 59.03 59.27 58.89 58.42 58.42 58.87 59.53 61.73 61.18 61.08
62.85 63.16 63.16 64.04 64.19 64.18 63.72 63.28 61.13 59.74 60.16 60.67 60.20 59.74 58.02 57.82 57.93 56.85 52.16 55.32 57.94 58.41 58.96 59.29 58.70 58.12 57.44 57.01 55.82 53.94 53.83 55.31 56.23 56.96 57.36 57.49 57.16 57.35 57.92 60.35 60.82 59.82 59.14
61.61 61.47 62.03 62.17 63.03 62.41 61.51 59.88 58.70 58.06 57.40 56.91 56.68 55.77 55.17 53.46 52.71 52.42 51.34 52.23 53.88 56.62 57.73 58.06 57.63 57.36 56.51 55.49 53.32 52.93 52.84 53.58 54.03 55.02 55.77 56.09 55.38 55.48 56.51 59.25 59.61 59.43 60.05
61.72 62.02 62.29 61.54 61.86 60.99 60.02 59.34 58.08 56.81 56.24 55.71 55.43 55.00 55.53 55.52 56.13 55.62 54.72 53.36 52.65 54.82 55.58 56.62 56.90 56.71 54.61 54.04 52.82 51.27 51.89 51.98 52.70 53.56 54.81 54.68 52.55 52.47 54.16 56.33 57.75 57.47 58.03
62.52 62.53 62.32 62.02 61.73 61.01 59.50 58.48 57.36 56.67 56.64 56.00 55.41 55.39 55.60 56.04 56.75 56.29 54.64 53.24 51.22 51.69 53.09 54.34 55.34 54.79 53.60 52.87 51.16 49.54 50.33 50.75 51.73 52.67 52.03 50.75 50.00 50.49 51.76 53.91 54.70 55.30 56.02
61.55 61.47 61.14 60.48 60.31 59.14 57.71 57.10 56.70 55.90 55.65 55.52 55.46 55.53 54.87 55.88 56.31 55.79 55.39 54.56 52.11 48.33 49.00 52.26 51.34 52.15 51.99 49.94 49.80 48.77 48.29 49.12 49.55 49.14 48.28 47.59 47.59 48.59 50.02 50.85 52.29 53.00 53.51
59.51 59.91 59.65 59.16 58.09 57.43 56.88 55.86 55.74 56.10 55.16 55.55 55.39 55.27 54.93 54.67 54.44 54.71 54.52 54.17 53.88 51.80 48.38 52.15 51.23 48.85 49.11 48.37 46.54 46.13 45.77 46.72 47.18 46.59 46.71 45.78 45.92 47.19 48.10 48.87 50.01 50.88 51.46
57.66 57.89 57.31 56.72 55.92 55.64 56.07 56.03 55.19 54.40 53.90 53.77 53.42 53.48 53.25 53.39 52.98 53.38 53.77 53.29 52.08 51.85 48.67 47.59 46.87 46.69 46.90 45.34 43.36 42.89 43.34 43.30 44.26 44.99 45.80 44.57 45.38 45.83 46.01 46.22 47.19 48.13 49.28
55.43 54.73 53.84 54.14 54.45 54.99 54.83 53.65 52.32 51.89 51.60 51.32 51.66 51.73 52.02 51.59 51.57 51.85 51.73 51.01 50.81 50.92 49.14 46.58 44.28 42.08 42.65 43.68 41.75 40.67 40.48 40.76 41.24 42.89 43.95 43.36 43.19 44.62 44.57 44.68 45.30 45.87 46.77
53.14 54.53 52.16 51.19 51.36 51.88 52.33 51.88 51.18 49.93 49.90 49.71 49.74 49.57 49.85 50.50 49.96 50.33 50.48 50.09 50.01 48.43 48.44 46.18 41.81 41.55 40.61 39.76 38.18 38.69 38.32 36.84 38.04 42.86 42.50 42.27 41.84 42.10 42.76 42.55 41.63 42.08 43.34
51.15 51.97 52.61 50.84 50.09 49.93 49.68 49.41 49.31 48.92 48.14 47.90 48.69 48.75 48.76 48.90 49.02 49.26 48.51 48.70 48.40 46.55 46.48 45.08 41.77 40.10 39.77 38.97 38.34 36.39 34.86 36.15 34.68 37.28 37.52 38.14 38.61 39.48 41.18 39.66 39.12 39.33 40.26
49.50 50.38 50.70 50.21 49.66 48.14 47.86 48.72 47.77 47.00 46.72 46.19 46.96 47.07 47.03 46.84 44.81 46.28 47.19 47.40 46.23 45.51 43.96 42.24 40.52 39.78 38.38 36.79 35.93 36.41 35.10 34.24 34.66 35.18 34.28 35.14 34.97 34.79 36.99 37.39 37.39 38.35 38.63
48.84 49.02 48.70 48.61 47.83 47.06 46.80 46.68 47.61 46.95 46.99 46.51 45.78 45.64 46.07 43.59 43.90 45.00 45.67 45.04 46.47 43.74 42.08 41.23 40.40 39.15 38.72 37.47 35.83 34.49 33.03 31.92 31.51 35.34 34.58 35.03 32.83 32.62 33.19 34.35 37.85 37.87 37.85
47.80 47.80 47.71 47.51 46.91 47.13 45.80 45.70 45.69 46.69 45.58 45.25 45.18 45.01 44.82 44.80 44.79 44.56 44.05 43.77 43.25 42.93 42.46 42.18 39.91 39.79 38.13 37.17 35.38 33.40 33.39 34.31 34.87 33.70 33.56 31.70 31.64 30.63 32.28 34.06 37.15 37.98 38.49
46.55 46.70 46.58 46.81 46.65 46.64 45.55 45.42 45.18 44.80 45.17 44.89 44.40 44.42 44.11 43.02 42.58 43.06 41.73 39.28 37.78 36.38 37.11 38.73 40.02 39.32 37.97 37.54 36.61 36.08 35.13 34.85 32.86 31.36 31.61 28.90 29.87 29.51 31.11 33.37 37.45 39.04 38.67
44.61 45.15 45.90 45.72 45.33 45.39 44.54 45.06 44.68 43.26 42.14 42.91 43.44 43.61 43.48 42.40 42.68 42.51 37.87 35.07 34.35 34.90 36.09 35.80 36.59 39.01 38.81 39.72 38.42 36.25 34.56 33.19 29.75 28.80 29.69 29.15 28.05 28.37 30.30 32.79 35.55 37.97 37.69
42.63 43.35 42.75 43.74 45.03 44.00 44.39 44.10 44.05 42.53 40.67 40.89 42.08 41.96 43.03 41.98 41.77 42.18 37.81 36.59 34.03 34.68 33.88 33.92 34.56 35.89 37.15 36.83 39.00 36.30 35.28 31.76 30.57 27.57 29.13 28.32 27.76 28.43 27.51 31.74 32.81 33.39 35.24

GFSMA_sfc_wetblb_084.txt.gz
Wetbulb
62.74 62.18 63.08 62.50 61.99 61.93 60.97 60.95 60.11 59.51 58.68 59.24 59.50 59.43 60.65 61.59 62.05 62.39 61.00 62.94 65.26 67.17 67.05 67.40 67.85 68.31 68.02 67.75 68.00 67.20 66.74 65.93 65.27 65.76 65.82 65.14 63.22 62.10 61.26 60.45 60.10 60.40 60.28
62.57 61.74 61.19 61.25 61.08 60.86 60.38 59.83 58.94 58.61 58.43 59.46 60.83 61.84 62.18 62.76 62.53 63.78 62.99 62.75 64.59 66.09 67.49 67.49 67.95 68.17 68.34 67.88 66.89 67.18 66.31 65.03 64.78 64.69 64.88 65.26 65.11 64.22 63.13 61.77 60.70 60.24 59.70
62.18 61.48 60.53 60.18 60.36 60.74 60.66 59.20 59.22 60.12 61.12 61.57 61.25 62.17 62.94 62.60 64.23 63.36 62.65 62.69 63.62 63.91 66.19 67.87 67.99 66.80 67.01 67.22 67.26 66.87 65.89 64.43 63.45 63.38 63.41 63.82 64.20 64.65 64.97 63.79 62.36 61.23 60.30
63.18 61.75 61.92 61.52 62.37 62.70 61.01 59.34 59.54 59.86 60.73 60.94 61.04 61.88 62.69 64.06 62.74 61.98 62.49 63.63 62.81 63.19 64.06 66.33 67.15 65.69 65.43 67.03 67.48 66.90 65.39 63.44 62.83 62.60 61.80 62.04 62.60 63.03 63.50 64.62 64.27 62.96 61.79
64.97 63.95 63.51 63.99 64.22 62.95 61.55 60.94 60.30 61.20 60.36 60.53 60.85 61.47 62.91 62.65 62.55 62.25 61.03 61.38 61.15 61.89 61.73 64.08 63.47 63.11 64.61 67.37 66.66 66.40 64.31 62.79 61.85 61.10 60.42 60.34 60.69 61.46 61.73 62.51 63.35 63.84 63.33
67.02 65.56 63.93 63.75 64.69 64.16 62.20 62.20 61.26 61.56 60.88 60.48 61.38 60.89 62.33 62.38 60.95 61.27 60.81 60.39 59.02 59.56 60.03 61.05 60.36 61.02 63.54 66.11 66.22 65.40 63.56 62.10 61.13 60.18 59.91 59.78 60.01 59.89 60.22 61.02 61.59 62.16 63.20
65.81 65.11 64.46 64.33 64.09 63.62 63.48 62.83 61.85 60.73 59.83 60.18 61.06 60.79 61.37 61.35 59.91 61.16 59.10 58.07 58.12 58.97 59.65 60.27 60.78 60.30 61.14 64.02 64.68 63.48 62.54 61.03 59.65 59.06 59.14 59.53 59.59 59.83 59.86 59.80 60.25 60.86 61.88
65.13 64.78 64.64 64.06 64.12 62.98 63.28 63.29 62.54 61.32 60.09 60.55 59.44 58.30 57.08 57.82 60.02 58.96 57.17 57.21 56.20 58.45 59.10 59.95 60.31 59.95 58.40 57.64 57.61 61.12 60.22 59.35 59.24 59.26 58.93 58.76 58.99 59.65 59.97 60.28 60.21 60.65 61.19
64.62 64.88 64.63 64.63 64.05 63.08 62.33 62.93 62.89 62.15 60.88 61.77 61.59 58.48 54.52 52.28 54.91 55.98 55.94 55.99 55.77 55.73 57.30 58.24 58.46 58.46 57.79 55.48 56.03 56.14 57.71 57.48 58.71 58.79 58.83 59.42 59.13 59.32 59.46 59.72 60.09 61.29 61.12
63.81 64.39 64.51 64.17 64.05 63.37 62.47 62.13 62.76 61.95 61.63 59.73 61.48 62.30 60.88 59.19 52.73 50.73 55.04 54.43 54.48 54.88 55.73 56.71 56.39 56.14 55.51 53.92 54.41 54.71 55.99 56.51 58.65 59.33 59.87 58.94 58.53 58.30 58.49 59.35 60.91 61.26 60.62
62.17 62.22 62.50 62.61 63.24 63.42 63.22 62.82 61.58 61.65 61.42 60.69 60.50 59.48 57.32 56.58 55.53 54.01 50.43 52.12 55.38 55.90 55.09 55.71 55.14 54.26 54.29 52.94 51.86 52.36 55.08 55.57 56.69 57.65 57.65 57.49 57.15 57.80 57.83 59.15 60.20 60.16 60.58
61.12 61.23 61.35 61.20 60.90 61.67 62.48 62.09 61.70 59.86 57.96 57.58 57.13 56.54 55.54 53.64 52.24 51.43 50.75 51.42 51.23 53.43 54.48 54.52 53.73 53.23 52.63 51.64 52.24 53.02 53.85 54.18 54.73 55.53 56.32 56.63 55.82 55.39 55.99 57.14 58.32 58.56 58.85
59.93 60.50 60.66 60.54 60.63 61.40 60.90 59.87 58.83 58.22 57.36 56.62 56.38 55.74 55.53 54.21 54.67 54.94 53.65 52.16 50.59 51.05 52.19 53.33 53.98 52.88 52.23 50.18 49.44 50.77 52.32 52.48 53.26 54.31 55.50 55.79 53.24 52.46 53.51 55.14 56.19 56.60 56.52
59.94 60.78 60.68 59.74 59.93 60.78 59.87 59.20 58.59 57.62 56.97 56.49 55.83 55.55 55.11 54.56 54.56 54.85 53.52 51.63 49.05 49.31 49.82 49.71 51.81 51.49 50.18 49.37 49.36 50.82 48.93 51.20 52.42 54.06 53.60 51.42 50.27 50.45 51.57 52.67 54.19 55.15 54.62
60.79 60.45 60.39 60.32 60.50 60.32 59.17 58.33 57.67 57.04 56.86 56.09 55.60 55.39 55.14 55.41 55.15 54.89 54.35 53.07 50.35 46.00 46.27 48.46 47.37 48.86 47.58 47.12 48.04 46.16 46.82 51.06 50.82 50.39 49.19 48.23 47.73 48.63 49.95 50.64 51.33 52.06 52.27
58.40 59.06 59.48 59.69 59.71 59.39 58.28 57.39 56.43 56.15 55.45 55.02 55.11 54.44 53.77 53.67 53.78 53.20 53.07 52.42 51.93 49.99 46.76 48.88 46.11 46.28 46.80 46.64 47.11 45.37 45.98 47.80 48.60 47.94 47.43 46.22 46.28 47.61 47.95 48.33 49.27 49.78 50.19
54.49 56.12 57.06 57.55 57.40 56.85 56.47 55.70 55.36 55.17 54.54 54.55 53.71 53.60 52.82 52.53 51.70 51.75 52.06 51.66 50.71 50.48 47.57 45.43 45.24 44.79 44.98 44.46 43.09 43.26 44.10 43.85 44.65 45.82 46.54 45.17 45.59 46.04 46.10 46.07 46.60 47.19 48.04
50.89 53.12 53.15 54.52 55.06 55.26 55.38 55.21 54.10 53.73 53.51 51.77 51.17 50.97 50.64 51.39 50.41 50.57 50.06 49.58 49.02 49.04 48.67 46.36 43.94 41.41 42.69 43.54 42.01 40.89 41.08 41.47 42.02 44.62 45.34 44.30 43.84 45.13 44.75 44.56 44.65 44.70 45.92
48.67 50.37 51.17 51.53 52.59 53.53 53.61 53.26 52.55 51.44 50.00 49.87 49.99 49.74 49.88 49.63 48.77 48.30 48.23 47.75 47.28 47.57 47.71 45.75 41.36 41.41 40.62 39.99 38.35 38.77 38.56 37.56 39.22 44.26 43.76 43.39 42.69 42.77 43.29 42.38 41.29 41.19 42.43
46.78 47.73 49.46 49.79 50.88 50.76 50.56 50.18 49.62 49.12 47.90 47.83 48.10 47.55 47.58 47.68 47.47 47.14 46.55 46.06 46.33 46.31 45.66 44.66 41.73 39.97 39.63 39.09 38.41 36.63 35.32 36.45 35.37 38.97 39.35 39.33 40.11 40.21 41.92 40.13 39.21 39.05 39.92
45.86 46.24 46.92 47.75 48.20 48.61 48.97 48.48 48.05 47.63 47.00 45.86 45.51 46.04 45.86 46.26 45.97 46.81 45.66 44.55 45.25 44.73 43.65 41.68 40.36 39.62 38.35 36.82 36.14 36.63 35.65 34.74 35.05 34.79 34.28 35.13 34.83 34.70 36.17 37.88 37.23 38.63 38.65
44.03 45.10 45.08 45.37 45.08 45.87 47.33 48.19 47.26 46.10 46.24 46.24 44.26 44.42 44.84 43.75 44.12 45.62 46.37 46.44 45.25 43.02 42.15 39.84 39.55 39.05 38.64 37.19 36.58 35.06 33.71 32.12 32.08 35.47 33.42 33.68 33.87 31.14 30.46 31.95 38.03 37.93 37.89
42.89 42.66 43.42 44.02 43.77 44.11 47.03 47.05 46.86 44.84 44.89 44.42 43.85 43.65 43.39 43.37 43.40 41.86 44.84 44.64 44.84 45.86 44.77 42.00 39.68 39.45 38.06 37.26 34.85 33.75 33.24 33.44 34.08 33.79 33.65 31.29 28.17 27.59 29.09 33.41 37.19 37.97 38.60
42.91 43.74 42.82 43.08 42.82 43.58 46.90 46.42 46.05 41.87 41.96 42.11 42.29 42.28 41.39 40.94 41.62 42.50 41.39 39.06 36.64 36.81 38.76 39.81 40.07 39.19 37.78 36.42 36.77 36.16 34.90 33.65 31.18 31.24 32.09 26.85 26.07 26.05 27.80 29.51 37.29 39.06 38.95
40.86 40.27 43.39 43.33 42.33 42.01 45.65 45.74 44.61 39.62 38.64 39.47 41.49 41.87 41.04 41.38 43.11 44.12 39.32 33.95 32.64 33.12 37.06 37.28 37.57 40.42 40.61 40.86 38.70 36.40 33.59 31.85 29.68 28.95 27.60 26.32 25.01 25.66 26.93 29.86 33.01 38.98 38.27
39.94 40.25 40.17 42.04 43.29 42.35 44.51 45.26 44.22 38.31 37.36 38.67 39.95 41.54 44.03 41.98 43.92 43.35 35.63 34.05 33.14 31.82 33.48 33.31 33.18 35.59 37.36 37.86 40.64 35.88 34.13 32.91 30.25 24.28 26.19 24.36 24.72 25.31 21.64 28.83 30.87 30.72 32.59

GFSMA_sfc_wetblb_087.txt.gz
Wetbulb
64.71 64.85 64.09 64.23 62.93 62.25 60.88 60.55 59.90 58.61 57.40 57.33 56.92 56.84 57.00 59.06 59.97 60.02 58.77 62.76 65.28 67.52 67.83 67.81 67.87 68.08 68.38 68.26 68.17 67.59 66.78 66.14 64.90 64.84 65.02 65.65 64.35 62.86 61.59 60.84 60.24 60.45 60.29
64.02 63.79 63.35 62.89 62.28 61.37 60.60 60.50 59.06 58.17 57.31 56.94 57.87 58.56 59.18 60.49 60.80 61.95 62.17 62.11 64.59 66.23 68.28 68.19 68.05 68.29 67.95 68.41 67.93 67.67 66.73 65.58 64.67 64.19 64.11 64.57 65.01 65.02 63.90 62.57 61.41 60.44 59.87
62.28 62.20 61.77 61.55 61.38 60.89 59.22 58.77 58.26 57.12 57.02 57.93 58.35 60.44 61.39 61.29 61.57 62.30 62.14 61.18 62.66 63.69 66.32 68.22 68.20 67.59 66.89 67.51 67.62 67.39 66.28 64.95 63.64 63.02 62.97 62.92 63.51 63.80 63.82 64.50 63.46 62.13 61.08
62.12 60.35 59.60 59.43 59.47 59.00 58.56 57.70 57.52 57.55 58.62 59.51 60.05 60.66 61.25 62.28 62.46 63.32 63.05 63.14 63.44 63.40 64.11 66.62 67.93 67.11 65.85 66.81 67.93 67.36 66.04 63.92 62.95 62.27 61.54 61.78 61.87 62.31 62.28 63.22 64.17 63.74 62.55
61.21 60.18 60.40 59.92 60.54 60.74 59.47 59.42 58.22 58.76 59.29 60.06 60.21 60.86 60.50 60.86 62.45 62.03 59.87 60.41 61.84 61.50 61.23 63.39 64.30 63.50 64.26 66.06 67.89 67.26 65.31 63.26 62.08 61.12 60.61 60.26 60.23 60.23 61.04 61.52 62.23 62.96 63.57
62.95 62.22 62.31 62.43 62.66 61.82 60.78 60.50 59.19 60.15 60.52 60.34 60.61 60.43 60.51 60.98 61.57 61.58 60.12 60.22 59.95 59.17 60.23 60.84 59.97 61.00 64.13 67.06 67.26 66.56 64.76 62.92 61.57 60.38 59.71 59.61 59.75 60.06 60.14 59.97 60.55 61.34 62.10
65.63 64.06 62.88 62.95 63.59 62.44 61.72 61.49 60.87 60.12 59.26 59.51 59.20 59.63 59.92 60.70 61.08 60.59 60.00 57.04 57.68 58.29 59.04 59.33 59.58 60.23 62.29 65.06 66.29 65.39 63.96 62.36 60.53 59.55 59.36 59.25 59.43 59.52 59.47 59.87 60.10 60.34 61.05
65.34 64.51 63.45 63.00 63.02 62.36 62.22 62.41 61.93 60.72 59.67 59.73 58.02 58.13 56.13 57.29 59.04 58.98 57.31 55.99 56.83 57.96 58.45 59.12 59.61 58.82 58.12 58.13 59.51 62.89 62.26 60.88 60.22 59.69 59.01 58.88 59.26 59.30 59.63 59.79 59.99 60.26 60.81
64.12 63.63 63.47 63.41 63.08 62.49 61.81 61.83 61.94 61.53 60.56 61.09 60.63 58.53 55.08 53.67 54.43 55.34 54.96 55.27 55.59 55.85 56.97 57.67 58.96 58.60 57.14 55.79 57.16 57.39 59.07 58.64 59.09 59.68 59.47 59.76 58.99 58.73 59.00 58.92 60.56 61.58 61.43
62.56 63.31 63.23 63.20 63.56 62.80 61.73 61.73 62.21 61.41 60.95 59.65 60.13 61.48 60.50 59.61 54.58 52.60 55.40 55.46 54.54 53.76 55.56 56.20 55.97 55.95 55.19 53.79 53.82 53.94 56.15 57.08 59.26 60.05 60.76 59.62 58.17 58.06 58.39 58.89 59.94 60.69 61.09
61.48 61.62 62.25 62.42 62.25 62.35 61.82 61.53 60.52 60.88 61.50 60.20 59.72 58.92 59.11 57.46 56.04 54.35 51.12 52.58 54.87 55.02 54.23 56.40 56.38 55.14 54.32 52.64 51.24 53.33 55.18 55.83 57.97 59.56 59.29 58.61 57.42 57.25 57.32 58.09 58.97 59.25 59.74
60.44 60.87 61.12 61.00 60.64 61.39 61.98 61.99 60.98 60.09 59.48 59.24 58.83 58.47 56.49 55.33 53.61 52.68 51.24 51.76 52.04 53.44 54.90 55.27 54.75 53.08 51.89 51.01 52.23 53.39 54.40 55.06 56.08 57.11 58.07 57.87 56.41 55.01 55.75 56.62 57.28 57.56 57.83
58.59 59.12 60.15 59.93 60.27 60.33 60.88 61.25 60.62 59.95 58.67 57.26 56.66 56.53 55.67 55.13 54.99 54.63 53.82 52.27 51.27 52.67 52.67 53.14 52.31 51.87 51.84 49.78 50.34 51.08 53.00 53.20 54.01 55.66 56.87 57.72 53.83 52.67 53.24 54.78 55.56 55.57 55.29
58.73 59.01 59.46 59.76 59.52 59.35 59.50 59.98 59.56 59.06 58.51 58.07 57.31 56.28 55.56 54.96 55.78 55.68 54.14 53.00 49.75 49.95 50.19 50.55 50.33 50.40 49.32 48.75 49.49 50.95 49.29 52.00 52.55 54.53 55.62 52.86 50.50 50.16 51.13 52.01 52.94 53.45 53.52
60.23 60.18 59.80 60.03 60.20 60.23 60.34 59.63 58.92 57.86 57.41 57.46 57.22 56.49 56.03 55.32 55.20 55.47 54.61 52.91 51.03 46.76 47.68 48.50 47.74 47.62 47.55 47.62 48.91 46.42 46.15 51.55 52.18 51.82 50.50 48.99 47.97 48.95 49.80 50.15 50.83 51.36 51.56
56.54 57.60 57.97 58.80 59.41 59.63 59.50 58.79 58.16 58.19 57.33 56.97 56.42 55.77 55.27 55.14 55.19 54.64 53.87 52.95 52.08 48.88 45.89 48.49 45.55 45.82 46.21 46.69 47.69 46.23 46.35 48.90 49.94 49.60 48.60 47.01 46.86 48.12 47.89 47.65 48.38 48.77 49.28
50.45 52.98 53.76 54.71 56.72 57.48 57.45 57.14 56.88 56.26 56.17 55.39 55.36 55.34 54.58 53.88 53.05 53.01 52.07 51.36 50.43 49.71 47.34 44.51 44.52 44.02 45.63 44.77 43.73 42.86 45.10 44.87 45.55 47.24 47.55 46.38 46.06 46.88 46.44 46.11 46.44 46.48 47.04
48.20 49.04 51.68 51.51 53.06 55.61 56.16 55.69 55.02 54.96 54.80 54.09 54.05 53.93 53.05 52.00 50.78 50.50 50.15 49.68 49.10 48.70 47.39 45.44 42.93 41.23 42.91 43.92 42.87 41.71 41.78 42.29 42.65 45.08 46.97 45.63 45.15 46.11 45.26 44.81 44.17 44.04 44.92
46.22 47.10 49.19 50.04 50.22 52.65 54.25 54.71 54.84 54.13 54.17 53.93 53.15 53.04 51.43 51.02 48.92 48.29 48.47 48.11 47.70 47.17 46.13 44.59 42.21 41.82 40.99 40.51 39.03 39.35 39.13 38.74 38.98 42.80 46.57 44.70 43.75 43.71 44.20 42.93 41.29 40.81 41.79
44.42 44.92 45.80 47.72 49.12 49.97 51.56 51.80 51.65 50.97 50.69 50.58 51.07 50.67 49.60 49.23 48.34 47.57 47.80 47.23 46.13 44.56 44.32 43.35 42.45 40.54 40.13 39.47 38.92 37.48 36.26 37.06 36.36 40.72 41.53 41.18 41.98 41.38 42.58 41.11 39.47 39.03 39.65
43.52 43.85 44.46 45.18 46.19 47.73 48.85 49.28 49.02 48.40 48.18 47.63 47.94 48.54 48.34 47.91 47.57 47.85 46.33 44.89 44.51 43.24 41.80 41.08 40.89 40.07 38.79 37.24 36.77 37.22 36.44 35.74 35.90 35.88 35.55 36.51 36.61 35.51 38.08 39.42 37.62 38.79 38.72
41.95 42.72 42.80 43.35 43.66 45.06 46.95 48.59 47.92 46.81 47.01 46.55 45.61 46.71 46.05 45.30 46.57 47.90 47.39 47.03 45.82 42.76 40.84 39.26 40.12 39.55 39.04 38.05 37.48 35.77 34.93 33.04 33.10 36.33 33.59 33.45 34.28 32.60 32.95 32.05 37.96 38.28 38.06
41.12 40.96 41.46 42.12 42.07 42.68 46.35 47.59 47.55 44.29 43.96 44.59 44.63 44.50 44.20 44.46 44.68 43.63 46.37 46.44 46.35 46.88 44.66 41.50 39.75 40.01 38.47 39.09 36.87 34.55 33.80 33.58 34.16 34.22 33.61 32.23 30.97 30.22 28.48 33.42 37.94 38.08 38.18
40.24 40.50 41.00 42.42 43.02 42.79 45.77 46.72 46.91 42.56 41.46 41.63 42.01 41.98 41.69 41.66 42.81 41.90 42.17 39.70 38.74 39.59 41.19 41.80 40.89 41.19 40.46 39.64 38.49 35.93 34.78 34.09 31.48 32.16 33.36 30.65 28.74 26.22 27.05 27.66 36.99 38.64 39.20
38.28 39.33 40.37 40.59 41.04 42.22 44.67 45.27 45.36 39.75 38.30 38.83 40.53 40.82 40.64 40.12 43.25 44.55 38.84 35.59 36.54 35.84 39.32 40.58 40.39 41.63 42.17 41.82 38.65 35.26 33.56 31.69 29.71 29.48 29.84 29.45 25.06 25.41 25.97 27.68 30.41 39.28 38.70
36.83 37.47 36.93 38.12 40.41 40.70 43.17 44.11 44.57 40.60 38.61 39.25 38.96 40.25 43.82 40.69 43.76 45.05 39.29 37.36 35.57 32.82 31.99 31.96 32.79 36.46 39.64 40.10 41.71 37.13 34.92 33.01 30.11 29.39 29.14 24.87 24.31 25.08 21.19 27.28 29.47 30.06 30.89

GFSMA_sfc_wetblb_090.txt.gz
Wetbulb
64.14 64.68 64.90 64.81 64.94 63.75 61.56 60.56 59.57 58.29 56.21 55.55 55.21 55.27 54.99 55.17 57.77 58.49 57.28 63.12 65.77 68.39 69.18 68.75 68.47 68.22 68.17 68.26 68.17 67.57 66.78 65.99 64.98 64.51 64.61 65.30 64.80 63.44 62.49 61.46 60.63 60.41 59.87
64.83 64.66 64.36 64.26 64.26 63.63 62.16 60.73 58.96 57.73 56.33 55.98 56.07 55.81 56.16 57.10 58.61 59.74 58.11 59.62 64.32 66.05 68.26 68.39 68.30 68.07 68.36 67.89 68.33 68.03 67.23 66.34 64.63 63.91 63.52 63.76 64.12 64.51 64.80 63.70 62.34 61.04 60.51
65.31 64.70 64.12 63.73 63.64 62.50 60.78 59.52 58.50 58.19 56.81 56.79 55.60 56.46 58.42 59.25 60.34 60.63 60.54 60.51 61.23 63.47 66.16 68.27 68.76 68.08 67.60 67.17 67.82 67.28 67.14 65.65 64.15 62.82 62.38 62.32 62.55 62.89 63.10 64.08 64.32 63.29 62.05
65.10 64.38 63.42 62.80 62.27 60.87 59.53 58.67 57.77 56.19 55.98 55.96 56.09 57.65 59.56 60.75 61.11 61.26 62.08 62.47 62.36 63.08 64.26 66.54 68.08 68.39 66.95 66.43 67.37 67.83 66.56 64.54 63.41 62.27 61.15 60.76 60.80 61.25 61.65 62.13 62.88 63.57 63.69
63.35 63.42 62.24 61.88 60.38 59.97 58.96 57.94 56.60 56.61 56.89 58.17 58.97 59.74 60.13 60.31 60.87 62.18 61.52 61.16 61.30 62.04 60.97 63.23 64.43 64.96 65.16 65.75 67.05 67.78 66.36 64.13 62.90 61.53 60.44 59.97 59.90 59.75 59.90 60.32 61.25 61.80 62.44
63.09 61.45 60.84 60.20 60.07 59.44 58.54 58.44 57.19 58.07 58.60 59.10 60.05 59.79 59.48 60.46 60.62 60.33 60.61 60.35 60.30 60.55 60.45 60.80 61.27 60.21 62.68 65.14 66.89 67.41 66.04 63.97 62.33 61.14 59.79 59.54 59.49 59.56 59.91 59.82 60.00 60.51 61.06
62.49 61.52 61.33 60.71 60.80 60.23 60.11 59.62 58.66 58.04 58.69 59.54 58.44 58.68 58.79 60.09 59.39 59.42 60.09 58.47 58.87 58.32 59.80 59.57 59.13 59.40 61.20 65.36 67.12 67.00 65.42 64.01 61.96 60.12 59.61 59.34 59.10 59.16 59.43 59.98 60.32 60.13 60.10
62.96 62.39 62.48 62.37 62.34 61.87 61.03 60.63 60.18 59.05 59.02 58.79 57.50 57.30 55.49 57.18 59.01 59.38 57.38 56.49 57.12 57.77 58.03 59.07 58.82 58.68 58.97 59.30 61.59 65.02 64.79 63.63 61.55 60.51 59.52 59.01 59.19 59.17 59.50 59.60 59.70 61.22 61.94
63.26 63.45 63.22 62.93 62.37 62.36 61.44 61.28 61.18 60.72 59.07 59.61 59.41 58.03 54.37 54.00 54.89 55.95 54.91 54.43 55.24 55.83 56.90 58.44 58.46 58.10 57.16 56.42 57.87 58.56 60.41 61.36 60.62 60.80 59.99 59.66 59.08 58.74 59.55 59.54 60.34 61.26 61.45
62.01 62.04 62.17 61.92 61.82 61.41 60.77 61.34 61.51 60.76 60.25 58.86 59.78 60.70 59.54 57.87 53.48 52.93 55.73 55.46 55.78 55.71 57.25 56.88 57.49 57.21 56.28 55.22 55.15 55.19 57.41 57.73 58.78 60.66 61.02 60.98 58.83 58.28 58.93 59.17 59.75 60.16 60.22
61.64 61.50 61.30 61.46 61.49 61.72 61.21 60.83 60.45 60.19 60.38 59.31 59.01 58.73 58.36 58.88 57.35 54.69 52.47 53.11 55.53 55.85 55.75 56.64 56.07 54.94 55.42 54.24 53.06 53.72 55.98 56.37 58.16 60.07 60.53 60.46 58.56 57.46 57.79 58.20 58.83 58.85 58.82
60.24 60.54 60.79 60.70 61.17 61.27 61.41 61.39 60.75 60.08 59.81 59.52 58.40 58.40 56.64 56.04 54.63 53.07 51.25 52.04 53.33 55.03 55.80 55.68 55.90 55.12 54.23 52.84 52.67 53.79 55.03 55.91 57.21 58.05 59.33 59.49 58.25 55.68 56.00 56.72 57.27 57.40 57.37
59.09 59.43 60.05 60.06 60.23 60.24 60.31 60.87 61.03 60.23 59.70 59.30 59.49 59.24 57.29 56.18 55.05 56.09 52.31 51.32 51.24 53.03 53.45 55.13 55.17 54.57 52.58 50.96 51.34 51.71 53.79 54.68 55.00 56.54 57.98 58.83 56.16 53.37 53.23 54.37 55.41 55.71 55.98
58.74 59.21 59.69 59.89 59.81 60.22 60.11 60.04 60.27 60.45 59.68 59.12 57.31 57.44 57.36 57.07 56.02 55.75 55.58 53.44 50.55 51.36 51.00 51.08 51.03 51.81 50.95 50.08 50.22 51.51 50.12 53.05 52.81 54.30 56.10 55.48 52.05 50.61 51.01 52.18 53.06 53.38 53.28
58.89 59.60 59.34 58.85 58.72 58.53 58.54 58.62 59.13 58.48 58.22 58.27 58.34 57.48 56.75 55.90 56.08 56.08 55.55 55.38 52.06 48.09 48.91 48.49 48.00 48.11 48.58 48.77 49.62 47.43 47.25 51.66 52.92 53.33 51.61 49.60 48.58 48.90 49.97 50.16 50.61 51.06 51.22
52.60 54.94 56.55 58.00 58.94 59.38 59.52 59.43 59.09 59.05 58.21 58.13 57.97 57.36 57.04 56.34 55.92 55.68 54.94 53.78 52.66 49.61 46.31 48.57 46.48 46.18 46.88 47.29 48.35 46.97 47.61 50.00 51.54 51.07 49.83 48.11 47.35 47.84 48.35 47.84 48.18 48.57 48.92
47.83 48.87 51.92 52.53 53.99 55.62 57.68 57.93 58.11 57.88 57.55 57.67 57.07 56.30 55.87 55.45 55.35 55.14 54.49 53.57 52.43 50.35 47.29 45.22 44.67 44.62 44.31 44.34 44.02 44.68 46.04 45.39 45.01 49.32 49.17 48.33 46.71 47.27 47.21 46.46 46.54 46.82 47.12
45.76 46.37 47.92 50.37 50.33 51.77 55.11 55.99 56.17 55.90 55.71 55.62 55.13 54.85 54.79 53.71 53.53 53.08 52.56 51.19 50.19 49.70 48.28 44.56 43.16 42.20 43.26 43.54 41.98 41.01 42.09 43.01 43.37 45.94 47.61 47.94 46.33 46.47 46.66 45.34 44.62 44.11 44.23
44.27 44.50 44.90 45.63 48.09 49.26 50.58 54.00 54.90 54.92 54.75 54.91 54.68 54.10 54.33 53.13 52.39 51.75 50.97 49.11 47.94 47.02 45.94 44.42 41.98 42.10 41.32 41.19 39.82 40.15 40.03 38.71 39.84 42.50 45.90 47.87 45.87 44.91 45.53 44.49 42.34 41.23 41.09
42.95 43.35 43.87 44.16 45.11 47.09 48.47 49.41 51.62 51.99 51.91 51.91 52.27 52.73 53.06 52.53 52.24 50.19 48.63 47.11 46.89 45.17 44.34 42.96 40.35 40.10 38.75 39.77 39.76 38.51 37.40 37.95 37.88 40.73 43.82 43.20 44.20 42.99 43.30 43.45 40.64 39.17 39.44
41.36 42.04 42.27 42.78 43.40 44.23 46.24 46.63 47.74 49.02 48.99 48.97 48.93 49.51 49.90 49.31 48.35 49.04 48.06 46.82 46.32 45.75 43.60 41.75 40.86 40.03 38.85 37.58 37.70 38.03 37.23 36.71 36.94 37.48 37.29 37.73 37.95 37.09 37.20 42.02 38.80 38.69 39.32
39.75 40.35 40.75 41.03 41.40 43.34 45.89 47.14 47.03 45.19 46.00 47.00 46.81 47.09 47.84 47.06 47.54 49.16 49.03 48.18 47.66 45.45 43.78 42.73 40.79 40.29 39.26 37.35 37.29 35.55 35.60 33.98 34.19 36.11 34.41 34.00 35.57 34.17 33.94 34.91 37.50 39.15 38.81
37.24 38.03 39.48 41.00 40.59 41.59 45.28 46.22 46.38 44.09 43.10 43.08 44.12 44.79 44.74 44.70 45.65 46.14 48.00 47.75 47.45 48.03 47.07 43.44 42.21 38.68 37.27 37.46 35.53 33.85 34.67 34.44 35.02 33.75 33.36 32.68 32.39 31.83 32.20 32.96 38.40 38.52 38.28
35.92 36.49 37.05 38.24 39.01 41.00 43.58 44.66 45.35 43.27 41.65 40.81 40.59 41.48 42.07 42.91 43.07 43.22 43.34 41.70 41.96 43.25 42.77 43.54 41.55 39.68 39.54 38.69 38.83 38.12 37.03 34.87 32.41 33.58 34.41 31.80 29.78 29.79 29.86 28.38 35.62 37.74 39.06
33.58 33.90 36.40 36.27 36.10 37.43 41.78 42.85 43.67 42.04 40.58 40.45 40.09 40.09 40.17 40.39 43.60 45.25 40.20 38.28 38.35 39.08 41.25 43.09 42.98 43.31 43.82 43.24 40.19 36.87 33.64 33.47 30.18 30.27 31.46 30.63 27.82 27.76 26.26 26.75 29.07 37.94 39.20
32.62 34.42 34.42 34.24 35.64 34.23 39.00 41.72 42.67 41.49 40.27 40.66 41.00 40.60 42.89 41.14 43.35 45.60 38.70 37.98 36.69 35.98 34.67 34.38 34.49 38.42 41.57 41.57 42.09 38.68 34.54 33.88 31.06 29.29 30.26 29.85 26.28 25.56 21.64 26.25 28.60 29.30 30.79

GFSMA_sfc_wetblb_093.txt.gz
Wetbulb
65.23 65.79 65.73 65.68 65.53 65.02 64.33 63.14 61.86 58.77 56.62 55.25 54.47 54.25 53.95 52.72 54.15 55.83 57.44 61.35 65.89 69.00 69.80 69.08 68.66 68.39 68.22 68.17 68.24 67.84 66.83 65.90 65.43 64.27 64.08 64.83 65.00 63.94 63.48 62.64 61.75 61.10 60.70
64.94 65.30 65.39 65.16 64.71 64.68 64.00 63.15 61.28 58.91 56.31 54.92 54.60 54.37 54.60 54.77 55.21 57.18 57.46 57.72 63.76 66.22 68.85 69.32 68.78 68.35 68.14 68.22 67.65 68.44 67.58 66.62 64.99 64.04 63.28 63.26 63.40 63.51 64.00 64.54 63.74 62.76 61.71
64.88 64.61 65.09 64.90 64.61 64.43 63.76 61.96 60.15 58.88 56.14 55.48 54.42 55.07 55.14 55.26 56.58 58.46 59.02 58.22 60.00 62.80 65.78 68.54 68.79 68.46 68.15 67.69 67.39 67.64 67.79 66.67 64.70 63.16 62.36 62.03 61.91 62.09 62.43 62.66 63.34 64.20 63.69
64.97 64.69 64.56 64.50 63.97 63.10 62.96 61.10 60.00 58.15 56.71 55.22 54.69 55.16 56.09 57.66 58.30 59.22 59.86 60.09 60.38 61.81 62.95 66.65 68.26 68.87 68.36 67.25 67.04 67.91 67.53 65.79 64.04 62.92 61.58 60.76 60.31 60.48 60.90 61.20 61.76 62.60 63.57
64.87 64.55 64.18 64.14 63.70 62.90 61.27 60.51 58.78 58.43 55.50 55.40 55.63 56.16 56.81 58.41 59.70 61.20 60.24 60.69 61.28 61.40 61.22 63.56 64.62 65.58 66.80 66.62 66.66 67.69 67.09 65.13 63.61 62.23 60.74 59.94 59.91 59.82 60.02 60.20 60.47 61.05 61.63
64.89 64.65 63.89 63.58 62.52 61.59 60.14 58.73 58.27 56.97 56.29 56.58 58.05 58.24 58.47 59.22 59.97 59.72 59.89 60.42 60.40 60.46 60.55 60.34 61.87 61.86 63.23 64.95 65.76 67.25 67.12 65.12 63.29 61.91 60.68 59.66 59.55 59.47 59.67 59.88 60.29 60.51 60.66
63.88 63.66 63.35 62.69 60.95 60.70 59.93 59.01 57.93 55.93 56.85 57.83 57.42 57.35 58.22 58.61 59.27 59.23 59.13 58.20 59.32 60.19 60.45 59.90 60.01 59.34 60.18 64.44 65.93 67.25 67.19 65.33 63.18 61.14 60.17 59.70 59.21 59.30 59.64 60.14 60.15 60.21 61.75
63.08 62.18 61.97 61.53 60.98 59.99 59.68 58.82 58.11 57.40 57.18 58.67 57.03 56.00 54.76 56.59 58.31 58.86 57.91 57.05 57.33 58.52 59.40 59.05 58.73 58.62 58.49 59.21 60.96 65.82 66.08 65.35 63.46 61.33 60.49 59.73 59.47 59.21 59.34 59.67 60.19 61.32 61.55
62.44 61.62 61.15 60.93 60.37 60.71 59.57 59.36 59.10 58.92 57.18 57.60 57.94 57.04 53.95 53.03 55.32 55.98 55.58 55.06 55.82 56.53 57.34 58.19 58.26 58.16 57.42 57.41 59.98 61.31 62.80 63.79 62.83 62.22 61.18 60.21 59.87 58.76 59.32 59.53 59.97 60.47 60.61
61.59 61.91 61.92 61.41 61.23 61.34 60.71 60.47 60.58 59.89 58.94 57.56 58.58 59.72 58.90 56.98 53.75 52.24 55.14 54.63 55.00 55.63 56.52 57.17 57.87 58.15 57.50 57.24 56.52 56.43 58.72 59.69 60.87 61.03 61.53 61.44 60.43 58.44 58.79 58.98 59.26 59.58 59.45
61.15 61.01 60.56 60.36 60.53 60.91 60.16 59.77 59.55 59.37 59.37 58.46 58.21 58.16 58.19 58.24 57.49 54.30 52.44 52.28 54.11 54.47 56.68 57.56 58.74 58.28 57.53 56.39 54.90 55.32 57.60 58.27 59.29 60.01 61.75 61.20 61.13 58.70 57.57 57.73 58.24 58.56 58.01
60.11 59.79 59.80 59.44 59.54 59.72 60.42 59.84 59.56 59.52 59.24 59.28 58.62 58.26 57.38 56.64 56.56 54.77 52.83 51.39 52.00 52.83 54.04 55.56 55.51 56.80 57.01 55.83 54.13 54.30 56.08 57.61 58.00 59.15 60.58 61.27 60.26 58.12 56.03 56.35 57.02 57.18 57.55
58.95 59.41 59.50 59.50 59.66 59.80 60.06 60.53 60.48 60.06 59.57 59.29 59.16 59.11 58.92 57.64 56.13 57.00 53.23 52.18 51.41 52.00 53.59 54.02 54.80 54.50 54.33 53.74 53.32 52.94 54.70 56.50 56.81 58.05 59.01 59.47 59.31 55.89 54.11 54.26 55.18 55.65 55.49
58.50 59.40 59.37 59.46 59.60 59.82 59.89 59.82 59.79 59.94 59.86 59.66 59.52 59.54 59.35 58.77 57.58 57.16 56.39 55.55 51.68 51.77 52.34 51.72 51.51 53.18 52.50 52.07 52.00 52.31 52.51 54.70 54.89 55.70 56.64 57.37 54.41 52.30 51.53 51.97 52.66 52.95 52.86
54.30 57.22 59.04 59.01 59.47 59.35 59.52 59.50 59.49 59.50 59.27 59.31 59.41 59.12 58.17 58.09 57.11 57.14 57.07 56.12 54.76 49.32 49.65 49.83 49.16 49.36 50.00 50.70 51.17 49.42 49.31 52.60 53.36 54.96 54.12 51.73 50.26 49.63 50.26 50.33 50.40 50.57 50.58
49.84 51.74 53.63 54.53 55.86 57.85 58.95 58.70 58.67 58.87 58.31 58.52 58.49 58.07 57.76 57.53 56.38 56.22 55.97 55.64 54.52 52.22 49.44 48.50 46.88 46.85 48.11 48.60 49.55 47.67 47.83 50.60 53.41 53.09 51.63 49.78 48.85 48.55 49.17 48.41 48.16 48.21 48.40
46.01 46.61 48.32 51.15 51.68 52.63 55.07 56.45 57.54 57.72 57.57 57.77 57.64 57.24 57.21 57.69 56.49 56.06 55.70 55.28 54.10 51.29 47.95 45.78 45.20 44.59 45.42 45.78 45.01 45.23 46.69 46.38 48.19 51.03 50.73 49.33 47.93 47.71 48.23 47.40 46.77 46.79 46.59
44.68 44.70 45.18 46.19 48.11 49.97 51.16 53.47 54.75 55.69 55.75 55.70 56.24 55.80 55.60 55.18 55.17 55.50 55.09 54.20 53.67 51.89 49.65 44.89 43.69 42.89 43.73 43.21 42.40 42.80 43.27 43.88 43.87 46.84 48.53 48.75 47.75 47.13 47.70 46.65 45.52 44.29 43.59
42.80 43.34 43.67 43.74 44.47 45.98 47.98 49.22 51.91 53.55 54.27 54.85 55.18 54.94 54.95 54.40 53.78 53.75 53.39 52.95 52.60 49.54 47.97 45.67 42.02 42.61 41.97 42.13 40.82 41.34 40.45 39.07 40.71 43.89 46.70 48.34 48.09 46.80 47.12 46.05 44.59 42.08 40.95
40.84 41.39 41.82 42.15 42.83 43.59 44.99 46.21 47.37 48.63 50.77 51.61 52.38 52.72 53.68 53.71 53.33 52.61 51.58 50.82 49.20 48.17 46.23 44.26 42.34 41.19 41.06 40.34 40.72 39.25 38.32 38.40 37.10 39.40 43.57 44.64 47.04 45.61 45.70 45.73 43.16 39.99 39.29
38.70 39.46 40.16 40.47 41.18 42.18 43.61 44.56 44.54 44.75 45.66 47.33 48.28 49.49 50.20 49.94 49.18 51.21 50.31 49.05 48.51 46.88 45.00 42.04 41.21 40.09 39.14 37.82 38.86 38.76 38.21 34.68 35.06 36.49 37.84 39.16 40.34 39.76 39.53 42.61 40.59 39.62 39.76
36.47 37.32 37.49 38.39 38.79 40.79 43.97 45.40 45.34 42.64 43.17 43.94 45.56 47.10 47.81 46.99 47.57 49.34 49.80 49.19 49.18 47.01 45.58 43.70 41.14 41.73 40.14 38.78 36.26 36.31 36.37 35.08 35.13 36.97 36.33 36.14 37.45 35.94 36.05 37.05 39.70 39.74 39.71
33.83 34.35 35.35 36.41 36.78 37.69 41.77 42.92 43.69 42.87 41.21 41.06 41.30 42.50 44.12 45.42 45.93 46.76 48.85 48.41 48.27 48.60 48.21 46.40 44.70 43.40 40.63 39.25 36.64 33.33 33.98 33.65 34.78 34.63 34.48 33.34 34.24 33.86 34.15 34.07 38.66 39.71 39.06
31.88 32.55 33.10 34.88 35.24 36.81 39.33 40.86 42.15 41.52 42.27 41.61 40.04 39.66 40.01 42.69 43.68 44.00 44.27 43.42 43.97 45.11 46.20 45.53 46.26 44.29 42.80 40.51 39.26 37.51 35.60 33.55 33.09 34.38 34.98 33.05 28.72 29.87 31.09 31.55 37.63 38.58 38.56
29.77 29.83 32.39 32.73 32.49 33.26 37.90 38.73 39.58 39.41 39.39 40.18 41.84 41.53 40.00 39.19 42.51 45.57 41.72 38.77 40.35 40.29 43.24 44.79 44.50 44.31 44.40 43.31 40.06 36.39 32.36 34.94 32.12 31.71 33.32 32.52 28.46 27.51 28.95 29.54 30.75 37.56 39.47
28.91 30.13 29.66 29.77 33.19 31.36 36.01 38.33 37.60 37.90 38.18 38.76 39.89 41.43 42.74 42.54 43.19 44.25 40.34 38.86 38.06 38.50 38.16 37.25 38.41 41.61 43.55 43.28 42.54 38.83 35.28 34.85 31.63 30.47 31.49 30.80 27.38 28.18 27.55 27.05 28.94 29.94 31.58

GFSMA_sfc_wetblb_096.txt.gz
Wetbulb
65.43 65.46 65.08 65.54 65.96 65.68 65.19 63.65 63.92 62.69 59.21 56.84 53.99 53.10 52.52 51.96 51.84 53.26 55.94 60.84 65.52 68.62 69.72 69.25 68.93 68.67 68.46 68.32 68.21 68.13 67.30 66.02 65.57 64.30 63.81 64.22 64.98 64.29 64.34 63.71 62.81 62.05 61.40
65.81 65.70 65.46 65.21 65.73 65.81 65.18 64.31 61.87 60.99 59.35 56.69 54.02 53.40 53.42 53.38 52.46 54.31 55.69 57.58 62.48 65.91 68.33 69.70 69.42 69.02 68.65 68.29 68.29 67.92 68.05 67.01 66.13 64.49 63.33 62.97 62.96 62.95 63.82 64.35 64.35 64.17 63.00
65.44 65.45 65.48 65.24 65.31 65.45 64.47 63.06 61.36 59.58 57.11 56.18 54.35 54.24 53.82 53.70 54.30 55.07 56.88 56.87 58.28 62.28 65.06 67.81 69.77 69.26 68.59 68.16 67.83 67.32 68.11 67.28 65.80 64.04 62.75 62.08 61.50 61.57 61.78 62.09 62.55 63.01 64.13
64.30 64.25 64.72 65.11 65.45 64.62 63.87 62.42 61.27 59.84 58.48 55.43 55.23 54.05 54.36 54.73 54.99 55.63 57.38 58.63 58.06 59.28 61.78 65.36 67.82 69.37 69.04 68.34 67.58 67.39 67.88 67.15 65.26 63.54 62.30 61.11 60.28 60.11 60.22 60.51 61.14 61.79 62.45
63.97 63.88 64.32 64.65 64.53 62.18 62.41 62.42 60.73 59.91 58.19 56.81 55.21 54.77 54.88 55.27 56.15 58.48 58.24 58.67 59.23 59.54 59.45 62.24 64.26 65.59 67.21 68.50 67.35 67.17 67.79 66.66 64.65 63.13 61.80 60.70 60.02 59.94 59.99 60.13 60.33 60.63 60.69
62.63 63.70 64.02 64.31 62.79 61.27 60.70 61.78 61.18 59.07 57.70 57.10 57.18 56.62 55.70 56.51 57.36 58.32 59.19 60.22 60.09 59.87 59.80 60.04 61.56 62.68 64.46 67.15 66.91 66.82 67.84 66.62 64.53 62.81 61.73 60.59 59.94 59.57 59.50 59.71 60.04 60.16 60.89
63.50 63.16 63.33 63.76 60.66 60.19 59.46 60.45 60.22 58.57 56.84 56.93 56.04 55.88 57.12 57.69 58.00 59.00 59.03 59.05 58.94 59.54 60.10 60.14 60.77 61.41 62.18 64.73 65.47 66.10 67.68 66.96 64.73 62.86 61.35 60.84 60.11 59.79 59.71 59.63 59.38 61.32 61.80
63.98 64.04 63.35 63.10 61.67 60.15 59.09 59.43 59.69 58.09 57.28 57.89 55.33 55.49 53.84 55.89 57.69 58.67 57.88 57.83 57.66 58.82 59.48 59.70 59.71 59.66 58.90 59.76 61.63 65.43 67.56 66.87 65.33 63.24 61.61 61.07 60.44 60.10 59.50 59.36 59.56 60.53 61.08
62.88 62.88 63.32 62.87 61.70 61.36 60.42 60.20 59.09 57.73 55.85 57.45 58.06 56.26 52.81 52.30 54.95 55.97 56.67 56.87 56.09 56.82 58.20 58.95 58.62 58.01 58.25 58.72 61.09 63.22 64.28 65.50 65.34 63.99 62.56 61.41 61.01 60.12 59.53 59.09 59.27 60.14 59.67
62.16 61.85 61.82 61.15 61.18 61.07 59.94 59.73 59.46 58.70 57.97 56.02 56.90 58.24 58.22 56.38 53.67 52.33 54.66 54.87 55.01 55.89 56.65 57.19 58.03 57.87 57.56 57.67 59.54 60.02 61.52 63.05 65.12 64.27 63.81 62.58 61.76 60.55 59.45 58.65 58.72 58.86 58.68
62.03 62.06 61.73 61.31 60.84 60.74 60.53 59.83 59.45 58.95 59.27 57.97 57.30 57.18 56.80 56.72 56.33 53.78 52.01 53.40 53.74 55.03 56.19 56.79 58.26 57.87 57.46 57.70 57.46 57.30 59.60 62.19 63.77 63.42 63.10 63.20 63.00 61.53 59.73 58.14 57.56 57.73 57.61
60.38 60.02 59.87 59.64 59.65 59.96 60.27 60.15 59.71 59.12 59.20 58.45 58.19 57.45 56.95 56.12 56.01 55.11 53.04 52.25 51.96 53.63 53.98 56.26 56.95 57.31 56.99 56.07 55.69 55.91 57.91 60.42 61.97 61.94 62.09 62.73 62.59 61.54 58.63 57.05 56.79 56.49 56.70
59.10 59.12 59.58 59.29 59.11 59.08 59.10 59.31 59.57 59.43 59.00 58.71 58.81 58.59 58.07 57.70 57.17 56.61 55.22 54.65 52.55 53.43 53.42 53.38 55.18 55.45 55.94 55.48 54.95 54.18 55.87 58.08 59.55 60.13 61.40 61.46 60.75 59.42 56.80 55.73 54.94 55.17 55.13
54.06 57.98 59.19 59.21 58.98 59.10 59.11 59.13 59.18 59.52 59.45 59.16 58.82 59.05 59.20 59.19 58.31 57.90 57.05 56.05 54.27 52.70 52.82 52.80 51.95 54.50 54.15 53.95 53.42 53.16 53.79 56.10 57.65 58.57 59.23 58.82 58.17 55.50 54.30 54.07 53.38 53.01 52.90
51.32 52.74 54.56 56.30 58.59 59.16 59.08 59.11 59.06 59.06 59.37 59.55 59.20 58.83 58.70 58.97 59.03 58.61 58.24 57.58 55.62 52.40 51.78 51.21 50.49 50.63 51.98 52.26 52.65 51.70 51.66 54.02 55.39 55.77 57.05 54.68 53.05 52.61 52.34 51.96 51.52 51.18 50.83
47.06 47.72 49.11 52.25 53.17 54.26 55.87 57.23 58.36 58.92 58.73 58.84 58.70 58.30 58.36 58.39 57.70 57.59 57.18 56.91 56.54 54.80 50.99 50.16 48.77 47.89 49.57 50.35 51.76 50.47 49.81 51.49 53.75 55.33 53.43 51.78 51.02 50.88 50.94 50.75 49.85 49.27 48.96
44.59 44.76 45.47 46.57 48.10 49.85 51.14 52.87 54.70 55.92 57.04 57.49 57.58 57.34 57.23 57.77 57.26 56.78 56.51 56.32 55.39 54.93 52.31 45.88 46.04 45.58 46.49 47.71 47.13 47.96 49.07 49.40 51.51 53.40 52.37 50.90 49.85 49.52 50.03 49.36 48.50 48.24 47.35
42.93 43.14 43.65 44.00 44.49 45.47 47.22 48.65 49.54 52.15 53.41 54.46 55.35 55.54 55.55 55.54 55.97 56.45 55.88 55.09 54.63 53.98 50.31 45.28 43.81 43.49 44.47 45.59 45.22 45.32 45.52 46.03 46.33 50.80 51.41 50.51 49.19 48.72 49.27 48.53 47.44 46.35 44.83
40.26 41.17 41.40 41.48 42.13 43.08 44.37 45.15 45.87 46.82 48.91 51.26 53.04 53.94 54.55 54.78 54.41 54.79 54.86 54.48 53.89 51.29 51.46 46.58 43.03 43.27 42.71 43.66 41.91 42.35 42.31 41.36 42.88 45.94 49.30 49.24 49.35 48.27 48.26 48.01 46.93 44.68 42.24
37.42 37.98 39.10 39.32 40.23 41.19 42.55 43.88 44.20 43.83 44.17 45.69 48.11 50.28 51.31 52.17 53.04 53.56 53.11 52.85 51.74 50.38 49.37 46.89 42.71 41.75 41.42 41.12 42.16 40.56 39.20 40.07 39.25 39.88 43.92 45.68 48.30 48.19 47.32 47.63 45.86 42.52 39.92
35.13 36.13 36.44 37.04 37.64 38.45 40.51 41.93 42.87 43.08 42.38 42.74 44.04 46.06 48.12 48.33 47.63 49.62 50.96 51.28 49.95 49.17 47.25 44.43 42.24 40.93 39.60 39.00 40.70 39.60 40.25 38.22 38.64 37.35 37.08 39.66 42.02 42.49 42.99 45.88 43.67 41.32 40.22
32.63 33.46 33.61 34.72 35.42 37.74 40.92 40.75 41.02 40.33 41.60 41.84 41.31 42.45 43.78 45.49 46.70 48.56 49.22 49.44 50.26 48.95 46.89 45.70 42.78 43.21 41.40 40.36 39.58 38.55 36.85 35.67 35.65 37.35 35.81 35.86 39.10 37.72 37.93 38.46 42.00 41.23 40.26
30.30 30.63 31.05 32.55 33.13 33.98 39.76 39.98 39.93 38.61 39.26 40.17 40.83 41.57 41.61 42.88 44.01 45.00 46.86 48.37 48.79 49.40 49.68 48.02 45.14 44.43 41.98 40.47 39.26 35.72 35.91 36.17 35.66 34.33 34.85 34.59 35.69 35.89 36.39 36.42 40.92 41.57 40.65
28.87 28.97 29.13 30.57 31.21 32.73 38.22 38.98 39.28 35.96 36.83 38.55 39.25 39.96 40.99 41.07 41.34 42.56 42.99 43.20 44.67 45.57 47.11 46.97 47.54 45.68 44.77 42.11 42.12 39.93 38.35 35.51 32.70 33.53 34.65 34.15 31.50 33.67 33.08 33.23 38.84 40.05 40.28
27.10 26.99 28.72 29.08 28.32 29.58 36.23 37.07 37.12 33.43 34.58 35.34 37.63 39.04 39.53 40.68 42.70 44.04 42.41 40.22 41.14 42.25 44.09 46.41 46.98 46.02 45.71 44.42 41.92 38.22 35.31 36.16 33.21 32.77 33.15 33.92 29.56 29.48 29.75 30.28 31.54 38.71 39.16
27.07 27.28 27.04 26.77 29.47 28.34 33.16 35.74 35.66 32.75 31.34 32.91 34.40 37.02 40.58 40.24 42.75 43.83 42.64 41.33 39.25 39.81 39.71 39.03 40.53 43.31 44.85 44.55 43.58 42.16 38.19 36.87 32.85 31.62 32.23 31.46 28.29 29.01 28.39 29.12 30.58 31.16 33.28

GFSMA_sfc_wetblb_099.txt.gz
Wetbulb
65.97 67.50 68.51 68.64 67.95 67.17 67.18 68.47 67.70 67.55 67.37 66.44 63.34 60.22 60.37 60.18 60.80 60.94 62.10 61.16 64.95 68.11 69.63 69.66 69.24 68.84 68.57 68.48 68.45 68.28 67.66 66.39 65.73 64.85 63.87 64.04 65.09 64.23 64.19 64.34 63.55 62.81 61.95
66.23 66.36 66.25 66.86 68.56 68.16 68.30 67.08 66.45 66.13 64.35 63.73 60.24 59.87 57.93 58.94 59.43 59.45 59.64 60.64 61.82 65.13 68.04 69.53 69.71 69.51 69.32 69.14 68.80 68.64 68.32 67.59 66.48 65.18 63.84 63.12 62.93 62.68 63.44 63.47 63.51 63.67 64.27
65.71 66.74 67.50 66.29 67.03 67.96 67.74 66.26 64.16 63.60 62.45 61.83 60.20 59.30 59.09 59.09 58.90 58.66 59.27 60.63 61.47 61.65 65.00 67.12 68.91 69.42 69.64 69.21 68.77 68.54 68.72 68.20 67.05 65.23 63.65 62.83 61.86 61.52 61.55 61.20 61.30 62.23 62.91
64.46 65.45 66.34 66.45 67.78 66.75 66.85 64.61 63.70 62.16 62.95 60.04 59.86 58.71 59.59 59.18 59.39 59.60 59.80 60.58 61.63 61.83 62.42 64.92 66.90 68.79 69.38 69.10 68.76 68.04 68.07 68.23 66.94 64.88 63.45 62.32 61.23 60.50 60.18 60.19 60.18 60.52 60.96
63.46 64.33 65.29 65.59 66.39 66.45 65.64 65.33 63.89 63.52 60.71 59.67 58.53 59.05 58.78 59.19 59.19 59.61 59.89 60.39 61.53 62.16 62.70 62.11 63.32 64.70 67.14 69.23 68.82 68.19 68.01 68.09 66.54 64.62 63.19 61.96 61.27 60.64 60.27 60.04 59.99 60.09 60.27
63.44 64.12 64.59 64.98 65.70 64.87 64.03 64.28 63.46 62.74 62.55 60.58 59.92 58.86 59.26 59.14 59.19 59.49 60.15 61.12 62.11 62.28 62.71 63.26 63.37 63.21 63.38 67.44 68.99 68.08 67.78 68.02 66.29 64.60 63.05 62.08 61.41 60.97 60.57 60.22 59.94 59.72 61.76
62.95 63.41 64.25 64.38 64.89 63.87 62.90 63.11 63.71 61.52 60.76 59.39 58.16 57.51 58.68 58.98 59.38 60.33 60.90 61.34 62.11 62.74 63.23 63.42 64.06 64.25 64.06 65.48 67.44 67.92 67.41 67.59 66.80 64.83 63.14 62.21 61.47 60.98 61.06 60.43 59.64 61.04 61.64
63.44 62.85 64.04 63.37 63.18 62.67 62.49 62.32 61.53 60.72 59.58 59.02 57.01 56.84 54.20 57.59 59.75 60.26 60.83 61.03 61.40 62.34 62.01 62.23 62.68 63.54 64.38 65.32 65.57 65.76 66.83 67.79 67.50 65.55 63.82 62.42 61.79 61.40 61.28 60.62 60.15 60.44 60.34
63.86 63.35 64.38 63.92 63.09 62.78 61.35 61.08 61.20 59.88 57.27 58.37 58.47 57.08 54.81 53.90 57.30 60.03 60.17 61.27 60.64 60.63 61.46 62.23 62.32 62.92 63.75 64.44 63.62 63.20 63.76 66.56 67.27 66.33 64.43 62.90 62.16 61.84 61.26 60.67 60.31 60.50 59.59
63.44 63.72 64.11 64.06 62.92 62.25 61.04 60.13 59.84 59.47 58.42 56.05 57.51 58.45 60.43 59.09 56.23 55.43 57.96 58.77 60.33 59.43 59.78 60.69 61.30 62.06 62.76 63.36 61.78 61.27 61.65 63.34 67.06 66.31 64.96 63.72 62.59 62.24 61.62 60.89 60.26 60.02 58.84
62.65 63.30 63.05 63.55 61.92 60.73 60.47 59.84 59.15 58.85 58.59 57.47 57.01 58.07 58.04 58.50 58.49 56.41 55.32 56.64 56.87 57.66 59.18 59.98 61.09 61.85 61.88 62.34 62.39 61.96 60.63 63.66 66.74 66.15 65.34 64.63 63.65 63.19 62.09 60.98 59.76 59.18 58.35
61.32 62.05 62.26 61.62 61.45 61.02 60.46 60.07 59.56 58.91 58.55 58.46 58.53 58.30 57.37 56.80 56.47 56.89 55.11 55.87 56.13 58.09 58.07 58.81 59.85 60.62 60.99 60.83 59.43 58.21 58.85 62.52 65.48 65.14 64.95 64.87 64.35 63.83 62.52 60.70 59.08 58.51 57.65
53.56 55.39 59.56 59.25 59.18 59.40 59.64 59.71 59.79 58.57 58.61 57.82 58.02 57.93 58.45 58.53 58.47 57.25 57.02 56.33 54.54 56.42 56.54 55.97 57.61 58.81 59.67 60.15 59.03 55.95 56.89 60.38 63.01 64.11 64.16 63.89 63.12 62.64 61.22 59.23 58.35 57.10 56.66
50.24 51.35 54.43 58.35 59.15 59.29 59.26 58.95 58.77 59.07 59.34 58.87 58.64 58.78 58.92 58.74 58.56 58.21 57.25 55.97 54.32 54.99 54.29 55.64 54.94 56.32 57.74 57.96 57.87 54.59 57.04 57.64 59.45 61.46 61.85 62.19 61.36 60.25 58.50 57.79 56.87 55.96 55.08
48.58 48.62 50.18 52.13 53.41 53.97 55.96 58.25 58.90 58.40 58.68 58.86 58.71 58.78 58.62 59.10 59.31 59.00 58.70 58.01 55.93 52.61 53.57 54.01 54.39 54.68 56.20 57.37 55.87 55.64 55.64 55.21 57.27 57.95 58.60 58.50 56.89 56.35 56.10 55.36 54.75 54.15 53.34
45.60 46.08 46.80 47.82 48.92 50.70 51.83 53.22 54.41 55.66 57.12 58.75 58.82 58.62 58.69 59.12 58.97 59.03 58.58 58.21 57.91 56.24 53.41 54.63 53.82 50.51 51.73 52.54 53.10 52.97 53.29 53.38 55.23 56.11 56.68 54.80 54.01 54.05 54.08 53.46 52.87 52.20 51.54
43.58 43.46 44.16 44.71 45.15 46.09 47.77 49.35 50.19 51.26 52.13 53.73 55.65 57.23 57.56 58.40 57.85 57.80 57.76 57.43 56.43 55.83 53.52 48.97 47.65 47.20 48.05 49.46 50.29 51.26 51.57 52.59 53.13 54.78 55.06 53.32 52.51 52.44 52.41 51.90 51.10 50.50 49.91
40.86 40.94 41.13 42.13 43.26 44.36 45.34 45.31 45.34 46.28 47.18 48.48 51.11 52.74 53.91 55.30 55.59 56.19 55.79 55.48 55.47 55.77 54.37 49.75 45.57 44.95 46.76 48.30 48.33 48.51 48.44 49.74 52.35 53.62 53.38 52.21 51.34 50.82 51.04 50.60 49.78 49.28 48.12
38.59 39.10 39.60 39.40 39.77 41.85 43.42 44.14 44.48 44.35 44.72 45.26 45.81 47.21 49.52 51.34 52.69 54.68 54.99 54.90 54.68 54.03 53.90 48.35 44.70 44.17 43.65 44.95 43.64 43.77 44.77 45.24 45.90 50.28 52.62 51.57 50.59 49.85 50.11 49.63 48.69 47.49 45.74
36.41 36.69 37.49 38.18 38.72 39.60 40.76 40.61 41.61 42.21 42.76 43.46 44.29 45.19 46.12 47.57 48.52 49.70 51.31 53.12 53.25 52.13 51.55 49.62 44.97 43.00 43.39 42.55 44.58 43.36 41.01 41.52 41.80 43.14 46.77 48.66 49.92 49.41 49.07 49.21 48.21 45.95 43.25
35.13 35.39 35.44 36.20 36.77 37.68 39.39 39.85 39.67 40.31 40.28 40.62 42.45 43.29 44.24 44.25 44.44 46.82 47.59 48.81 50.27 51.11 49.28 48.10 42.67 41.80 40.16 40.28 42.38 41.05 41.84 40.25 40.57 40.70 41.59 43.43 46.09 47.66 47.94 48.68 46.60 43.71 42.10
33.71 33.84 33.73 34.06 34.68 35.23 38.13 40.35 39.82 38.49 38.85 38.87 38.50 40.47 42.21 43.02 43.98 44.81 45.90 47.23 48.28 48.19 48.44 48.03 46.31 45.07 44.22 45.34 44.61 42.89 39.31 37.53 37.58 40.30 39.77 40.96 44.56 43.28 44.17 44.91 45.38 43.65 42.44
32.46 32.38 32.45 32.60 32.79 33.53 36.79 38.86 39.06 38.01 36.89 37.22 38.56 38.92 39.03 40.60 42.37 42.62 43.84 44.81 45.99 47.66 48.77 49.23 47.61 46.37 45.32 44.72 43.83 41.98 40.06 42.43 40.88 39.14 40.95 39.82 41.07 41.41 41.98 40.35 43.51 43.49 42.58
31.56 31.24 31.33 31.59 31.54 32.23 35.50 37.19 37.55 37.17 36.70 36.82 37.24 37.64 38.62 39.43 40.25 41.58 42.41 43.04 43.26 44.01 46.02 47.48 48.60 48.89 47.64 44.87 43.71 43.86 42.62 39.97 36.04 37.52 41.26 39.41 38.56 39.46 38.95 38.29 42.19 42.91 42.47
30.03 30.06 30.54 30.14 29.76 30.45 34.05 35.19 35.59 35.10 34.92 35.44 36.46 37.00 36.76 37.74 40.21 41.08 39.51 39.92 41.47 42.42 44.32 45.09 46.27 47.38 46.87 46.14 45.45 41.16 38.05 38.34 33.79 34.62 36.05 36.07 33.16 33.58 33.77 34.33 35.95 41.52 41.42
29.45 30.14 29.39 29.80 29.92 29.59 31.72 33.86 34.68 34.51 33.23 34.22 35.66 35.43 36.40 36.18 37.40 39.93 38.97 39.37 37.65 39.65 41.44 40.94 41.18 44.05 45.68 45.23 44.29 44.27 39.87 38.96 34.77 32.60 35.07 35.07 31.21 31.88 31.76 31.69 33.33 34.90 38.96

GFSMA_sfc_wetblb_102.txt.gz
Wetbulb
67.02 67.97 69.39 70.01 70.52 71.26 69.46 67.29 68.27 68.39 69.01 68.68 67.06 65.32 65.24 65.42 65.24 65.54 66.37 63.51 65.61 67.32 69.21 69.78 69.45 68.86 68.53 68.45 68.40 68.29 67.67 66.81 65.88 65.86 64.44 63.79 65.27 64.44 64.28 64.75 64.09 63.52 63.11
66.75 67.59 67.03 67.94 68.79 70.05 69.58 68.84 68.19 68.26 66.44 68.08 67.24 66.78 64.30 63.67 64.05 64.33 64.85 64.87 63.05 65.21 67.00 68.60 69.15 69.27 69.29 69.09 68.90 68.72 68.65 68.11 66.97 66.40 64.70 63.62 63.84 63.10 63.41 63.26 63.24 63.06 63.43
65.51 66.16 66.87 67.51 68.37 69.61 69.78 69.35 68.92 68.73 68.31 66.14 65.73 66.20 64.75 63.05 62.23 61.98 63.36 63.88 63.91 60.93 63.55 66.60 68.01 69.16 69.10 69.19 69.47 69.29 69.20 68.93 67.80 66.88 65.12 63.61 62.96 62.13 61.92 61.41 61.34 61.68 62.15
64.66 65.12 65.49 66.15 67.58 68.68 69.09 68.79 68.45 67.01 66.68 63.62 63.29 63.53 64.69 63.21 62.10 61.54 61.46 62.61 62.93 63.29 63.13 64.01 66.75 68.26 69.05 68.80 69.22 69.34 69.01 68.92 68.40 67.06 65.19 63.63 62.38 61.93 61.20 60.87 60.64 60.48 60.53
64.78 64.72 65.02 65.64 66.42 66.89 66.81 66.81 66.38 66.71 65.29 65.04 63.12 63.79 61.68 61.44 61.62 61.22 61.32 61.58 62.35 63.09 64.22 63.23 62.98 63.99 66.05 68.40 68.98 69.19 68.88 68.90 68.46 67.04 65.10 63.66 62.36 61.68 61.35 61.17 60.74 60.53 60.25
64.89 65.03 64.89 65.08 65.54 65.20 65.64 65.22 64.61 64.73 65.01 64.46 62.70 61.48 60.57 61.19 60.15 60.62 60.42 60.74 62.22 63.03 63.87 64.63 65.02 63.66 62.26 65.72 67.99 68.86 68.80 68.67 68.41 67.06 65.27 63.71 62.55 62.15 61.79 61.42 61.06 60.17 61.51
64.38 64.59 64.53 64.54 64.72 64.26 64.53 64.85 65.14 62.71 62.75 64.46 62.63 61.51 59.07 61.02 60.03 59.45 59.72 59.45 60.24 62.08 63.12 63.94 64.96 65.66 65.43 63.78 65.46 68.15 68.40 68.56 68.48 67.25 65.52 63.85 62.82 62.30 61.96 61.57 61.18 61.67 61.37
64.67 64.40 64.37 63.99 64.28 64.91 64.49 63.99 64.03 62.00 62.10 63.06 60.51 60.10 57.09 59.01 58.93 60.38 60.49 59.35 60.16 61.43 62.94 63.76 64.61 65.09 65.55 65.36 64.41 65.42 67.45 68.27 67.97 67.66 66.05 64.17 63.06 62.46 62.02 62.08 61.26 61.97 61.18
64.10 64.67 64.24 64.08 63.84 65.31 65.01 64.28 64.14 61.52 59.88 61.05 62.00 58.53 53.85 52.77 57.11 59.01 57.96 59.62 60.29 61.35 62.47 63.51 64.20 64.58 64.87 65.85 65.17 64.23 64.44 66.15 67.36 67.95 67.13 65.07 63.47 62.76 62.52 62.19 61.52 61.76 61.19
62.95 63.65 64.47 64.68 65.34 65.48 64.57 63.97 62.52 61.50 60.75 58.41 59.62 59.72 59.31 59.73 53.81 52.96 59.08 60.94 61.59 60.65 62.32 63.25 63.52 64.24 64.84 65.05 63.05 61.73 61.82 63.07 66.56 68.02 67.78 66.20 64.24 63.34 63.13 62.50 61.87 61.75 60.84
60.14 62.56 63.55 64.12 64.39 63.68 64.02 62.37 60.79 60.56 60.74 59.72 58.14 57.60 57.44 57.36 57.61 55.78 54.35 57.89 58.88 60.94 62.39 62.74 62.95 63.64 62.93 63.08 63.50 62.16 60.69 62.94 65.38 66.87 67.68 66.95 65.32 64.29 63.70 63.08 61.82 61.41 60.49
55.05 55.07 57.27 62.86 62.59 62.64 62.36 61.64 60.82 60.74 59.08 58.31 57.92 57.13 56.79 55.30 54.73 55.29 54.62 55.63 56.35 58.74 59.39 60.34 60.39 61.41 62.57 62.38 61.00 59.27 59.82 62.25 64.99 66.57 67.42 67.03 65.68 64.63 64.26 63.66 62.17 60.77 59.98
50.58 50.59 53.67 54.38 59.98 61.41 61.20 60.61 59.60 59.11 58.66 58.15 58.03 57.75 57.82 57.43 57.33 56.75 55.65 54.56 54.34 57.60 59.04 59.61 59.77 60.79 60.42 62.28 62.49 57.53 57.87 60.62 63.53 66.34 66.58 66.88 65.57 64.50 64.04 63.60 62.23 60.65 59.61
48.55 49.37 50.65 51.33 52.80 53.72 56.28 59.25 59.45 59.03 58.77 58.34 57.52 57.12 56.75 57.25 57.65 57.26 56.13 55.19 53.62 54.96 57.24 57.60 58.23 58.46 58.49 59.55 59.32 56.00 59.46 57.88 60.76 64.37 65.94 65.32 63.31 62.10 62.25 62.09 60.50 59.58 58.60
46.81 47.05 48.06 48.26 48.90 50.48 51.93 53.62 55.03 55.32 58.03 57.81 57.75 58.03 57.71 57.80 58.38 58.22 57.88 57.26 55.19 51.66 51.87 56.08 55.80 56.28 57.13 57.98 57.77 58.43 58.00 57.32 59.08 60.92 61.78 60.43 58.79 59.09 59.50 59.36 59.07 57.83 56.93
45.08 46.20 45.88 46.44 46.91 47.81 48.65 49.88 50.99 51.16 52.83 53.93 55.43 57.39 57.93 57.97 58.13 58.44 58.25 57.99 57.54 55.52 52.68 56.10 56.53 53.16 54.38 54.66 56.41 57.25 58.34 54.67 56.86 58.99 58.11 56.81 56.78 57.06 57.28 57.10 56.69 56.05 54.85
42.42 41.59 42.09 43.93 45.47 45.89 46.78 47.01 47.25 47.17 47.51 48.51 50.08 51.45 53.15 55.79 57.46 58.04 58.36 58.24 57.34 56.92 54.24 55.15 51.10 50.45 49.73 51.26 51.28 53.71 53.85 55.02 55.81 56.46 56.93 56.05 55.46 54.95 54.81 54.75 54.37 53.70 52.99
40.11 40.98 41.37 41.26 40.99 42.53 44.07 44.66 45.23 46.16 45.82 45.73 46.24 47.32 48.41 50.37 51.41 53.87 55.22 55.15 55.32 55.28 54.38 52.80 50.56 47.12 47.61 49.29 50.59 50.48 49.93 51.23 53.14 54.35 55.63 54.72 54.09 53.65 53.39 53.09 52.51 51.90 51.30
39.59 39.54 39.79 39.31 39.69 40.43 41.62 41.58 41.84 42.03 42.58 43.83 44.92 45.63 46.42 47.88 48.80 49.57 49.83 51.04 54.13 54.41 54.97 53.90 51.51 47.59 47.25 46.16 44.98 45.40 46.34 46.83 48.30 51.84 54.49 53.48 53.02 52.61 52.47 52.15 51.17 50.36 49.53
38.55 38.45 38.76 38.73 38.78 39.36 40.39 41.11 41.09 40.94 41.23 41.53 42.36 43.65 44.60 45.89 45.93 46.37 47.37 48.65 49.01 49.59 52.45 52.38 50.43 45.53 45.36 44.65 46.20 44.83 42.30 43.74 44.95 46.33 51.18 51.59 51.70 51.27 51.36 50.86 49.93 48.68 47.32
37.93 37.98 37.57 37.60 38.05 37.82 37.56 39.43 40.18 40.03 39.70 39.51 40.45 40.87 42.25 42.72 43.09 44.83 45.51 46.61 46.55 46.16 47.07 49.25 46.80 44.23 42.87 41.64 43.39 44.81 45.43 44.09 42.66 43.08 44.53 46.90 48.70 48.57 48.97 50.07 48.49 46.89 45.46
37.04 36.93 36.54 36.24 36.27 36.27 36.75 38.17 39.08 38.39 38.86 38.08 37.79 39.19 40.63 40.95 41.63 42.02 43.56 44.38 45.25 44.80 43.65 44.58 47.18 46.07 46.21 45.14 47.40 44.10 42.88 39.74 38.47 41.88 43.22 42.66 46.23 46.24 47.06 48.40 48.56 47.00 44.89
36.20 35.73 35.66 35.50 34.94 35.50 35.50 36.46 37.43 37.52 37.72 37.70 37.70 37.92 38.03 39.14 41.15 40.98 41.34 42.49 43.85 45.45 46.00 45.31 43.67 44.98 47.52 48.11 48.49 43.86 43.31 43.58 44.28 41.10 43.76 40.69 42.73 43.02 45.68 46.42 47.65 46.04 44.81
34.81 34.49 34.45 34.56 34.16 34.18 34.66 35.27 35.69 36.03 36.38 36.76 37.14 37.51 37.63 37.72 38.60 39.26 39.92 39.95 40.42 41.84 43.29 45.25 46.11 45.99 46.91 49.23 48.51 47.22 45.59 44.81 39.65 40.22 44.03 38.78 40.31 40.54 43.32 43.01 46.09 45.81 44.53
33.87 33.82 33.95 33.65 33.18 33.31 34.21 34.26 34.45 34.73 34.95 35.34 36.22 37.02 37.35 36.83 37.54 37.66 36.97 37.86 38.51 39.75 42.22 43.09 44.37 44.95 45.87 46.94 48.15 46.26 40.23 38.32 36.28 34.78 39.44 36.58 36.05 36.00 39.11 40.03 42.38 44.47 44.33
32.76 33.24 32.63 33.17 33.23 32.45 33.55 33.69 34.07 34.09 33.53 34.24 35.62 36.33 36.93 36.39 36.38 37.10 36.42 35.86 34.71 36.95 38.84 39.88 40.89 41.83 44.59 45.62 46.83 45.91 43.71 40.53 40.34 32.93 36.51 34.49 33.53 33.88 33.09 34.36 35.61 38.63 41.34

GFSMA_sfc_wetblb_105.txt.gz
Wetbulb
68.10 68.78 67.75 68.86 70.44 70.20 70.17 68.30 68.38 68.18 68.66 68.19 67.23 64.86 65.60 65.53 65.19 65.71 66.24 64.24 66.45 67.76 68.27 69.82 69.83 69.25 68.53 68.24 68.03 67.73 67.45 67.09 66.48 65.80 65.45 64.09 64.70 64.73 64.56 64.79 64.53 63.99 63.88
66.42 66.81 66.97 67.62 68.15 69.45 69.81 68.34 67.61 67.27 66.90 67.50 67.65 66.48 64.53 64.57 64.96 64.75 65.00 65.11 65.10 66.47 67.66 68.15 69.84 69.37 69.36 69.02 68.75 68.51 69.08 68.52 67.84 66.80 66.21 64.40 64.59 64.74 63.72 63.80 64.02 63.66 63.24
66.48 66.21 66.64 66.76 67.02 67.59 67.94 69.04 67.80 67.22 67.94 67.02 66.81 67.46 64.89 64.58 62.20 63.35 63.84 64.35 64.36 63.59 65.82 67.20 67.71 69.03 69.56 69.35 69.38 68.94 69.04 69.11 68.90 67.86 66.99 65.19 63.87 63.38 63.35 62.73 62.27 61.68 62.26
66.35 65.39 65.14 65.67 66.84 67.40 67.61 67.64 68.12 67.65 67.51 67.92 66.45 66.75 66.24 64.81 62.32 61.47 61.39 62.16 63.28 63.48 62.36 64.59 66.56 67.97 69.02 69.20 69.03 69.30 69.20 68.91 68.73 68.89 67.51 65.89 64.15 63.09 62.56 62.17 61.65 61.23 60.99
65.90 64.75 64.34 64.97 65.46 66.35 66.30 66.88 67.34 66.87 66.37 66.45 66.32 66.65 65.43 64.27 63.86 61.60 60.05 60.95 61.26 62.10 62.64 63.11 62.84 64.17 66.26 68.39 68.58 68.96 69.29 69.12 68.74 68.90 68.21 66.31 64.39 63.04 62.46 61.89 61.53 61.10 60.91
64.72 64.54 64.33 64.56 64.90 65.15 65.17 65.45 65.14 66.36 65.94 65.71 64.19 64.29 64.73 64.79 63.82 61.71 59.50 59.54 60.02 61.36 61.81 62.89 63.73 62.54 62.64 65.71 67.16 67.88 68.71 68.97 68.78 68.32 68.17 66.59 64.78 63.24 62.57 62.23 61.79 61.41 60.95
64.44 64.66 64.48 64.18 64.65 63.96 63.97 64.48 63.52 63.94 63.90 64.90 62.61 62.18 62.68 62.95 62.09 59.72 59.37 59.74 59.38 60.88 61.30 61.89 62.76 63.99 64.41 63.91 65.12 66.79 67.79 68.38 68.83 68.17 67.84 66.80 65.15 63.60 62.95 62.64 62.04 61.34 61.79
64.60 64.30 64.32 64.12 64.47 63.86 63.37 63.61 63.73 62.18 63.55 64.10 61.30 60.11 56.82 59.03 61.07 61.70 61.19 59.67 58.72 59.34 59.69 60.70 62.16 62.88 63.43 64.70 64.16 64.50 66.74 67.59 68.35 68.61 68.02 67.10 65.68 64.09 63.43 62.93 62.53 61.85 62.13
63.54 63.25 63.78 63.49 64.00 64.17 63.25 63.84 64.08 62.88 60.83 62.36 63.18 59.73 55.73 54.20 57.65 60.75 60.36 60.06 59.55 59.19 59.11 59.78 60.94 61.85 62.82 64.13 64.03 63.38 62.99 65.36 67.77 68.25 68.39 67.77 66.31 64.71 63.86 63.24 63.04 62.37 62.22
59.89 59.64 60.08 61.58 63.02 63.88 63.55 63.72 64.03 63.48 62.74 60.42 61.96 62.12 61.70 58.63 54.28 53.78 60.07 60.04 60.20 59.22 59.12 60.15 60.97 61.45 62.99 63.72 62.71 61.66 61.34 62.63 66.62 67.77 67.79 68.26 67.30 65.76 64.73 63.72 63.47 62.61 62.49
56.52 54.96 54.65 56.53 59.68 62.58 63.21 63.14 63.09 62.86 62.92 61.44 60.23 59.52 59.79 59.72 57.92 55.32 52.50 56.72 59.69 59.04 59.36 60.14 60.82 62.41 63.02 63.86 64.05 62.09 60.39 62.47 65.95 67.00 67.48 67.60 67.73 66.95 65.69 64.54 63.82 62.94 62.51
52.68 51.91 52.36 53.81 54.27 56.73 61.97 62.75 62.93 62.08 61.53 60.85 60.59 59.30 57.66 56.80 55.70 54.69 53.92 54.61 55.37 57.47 59.24 59.74 60.86 62.04 62.27 62.10 60.97 59.23 60.04 62.01 64.65 66.09 66.90 67.28 67.36 67.09 66.07 65.24 64.41 63.54 62.69
48.90 48.81 49.69 50.47 51.17 51.57 53.43 55.78 61.31 61.37 61.18 60.41 59.84 58.94 58.39 57.68 57.84 56.70 54.94 53.65 53.43 55.16 56.45 58.39 60.16 60.68 60.55 61.64 61.59 57.64 58.05 60.38 63.05 65.17 66.51 67.12 66.56 66.08 65.80 65.25 64.86 63.89 62.62
47.13 47.89 47.86 48.56 49.20 49.53 50.33 51.96 52.66 54.64 58.60 58.34 57.95 57.97 57.53 57.52 57.62 56.96 55.50 54.35 52.04 53.09 54.17 55.13 58.54 59.42 60.13 60.00 59.98 56.69 59.59 58.51 60.33 62.98 64.57 65.49 63.93 63.53 63.79 64.22 64.46 63.88 62.23
45.07 46.37 47.04 47.09 47.59 48.08 48.50 48.90 49.61 48.93 51.43 52.47 54.92 56.21 57.08 57.06 57.29 57.25 56.74 55.89 53.44 49.77 51.68 54.22 54.98 58.18 59.01 59.22 58.69 59.17 59.09 57.72 58.91 59.82 60.66 61.13 60.53 60.18 61.53 62.17 62.27 61.65 60.45
42.80 43.47 42.95 43.84 45.23 46.39 47.33 47.65 47.36 47.62 47.65 48.80 49.34 49.86 51.91 52.93 56.85 57.66 57.31 56.73 55.89 53.45 50.89 54.98 55.73 56.82 56.38 56.26 56.95 57.28 57.96 54.95 56.37 58.11 58.36 58.26 59.13 58.70 59.54 60.10 59.56 59.25 58.17
40.30 40.38 40.91 41.22 41.40 42.02 42.80 42.70 43.77 44.83 45.44 46.40 47.31 47.65 48.54 49.94 50.89 52.12 53.91 56.64 56.13 55.84 53.18 54.99 55.06 53.30 52.42 53.59 52.55 53.63 54.92 56.24 56.96 56.01 57.47 57.93 58.45 58.12 57.93 57.70 57.44 57.17 56.62
40.48 39.81 39.68 39.81 39.80 40.45 41.52 41.11 40.86 41.52 41.41 41.80 42.98 44.76 46.16 47.81 48.91 49.73 49.74 49.84 51.29 53.51 54.96 53.06 53.97 49.31 49.96 50.19 50.86 50.92 51.20 52.20 54.05 54.80 55.92 56.99 57.52 56.74 56.53 55.86 55.24 54.87 54.30
39.29 39.50 39.03 38.49 38.62 38.81 39.14 40.13 40.55 40.55 40.77 41.02 41.24 41.93 42.98 44.39 45.14 45.84 46.68 47.60 48.69 49.48 49.59 51.57 51.35 49.40 48.20 46.72 46.19 46.90 47.62 48.87 49.74 51.41 55.30 55.45 55.24 54.98 54.56 54.12 53.60 53.04 52.24
38.41 38.02 37.97 37.96 37.85 37.91 37.82 37.67 38.73 39.17 39.44 39.85 40.00 40.71 40.74 41.68 40.47 42.17 43.89 45.34 46.51 46.49 47.42 47.95 48.53 47.28 45.87 45.27 45.98 44.71 43.95 44.55 46.67 48.57 52.58 53.42 53.90 53.35 53.41 53.17 52.19 50.58 49.81
37.74 37.54 37.15 37.10 37.06 37.07 36.73 36.12 36.81 37.51 37.67 38.25 38.89 39.08 39.94 40.70 41.12 42.38 40.85 42.14 42.52 43.41 44.08 44.46 45.16 45.18 43.64 42.34 43.21 45.22 45.35 44.30 45.00 44.67 49.07 50.12 50.84 50.91 51.62 51.69 49.64 48.63 48.69
36.94 36.83 36.36 36.07 35.68 35.82 37.83 37.09 36.58 35.48 36.32 36.69 36.85 37.64 38.51 39.57 40.12 40.59 42.09 42.65 41.94 40.95 41.71 41.83 42.48 42.62 45.68 44.52 45.73 44.11 43.86 39.64 39.08 43.11 44.26 46.65 49.41 47.80 48.85 49.58 49.39 48.53 47.91
35.79 35.54 35.40 35.29 34.71 35.05 36.50 36.18 36.37 34.71 34.77 35.61 36.24 36.51 36.78 37.58 39.32 37.92 39.16 40.00 41.44 42.66 42.45 42.01 41.43 42.08 43.05 45.21 47.05 44.16 43.09 41.25 44.32 43.01 45.17 44.79 44.55 45.87 47.60 48.27 49.07 48.13 47.20
34.42 34.31 34.40 34.66 34.48 34.63 35.89 35.67 35.58 34.26 34.53 35.24 35.91 35.93 35.71 36.12 37.52 36.99 36.29 35.65 36.66 38.87 40.14 40.98 40.83 41.47 42.69 43.21 43.88 44.97 45.59 44.94 42.68 40.33 45.16 42.29 41.20 42.43 45.18 46.47 48.72 47.95 46.85
33.72 33.76 33.94 33.70 33.27 33.56 35.47 35.24 34.45 33.33 33.62 33.89 35.22 35.76 35.85 35.64 37.36 37.35 35.24 34.44 34.89 35.80 39.46 41.67 42.45 42.71 43.16 43.91 44.96 43.51 41.54 41.19 38.14 35.66 41.48 36.79 37.11 37.05 39.91 40.56 46.38 47.51 46.55
32.57 32.94 32.48 33.11 33.82 32.74 34.53 34.63 33.89 32.88 31.87 32.71 33.99 35.07 37.39 36.31 37.04 36.63 34.66 33.57 32.33 33.68 35.20 35.80 36.31 37.87 40.14 41.14 43.74 43.22 42.08 39.88 40.60 33.80 36.81 38.59 34.15 34.02 33.57 34.96 39.20 44.70 44.14

GFSMA_sfc_wetblb_108.txt.gz
Wetbulb
65.52 67.11 67.04 67.07 67.28 67.90 67.06 66.15 66.36 66.78 66.11 65.91 65.42 63.33 62.02 63.19 61.63 61.81 62.54 64.48 67.08 68.67 69.13 69.66 70.32 69.49 68.59 68.19 67.99 67.68 67.43 67.18 66.77 66.24 65.92 65.43 64.34 65.15 64.69 64.65 64.76 64.34 64.01
64.33 64.92 65.02 64.75 65.14 66.79 67.67 66.37 65.75 66.32 66.53 66.74 65.82 66.19 62.40 61.39 61.26 61.06 60.85 63.35 65.53 67.09 68.54 68.45 69.45 70.14 69.82 69.04 68.61 68.31 68.75 67.96 67.80 67.44 66.73 66.36 64.54 65.21 65.02 64.07 64.38 64.64 63.79
63.35 63.01 63.59 63.14 63.36 64.28 64.43 64.97 65.10 64.75 65.50 65.89 65.28 65.39 65.65 62.34 60.28 60.37 60.21 62.32 63.73 64.23 66.59 68.32 68.31 69.04 69.86 69.67 69.39 69.16 69.58 69.37 69.19 68.74 67.75 67.07 65.42 64.63 63.99 63.93 62.93 62.39 61.87
63.75 62.57 61.78 62.02 63.15 63.12 63.11 62.99 63.44 63.64 63.78 63.76 63.48 63.93 64.80 64.79 62.29 59.96 59.99 59.19 61.40 63.34 64.15 66.50 67.71 68.64 69.00 69.49 69.87 69.42 69.48 68.96 68.62 68.67 68.96 67.99 66.33 64.66 63.83 63.17 62.53 61.90 61.70
64.81 62.32 61.29 61.02 61.40 61.57 61.94 62.59 62.93 63.28 63.12 62.74 63.46 63.65 63.43 63.38 63.07 63.03 61.07 59.69 59.14 60.24 60.61 62.55 64.54 65.52 66.97 68.78 68.96 69.47 69.15 68.83 68.81 68.58 68.59 68.52 67.07 65.23 63.86 63.14 62.41 61.85 61.62
62.30 61.11 60.64 60.61 60.85 60.41 60.75 61.68 61.92 62.28 62.59 62.54 63.58 63.77 63.55 63.49 62.94 62.49 60.67 60.57 58.57 57.29 59.53 59.12 61.12 61.23 63.47 66.48 68.17 68.60 68.88 69.84 68.51 68.27 68.64 68.40 67.63 65.83 64.12 63.28 62.68 62.20 61.81
62.01 60.92 60.51 60.52 60.51 59.90 59.86 60.27 60.23 60.54 60.91 62.24 60.55 62.23 62.49 62.71 63.23 63.48 63.15 60.32 59.15 58.32 58.49 59.54 60.26 61.28 61.27 64.08 66.12 67.58 68.33 68.69 68.88 69.12 68.57 68.10 67.69 66.32 64.79 63.65 63.09 62.64 61.95
62.82 61.68 60.51 60.42 60.66 60.08 60.04 59.85 59.62 59.65 59.98 61.13 60.22 59.68 56.48 59.13 62.02 62.51 62.21 60.59 59.12 58.06 57.44 58.70 59.29 60.27 60.45 61.08 61.78 65.14 67.26 67.88 68.70 69.12 68.69 68.51 67.97 66.79 65.51 64.26 63.62 63.02 62.34
59.00 58.65 58.00 58.27 59.34 60.61 60.14 60.61 60.44 59.78 58.81 60.09 60.28 58.77 55.10 53.86 55.59 59.77 60.41 60.48 60.51 59.30 58.43 57.66 58.15 59.59 61.12 61.15 62.37 62.51 63.31 65.73 68.30 68.75 68.70 68.72 67.99 67.35 66.32 64.98 64.17 63.53 62.90
55.02 53.75 53.50 54.99 55.42 56.96 58.47 60.63 61.28 60.58 59.97 58.05 59.40 60.67 60.85 57.93 54.09 53.50 58.55 59.53 60.24 59.97 58.79 57.86 57.73 58.31 59.51 59.83 60.56 61.06 61.23 62.57 66.20 67.65 68.16 68.40 68.68 68.04 67.26 65.87 64.83 64.05 63.29
53.23 51.83 52.27 52.92 53.35 53.61 53.45 53.76 57.95 60.05 59.94 58.97 58.78 59.11 59.65 60.04 59.69 56.68 53.81 55.79 59.03 58.95 58.78 57.74 58.18 58.60 59.46 60.48 61.45 61.38 60.63 62.60 65.25 66.90 67.75 68.03 67.71 67.62 67.76 66.72 65.58 64.47 63.61
49.43 48.97 49.62 50.11 50.97 50.96 51.25 52.28 53.01 56.96 59.78 60.18 59.77 59.70 58.93 57.46 56.85 57.51 55.31 55.17 55.46 57.09 58.08 58.23 57.63 59.41 60.75 61.29 60.74 59.59 59.89 61.88 64.19 65.91 66.79 67.09 66.50 66.56 67.33 67.50 66.25 65.19 64.59
46.69 47.04 47.87 47.58 48.63 49.18 49.94 50.56 50.37 50.25 51.20 53.35 59.16 59.43 59.81 59.05 59.22 58.31 56.94 55.64 53.98 55.74 56.16 57.93 58.50 59.23 59.99 60.40 60.34 57.42 57.87 60.48 63.10 64.85 66.07 66.63 66.09 65.84 65.73 66.77 67.29 65.65 64.82
45.60 46.51 47.18 47.70 48.06 48.45 48.62 49.16 48.68 48.27 48.98 49.09 49.80 51.54 55.12 58.69 59.14 58.20 56.10 54.92 52.54 53.38 54.16 54.09 57.83 58.85 59.06 59.28 59.39 56.80 59.63 58.63 60.75 63.50 64.82 64.94 64.20 63.47 63.56 64.64 65.67 65.78 64.98
42.42 43.35 43.31 43.35 45.58 46.77 47.09 46.75 45.91 45.19 46.26 47.04 47.47 48.53 50.22 50.56 52.15 56.75 56.96 56.10 53.66 49.79 51.13 53.42 53.68 57.78 58.73 59.08 58.98 59.49 58.84 57.49 59.22 60.24 61.06 60.93 59.77 59.81 60.83 61.81 62.97 63.54 63.62
39.31 39.48 40.27 40.72 40.98 41.14 41.55 43.45 44.53 43.67 43.00 44.13 45.56 46.37 47.33 48.46 49.77 51.37 50.86 53.38 55.46 53.38 50.47 53.98 54.58 55.56 57.50 57.41 57.73 58.38 58.16 55.17 56.66 58.54 58.65 57.79 57.46 57.77 58.70 59.65 60.77 61.82 61.73
38.44 38.07 38.59 38.66 38.66 39.00 40.19 40.47 40.67 41.43 41.64 42.21 42.99 43.28 45.58 47.12 48.08 48.68 48.85 49.50 49.76 50.22 50.56 52.97 54.13 54.94 54.50 56.06 54.54 56.49 56.49 56.93 57.33 56.17 57.50 57.50 57.05 56.94 57.26 57.99 59.22 60.38 60.43
37.12 37.15 37.15 36.57 36.74 37.54 37.79 37.61 38.02 39.26 39.15 39.10 39.61 40.39 41.61 43.59 43.98 44.13 45.71 47.21 47.89 48.97 48.11 47.62 51.57 50.52 52.15 51.69 52.30 51.96 51.51 52.38 53.86 54.59 55.78 56.08 56.15 56.21 56.47 57.02 57.97 58.54 57.26
34.90 35.12 35.22 34.48 34.61 34.89 35.88 35.89 36.48 36.95 37.45 38.01 38.29 37.86 38.88 40.32 39.23 39.15 42.06 42.62 44.80 46.33 47.10 46.65 47.12 49.23 48.53 47.30 47.06 47.13 47.57 48.27 49.50 50.71 53.27 54.48 55.33 55.58 55.77 56.67 56.94 56.14 55.19
33.11 32.94 33.33 33.78 34.33 34.15 34.87 35.05 35.01 34.69 35.29 36.07 37.50 37.24 37.43 38.52 37.60 37.90 39.42 39.46 40.99 41.21 42.94 43.86 44.32 46.20 45.97 45.45 45.94 45.21 45.32 45.22 46.25 47.98 50.62 52.47 54.36 54.74 55.79 56.44 55.48 53.12 52.43
32.78 32.48 32.50 32.49 32.40 32.92 34.43 33.07 33.31 32.95 32.58 33.61 34.51 36.68 36.73 38.45 40.29 40.38 38.02 38.66 39.00 38.17 38.78 39.87 40.61 41.95 43.03 43.70 43.69 44.87 44.43 45.24 44.62 45.67 47.28 49.54 51.31 51.62 52.90 53.22 51.26 50.46 50.99
31.35 31.35 31.18 31.35 30.76 34.05 37.46 37.85 35.96 32.25 31.94 31.73 31.68 33.50 35.20 37.78 37.66 39.33 39.52 39.78 38.61 36.63 36.15 36.55 37.60 38.55 40.28 42.46 44.57 44.46 43.44 41.16 39.85 42.41 44.42 46.35 49.56 49.36 50.80 51.90 51.32 50.55 50.28
30.04 29.94 30.11 30.62 30.21 30.36 36.96 37.43 37.03 32.56 31.47 30.92 31.61 32.39 33.35 35.16 36.28 35.03 36.79 37.54 37.07 38.42 39.29 37.57 35.71 36.56 38.40 40.46 40.55 39.65 41.07 40.91 42.46 44.12 43.96 43.10 44.56 46.03 48.85 50.36 50.33 49.70 49.53
28.81 28.97 29.33 29.96 29.64 31.64 36.02 36.39 36.49 31.51 30.48 30.70 31.49 31.84 31.83 32.00 33.01 34.81 33.28 32.10 32.79 33.91 35.25 36.88 36.50 36.95 37.62 38.69 39.72 40.74 41.07 41.48 42.83 41.48 43.94 39.45 41.07 42.17 44.54 46.37 49.55 49.19 48.81
28.15 28.28 29.68 29.04 28.39 29.19 35.10 35.72 34.40 29.33 29.75 29.62 31.21 31.40 31.56 31.43 35.74 37.70 33.12 31.32 31.56 32.29 36.67 38.95 39.39 38.72 39.16 39.82 39.78 38.82 37.02 36.95 37.41 38.15 39.95 40.18 37.50 38.42 40.05 41.28 45.72 48.91 48.37
28.52 29.25 28.69 28.50 30.97 29.06 33.43 35.17 33.80 29.22 27.50 29.03 30.17 31.51 34.61 34.18 36.83 37.30 32.54 30.69 29.14 29.67 31.37 32.13 31.96 32.40 34.50 34.91 39.26 37.19 36.22 35.80 35.56 36.83 37.17 37.73 35.36 35.42 34.89 36.33 39.60 46.43 46.75

GFSMA_sfc_wetblb_111.txt.gz
Wetbulb
64.59 65.33 65.81 66.68 67.51 67.83 66.76 65.71 66.68 66.03 65.64 65.18 65.08 64.44 63.69 64.08 63.33 63.48 61.16 64.42 67.45 69.58 70.38 70.32 69.66 69.50 68.70 68.34 68.10 67.70 67.41 67.15 66.91 66.50 66.07 66.07 65.41 64.79 65.01 64.47 64.44 64.40 64.18
63.84 64.32 64.13 64.58 65.36 66.51 67.73 65.99 65.24 65.68 65.36 65.64 64.85 64.61 63.46 62.81 63.30 62.56 61.36 62.71 65.42 67.65 69.36 70.27 70.43 70.50 69.97 69.31 68.55 68.16 68.65 67.75 67.63 67.40 67.04 66.61 66.19 64.74 65.31 64.85 64.34 64.81 65.09
62.94 63.61 63.18 62.53 62.55 62.88 63.25 63.44 64.29 64.45 64.25 64.97 64.93 66.11 65.54 65.05 61.97 62.97 61.90 61.76 63.86 64.41 66.96 69.67 70.06 70.52 70.99 70.51 69.78 68.81 69.26 68.98 68.78 68.62 68.14 67.60 67.02 65.52 65.33 64.72 63.95 63.83 63.28
62.48 61.97 61.62 61.81 62.35 62.08 61.81 61.62 62.07 62.09 62.47 62.98 62.22 62.93 63.49 64.29 64.20 63.37 61.65 61.35 62.43 63.96 64.46 66.93 68.24 69.25 70.04 70.51 70.37 70.09 70.09 69.45 69.00 68.78 68.50 68.21 68.01 66.52 65.08 64.24 64.11 63.07 62.44
64.63 62.68 61.07 60.83 60.64 60.38 60.52 61.07 61.24 61.91 61.20 60.83 61.08 62.43 62.67 62.92 63.62 64.40 62.07 60.54 60.57 62.23 62.40 63.52 64.97 65.81 67.21 69.44 70.15 70.01 70.48 69.90 68.86 68.83 68.71 68.65 68.37 67.36 65.90 64.51 63.64 63.04 62.52
62.80 62.64 61.54 60.00 59.71 58.95 58.92 59.49 60.04 60.69 60.78 60.77 62.07 62.42 62.73 63.24 62.87 62.78 62.32 61.38 59.01 59.36 59.35 60.46 61.52 63.09 64.39 67.46 69.00 69.99 70.47 70.49 69.69 69.01 68.82 68.71 68.66 68.17 66.81 65.17 63.93 63.31 62.86
61.87 60.72 60.07 59.81 59.66 58.63 58.38 58.81 58.66 59.29 59.21 59.57 58.79 60.24 61.28 62.33 62.26 63.07 62.79 62.00 61.74 60.73 58.71 59.12 59.73 60.66 61.57 64.99 66.67 68.27 69.42 70.36 70.53 69.64 68.90 68.91 68.78 68.24 67.52 66.00 64.40 63.65 63.33
59.53 59.27 58.50 58.07 58.31 58.75 58.86 58.66 58.17 57.37 57.87 58.95 58.31 57.05 56.19 56.94 60.32 61.96 62.94 62.76 61.74 61.04 59.38 58.29 58.60 59.98 60.28 60.27 62.05 65.13 67.41 68.85 70.23 70.29 69.27 68.73 68.82 68.63 67.96 66.83 65.14 64.13 63.68
54.89 54.86 55.26 55.60 54.83 55.30 55.86 56.72 58.69 57.98 57.65 58.83 59.25 58.13 52.97 52.05 53.86 58.89 61.00 61.89 61.84 61.23 60.50 59.76 58.66 58.65 59.07 60.21 61.13 61.82 63.32 65.62 68.34 69.79 69.56 69.40 68.66 68.91 68.16 67.37 66.03 64.83 64.13
52.39 52.54 52.96 53.30 53.78 53.69 52.78 53.27 54.54 54.02 55.92 56.36 58.81 59.12 59.07 57.61 53.94 53.27 57.30 59.77 60.89 60.51 60.26 59.76 58.81 57.97 58.46 59.09 59.54 60.01 60.72 62.47 66.48 68.26 68.58 68.81 69.07 68.36 68.39 67.83 66.88 65.60 64.87
49.71 50.04 50.53 50.67 51.00 51.40 51.11 51.19 50.59 51.31 51.65 52.83 56.68 57.75 57.92 58.05 57.82 55.85 53.71 56.07 59.00 60.25 60.21 60.29 59.90 59.30 58.72 59.35 60.20 60.38 60.40 62.85 65.79 67.30 68.11 68.35 68.27 68.27 68.14 67.73 67.41 66.46 65.94
47.93 48.01 48.40 49.15 49.28 49.07 48.90 49.41 49.22 48.63 49.46 49.56 49.75 51.06 56.16 55.93 55.30 56.17 55.38 55.90 56.01 57.88 59.49 59.88 59.87 58.61 58.28 58.02 58.03 58.23 59.33 62.13 65.28 67.13 67.77 67.81 67.75 67.79 67.75 67.57 67.76 66.93 66.32
43.81 44.71 47.27 47.83 48.19 48.59 48.30 48.33 48.25 48.23 48.07 47.42 47.31 47.61 49.90 50.09 53.82 57.37 56.62 55.52 55.15 56.11 56.76 58.23 57.81 58.04 57.93 58.50 58.77 56.86 58.03 61.00 63.67 65.78 66.72 67.25 66.76 66.05 66.55 66.51 66.95 66.63 66.34
43.36 43.97 42.90 43.95 44.98 46.75 47.37 46.52 45.24 45.04 46.08 46.13 45.47 45.51 47.00 47.96 49.37 51.02 50.41 54.73 54.27 55.14 55.58 55.59 56.93 58.47 59.11 59.69 59.50 56.41 59.35 58.47 60.59 63.29 64.79 65.20 63.89 63.20 63.97 64.71 65.15 65.47 65.29
40.60 40.69 41.20 40.83 41.23 41.80 42.33 43.62 44.32 42.48 43.79 44.36 44.53 44.52 45.32 45.48 46.90 49.29 48.43 49.31 48.81 49.88 51.43 53.59 53.99 57.27 58.45 58.52 58.26 59.07 58.99 57.12 58.80 60.06 60.82 60.44 59.53 59.52 61.01 62.12 62.59 62.94 63.16
39.14 39.02 39.02 39.14 39.40 39.40 39.77 41.20 40.54 42.02 40.91 43.11 43.56 42.46 43.14 44.56 45.53 46.52 45.44 47.16 48.59 47.31 48.21 53.17 53.86 54.57 57.09 57.69 57.97 58.63 58.42 55.19 56.99 58.72 58.68 57.86 57.70 58.18 58.71 59.53 60.25 60.70 61.16
35.30 35.44 35.70 35.50 35.13 35.74 36.21 36.11 36.70 38.23 38.30 38.53 39.02 39.80 40.40 41.92 43.10 41.57 43.62 45.76 46.24 47.22 45.49 47.97 50.92 52.14 54.35 55.97 56.01 57.33 57.67 57.74 58.08 56.45 57.96 57.66 57.01 56.75 56.97 57.49 58.06 58.88 59.58
33.99 34.06 33.64 33.16 33.23 33.63 33.81 33.47 33.11 34.09 34.84 35.51 36.88 37.88 37.89 39.74 40.19 39.44 41.43 41.34 42.77 44.86 45.07 43.79 47.04 48.64 49.58 49.70 50.11 53.10 54.33 53.88 56.15 55.34 56.50 56.53 56.33 56.13 56.14 56.27 56.28 56.66 57.14
31.96 31.89 32.08 31.95 32.38 33.01 32.80 32.73 33.47 32.72 32.82 33.19 34.01 34.85 36.20 37.08 36.69 36.73 39.37 38.91 41.00 41.21 42.53 42.43 43.56 46.64 48.00 46.80 46.98 47.44 47.56 48.45 49.55 50.70 52.92 53.81 54.56 54.90 55.01 55.19 55.29 55.47 55.39
31.00 30.83 31.11 31.43 31.73 31.64 31.94 32.74 32.53 32.18 31.48 32.42 33.13 33.14 34.47 35.31 35.06 35.29 37.34 36.60 38.84 37.59 38.26 38.76 39.85 41.90 44.42 45.47 45.32 44.99 45.39 46.13 46.53 48.14 49.85 50.98 52.09 52.83 53.97 54.70 54.47 53.39 53.16
30.60 30.35 30.28 30.48 30.48 31.24 33.36 32.69 31.92 31.12 30.35 30.60 31.23 32.27 33.88 36.11 38.82 38.37 35.55 35.20 35.65 34.68 35.79 36.38 36.00 37.36 39.08 40.15 42.02 44.25 44.02 45.13 45.40 45.54 45.93 47.80 49.59 51.58 52.75 53.63 52.61 51.78 52.77
29.02 29.16 29.00 29.24 29.15 32.59 36.45 37.39 36.16 31.23 30.43 30.31 29.55 30.62 31.84 34.75 35.13 37.91 38.71 38.73 37.18 33.78 32.52 33.98 34.65 34.71 35.13 37.88 39.77 38.25 39.29 39.80 39.65 43.86 44.00 45.05 48.83 48.85 50.60 51.76 51.61 51.80 52.17
27.64 27.71 28.07 28.69 28.64 28.53 35.81 36.56 36.81 31.87 30.31 29.23 29.84 30.08 30.73 32.77 33.65 32.25 35.57 36.82 35.80 36.95 36.88 34.36 32.57 33.51 35.13 36.16 37.00 35.17 35.26 37.11 38.33 42.00 42.88 41.84 44.16 45.36 48.23 49.52 51.21 50.60 51.01
27.04 27.20 27.51 28.18 27.96 29.88 35.34 36.03 36.31 30.51 28.54 28.77 29.43 29.22 29.01 30.09 31.46 34.10 32.03 31.15 31.50 32.19 32.92 34.24 33.03 33.47 34.60 35.21 35.70 36.21 36.45 36.95 37.49 38.85 42.67 39.23 41.23 41.66 43.54 46.17 49.69 50.16 49.95
26.33 26.49 27.82 27.46 26.66 27.30 34.06 34.78 33.74 27.80 28.13 27.77 29.57 29.80 30.51 30.10 34.08 36.20 32.95 31.42 30.19 31.12 35.27 36.83 37.16 37.68 37.74 37.55 36.39 33.48 30.71 32.49 31.68 34.26 38.56 39.57 37.39 38.55 39.42 41.63 45.52 49.27 49.37
26.73 27.15 26.95 26.27 28.80 25.09 31.71 34.03 33.31 28.16 26.80 27.16 28.18 29.43 33.01 32.07 34.68 35.21 31.76 30.75 29.46 29.27 30.56 31.03 31.23 31.34 32.85 32.38 36.09 33.34 30.84 31.91 31.44 31.81 33.12 34.94 36.36 36.18 35.81 37.34 39.29 45.32 48.01

GFSMA_sfc_wetblb_117.txt.gz
Wetbulb
63.82 64.35 64.84 64.89 65.15 65.14 65.63 65.80 66.16 66.21 65.83 65.42 65.68 65.19 64.62 64.62 64.48 64.77 64.02 63.17 65.10 66.80 67.78 69.34 71.04 70.02 69.65 68.87 68.38 68.38 68.42 67.30 67.13 66.81 66.40 66.05 65.64 65.52 65.34 64.88 64.42 64.37 64.29
63.37 63.26 63.40 63.50 64.51 65.42 65.76 66.39 65.09 65.00 65.10 65.10 65.35 65.55 65.70 65.09 64.44 64.42 64.30 63.48 63.83 65.39 67.20 68.11 69.75 70.67 69.90 69.90 69.09 68.87 68.96 68.35 67.45 67.39 67.08 66.85 66.46 66.28 66.22 65.45 65.17 64.77 64.79
62.25 63.02 62.60 62.26 62.91 63.73 64.03 64.39 63.51 63.25 63.72 64.23 64.69 64.92 64.83 64.78 64.04 64.13 64.51 64.02 62.73 62.66 64.78 67.17 69.21 70.04 70.51 69.92 69.92 69.60 68.66 68.89 68.63 68.37 68.22 67.56 67.65 67.38 66.74 66.24 65.48 65.27 65.03
61.50 61.83 62.16 61.69 62.36 61.77 61.70 61.40 61.04 60.67 61.71 61.44 62.13 62.32 63.34 63.56 63.97 63.03 62.91 63.42 63.62 63.13 63.55 65.40 67.31 68.94 69.47 70.33 69.88 69.98 69.90 69.22 68.89 68.69 68.54 68.36 67.97 67.79 67.62 67.04 65.96 65.59 65.17
60.69 61.81 61.91 62.29 61.12 61.58 59.92 59.73 59.73 59.78 58.84 59.27 59.74 59.98 60.12 60.64 61.47 63.41 62.87 62.80 62.23 62.22 62.27 63.19 64.19 65.46 67.06 68.81 70.18 70.67 70.75 69.85 69.11 68.97 68.83 68.59 68.44 68.40 68.35 67.73 67.10 66.01 65.33
59.56 60.07 61.30 61.77 60.94 60.49 59.91 59.14 58.00 58.64 58.76 59.06 59.47 59.60 59.06 59.43 59.85 60.58 61.46 62.56 62.62 61.84 60.80 61.04 62.36 62.93 63.96 66.97 68.46 69.92 70.29 70.24 69.71 69.27 69.30 69.01 68.88 68.73 68.71 68.24 67.85 66.49 65.83
56.43 56.88 58.13 58.99 59.61 59.16 59.40 59.24 58.20 56.88 56.84 58.53 56.60 55.80 56.62 58.24 59.00 60.08 60.76 61.02 61.36 61.85 61.71 61.21 60.75 61.43 61.96 64.39 66.26 67.97 69.21 69.92 70.05 69.73 69.46 69.43 69.19 68.96 69.08 69.02 68.52 67.82 66.36
53.48 54.09 55.12 55.56 55.91 56.75 55.43 55.31 54.23 56.35 57.91 58.38 55.50 54.93 50.73 51.92 55.06 57.92 59.21 60.25 60.61 61.51 61.36 60.36 59.55 59.93 60.90 61.11 61.66 64.99 67.49 69.27 69.85 69.49 69.10 69.43 69.47 69.32 69.22 69.10 68.93 68.17 67.58
51.13 52.06 52.31 52.77 53.90 53.73 52.98 52.07 52.46 51.88 51.97 54.66 54.76 55.01 51.80 47.59 51.85 53.58 55.60 58.11 59.08 59.89 60.89 61.27 61.29 59.95 59.08 59.06 60.03 60.84 62.82 65.22 68.01 69.11 69.07 69.53 69.44 69.66 69.72 69.45 69.25 68.70 67.89
47.49 48.79 49.32 49.87 50.23 51.16 50.84 50.75 50.53 50.10 50.98 48.99 51.67 51.93 51.09 51.84 49.28 48.34 52.65 54.28 56.76 57.03 58.71 60.23 61.11 61.39 61.09 60.18 58.93 58.18 59.36 61.53 65.31 67.43 68.53 68.44 69.01 69.86 69.54 69.68 69.39 68.99 68.17
44.59 45.31 47.25 47.93 47.45 47.61 48.71 48.73 48.00 47.96 48.23 48.19 47.16 47.87 48.92 48.92 49.58 46.60 46.32 47.43 49.81 53.73 56.89 59.14 60.00 60.75 61.04 60.00 59.05 58.16 58.21 60.85 64.00 65.81 66.96 68.34 68.64 68.90 69.75 69.47 69.38 68.74 68.40
42.87 42.68 43.42 44.02 44.92 46.36 46.09 45.85 44.72 45.05 44.83 46.00 45.42 45.49 44.73 45.94 45.10 44.83 44.10 44.40 45.02 48.55 49.43 51.42 57.98 59.36 60.31 60.45 59.38 57.78 57.97 59.56 62.46 64.71 65.34 67.22 67.65 67.39 68.25 69.11 69.02 68.33 68.01
39.96 40.49 41.35 41.06 40.65 41.90 42.73 44.92 44.37 43.68 43.52 42.04 42.43 42.71 43.41 45.37 44.31 44.29 45.35 42.30 42.78 45.15 49.71 49.10 56.05 57.69 54.32 55.56 57.94 56.22 56.18 58.20 60.52 63.20 64.38 65.95 65.94 65.42 65.63 66.04 68.19 68.13 67.76
39.92 39.88 40.01 40.28 40.17 40.19 41.23 41.61 42.74 41.80 43.08 43.00 42.05 41.79 41.59 42.57 42.89 43.42 39.78 39.07 38.81 43.20 46.02 47.56 52.13 50.18 49.38 50.21 52.48 52.13 56.71 56.73 58.20 61.08 63.31 63.94 63.18 62.77 63.04 63.83 64.07 65.53 66.30
36.23 34.59 34.44 34.37 34.77 35.52 37.49 37.17 37.39 35.26 36.71 37.39 39.76 39.04 38.77 41.40 42.34 40.77 40.02 40.20 40.52 36.84 38.65 45.58 44.78 47.14 46.94 49.17 49.01 51.44 51.43 53.68 57.17 58.37 59.64 60.01 59.34 59.70 60.82 61.77 62.09 62.45 62.63
32.13 32.09 31.97 32.07 32.23 32.35 33.15 32.86 32.78 33.21 32.65 33.32 34.90 34.82 36.14 38.12 39.61 39.34 38.44 39.66 39.49 37.37 36.10 40.94 40.21 42.73 44.12 44.60 47.20 48.66 50.26 50.78 52.82 57.33 57.97 57.39 57.47 58.20 58.57 59.78 60.15 60.54 60.81
30.20 30.13 30.30 30.38 30.24 30.15 30.47 30.85 31.13 31.81 31.25 30.94 31.24 31.70 32.42 33.65 35.97 36.89 37.68 39.02 37.73 38.28 34.49 36.20 38.59 40.05 40.95 42.35 44.38 45.78 48.87 50.06 50.25 51.42 53.20 56.44 57.30 57.68 58.07 57.92 58.33 59.07 59.64
29.49 29.39 29.50 29.55 29.59 29.92 29.46 29.61 29.87 30.44 30.03 29.63 29.85 30.04 30.10 32.44 32.29 32.93 33.50 34.74 36.78 37.57 36.41 33.03 35.45 36.79 37.59 40.30 40.78 42.40 45.98 48.00 45.76 48.24 51.03 52.34 53.37 55.59 56.33 56.60 56.67 57.14 57.35
28.49 28.58 28.64 28.43 28.86 29.46 28.90 28.83 29.53 29.70 29.71 29.52 29.45 28.78 28.95 29.65 29.40 30.72 31.84 33.36 33.03 36.55 34.13 32.80 31.93 35.25 37.44 38.43 38.00 40.60 40.00 40.86 42.62 44.67 49.60 50.94 51.58 52.02 52.59 54.44 55.87 55.77 55.21
28.07 27.97 28.04 28.42 28.87 28.82 29.30 29.90 30.58 29.86 29.19 29.58 29.66 29.26 28.95 29.22 29.43 30.04 31.62 30.99 32.81 32.15 31.91 30.81 30.88 31.79 34.22 36.03 37.82 36.80 35.88 38.25 38.23 41.84 45.11 45.78 46.46 47.49 50.57 51.89 52.30 51.46 51.76
27.62 27.25 27.45 27.79 27.78 28.65 31.05 31.12 30.88 29.88 28.89 28.52 28.46 28.95 29.83 31.88 33.93 34.04 32.42 31.71 31.45 30.90 30.26 29.64 28.85 29.82 30.40 31.69 32.70 34.75 33.70 34.70 35.52 42.37 37.89 38.43 40.13 42.87 47.05 48.72 49.33 49.79 50.56
26.27 26.46 26.35 26.43 26.25 29.73 34.09 36.09 34.42 29.19 28.46 27.91 26.30 27.57 28.43 31.61 31.61 34.26 35.47 36.21 35.08 30.96 30.78 30.68 27.84 27.88 28.52 30.87 31.41 32.15 31.77 30.09 28.54 37.87 33.95 34.09 38.09 40.05 41.84 44.26 47.90 48.99 49.57
25.01 25.12 25.48 25.69 25.41 25.62 34.28 35.11 35.38 27.80 27.16 26.51 27.70 27.70 28.20 30.50 31.02 28.73 32.36 34.57 33.39 35.17 35.07 31.93 28.61 27.77 28.57 30.25 31.08 29.48 28.49 29.76 29.44 32.50 33.76 31.45 36.28 37.67 42.16 44.73 46.39 46.59 48.09
24.59 24.73 24.75 25.09 24.40 26.44 32.88 34.20 34.94 27.34 26.46 26.87 27.50 26.41 26.14 26.85 28.50 30.72 29.56 28.28 28.55 29.05 29.86 31.57 30.32 30.48 30.51 31.39 31.43 33.26 30.49 29.11 31.07 32.71 33.69 29.27 33.75 33.04 37.02 40.96 43.53 45.47 46.21
23.64 24.00 25.45 23.93 22.98 24.62 31.39 32.99 32.21 27.33 27.72 26.69 26.93 27.10 27.88 27.09 31.61 34.00 29.90 28.39 27.96 28.55 33.14 34.79 35.29 36.05 36.36 36.61 36.02 33.05 27.28 26.05 25.92 27.56 30.63 31.26 31.55 33.05 35.04 37.15 40.62 43.32 44.44
25.73 26.13 25.98 23.98 25.96 23.50 29.30 32.21 31.65 27.13 25.91 26.09 26.02 27.31 31.28 30.45 32.97 33.72 30.94 28.88 27.53 28.04 28.38 28.66 28.76 30.64 32.50 31.50 35.06 30.95 29.00 24.43 25.89 24.13 30.62 29.38 29.61 29.41 27.88 33.92 36.14 39.06 40.16

GFSMA_sfc_wetblb_120.txt.gz
Wetbulb
61.07 62.42 63.74 64.75 65.35 65.88 64.45 64.45 65.02 65.75 65.85 65.67 66.15 65.40 64.86 64.70 64.38 64.71 64.05 63.62 65.62 67.14 68.00 68.51 68.61 69.93 69.98 69.80 69.34 68.97 68.93 68.17 67.33 67.30 66.87 66.32 65.96 65.50 65.17 65.07 64.77 64.50 64.52
58.93 60.82 61.03 62.22 63.66 64.54 65.20 64.75 65.11 65.17 65.93 65.35 65.14 65.23 65.32 64.57 64.73 64.79 64.49 63.65 64.53 65.72 67.01 68.08 68.55 68.48 69.62 69.94 69.79 69.32 69.23 69.04 68.41 67.17 66.58 67.47 67.17 66.45 66.21 66.14 65.67 65.15 64.85
56.73 58.74 60.46 60.88 61.55 62.49 62.62 63.72 63.20 64.43 63.58 64.32 64.18 64.80 65.06 65.27 64.68 63.55 64.07 64.09 64.05 63.52 64.62 66.48 67.59 68.53 68.93 69.37 70.13 69.84 69.61 69.12 68.98 68.85 68.24 68.06 67.47 67.36 66.91 66.19 66.14 65.78 65.46
57.27 57.73 59.18 60.23 61.37 61.78 62.19 61.66 60.40 60.32 61.75 61.88 61.82 62.31 62.79 63.97 64.04 62.83 63.01 63.68 64.26 64.25 63.95 65.03 66.54 67.43 68.32 69.05 69.19 70.36 70.28 69.49 68.94 68.98 68.81 68.44 68.10 67.73 67.88 67.71 67.24 66.85 65.95
57.96 58.42 59.79 59.91 60.38 60.69 60.85 60.67 60.19 59.38 58.20 58.50 59.40 59.77 59.80 60.50 61.33 62.88 61.98 62.13 62.09 62.43 62.38 62.93 63.61 64.44 65.97 68.38 69.81 70.18 70.54 69.64 69.18 68.95 69.02 68.69 68.38 68.35 68.20 68.29 67.93 67.81 66.47
55.66 56.56 58.28 58.87 59.99 60.69 59.91 59.74 58.71 59.45 59.21 59.41 59.28 59.05 58.60 58.65 59.02 59.19 60.28 61.42 61.23 61.24 61.08 60.53 60.93 61.55 62.77 65.68 67.61 69.92 70.49 69.66 69.45 69.34 69.12 69.19 68.93 68.73 68.62 68.57 68.40 67.85 67.28
53.30 53.93 55.59 55.90 57.01 56.40 55.91 55.42 57.44 58.15 57.48 58.00 57.74 55.86 56.16 57.55 57.49 57.95 58.10 58.56 59.33 60.46 60.66 61.12 60.55 60.42 60.91 63.76 65.58 67.53 69.55 70.21 70.07 69.07 68.99 69.30 69.13 69.19 69.10 68.98 68.80 68.54 67.65
50.31 51.24 51.83 52.74 52.94 54.20 52.98 52.87 53.26 54.66 56.12 55.07 54.00 54.86 51.65 52.90 53.97 55.42 56.76 57.80 57.86 59.08 59.84 60.39 60.39 60.33 59.98 60.31 60.36 63.87 66.20 67.95 68.93 69.48 68.96 68.64 69.03 69.33 69.69 69.56 69.17 68.89 68.60
48.01 48.75 48.73 49.22 50.27 51.02 50.77 50.51 50.52 50.23 52.22 53.30 53.15 53.44 50.29 49.33 50.22 52.67 53.23 55.05 56.67 57.32 58.70 59.91 60.55 60.78 59.90 59.21 59.75 60.54 61.95 64.25 66.49 68.03 69.17 68.72 68.54 68.84 69.30 69.86 69.60 69.34 68.63
44.46 46.10 47.38 47.79 47.39 48.24 47.70 47.79 49.19 48.79 49.39 47.76 51.35 50.97 50.84 50.67 48.71 47.76 52.05 50.91 49.97 49.55 50.96 52.19 55.59 58.78 60.39 60.70 59.17 57.98 58.87 60.60 64.03 65.63 66.86 68.75 68.53 68.57 68.97 69.60 69.65 69.53 68.85
42.64 43.09 43.35 43.64 45.09 46.34 46.40 45.47 45.47 44.99 46.31 46.10 45.23 45.86 48.02 48.72 49.26 45.66 44.52 46.69 48.33 49.29 48.98 48.26 49.63 51.76 57.31 53.67 54.19 54.35 52.06 55.84 63.13 64.47 65.60 66.46 68.06 68.82 68.79 68.67 69.22 69.17 68.88
40.34 40.36 41.66 40.57 40.90 41.39 43.20 45.29 43.60 42.76 42.81 43.40 43.07 42.18 42.86 44.50 43.77 42.20 42.26 43.36 44.22 44.88 45.40 48.04 52.38 50.28 50.39 49.44 51.43 50.56 52.04 53.97 58.10 62.46 64.61 65.85 66.63 67.69 68.28 68.42 68.20 68.39 68.50
37.31 38.02 39.24 38.64 39.13 40.77 41.21 42.28 42.95 41.75 42.68 42.37 41.70 41.36 41.68 42.90 42.36 41.63 41.73 38.80 37.35 40.56 44.64 45.88 49.20 48.03 47.17 46.81 49.09 48.31 51.13 51.74 54.12 57.72 61.85 64.70 64.90 64.71 64.80 66.69 67.46 67.49 67.69
33.80 33.91 34.00 34.83 35.37 36.46 36.93 37.04 36.80 35.89 37.11 37.02 38.63 38.57 39.72 40.65 41.15 42.17 38.37 36.01 33.29 37.19 39.36 42.01 47.18 43.23 44.00 43.50 45.16 46.33 48.56 49.67 52.06 55.05 56.62 60.91 61.89 61.87 62.52 63.63 64.73 65.25 65.54
34.35 32.15 32.21 32.04 32.23 32.64 33.70 33.52 33.12 31.94 32.35 32.77 32.77 33.54 34.75 37.01 38.08 39.23 38.10 37.38 35.84 33.47 31.72 37.14 37.39 40.48 40.24 42.94 44.14 45.07 45.66 47.69 50.96 51.29 51.87 52.68 53.91 58.01 59.70 60.88 62.17 62.72 63.13
30.57 30.43 30.35 30.45 30.64 30.77 31.46 31.40 31.39 31.80 30.98 31.24 32.12 30.84 31.44 33.23 35.04 37.01 36.50 36.41 37.41 34.20 30.53 36.05 36.71 37.55 38.42 40.17 42.66 42.51 42.63 46.76 48.23 47.28 48.88 51.32 53.05 54.01 57.66 58.82 59.77 60.51 61.12
29.08 29.20 29.23 29.35 29.25 29.19 29.13 29.72 29.95 30.78 30.31 30.02 30.19 30.09 30.16 30.98 32.23 32.74 33.63 34.41 35.92 35.62 32.61 34.31 35.32 35.66 35.58 37.17 39.72 40.25 43.72 42.24 43.02 44.42 46.54 51.09 49.81 50.51 52.55 55.19 57.83 58.75 59.66
28.65 28.37 28.50 28.53 28.53 28.81 28.44 27.82 28.60 29.35 29.20 28.90 29.03 28.95 28.75 31.02 29.37 30.48 31.35 31.51 33.47 33.02 33.92 30.60 32.04 32.16 32.39 35.79 37.29 37.34 40.63 41.44 40.94 42.11 44.40 47.75 46.63 46.49 47.25 51.83 53.12 57.13 57.84
27.51 27.46 27.58 27.45 27.81 28.28 27.85 27.73 28.87 28.93 28.91 28.81 28.53 27.60 27.79 28.14 27.74 28.76 29.62 30.28 31.04 33.07 32.48 30.88 30.20 31.80 31.90 33.26 33.99 35.67 36.24 36.99 38.42 39.07 43.91 42.51 42.65 42.93 43.80 48.38 49.88 50.89 52.39
26.92 26.67 27.01 27.42 27.87 27.71 28.10 28.47 29.57 29.15 28.57 28.97 28.85 28.10 27.85 27.96 28.15 28.40 29.92 29.34 31.46 30.26 30.30 29.73 29.33 30.12 30.32 31.68 32.72 31.64 31.34 34.17 34.02 36.14 39.64 38.26 39.54 40.16 41.91 43.93 44.17 47.58 48.79
26.74 26.32 26.50 26.73 26.75 27.60 30.13 30.05 30.28 29.33 28.13 27.66 27.99 27.55 28.78 31.06 33.87 33.49 31.44 29.78 29.61 28.98 28.99 29.31 30.26 29.75 28.97 28.86 28.89 30.97 30.58 31.72 32.07 36.00 33.71 34.31 35.69 36.70 38.74 42.24 43.95 45.99 48.07
25.59 25.65 25.49 25.51 25.46 28.70 32.82 35.97 34.05 27.46 27.25 27.17 25.82 26.74 27.35 31.07 30.44 34.21 34.17 35.33 34.35 29.27 28.10 27.74 28.56 27.73 27.57 28.08 29.54 29.60 29.47 28.53 27.32 32.28 31.27 31.88 35.57 34.54 37.38 40.11 42.09 41.90 44.58
24.61 24.35 24.59 24.70 24.52 24.68 32.56 34.84 35.29 27.26 26.94 26.09 27.41 27.38 27.75 29.91 30.51 27.78 31.32 34.08 33.10 34.57 34.06 30.16 27.42 27.20 27.51 29.10 29.70 29.18 29.99 30.61 28.94 30.83 30.49 28.72 32.91 32.91 36.17 38.54 40.76 43.18 44.44
24.38 24.05 24.10 24.28 23.59 25.42 32.25 33.63 34.43 27.64 26.44 26.55 27.16 25.84 25.45 26.26 27.83 29.76 28.52 28.04 28.21 28.80 29.22 30.35 28.77 29.00 29.20 31.48 32.31 32.54 31.66 30.57 28.90 29.12 29.74 26.01 31.26 31.90 33.93 35.56 41.27 42.88 42.36
23.62 23.41 25.16 24.29 22.65 23.18 30.47 32.44 31.84 27.79 27.68 26.44 26.72 26.14 26.21 26.62 31.03 33.74 29.74 28.00 27.33 28.21 32.40 34.31 34.61 35.02 35.20 35.01 33.88 30.31 28.15 26.99 25.41 25.75 27.66 30.49 30.54 28.84 30.34 31.58 38.90 37.32 38.48
26.20 26.98 26.64 24.50 25.72 23.72 28.48 31.76 31.55 27.45 25.74 26.01 25.71 26.74 31.60 30.81 33.22 33.68 30.78 29.50 28.07 27.68 27.79 28.29 27.83 29.35 30.20 29.49 33.05 29.35 27.63 25.55 25.79 24.03 27.00 24.27 26.17 26.93 25.31 29.94 30.83 32.23 32.86